<?xml version="1.0" encoding="UTF-8" standalone="no" ?>
<gpx xmlns="http://www.topografix.com/GPX/1/1" xmlns:xsi="http://www.w3.org/2001/XMLSchema-instance" xsi:schemaLocation="http://www.topografix.com/GPX/1/1 http://www.topografix.com/GPX/1/1/gpx.xsd" version="1.1" creator="VisuGPX - https://www.visugpx.com">
  <metadata>
    <name>Charroux </name>
    <desc><![CDATA[belle rando sous le soleil le 8 novembre 2015

Supoer ]]></desc>
  </metadata>
  <trk>
    <name><![CDATA[Charroux _1]]></name>
    <trkseg>
      <trkpt lat="46.18192" lon="3.15836">
        <ele>408.96246337891</ele>
        <time>2015-11-08T08:03:55.000Z</time>
      </trkpt>
      <trkpt lat="46.18191" lon="3.15823">
        <ele>409.02334594727</ele>
        <time>2015-11-08T08:04:17.000Z</time>
      </trkpt>
      <trkpt lat="46.18191" lon="3.15823">
        <ele>409.02334594727</ele>
        <time>2015-11-08T08:04:45.000Z</time>
      </trkpt>
      <trkpt lat="46.18193" lon="3.1582">
        <ele>409.05337524414</ele>
        <time>2015-11-08T08:05:26.000Z</time>
      </trkpt>
      <trkpt lat="46.18193" lon="3.15821">
        <ele>409.0654296875</ele>
        <time>2015-11-08T08:05:34.000Z</time>
      </trkpt>
      <trkpt lat="46.18189" lon="3.15835">
        <ele>409.04946899414</ele>
        <time>2015-11-08T08:05:42.000Z</time>
      </trkpt>
      <trkpt lat="46.1819" lon="3.15834">
        <ele>409.05459594727</ele>
        <time>2015-11-08T08:05:43.000Z</time>
      </trkpt>
      <trkpt lat="46.18192" lon="3.15831">
        <ele>409.04168701172</ele>
        <time>2015-11-08T08:05:44.000Z</time>
      </trkpt>
      <trkpt lat="46.18194" lon="3.15829">
        <ele>409.02560424805</ele>
        <time>2015-11-08T08:05:44.000Z</time>
      </trkpt>
      <trkpt lat="46.18195" lon="3.15828">
        <ele>409.01293945312</ele>
        <time>2015-11-08T08:05:44.000Z</time>
      </trkpt>
      <trkpt lat="46.18196" lon="3.15827">
        <ele>409.02597045898</ele>
        <time>2015-11-08T08:05:44.000Z</time>
      </trkpt>
      <trkpt lat="46.18199" lon="3.15824">
        <ele>409.04180908203</ele>
        <time>2015-11-08T08:05:45.000Z</time>
      </trkpt>
      <trkpt lat="46.182" lon="3.15824">
        <ele>409.05166625977</ele>
        <time>2015-11-08T08:05:45.000Z</time>
      </trkpt>
      <trkpt lat="46.18202" lon="3.15824">
        <ele>409.05752563477</ele>
        <time>2015-11-08T08:05:45.000Z</time>
      </trkpt>
      <trkpt lat="46.18203" lon="3.15826">
        <ele>409.05938720703</ele>
        <time>2015-11-08T08:05:45.000Z</time>
      </trkpt>
      <trkpt lat="46.18204" lon="3.15828">
        <ele>409.05618286133</ele>
        <time>2015-11-08T08:05:45.000Z</time>
      </trkpt>
      <trkpt lat="46.18206" lon="3.1583">
        <ele>409.04705810547</ele>
        <time>2015-11-08T08:05:46.000Z</time>
      </trkpt>
      <trkpt lat="46.18209" lon="3.15832">
        <ele>409.03427124023</ele>
        <time>2015-11-08T08:05:46.000Z</time>
      </trkpt>
      <trkpt lat="46.1821" lon="3.15833">
        <ele>409.02166748047</ele>
        <time>2015-11-08T08:05:46.000Z</time>
      </trkpt>
      <trkpt lat="46.18214" lon="3.15837">
        <ele>409.00430297852</ele>
        <time>2015-11-08T08:05:46.000Z</time>
      </trkpt>
      <trkpt lat="46.18216" lon="3.15839">
        <ele>408.98333740234</ele>
        <time>2015-11-08T08:05:46.000Z</time>
      </trkpt>
      <trkpt lat="46.18219" lon="3.15841">
        <ele>408.95953369141</ele>
        <time>2015-11-08T08:05:46.000Z</time>
      </trkpt>
      <trkpt lat="46.18222" lon="3.15845">
        <ele>408.93115234375</ele>
        <time>2015-11-08T08:05:46.000Z</time>
      </trkpt>
      <trkpt lat="46.18223" lon="3.15847">
        <ele>408.89907836914</ele>
        <time>2015-11-08T08:05:46.000Z</time>
      </trkpt>
      <trkpt lat="46.18225" lon="3.15849">
        <ele>408.86929321289</ele>
        <time>2015-11-08T08:05:47.000Z</time>
      </trkpt>
      <trkpt lat="46.18227" lon="3.15852">
        <ele>408.83740234375</ele>
        <time>2015-11-08T08:05:47.000Z</time>
      </trkpt>
      <trkpt lat="46.18229" lon="3.15855">
        <ele>408.80526733398</ele>
        <time>2015-11-08T08:05:47.000Z</time>
      </trkpt>
      <trkpt lat="46.1823" lon="3.15857">
        <ele>408.77529907227</ele>
        <time>2015-11-08T08:05:47.000Z</time>
      </trkpt>
      <trkpt lat="46.18231" lon="3.15858">
        <ele>408.74829101562</ele>
        <time>2015-11-08T08:05:47.000Z</time>
      </trkpt>
      <trkpt lat="46.18233" lon="3.15858">
        <ele>408.72650146484</ele>
        <time>2015-11-08T08:05:47.000Z</time>
      </trkpt>
      <trkpt lat="46.18236" lon="3.15857">
        <ele>408.71459960938</ele>
        <time>2015-11-08T08:05:48.000Z</time>
      </trkpt>
      <trkpt lat="46.18241" lon="3.15855">
        <ele>408.71453857422</ele>
        <time>2015-11-08T08:05:48.000Z</time>
      </trkpt>
      <trkpt lat="46.18245" lon="3.15853">
        <ele>408.72521972656</ele>
        <time>2015-11-08T08:05:48.000Z</time>
      </trkpt>
      <trkpt lat="46.18247" lon="3.15851">
        <ele>408.74188232422</ele>
        <time>2015-11-08T08:05:49.000Z</time>
      </trkpt>
      <trkpt lat="46.18249" lon="3.15849">
        <ele>408.76458740234</ele>
        <time>2015-11-08T08:05:49.000Z</time>
      </trkpt>
      <trkpt lat="46.18253" lon="3.15845">
        <ele>408.80218505859</ele>
        <time>2015-11-08T08:05:49.000Z</time>
      </trkpt>
      <trkpt lat="46.18255" lon="3.15844">
        <ele>408.84466552734</ele>
        <time>2015-11-08T08:05:49.000Z</time>
      </trkpt>
      <trkpt lat="46.18256" lon="3.15841">
        <ele>408.89022827148</ele>
        <time>2015-11-08T08:05:49.000Z</time>
      </trkpt>
      <trkpt lat="46.18259" lon="3.15839">
        <ele>408.94204711914</ele>
        <time>2015-11-08T08:05:49.000Z</time>
      </trkpt>
      <trkpt lat="46.18262" lon="3.15837">
        <ele>409.00283813477</ele>
        <time>2015-11-08T08:05:49.000Z</time>
      </trkpt>
      <trkpt lat="46.18265" lon="3.15835">
        <ele>409.05679321289</ele>
        <time>2015-11-08T08:05:50.000Z</time>
      </trkpt>
      <trkpt lat="46.18267" lon="3.15831">
        <ele>409.10565185547</ele>
        <time>2015-11-08T08:05:50.000Z</time>
      </trkpt>
      <trkpt lat="46.18271" lon="3.15828">
        <ele>409.15142822266</ele>
        <time>2015-11-08T08:05:50.000Z</time>
      </trkpt>
      <trkpt lat="46.18274" lon="3.15826">
        <ele>409.18841552734</ele>
        <time>2015-11-08T08:05:50.000Z</time>
      </trkpt>
      <trkpt lat="46.18275" lon="3.15824">
        <ele>409.21133422852</ele>
        <time>2015-11-08T08:05:51.000Z</time>
      </trkpt>
      <trkpt lat="46.18277" lon="3.15821">
        <ele>409.22393798828</ele>
        <time>2015-11-08T08:05:53.000Z</time>
      </trkpt>
      <trkpt lat="46.18279" lon="3.1582">
        <ele>409.23150634766</ele>
        <time>2015-11-08T08:05:55.000Z</time>
      </trkpt>
      <trkpt lat="46.18282" lon="3.15818">
        <ele>409.23422241211</ele>
        <time>2015-11-08T08:05:58.000Z</time>
      </trkpt>
      <trkpt lat="46.18283" lon="3.15816">
        <ele>409.23397827148</ele>
        <time>2015-11-08T08:06:00.000Z</time>
      </trkpt>
      <trkpt lat="46.18285" lon="3.15814">
        <ele>409.23196411133</ele>
        <time>2015-11-08T08:06:03.000Z</time>
      </trkpt>
      <trkpt lat="46.18287" lon="3.15814">
        <ele>409.23260498047</ele>
        <time>2015-11-08T08:06:05.000Z</time>
      </trkpt>
      <trkpt lat="46.18291" lon="3.15811">
        <ele>409.23049926758</ele>
        <time>2015-11-08T08:06:09.000Z</time>
      </trkpt>
      <trkpt lat="46.18294" lon="3.15811">
        <ele>409.23187255859</ele>
        <time>2015-11-08T08:06:11.000Z</time>
      </trkpt>
      <trkpt lat="46.18295" lon="3.15809">
        <ele>409.23049926758</ele>
        <time>2015-11-08T08:06:13.000Z</time>
      </trkpt>
      <trkpt lat="46.18296" lon="3.15807">
        <ele>409.22589111328</ele>
        <time>2015-11-08T08:06:15.000Z</time>
      </trkpt>
      <trkpt lat="46.18299" lon="3.15802">
        <ele>409.20892333984</ele>
        <time>2015-11-08T08:06:18.000Z</time>
      </trkpt>
      <trkpt lat="46.183" lon="3.15798">
        <ele>409.18338012695</ele>
        <time>2015-11-08T08:06:20.000Z</time>
      </trkpt>
      <trkpt lat="46.18303" lon="3.15796">
        <ele>409.14758300781</ele>
        <time>2015-11-08T08:06:23.000Z</time>
      </trkpt>
      <trkpt lat="46.18304" lon="3.15794">
        <ele>409.11114501953</ele>
        <time>2015-11-08T08:06:26.000Z</time>
      </trkpt>
      <trkpt lat="46.18307" lon="3.15795">
        <ele>409.08331298828</ele>
        <time>2015-11-08T08:06:29.000Z</time>
      </trkpt>
      <trkpt lat="46.18309" lon="3.15797">
        <ele>409.07162475586</ele>
        <time>2015-11-08T08:06:31.000Z</time>
      </trkpt>
      <trkpt lat="46.1831" lon="3.15801">
        <ele>409.0830078125</ele>
        <time>2015-11-08T08:06:34.000Z</time>
      </trkpt>
      <trkpt lat="46.18312" lon="3.15803">
        <ele>409.10922241211</ele>
        <time>2015-11-08T08:06:36.000Z</time>
      </trkpt>
      <trkpt lat="46.18314" lon="3.15807">
        <ele>409.1565246582</ele>
        <time>2015-11-08T08:06:39.000Z</time>
      </trkpt>
      <trkpt lat="46.18316" lon="3.1581">
        <ele>409.21270751953</ele>
        <time>2015-11-08T08:06:41.000Z</time>
      </trkpt>
      <trkpt lat="46.18318" lon="3.15813">
        <ele>409.27801513672</ele>
        <time>2015-11-08T08:06:43.000Z</time>
      </trkpt>
      <trkpt lat="46.18321" lon="3.15816">
        <ele>409.34707641602</ele>
        <time>2015-11-08T08:06:45.000Z</time>
      </trkpt>
      <trkpt lat="46.18323" lon="3.15819">
        <ele>409.42147827148</ele>
        <time>2015-11-08T08:06:47.000Z</time>
      </trkpt>
      <trkpt lat="46.18326" lon="3.15822">
        <ele>409.49990844727</ele>
        <time>2015-11-08T08:06:50.000Z</time>
      </trkpt>
      <trkpt lat="46.18327" lon="3.15824">
        <ele>409.57342529297</ele>
        <time>2015-11-08T08:06:53.000Z</time>
      </trkpt>
      <trkpt lat="46.18329" lon="3.15827">
        <ele>409.65274047852</ele>
        <time>2015-11-08T08:06:55.000Z</time>
      </trkpt>
      <trkpt lat="46.18331" lon="3.1583">
        <ele>409.73309326172</ele>
        <time>2015-11-08T08:06:57.000Z</time>
      </trkpt>
      <trkpt lat="46.18335" lon="3.15834">
        <ele>409.81625366211</ele>
        <time>2015-11-08T08:07:00.000Z</time>
      </trkpt>
      <trkpt lat="46.18337" lon="3.15838">
        <ele>409.87713623047</ele>
        <time>2015-11-08T08:07:03.000Z</time>
      </trkpt>
      <trkpt lat="46.18339" lon="3.15841">
        <ele>409.93096923828</ele>
        <time>2015-11-08T08:07:06.000Z</time>
      </trkpt>
      <trkpt lat="46.18341" lon="3.15844">
        <ele>409.96328735352</ele>
        <time>2015-11-08T08:07:08.000Z</time>
      </trkpt>
      <trkpt lat="46.18343" lon="3.15848">
        <ele>409.98080444336</ele>
        <time>2015-11-08T08:07:10.000Z</time>
      </trkpt>
      <trkpt lat="46.18344" lon="3.1585">
        <ele>409.98187255859</ele>
        <time>2015-11-08T08:07:12.000Z</time>
      </trkpt>
      <trkpt lat="46.18346" lon="3.15853">
        <ele>409.98809814453</ele>
        <time>2015-11-08T08:07:15.000Z</time>
      </trkpt>
      <trkpt lat="46.18348" lon="3.15858">
        <ele>410.00057983398</ele>
        <time>2015-11-08T08:07:17.000Z</time>
      </trkpt>
      <trkpt lat="46.1835" lon="3.15862">
        <ele>410.02059936523</ele>
        <time>2015-11-08T08:07:20.000Z</time>
      </trkpt>
      <trkpt lat="46.18352" lon="3.15865">
        <ele>410.04287719727</ele>
        <time>2015-11-08T08:07:23.000Z</time>
      </trkpt>
      <trkpt lat="46.18354" lon="3.15869">
        <ele>410.07339477539</ele>
        <time>2015-11-08T08:07:25.000Z</time>
      </trkpt>
      <trkpt lat="46.18357" lon="3.15873">
        <ele>410.10833740234</ele>
        <time>2015-11-08T08:07:29.000Z</time>
      </trkpt>
      <trkpt lat="46.18358" lon="3.15875">
        <ele>410.14080810547</ele>
        <time>2015-11-08T08:07:31.000Z</time>
      </trkpt>
      <trkpt lat="46.1836" lon="3.15878">
        <ele>410.17163085938</ele>
        <time>2015-11-08T08:07:33.000Z</time>
      </trkpt>
      <trkpt lat="46.18362" lon="3.1588">
        <ele>410.20501708984</ele>
        <time>2015-11-08T08:07:36.000Z</time>
      </trkpt>
      <trkpt lat="46.18365" lon="3.15885">
        <ele>410.24227905273</ele>
        <time>2015-11-08T08:07:39.000Z</time>
      </trkpt>
      <trkpt lat="46.18368" lon="3.15889">
        <ele>410.28646850586</ele>
        <time>2015-11-08T08:07:41.000Z</time>
      </trkpt>
      <trkpt lat="46.18369" lon="3.15892">
        <ele>410.33529663086</ele>
        <time>2015-11-08T08:07:43.000Z</time>
      </trkpt>
      <trkpt lat="46.18371" lon="3.15894">
        <ele>410.38491821289</ele>
        <time>2015-11-08T08:07:45.000Z</time>
      </trkpt>
      <trkpt lat="46.18372" lon="3.15897">
        <ele>410.43759155273</ele>
        <time>2015-11-08T08:07:49.000Z</time>
      </trkpt>
      <trkpt lat="46.18376" lon="3.159">
        <ele>410.49130249023</ele>
        <time>2015-11-08T08:07:52.000Z</time>
      </trkpt>
      <trkpt lat="46.18379" lon="3.15905">
        <ele>410.55093383789</ele>
        <time>2015-11-08T08:07:55.000Z</time>
      </trkpt>
      <trkpt lat="46.18382" lon="3.15909">
        <ele>410.62191772461</ele>
        <time>2015-11-08T08:07:57.000Z</time>
      </trkpt>
      <trkpt lat="46.18384" lon="3.15912">
        <ele>410.70233154297</ele>
        <time>2015-11-08T08:08:00.000Z</time>
      </trkpt>
      <trkpt lat="46.18385" lon="3.15915">
        <ele>410.78643798828</ele>
        <time>2015-11-08T08:08:02.000Z</time>
      </trkpt>
      <trkpt lat="46.18386" lon="3.15919">
        <ele>410.86273193359</ele>
        <time>2015-11-08T08:08:06.000Z</time>
      </trkpt>
      <trkpt lat="46.18388" lon="3.15921">
        <ele>410.91244506836</ele>
        <time>2015-11-08T08:08:08.000Z</time>
      </trkpt>
      <trkpt lat="46.18389" lon="3.15924">
        <ele>410.93399047852</ele>
        <time>2015-11-08T08:08:11.000Z</time>
      </trkpt>
      <trkpt lat="46.18391" lon="3.15927">
        <ele>410.93280029297</ele>
        <time>2015-11-08T08:08:13.000Z</time>
      </trkpt>
      <trkpt lat="46.18394" lon="3.1593">
        <ele>410.91070556641</ele>
        <time>2015-11-08T08:08:16.000Z</time>
      </trkpt>
      <trkpt lat="46.18395" lon="3.15931">
        <ele>410.87969970703</ele>
        <time>2015-11-08T08:08:19.000Z</time>
      </trkpt>
      <trkpt lat="46.18397" lon="3.15934">
        <ele>410.84735107422</ele>
        <time>2015-11-08T08:08:21.000Z</time>
      </trkpt>
      <trkpt lat="46.18398" lon="3.15938">
        <ele>410.81414794922</ele>
        <time>2015-11-08T08:08:23.000Z</time>
      </trkpt>
      <trkpt lat="46.18401" lon="3.15942">
        <ele>410.77801513672</ele>
        <time>2015-11-08T08:08:25.000Z</time>
      </trkpt>
      <trkpt lat="46.18404" lon="3.15946">
        <ele>410.73959350586</ele>
        <time>2015-11-08T08:08:28.000Z</time>
      </trkpt>
      <trkpt lat="46.18406" lon="3.15949">
        <ele>410.69848632812</ele>
        <time>2015-11-08T08:08:30.000Z</time>
      </trkpt>
      <trkpt lat="46.18407" lon="3.15951">
        <ele>410.65795898438</ele>
        <time>2015-11-08T08:08:33.000Z</time>
      </trkpt>
      <trkpt lat="46.18409" lon="3.15955">
        <ele>410.61676025391</ele>
        <time>2015-11-08T08:08:35.000Z</time>
      </trkpt>
      <trkpt lat="46.18409" lon="3.15956">
        <ele>410.58258056641</ele>
        <time>2015-11-08T08:08:37.000Z</time>
      </trkpt>
      <trkpt lat="46.18412" lon="3.15963">
        <ele>410.5419921875</ele>
        <time>2015-11-08T08:08:40.000Z</time>
      </trkpt>
      <trkpt lat="46.18412" lon="3.15966">
        <ele>410.50018310547</ele>
        <time>2015-11-08T08:08:43.000Z</time>
      </trkpt>
      <trkpt lat="46.18413" lon="3.15972">
        <ele>410.45156860352</ele>
        <time>2015-11-08T08:08:46.000Z</time>
      </trkpt>
      <trkpt lat="46.18415" lon="3.15974">
        <ele>410.40567016602</ele>
        <time>2015-11-08T08:08:47.000Z</time>
      </trkpt>
      <trkpt lat="46.18415" lon="3.15976">
        <ele>410.35903930664</ele>
        <time>2015-11-08T08:08:49.000Z</time>
      </trkpt>
      <trkpt lat="46.18417" lon="3.1598">
        <ele>410.31771850586</ele>
        <time>2015-11-08T08:08:52.000Z</time>
      </trkpt>
      <trkpt lat="46.18419" lon="3.15983">
        <ele>410.26922607422</ele>
        <time>2015-11-08T08:08:54.000Z</time>
      </trkpt>
      <trkpt lat="46.18421" lon="3.15986">
        <ele>410.220703125</ele>
        <time>2015-11-08T08:08:56.000Z</time>
      </trkpt>
      <trkpt lat="46.18423" lon="3.15989">
        <ele>410.16439819336</ele>
        <time>2015-11-08T08:08:59.000Z</time>
      </trkpt>
      <trkpt lat="46.18425" lon="3.15994">
        <ele>410.09725952148</ele>
        <time>2015-11-08T08:09:01.000Z</time>
      </trkpt>
      <trkpt lat="46.18426" lon="3.15997">
        <ele>410.03192138672</ele>
        <time>2015-11-08T08:09:04.000Z</time>
      </trkpt>
      <trkpt lat="46.18427" lon="3.16">
        <ele>409.974609375</ele>
        <time>2015-11-08T08:09:07.000Z</time>
      </trkpt>
      <trkpt lat="46.18428" lon="3.16002">
        <ele>409.92349243164</ele>
        <time>2015-11-08T08:09:08.000Z</time>
      </trkpt>
      <trkpt lat="46.18429" lon="3.16005">
        <ele>409.87896728516</ele>
        <time>2015-11-08T08:09:10.000Z</time>
      </trkpt>
      <trkpt lat="46.1843" lon="3.16007">
        <ele>409.84091186523</ele>
        <time>2015-11-08T08:09:12.000Z</time>
      </trkpt>
      <trkpt lat="46.18433" lon="3.16012">
        <ele>409.79669189453</ele>
        <time>2015-11-08T08:09:16.000Z</time>
      </trkpt>
      <trkpt lat="46.18435" lon="3.16017">
        <ele>409.74505615234</ele>
        <time>2015-11-08T08:09:19.000Z</time>
      </trkpt>
      <trkpt lat="46.18437" lon="3.16021">
        <ele>409.68927001953</ele>
        <time>2015-11-08T08:09:22.000Z</time>
      </trkpt>
      <trkpt lat="46.18439" lon="3.16025">
        <ele>409.62979125977</ele>
        <time>2015-11-08T08:09:24.000Z</time>
      </trkpt>
      <trkpt lat="46.18441" lon="3.16028">
        <ele>409.57025146484</ele>
        <time>2015-11-08T08:09:27.000Z</time>
      </trkpt>
      <trkpt lat="46.18446" lon="3.16032">
        <ele>409.51190185547</ele>
        <time>2015-11-08T08:09:29.000Z</time>
      </trkpt>
      <trkpt lat="46.18447" lon="3.16034">
        <ele>409.46282958984</ele>
        <time>2015-11-08T08:09:31.000Z</time>
      </trkpt>
      <trkpt lat="46.18448" lon="3.16037">
        <ele>409.41925048828</ele>
        <time>2015-11-08T08:09:33.000Z</time>
      </trkpt>
      <trkpt lat="46.1845" lon="3.1604">
        <ele>409.37997436523</ele>
        <time>2015-11-08T08:09:36.000Z</time>
      </trkpt>
      <trkpt lat="46.18452" lon="3.16048">
        <ele>409.33569335938</ele>
        <time>2015-11-08T08:09:40.000Z</time>
      </trkpt>
      <trkpt lat="46.18452" lon="3.16051">
        <ele>409.30001831055</ele>
        <time>2015-11-08T08:09:41.000Z</time>
      </trkpt>
      <trkpt lat="46.18453" lon="3.16054">
        <ele>409.26470947266</ele>
        <time>2015-11-08T08:09:43.000Z</time>
      </trkpt>
      <trkpt lat="46.18454" lon="3.16059">
        <ele>409.22833251953</ele>
        <time>2015-11-08T08:09:46.000Z</time>
      </trkpt>
      <trkpt lat="46.18455" lon="3.16062">
        <ele>409.19329833984</ele>
        <time>2015-11-08T08:09:49.000Z</time>
      </trkpt>
      <trkpt lat="46.18455" lon="3.16067">
        <ele>409.16497802734</ele>
        <time>2015-11-08T08:09:52.000Z</time>
      </trkpt>
      <trkpt lat="46.18455" lon="3.16072">
        <ele>409.13534545898</ele>
        <time>2015-11-08T08:09:54.000Z</time>
      </trkpt>
      <trkpt lat="46.18456" lon="3.16075">
        <ele>409.10589599609</ele>
        <time>2015-11-08T08:09:57.000Z</time>
      </trkpt>
      <trkpt lat="46.18457" lon="3.1608">
        <ele>409.07788085938</ele>
        <time>2015-11-08T08:09:59.000Z</time>
      </trkpt>
      <trkpt lat="46.18457" lon="3.16083">
        <ele>409.05096435547</ele>
        <time>2015-11-08T08:10:01.000Z</time>
      </trkpt>
      <trkpt lat="46.18456" lon="3.16087">
        <ele>409.03024291992</ele>
        <time>2015-11-08T08:10:04.000Z</time>
      </trkpt>
      <trkpt lat="46.18456" lon="3.1609">
        <ele>409.01544189453</ele>
        <time>2015-11-08T08:10:07.000Z</time>
      </trkpt>
      <trkpt lat="46.18456" lon="3.16095">
        <ele>409.00509643555</ele>
        <time>2015-11-08T08:10:09.000Z</time>
      </trkpt>
      <trkpt lat="46.18456" lon="3.16098">
        <ele>409.00045776367</ele>
        <time>2015-11-08T08:10:11.000Z</time>
      </trkpt>
      <trkpt lat="46.18456" lon="3.16102">
        <ele>409</ele>
        <time>2015-11-08T08:10:13.000Z</time>
      </trkpt>
      <trkpt lat="46.18455" lon="3.16105">
        <ele>409</ele>
        <time>2015-11-08T08:10:16.000Z</time>
      </trkpt>
      <trkpt lat="46.18454" lon="3.16111">
        <ele>409</ele>
        <time>2015-11-08T08:10:18.000Z</time>
      </trkpt>
      <trkpt lat="46.18455" lon="3.16117">
        <ele>409</ele>
        <time>2015-11-08T08:10:21.000Z</time>
      </trkpt>
      <trkpt lat="46.18456" lon="3.1612">
        <ele>409</ele>
        <time>2015-11-08T08:10:23.000Z</time>
      </trkpt>
      <trkpt lat="46.18456" lon="3.16126">
        <ele>409</ele>
        <time>2015-11-08T08:10:26.000Z</time>
      </trkpt>
      <trkpt lat="46.18457" lon="3.16131">
        <ele>409</ele>
        <time>2015-11-08T08:10:29.000Z</time>
      </trkpt>
      <trkpt lat="46.18457" lon="3.16136">
        <ele>409</ele>
        <time>2015-11-08T08:10:33.000Z</time>
      </trkpt>
      <trkpt lat="46.18459" lon="3.1614">
        <ele>409</ele>
        <time>2015-11-08T08:10:36.000Z</time>
      </trkpt>
      <trkpt lat="46.1846" lon="3.16145">
        <ele>409</ele>
        <time>2015-11-08T08:10:38.000Z</time>
      </trkpt>
      <trkpt lat="46.1846" lon="3.16148">
        <ele>409</ele>
        <time>2015-11-08T08:10:41.000Z</time>
      </trkpt>
      <trkpt lat="46.18461" lon="3.16153">
        <ele>409</ele>
        <time>2015-11-08T08:10:44.000Z</time>
      </trkpt>
      <trkpt lat="46.18461" lon="3.16156">
        <ele>409</ele>
        <time>2015-11-08T08:10:46.000Z</time>
      </trkpt>
      <trkpt lat="46.18462" lon="3.16162">
        <ele>409</ele>
        <time>2015-11-08T08:10:49.000Z</time>
      </trkpt>
      <trkpt lat="46.18462" lon="3.16164">
        <ele>409</ele>
        <time>2015-11-08T08:10:52.000Z</time>
      </trkpt>
      <trkpt lat="46.18464" lon="3.1617">
        <ele>408.97698974609</ele>
        <time>2015-11-08T08:10:54.000Z</time>
      </trkpt>
      <trkpt lat="46.18465" lon="3.16174">
        <ele>408.93328857422</ele>
        <time>2015-11-08T08:10:56.000Z</time>
      </trkpt>
      <trkpt lat="46.18465" lon="3.16176">
        <ele>408.87249755859</ele>
        <time>2015-11-08T08:10:59.000Z</time>
      </trkpt>
      <trkpt lat="46.18466" lon="3.1618">
        <ele>408.78759765625</ele>
        <time>2015-11-08T08:11:02.000Z</time>
      </trkpt>
      <trkpt lat="46.18467" lon="3.16184">
        <ele>408.67633056641</ele>
        <time>2015-11-08T08:11:04.000Z</time>
      </trkpt>
      <trkpt lat="46.18467" lon="3.16188">
        <ele>408.56646728516</ele>
        <time>2015-11-08T08:11:07.000Z</time>
      </trkpt>
      <trkpt lat="46.18469" lon="3.16193">
        <ele>408.44271850586</ele>
        <time>2015-11-08T08:11:09.000Z</time>
      </trkpt>
      <trkpt lat="46.1847" lon="3.16196">
        <ele>408.31646728516</ele>
        <time>2015-11-08T08:11:12.000Z</time>
      </trkpt>
      <trkpt lat="46.18472" lon="3.16201">
        <ele>408.18060302734</ele>
        <time>2015-11-08T08:11:14.000Z</time>
      </trkpt>
      <trkpt lat="46.18472" lon="3.16203">
        <ele>408.05624389648</ele>
        <time>2015-11-08T08:11:17.000Z</time>
      </trkpt>
      <trkpt lat="46.18473" lon="3.16208">
        <ele>407.92691040039</ele>
        <time>2015-11-08T08:11:19.000Z</time>
      </trkpt>
      <trkpt lat="46.18472" lon="3.16211">
        <ele>407.80938720703</ele>
        <time>2015-11-08T08:11:22.000Z</time>
      </trkpt>
      <trkpt lat="46.18474" lon="3.16215">
        <ele>407.68475341797</ele>
        <time>2015-11-08T08:11:25.000Z</time>
      </trkpt>
      <trkpt lat="46.18476" lon="3.16219">
        <ele>407.56439208984</ele>
        <time>2015-11-08T08:11:27.000Z</time>
      </trkpt>
      <trkpt lat="46.18478" lon="3.16222">
        <ele>407.43438720703</ele>
        <time>2015-11-08T08:11:30.000Z</time>
      </trkpt>
      <trkpt lat="46.18479" lon="3.16224">
        <ele>407.32153320312</ele>
        <time>2015-11-08T08:11:32.000Z</time>
      </trkpt>
      <trkpt lat="46.18481" lon="3.16229">
        <ele>407.19366455078</ele>
        <time>2015-11-08T08:11:36.000Z</time>
      </trkpt>
      <trkpt lat="46.18481" lon="3.1623">
        <ele>407.08447265625</ele>
        <time>2015-11-08T08:11:39.000Z</time>
      </trkpt>
      <trkpt lat="46.18483" lon="3.16231">
        <ele>406.99221801758</ele>
        <time>2015-11-08T08:11:42.000Z</time>
      </trkpt>
      <trkpt lat="46.18484" lon="3.16233">
        <ele>406.91275024414</ele>
        <time>2015-11-08T08:11:44.000Z</time>
      </trkpt>
      <trkpt lat="46.18486" lon="3.16234">
        <ele>406.82830810547</ele>
        <time>2015-11-08T08:11:47.000Z</time>
      </trkpt>
      <trkpt lat="46.18489" lon="3.16237">
        <ele>406.75979614258</ele>
        <time>2015-11-08T08:11:49.000Z</time>
      </trkpt>
      <trkpt lat="46.18491" lon="3.16238">
        <ele>406.68197631836</ele>
        <time>2015-11-08T08:11:51.000Z</time>
      </trkpt>
      <trkpt lat="46.18494" lon="3.16239">
        <ele>406.60522460938</ele>
        <time>2015-11-08T08:11:53.000Z</time>
      </trkpt>
      <trkpt lat="46.18497" lon="3.1624">
        <ele>406.53155517578</ele>
        <time>2015-11-08T08:11:56.000Z</time>
      </trkpt>
      <trkpt lat="46.18499" lon="3.1624">
        <ele>406.46759033203</ele>
        <time>2015-11-08T08:11:58.000Z</time>
      </trkpt>
      <trkpt lat="46.18502" lon="3.1624">
        <ele>406.41781616211</ele>
        <time>2015-11-08T08:12:02.000Z</time>
      </trkpt>
      <trkpt lat="46.18503" lon="3.1624">
        <ele>406.38824462891</ele>
        <time>2015-11-08T08:12:04.000Z</time>
      </trkpt>
      <trkpt lat="46.18504" lon="3.16239">
        <ele>406.37322998047</ele>
        <time>2015-11-08T08:12:09.000Z</time>
      </trkpt>
      <trkpt lat="46.18503" lon="3.1624">
        <ele>406.36578369141</ele>
        <time>2015-11-08T08:12:27.000Z</time>
      </trkpt>
      <trkpt lat="46.18502" lon="3.16239">
        <ele>406.3694152832</ele>
        <time>2015-11-08T08:12:31.000Z</time>
      </trkpt>
      <trkpt lat="46.18501" lon="3.1624">
        <ele>406.37338256836</ele>
        <time>2015-11-08T08:12:49.000Z</time>
      </trkpt>
      <trkpt lat="46.18501" lon="3.16239">
        <ele>406.38302612305</ele>
        <time>2015-11-08T08:13:07.000Z</time>
      </trkpt>
      <trkpt lat="46.185" lon="3.16239">
        <ele>406.38983154297</ele>
        <time>2015-11-08T08:13:13.000Z</time>
      </trkpt>
      <trkpt lat="46.18498" lon="3.16239">
        <ele>406.40209960938</ele>
        <time>2015-11-08T08:13:15.000Z</time>
      </trkpt>
      <trkpt lat="46.18497" lon="3.16239">
        <ele>406.40509033203</ele>
        <time>2015-11-08T08:13:16.000Z</time>
      </trkpt>
      <trkpt lat="46.18494" lon="3.1624">
        <ele>406.41876220703</ele>
        <time>2015-11-08T08:13:19.000Z</time>
      </trkpt>
      <trkpt lat="46.18491" lon="3.16238">
        <ele>406.44183349609</ele>
        <time>2015-11-08T08:13:23.000Z</time>
      </trkpt>
      <trkpt lat="46.18489" lon="3.16237">
        <ele>406.47576904297</ele>
        <time>2015-11-08T08:13:24.000Z</time>
      </trkpt>
      <trkpt lat="46.18488" lon="3.16237">
        <ele>406.51025390625</ele>
        <time>2015-11-08T08:13:27.000Z</time>
      </trkpt>
      <trkpt lat="46.18486" lon="3.16235">
        <ele>406.56365966797</ele>
        <time>2015-11-08T08:13:30.000Z</time>
      </trkpt>
      <trkpt lat="46.18484" lon="3.16233">
        <ele>406.63128662109</ele>
        <time>2015-11-08T08:13:33.000Z</time>
      </trkpt>
      <trkpt lat="46.18483" lon="3.16232">
        <ele>406.68826293945</ele>
        <time>2015-11-08T08:13:37.000Z</time>
      </trkpt>
      <trkpt lat="46.18482" lon="3.16229">
        <ele>406.75799560547</ele>
        <time>2015-11-08T08:13:47.000Z</time>
      </trkpt>
      <trkpt lat="46.18482" lon="3.16227">
        <ele>406.83755493164</ele>
        <time>2015-11-08T08:13:54.000Z</time>
      </trkpt>
      <trkpt lat="46.18481" lon="3.16226">
        <ele>406.90588378906</ele>
        <time>2015-11-08T08:14:11.000Z</time>
      </trkpt>
      <trkpt lat="46.1848" lon="3.16228">
        <ele>406.94815063477</ele>
        <time>2015-11-08T08:14:18.000Z</time>
      </trkpt>
      <trkpt lat="46.18479" lon="3.16229">
        <ele>406.97622680664</ele>
        <time>2015-11-08T08:14:29.000Z</time>
      </trkpt>
      <trkpt lat="46.18477" lon="3.16228">
        <ele>406.99008178711</ele>
        <time>2015-11-08T08:14:33.000Z</time>
      </trkpt>
      <trkpt lat="46.18479" lon="3.16228">
        <ele>406.98931884766</ele>
        <time>2015-11-08T08:14:45.000Z</time>
      </trkpt>
      <trkpt lat="46.18481" lon="3.16227">
        <ele>406.98120117188</ele>
        <time>2015-11-08T08:14:48.000Z</time>
      </trkpt>
      <trkpt lat="46.18481" lon="3.16228">
        <ele>406.97500610352</ele>
        <time>2015-11-08T08:14:53.000Z</time>
      </trkpt>
      <trkpt lat="46.18482" lon="3.16229">
        <ele>406.96856689453</ele>
        <time>2015-11-08T08:15:02.000Z</time>
      </trkpt>
      <trkpt lat="46.18484" lon="3.16233">
        <ele>406.92181396484</ele>
        <time>2015-11-08T08:15:05.000Z</time>
      </trkpt>
      <trkpt lat="46.18486" lon="3.16236">
        <ele>406.85388183594</ele>
        <time>2015-11-08T08:15:08.000Z</time>
      </trkpt>
      <trkpt lat="46.18486" lon="3.16237">
        <ele>406.77886962891</ele>
        <time>2015-11-08T08:15:11.000Z</time>
      </trkpt>
      <trkpt lat="46.18488" lon="3.16238">
        <ele>406.6994934082</ele>
        <time>2015-11-08T08:15:12.000Z</time>
      </trkpt>
      <trkpt lat="46.18489" lon="3.16241">
        <ele>406.60415649414</ele>
        <time>2015-11-08T08:15:15.000Z</time>
      </trkpt>
      <trkpt lat="46.18491" lon="3.16242">
        <ele>406.53051757812</ele>
        <time>2015-11-08T08:15:19.000Z</time>
      </trkpt>
      <trkpt lat="46.18492" lon="3.16241">
        <ele>406.47845458984</ele>
        <time>2015-11-08T08:15:21.000Z</time>
      </trkpt>
      <trkpt lat="46.18494" lon="3.16241">
        <ele>406.43334960938</ele>
        <time>2015-11-08T08:15:23.000Z</time>
      </trkpt>
      <trkpt lat="46.18496" lon="3.16241">
        <ele>406.39559936523</ele>
        <time>2015-11-08T08:15:26.000Z</time>
      </trkpt>
      <trkpt lat="46.18499" lon="3.1624">
        <ele>406.37908935547</ele>
        <time>2015-11-08T08:15:29.000Z</time>
      </trkpt>
      <trkpt lat="46.18501" lon="3.1624">
        <ele>406.36926269531</ele>
        <time>2015-11-08T08:15:31.000Z</time>
      </trkpt>
      <trkpt lat="46.18504" lon="3.1624">
        <ele>406.36117553711</ele>
        <time>2015-11-08T08:15:33.000Z</time>
      </trkpt>
      <trkpt lat="46.18506" lon="3.1624">
        <ele>406.35409545898</ele>
        <time>2015-11-08T08:15:36.000Z</time>
      </trkpt>
      <trkpt lat="46.18509" lon="3.1624">
        <ele>406.34915161133</ele>
        <time>2015-11-08T08:15:38.000Z</time>
      </trkpt>
      <trkpt lat="46.18512" lon="3.1624">
        <ele>406.34558105469</ele>
        <time>2015-11-08T08:15:41.000Z</time>
      </trkpt>
      <trkpt lat="46.18513" lon="3.16241">
        <ele>406.33901977539</ele>
        <time>2015-11-08T08:15:44.000Z</time>
      </trkpt>
      <trkpt lat="46.18515" lon="3.16242">
        <ele>406.32122802734</ele>
        <time>2015-11-08T08:15:47.000Z</time>
      </trkpt>
      <trkpt lat="46.18518" lon="3.16243">
        <ele>406.30172729492</ele>
        <time>2015-11-08T08:15:49.000Z</time>
      </trkpt>
      <trkpt lat="46.18517" lon="3.16246">
        <ele>406.25921630859</ele>
        <time>2015-11-08T08:15:59.000Z</time>
      </trkpt>
      <trkpt lat="46.1852" lon="3.16247">
        <ele>406.21002197266</ele>
        <time>2015-11-08T08:16:02.000Z</time>
      </trkpt>
      <trkpt lat="46.18522" lon="3.16247">
        <ele>406.16546630859</ele>
        <time>2015-11-08T08:16:05.000Z</time>
      </trkpt>
      <trkpt lat="46.18525" lon="3.16247">
        <ele>406.13153076172</ele>
        <time>2015-11-08T08:16:07.000Z</time>
      </trkpt>
      <trkpt lat="46.18528" lon="3.16248">
        <ele>406.09454345703</ele>
        <time>2015-11-08T08:16:10.000Z</time>
      </trkpt>
      <trkpt lat="46.18531" lon="3.16248">
        <ele>406.07934570312</ele>
        <time>2015-11-08T08:16:13.000Z</time>
      </trkpt>
      <trkpt lat="46.18534" lon="3.1625">
        <ele>406.06396484375</ele>
        <time>2015-11-08T08:16:16.000Z</time>
      </trkpt>
      <trkpt lat="46.18537" lon="3.16249">
        <ele>406.05187988281</ele>
        <time>2015-11-08T08:16:19.000Z</time>
      </trkpt>
      <trkpt lat="46.18541" lon="3.1625">
        <ele>406.03198242188</ele>
        <time>2015-11-08T08:16:22.000Z</time>
      </trkpt>
      <trkpt lat="46.18543" lon="3.16252">
        <ele>406.013671875</ele>
        <time>2015-11-08T08:16:31.000Z</time>
      </trkpt>
      <trkpt lat="46.18545" lon="3.16256">
        <ele>405.98803710938</ele>
        <time>2015-11-08T08:16:33.000Z</time>
      </trkpt>
      <trkpt lat="46.18549" lon="3.1626">
        <ele>405.95779418945</ele>
        <time>2015-11-08T08:16:33.000Z</time>
      </trkpt>
      <trkpt lat="46.1855" lon="3.16262">
        <ele>405.91592407227</ele>
        <time>2015-11-08T08:16:33.000Z</time>
      </trkpt>
      <trkpt lat="46.18551" lon="3.16266">
        <ele>405.86831665039</ele>
        <time>2015-11-08T08:16:34.000Z</time>
      </trkpt>
      <trkpt lat="46.18552" lon="3.16269">
        <ele>405.81616210938</ele>
        <time>2015-11-08T08:16:36.000Z</time>
      </trkpt>
      <trkpt lat="46.18554" lon="3.16274">
        <ele>405.75653076172</ele>
        <time>2015-11-08T08:16:38.000Z</time>
      </trkpt>
      <trkpt lat="46.18556" lon="3.16279">
        <ele>405.68981933594</ele>
        <time>2015-11-08T08:16:42.000Z</time>
      </trkpt>
      <trkpt lat="46.18557" lon="3.16286">
        <ele>405.60824584961</ele>
        <time>2015-11-08T08:16:45.000Z</time>
      </trkpt>
      <trkpt lat="46.18557" lon="3.16289">
        <ele>405.52923583984</ele>
        <time>2015-11-08T08:16:46.000Z</time>
      </trkpt>
      <trkpt lat="46.18558" lon="3.16292">
        <ele>405.44766235352</ele>
        <time>2015-11-08T08:16:49.000Z</time>
      </trkpt>
      <trkpt lat="46.1856" lon="3.16297">
        <ele>405.35815429688</ele>
        <time>2015-11-08T08:16:51.000Z</time>
      </trkpt>
      <trkpt lat="46.18561" lon="3.16301">
        <ele>405.27398681641</ele>
        <time>2015-11-08T08:16:54.000Z</time>
      </trkpt>
      <trkpt lat="46.18562" lon="3.16304">
        <ele>405.19952392578</ele>
        <time>2015-11-08T08:16:55.000Z</time>
      </trkpt>
      <trkpt lat="46.18562" lon="3.16307">
        <ele>405.12048339844</ele>
        <time>2015-11-08T08:16:58.000Z</time>
      </trkpt>
      <trkpt lat="46.18563" lon="3.16313">
        <ele>405.03311157227</ele>
        <time>2015-11-08T08:17:01.000Z</time>
      </trkpt>
      <trkpt lat="46.18564" lon="3.16319">
        <ele>404.94351196289</ele>
        <time>2015-11-08T08:17:04.000Z</time>
      </trkpt>
      <trkpt lat="46.18565" lon="3.16325">
        <ele>404.83978271484</ele>
        <time>2015-11-08T08:17:07.000Z</time>
      </trkpt>
      <trkpt lat="46.18566" lon="3.16328">
        <ele>404.73544311523</ele>
        <time>2015-11-08T08:17:09.000Z</time>
      </trkpt>
      <trkpt lat="46.18568" lon="3.16334">
        <ele>404.61181640625</ele>
        <time>2015-11-08T08:17:11.000Z</time>
      </trkpt>
      <trkpt lat="46.18569" lon="3.16337">
        <ele>404.49615478516</ele>
        <time>2015-11-08T08:17:14.000Z</time>
      </trkpt>
      <trkpt lat="46.18571" lon="3.16342">
        <ele>404.38824462891</ele>
        <time>2015-11-08T08:17:16.000Z</time>
      </trkpt>
      <trkpt lat="46.18572" lon="3.16344">
        <ele>404.29858398438</ele>
        <time>2015-11-08T08:17:19.000Z</time>
      </trkpt>
      <trkpt lat="46.18575" lon="3.16349">
        <ele>404.19854736328</ele>
        <time>2015-11-08T08:17:21.000Z</time>
      </trkpt>
      <trkpt lat="46.18576" lon="3.16353">
        <ele>404.11755371094</ele>
        <time>2015-11-08T08:17:23.000Z</time>
      </trkpt>
      <trkpt lat="46.18577" lon="3.16358">
        <ele>404.03076171875</ele>
        <time>2015-11-08T08:17:26.000Z</time>
      </trkpt>
      <trkpt lat="46.18578" lon="3.16361">
        <ele>403.95135498047</ele>
        <time>2015-11-08T08:17:28.000Z</time>
      </trkpt>
      <trkpt lat="46.1858" lon="3.16365">
        <ele>403.86328125</ele>
        <time>2015-11-08T08:17:32.000Z</time>
      </trkpt>
      <trkpt lat="46.18581" lon="3.16368">
        <ele>403.78448486328</ele>
        <time>2015-11-08T08:17:33.000Z</time>
      </trkpt>
      <trkpt lat="46.18583" lon="3.16371">
        <ele>403.71014404297</ele>
        <time>2015-11-08T08:17:36.000Z</time>
      </trkpt>
      <trkpt lat="46.18584" lon="3.16374">
        <ele>403.64077758789</ele>
        <time>2015-11-08T08:17:39.000Z</time>
      </trkpt>
      <trkpt lat="46.18583" lon="3.16376">
        <ele>403.57968139648</ele>
        <time>2015-11-08T08:17:40.000Z</time>
      </trkpt>
      <trkpt lat="46.18583" lon="3.16377">
        <ele>403.53671264648</ele>
        <time>2015-11-08T08:17:43.000Z</time>
      </trkpt>
      <trkpt lat="46.18582" lon="3.16379">
        <ele>403.50936889648</ele>
        <time>2015-11-08T08:17:46.000Z</time>
      </trkpt>
      <trkpt lat="46.18582" lon="3.16381">
        <ele>403.48617553711</ele>
        <time>2015-11-08T08:17:48.000Z</time>
      </trkpt>
      <trkpt lat="46.18583" lon="3.16384">
        <ele>403.4658203125</ele>
        <time>2015-11-08T08:17:51.000Z</time>
      </trkpt>
      <trkpt lat="46.18584" lon="3.16386">
        <ele>403.44085693359</ele>
        <time>2015-11-08T08:17:54.000Z</time>
      </trkpt>
      <trkpt lat="46.18586" lon="3.1639">
        <ele>403.40161132812</ele>
        <time>2015-11-08T08:17:56.000Z</time>
      </trkpt>
      <trkpt lat="46.18588" lon="3.16395">
        <ele>403.34454345703</ele>
        <time>2015-11-08T08:18:00.000Z</time>
      </trkpt>
      <trkpt lat="46.18589" lon="3.16398">
        <ele>403.28436279297</ele>
        <time>2015-11-08T08:18:01.000Z</time>
      </trkpt>
      <trkpt lat="46.1859" lon="3.164">
        <ele>403.22729492188</ele>
        <time>2015-11-08T08:18:04.000Z</time>
      </trkpt>
      <trkpt lat="46.18592" lon="3.16402">
        <ele>403.16876220703</ele>
        <time>2015-11-08T08:18:07.000Z</time>
      </trkpt>
      <trkpt lat="46.18592" lon="3.16404">
        <ele>403.11920166016</ele>
        <time>2015-11-08T08:18:09.000Z</time>
      </trkpt>
      <trkpt lat="46.18594" lon="3.16407">
        <ele>403.07537841797</ele>
        <time>2015-11-08T08:18:11.000Z</time>
      </trkpt>
      <trkpt lat="46.18595" lon="3.16411">
        <ele>403.03131103516</ele>
        <time>2015-11-08T08:18:14.000Z</time>
      </trkpt>
      <trkpt lat="46.18596" lon="3.16413">
        <ele>402.98538208008</ele>
        <time>2015-11-08T08:18:16.000Z</time>
      </trkpt>
      <trkpt lat="46.18598" lon="3.16416">
        <ele>402.93603515625</ele>
        <time>2015-11-08T08:18:19.000Z</time>
      </trkpt>
      <trkpt lat="46.18599" lon="3.16421">
        <ele>402.88882446289</ele>
        <time>2015-11-08T08:18:21.000Z</time>
      </trkpt>
      <trkpt lat="46.186" lon="3.16424">
        <ele>402.85180664062</ele>
        <time>2015-11-08T08:18:24.000Z</time>
      </trkpt>
      <trkpt lat="46.18602" lon="3.16428">
        <ele>402.82049560547</ele>
        <time>2015-11-08T08:18:26.000Z</time>
      </trkpt>
      <trkpt lat="46.18603" lon="3.16433">
        <ele>402.7956237793</ele>
        <time>2015-11-08T08:18:29.000Z</time>
      </trkpt>
      <trkpt lat="46.18604" lon="3.16437">
        <ele>402.7822265625</ele>
        <time>2015-11-08T08:18:31.000Z</time>
      </trkpt>
      <trkpt lat="46.18605" lon="3.16439">
        <ele>402.7685546875</ele>
        <time>2015-11-08T08:18:34.000Z</time>
      </trkpt>
      <trkpt lat="46.18606" lon="3.16442">
        <ele>402.7548828125</ele>
        <time>2015-11-08T08:18:36.000Z</time>
      </trkpt>
      <trkpt lat="46.18607" lon="3.16445">
        <ele>402.7412109375</ele>
        <time>2015-11-08T08:18:39.000Z</time>
      </trkpt>
      <trkpt lat="46.18608" lon="3.16448">
        <ele>402.7294921875</ele>
        <time>2015-11-08T08:18:41.000Z</time>
      </trkpt>
      <trkpt lat="46.18609" lon="3.16453">
        <ele>402.716796875</ele>
        <time>2015-11-08T08:18:44.000Z</time>
      </trkpt>
      <trkpt lat="46.18609" lon="3.16457">
        <ele>402.7080078125</ele>
        <time>2015-11-08T08:18:47.000Z</time>
      </trkpt>
      <trkpt lat="46.1861" lon="3.1646">
        <ele>402.697265625</ele>
        <time>2015-11-08T08:18:48.000Z</time>
      </trkpt>
      <trkpt lat="46.18611" lon="3.16464">
        <ele>402.6875</ele>
        <time>2015-11-08T08:18:52.000Z</time>
      </trkpt>
      <trkpt lat="46.18612" lon="3.16468">
        <ele>402.67578125</ele>
        <time>2015-11-08T08:18:54.000Z</time>
      </trkpt>
      <trkpt lat="46.18613" lon="3.16472">
        <ele>402.666015625</ele>
        <time>2015-11-08T08:18:56.000Z</time>
      </trkpt>
      <trkpt lat="46.18615" lon="3.16477">
        <ele>402.6513671875</ele>
        <time>2015-11-08T08:18:59.000Z</time>
      </trkpt>
      <trkpt lat="46.18616" lon="3.16481">
        <ele>402.63671875</ele>
        <time>2015-11-08T08:19:02.000Z</time>
      </trkpt>
      <trkpt lat="46.18618" lon="3.16486">
        <ele>402.6201171875</ele>
        <time>2015-11-08T08:19:04.000Z</time>
      </trkpt>
      <trkpt lat="46.18619" lon="3.16489">
        <ele>402.6044921875</ele>
        <time>2015-11-08T08:19:07.000Z</time>
      </trkpt>
      <trkpt lat="46.1862" lon="3.16493">
        <ele>402.587890625</ele>
        <time>2015-11-08T08:19:09.000Z</time>
      </trkpt>
      <trkpt lat="46.18621" lon="3.16496">
        <ele>402.57421875</ele>
        <time>2015-11-08T08:19:11.000Z</time>
      </trkpt>
      <trkpt lat="46.18622" lon="3.165">
        <ele>402.56176757812</ele>
        <time>2015-11-08T08:19:14.000Z</time>
      </trkpt>
      <trkpt lat="46.18624" lon="3.16504">
        <ele>402.56112670898</ele>
        <time>2015-11-08T08:19:16.000Z</time>
      </trkpt>
      <trkpt lat="46.18625" lon="3.16509">
        <ele>402.57809448242</ele>
        <time>2015-11-08T08:19:18.000Z</time>
      </trkpt>
      <trkpt lat="46.18626" lon="3.16514">
        <ele>402.61444091797</ele>
        <time>2015-11-08T08:19:21.000Z</time>
      </trkpt>
      <trkpt lat="46.18628" lon="3.1652">
        <ele>402.67065429688</ele>
        <time>2015-11-08T08:19:24.000Z</time>
      </trkpt>
      <trkpt lat="46.18629" lon="3.16523">
        <ele>402.73956298828</ele>
        <time>2015-11-08T08:19:26.000Z</time>
      </trkpt>
      <trkpt lat="46.18629" lon="3.16527">
        <ele>402.81369018555</ele>
        <time>2015-11-08T08:19:29.000Z</time>
      </trkpt>
      <trkpt lat="46.1863" lon="3.16533">
        <ele>402.89263916016</ele>
        <time>2015-11-08T08:19:31.000Z</time>
      </trkpt>
      <trkpt lat="46.18631" lon="3.16535">
        <ele>402.96026611328</ele>
        <time>2015-11-08T08:19:34.000Z</time>
      </trkpt>
      <trkpt lat="46.18631" lon="3.16537">
        <ele>403.01898193359</ele>
        <time>2015-11-08T08:19:37.000Z</time>
      </trkpt>
      <trkpt lat="46.18632" lon="3.16542">
        <ele>403.08486938477</ele>
        <time>2015-11-08T08:19:39.000Z</time>
      </trkpt>
      <trkpt lat="46.18633" lon="3.16544">
        <ele>403.14471435547</ele>
        <time>2015-11-08T08:19:42.000Z</time>
      </trkpt>
      <trkpt lat="46.18636" lon="3.16548">
        <ele>403.19540405273</ele>
        <time>2015-11-08T08:19:44.000Z</time>
      </trkpt>
      <trkpt lat="46.18637" lon="3.1655">
        <ele>403.24676513672</ele>
        <time>2015-11-08T08:19:46.000Z</time>
      </trkpt>
      <trkpt lat="46.18639" lon="3.16554">
        <ele>403.30209350586</ele>
        <time>2015-11-08T08:19:48.000Z</time>
      </trkpt>
      <trkpt lat="46.18641" lon="3.16557">
        <ele>403.35244750977</ele>
        <time>2015-11-08T08:19:51.000Z</time>
      </trkpt>
      <trkpt lat="46.18642" lon="3.16562">
        <ele>403.41384887695</ele>
        <time>2015-11-08T08:19:53.000Z</time>
      </trkpt>
      <trkpt lat="46.18644" lon="3.16565">
        <ele>403.47619628906</ele>
        <time>2015-11-08T08:19:56.000Z</time>
      </trkpt>
      <trkpt lat="46.18645" lon="3.16568">
        <ele>403.54504394531</ele>
        <time>2015-11-08T08:19:59.000Z</time>
      </trkpt>
      <trkpt lat="46.18648" lon="3.16574">
        <ele>403.62231445312</ele>
        <time>2015-11-08T08:20:01.000Z</time>
      </trkpt>
      <trkpt lat="46.1865" lon="3.16579">
        <ele>403.71133422852</ele>
        <time>2015-11-08T08:20:04.000Z</time>
      </trkpt>
      <trkpt lat="46.18652" lon="3.16583">
        <ele>403.7978515625</ele>
        <time>2015-11-08T08:20:07.000Z</time>
      </trkpt>
      <trkpt lat="46.18653" lon="3.16586">
        <ele>403.86782836914</ele>
        <time>2015-11-08T08:20:09.000Z</time>
      </trkpt>
      <trkpt lat="46.18656" lon="3.16591">
        <ele>403.91168212891</ele>
        <time>2015-11-08T08:20:12.000Z</time>
      </trkpt>
      <trkpt lat="46.18657" lon="3.16596">
        <ele>403.92291259766</ele>
        <time>2015-11-08T08:20:14.000Z</time>
      </trkpt>
      <trkpt lat="46.18658" lon="3.16599">
        <ele>403.90347290039</ele>
        <time>2015-11-08T08:20:17.000Z</time>
      </trkpt>
      <trkpt lat="46.18659" lon="3.16603">
        <ele>403.85919189453</ele>
        <time>2015-11-08T08:20:19.000Z</time>
      </trkpt>
      <trkpt lat="46.18661" lon="3.16608">
        <ele>403.80780029297</ele>
        <time>2015-11-08T08:20:21.000Z</time>
      </trkpt>
      <trkpt lat="46.18663" lon="3.16613">
        <ele>403.75695800781</ele>
        <time>2015-11-08T08:20:24.000Z</time>
      </trkpt>
      <trkpt lat="46.18664" lon="3.16615">
        <ele>403.71084594727</ele>
        <time>2015-11-08T08:20:26.000Z</time>
      </trkpt>
      <trkpt lat="46.18666" lon="3.1662">
        <ele>403.66116333008</ele>
        <time>2015-11-08T08:20:29.000Z</time>
      </trkpt>
      <trkpt lat="46.18668" lon="3.16623">
        <ele>403.59927368164</ele>
        <time>2015-11-08T08:20:31.000Z</time>
      </trkpt>
      <trkpt lat="46.1867" lon="3.16625">
        <ele>403.52688598633</ele>
        <time>2015-11-08T08:20:33.000Z</time>
      </trkpt>
      <trkpt lat="46.18672" lon="3.1663">
        <ele>403.43896484375</ele>
        <time>2015-11-08T08:20:37.000Z</time>
      </trkpt>
      <trkpt lat="46.18674" lon="3.16633">
        <ele>403.33764648438</ele>
        <time>2015-11-08T08:20:39.000Z</time>
      </trkpt>
      <trkpt lat="46.18675" lon="3.16636">
        <ele>403.22991943359</ele>
        <time>2015-11-08T08:20:41.000Z</time>
      </trkpt>
      <trkpt lat="46.18677" lon="3.16639">
        <ele>403.12335205078</ele>
        <time>2015-11-08T08:20:44.000Z</time>
      </trkpt>
      <trkpt lat="46.18678" lon="3.16644">
        <ele>403.01708984375</ele>
        <time>2015-11-08T08:20:46.000Z</time>
      </trkpt>
      <trkpt lat="46.1868" lon="3.16647">
        <ele>402.9182434082</ele>
        <time>2015-11-08T08:20:49.000Z</time>
      </trkpt>
      <trkpt lat="46.18681" lon="3.1665">
        <ele>402.82470703125</ele>
        <time>2015-11-08T08:20:51.000Z</time>
      </trkpt>
      <trkpt lat="46.18682" lon="3.16653">
        <ele>402.73211669922</ele>
        <time>2015-11-08T08:20:54.000Z</time>
      </trkpt>
      <trkpt lat="46.18684" lon="3.16657">
        <ele>402.63925170898</ele>
        <time>2015-11-08T08:20:57.000Z</time>
      </trkpt>
      <trkpt lat="46.18686" lon="3.16662">
        <ele>402.54443359375</ele>
        <time>2015-11-08T08:20:59.000Z</time>
      </trkpt>
      <trkpt lat="46.18688" lon="3.16666">
        <ele>402.45181274414</ele>
        <time>2015-11-08T08:21:02.000Z</time>
      </trkpt>
      <trkpt lat="46.1869" lon="3.16668">
        <ele>402.35043334961</ele>
        <time>2015-11-08T08:21:04.000Z</time>
      </trkpt>
      <trkpt lat="46.18692" lon="3.16673">
        <ele>402.22650146484</ele>
        <time>2015-11-08T08:21:06.000Z</time>
      </trkpt>
      <trkpt lat="46.18694" lon="3.16676">
        <ele>402.10311889648</ele>
        <time>2015-11-08T08:21:09.000Z</time>
      </trkpt>
      <trkpt lat="46.18695" lon="3.16679">
        <ele>401.98138427734</ele>
        <time>2015-11-08T08:21:11.000Z</time>
      </trkpt>
      <trkpt lat="46.18697" lon="3.16683">
        <ele>401.84326171875</ele>
        <time>2015-11-08T08:21:13.000Z</time>
      </trkpt>
      <trkpt lat="46.18699" lon="3.16688">
        <ele>401.70639038086</ele>
        <time>2015-11-08T08:21:16.000Z</time>
      </trkpt>
      <trkpt lat="46.18699" lon="3.1669">
        <ele>401.59335327148</ele>
        <time>2015-11-08T08:21:20.000Z</time>
      </trkpt>
      <trkpt lat="46.18701" lon="3.16695">
        <ele>401.47283935547</ele>
        <time>2015-11-08T08:21:22.000Z</time>
      </trkpt>
      <trkpt lat="46.18703" lon="3.16699">
        <ele>401.34417724609</ele>
        <time>2015-11-08T08:21:25.000Z</time>
      </trkpt>
      <trkpt lat="46.18703" lon="3.16702">
        <ele>401.232421875</ele>
        <time>2015-11-08T08:21:28.000Z</time>
      </trkpt>
      <trkpt lat="46.18705" lon="3.16708">
        <ele>401.11050415039</ele>
        <time>2015-11-08T08:21:31.000Z</time>
      </trkpt>
      <trkpt lat="46.18707" lon="3.16712">
        <ele>400.98272705078</ele>
        <time>2015-11-08T08:21:32.000Z</time>
      </trkpt>
      <trkpt lat="46.18709" lon="3.16716">
        <ele>400.85549926758</ele>
        <time>2015-11-08T08:21:36.000Z</time>
      </trkpt>
      <trkpt lat="46.1871" lon="3.16717">
        <ele>400.74478149414</ele>
        <time>2015-11-08T08:21:38.000Z</time>
      </trkpt>
      <trkpt lat="46.18711" lon="3.16722">
        <ele>400.62738037109</ele>
        <time>2015-11-08T08:21:40.000Z</time>
      </trkpt>
      <trkpt lat="46.18713" lon="3.16726">
        <ele>400.52108764648</ele>
        <time>2015-11-08T08:21:42.000Z</time>
      </trkpt>
      <trkpt lat="46.18715" lon="3.16731">
        <ele>400.40744018555</ele>
        <time>2015-11-08T08:21:45.000Z</time>
      </trkpt>
      <trkpt lat="46.18716" lon="3.16734">
        <ele>400.30389404297</ele>
        <time>2015-11-08T08:21:48.000Z</time>
      </trkpt>
      <trkpt lat="46.18717" lon="3.16737">
        <ele>400.19769287109</ele>
        <time>2015-11-08T08:21:51.000Z</time>
      </trkpt>
      <trkpt lat="46.18718" lon="3.1674">
        <ele>400.10186767578</ele>
        <time>2015-11-08T08:21:53.000Z</time>
      </trkpt>
      <trkpt lat="46.18719" lon="3.16746">
        <ele>399.99819946289</ele>
        <time>2015-11-08T08:21:55.000Z</time>
      </trkpt>
      <trkpt lat="46.18722" lon="3.16751">
        <ele>399.90386962891</ele>
        <time>2015-11-08T08:21:59.000Z</time>
      </trkpt>
      <trkpt lat="46.18724" lon="3.16756">
        <ele>399.83648681641</ele>
        <time>2015-11-08T08:22:01.000Z</time>
      </trkpt>
      <trkpt lat="46.18725" lon="3.16761">
        <ele>399.80096435547</ele>
        <time>2015-11-08T08:22:05.000Z</time>
      </trkpt>
      <trkpt lat="46.18726" lon="3.16764">
        <ele>399.78918457031</ele>
        <time>2015-11-08T08:22:06.000Z</time>
      </trkpt>
      <trkpt lat="46.18727" lon="3.16767">
        <ele>399.81845092773</ele>
        <time>2015-11-08T08:22:08.000Z</time>
      </trkpt>
      <trkpt lat="46.18728" lon="3.16771">
        <ele>399.87982177734</ele>
        <time>2015-11-08T08:22:12.000Z</time>
      </trkpt>
      <trkpt lat="46.18729" lon="3.16773">
        <ele>399.94158935547</ele>
        <time>2015-11-08T08:22:13.000Z</time>
      </trkpt>
      <trkpt lat="46.1873" lon="3.16776">
        <ele>400.00012207031</ele>
        <time>2015-11-08T08:22:16.000Z</time>
      </trkpt>
      <trkpt lat="46.18732" lon="3.1678">
        <ele>400.06536865234</ele>
        <time>2015-11-08T08:22:18.000Z</time>
      </trkpt>
      <trkpt lat="46.18734" lon="3.16784">
        <ele>400.13739013672</ele>
        <time>2015-11-08T08:22:21.000Z</time>
      </trkpt>
      <trkpt lat="46.18735" lon="3.1679">
        <ele>400.22817993164</ele>
        <time>2015-11-08T08:22:24.000Z</time>
      </trkpt>
      <trkpt lat="46.18737" lon="3.16796">
        <ele>400.33947753906</ele>
        <time>2015-11-08T08:22:26.000Z</time>
      </trkpt>
      <trkpt lat="46.18737" lon="3.168">
        <ele>400.46264648438</ele>
        <time>2015-11-08T08:22:28.000Z</time>
      </trkpt>
      <trkpt lat="46.18739" lon="3.16804">
        <ele>400.5927734375</ele>
        <time>2015-11-08T08:22:31.000Z</time>
      </trkpt>
      <trkpt lat="46.18739" lon="3.1681">
        <ele>400.74340820312</ele>
        <time>2015-11-08T08:22:34.000Z</time>
      </trkpt>
      <trkpt lat="46.1874" lon="3.16813">
        <ele>400.88275146484</ele>
        <time>2015-11-08T08:22:36.000Z</time>
      </trkpt>
      <trkpt lat="46.18741" lon="3.16816">
        <ele>401.01211547852</ele>
        <time>2015-11-08T08:22:38.000Z</time>
      </trkpt>
      <trkpt lat="46.18743" lon="3.1682">
        <ele>401.146484375</ele>
        <time>2015-11-08T08:22:41.000Z</time>
      </trkpt>
      <trkpt lat="46.18745" lon="3.16824">
        <ele>401.28985595703</ele>
        <time>2015-11-08T08:22:43.000Z</time>
      </trkpt>
      <trkpt lat="46.18746" lon="3.16828">
        <ele>401.4221496582</ele>
        <time>2015-11-08T08:22:46.000Z</time>
      </trkpt>
      <trkpt lat="46.18747" lon="3.16833">
        <ele>401.57427978516</ele>
        <time>2015-11-08T08:22:48.000Z</time>
      </trkpt>
      <trkpt lat="46.18747" lon="3.16836">
        <ele>401.70294189453</ele>
        <time>2015-11-08T08:22:50.000Z</time>
      </trkpt>
      <trkpt lat="46.18748" lon="3.16839">
        <ele>401.7998046875</ele>
        <time>2015-11-08T08:22:54.000Z</time>
      </trkpt>
      <trkpt lat="46.1875" lon="3.16842">
        <ele>401.86318969727</ele>
        <time>2015-11-08T08:22:56.000Z</time>
      </trkpt>
      <trkpt lat="46.18752" lon="3.16847">
        <ele>401.8688659668</ele>
        <time>2015-11-08T08:22:59.000Z</time>
      </trkpt>
      <trkpt lat="46.18754" lon="3.16851">
        <ele>401.80157470703</ele>
        <time>2015-11-08T08:23:02.000Z</time>
      </trkpt>
      <trkpt lat="46.18755" lon="3.16855">
        <ele>401.70916748047</ele>
        <time>2015-11-08T08:23:04.000Z</time>
      </trkpt>
      <trkpt lat="46.18756" lon="3.16859">
        <ele>401.59609985352</ele>
        <time>2015-11-08T08:23:07.000Z</time>
      </trkpt>
      <trkpt lat="46.18757" lon="3.16864">
        <ele>401.46368408203</ele>
        <time>2015-11-08T08:23:10.000Z</time>
      </trkpt>
      <trkpt lat="46.18758" lon="3.16865">
        <ele>401.35302734375</ele>
        <time>2015-11-08T08:23:12.000Z</time>
      </trkpt>
      <trkpt lat="46.18759" lon="3.16872">
        <ele>401.24578857422</ele>
        <time>2015-11-08T08:23:14.000Z</time>
      </trkpt>
      <trkpt lat="46.1876" lon="3.16876">
        <ele>401.15463256836</ele>
        <time>2015-11-08T08:23:17.000Z</time>
      </trkpt>
      <trkpt lat="46.18761" lon="3.1688">
        <ele>401.05670166016</ele>
        <time>2015-11-08T08:23:20.000Z</time>
      </trkpt>
      <trkpt lat="46.18762" lon="3.16883">
        <ele>400.96343994141</ele>
        <time>2015-11-08T08:23:21.000Z</time>
      </trkpt>
      <trkpt lat="46.18763" lon="3.16886">
        <ele>400.85800170898</ele>
        <time>2015-11-08T08:23:24.000Z</time>
      </trkpt>
      <trkpt lat="46.18764" lon="3.1689">
        <ele>400.76065063477</ele>
        <time>2015-11-08T08:23:26.000Z</time>
      </trkpt>
      <trkpt lat="46.18765" lon="3.16893">
        <ele>400.66030883789</ele>
        <time>2015-11-08T08:23:28.000Z</time>
      </trkpt>
      <trkpt lat="46.18766" lon="3.16898">
        <ele>400.57577514648</ele>
        <time>2015-11-08T08:23:31.000Z</time>
      </trkpt>
      <trkpt lat="46.18768" lon="3.16903">
        <ele>400.48272705078</ele>
        <time>2015-11-08T08:23:35.000Z</time>
      </trkpt>
      <trkpt lat="46.18769" lon="3.16907">
        <ele>400.38864135742</ele>
        <time>2015-11-08T08:23:37.000Z</time>
      </trkpt>
      <trkpt lat="46.1877" lon="3.16914">
        <ele>400.29119873047</ele>
        <time>2015-11-08T08:23:40.000Z</time>
      </trkpt>
      <trkpt lat="46.18771" lon="3.16919">
        <ele>400.18487548828</ele>
        <time>2015-11-08T08:23:43.000Z</time>
      </trkpt>
      <trkpt lat="46.18771" lon="3.16923">
        <ele>400.08013916016</ele>
        <time>2015-11-08T08:23:46.000Z</time>
      </trkpt>
      <trkpt lat="46.18771" lon="3.16928">
        <ele>399.98480224609</ele>
        <time>2015-11-08T08:23:49.000Z</time>
      </trkpt>
      <trkpt lat="46.18772" lon="3.16932">
        <ele>399.89471435547</ele>
        <time>2015-11-08T08:23:51.000Z</time>
      </trkpt>
      <trkpt lat="46.18772" lon="3.16937">
        <ele>399.8137512207</ele>
        <time>2015-11-08T08:23:54.000Z</time>
      </trkpt>
      <trkpt lat="46.18772" lon="3.16941">
        <ele>399.74505615234</ele>
        <time>2015-11-08T08:23:57.000Z</time>
      </trkpt>
      <trkpt lat="46.18773" lon="3.16946">
        <ele>399.66458129883</ele>
        <time>2015-11-08T08:23:59.000Z</time>
      </trkpt>
      <trkpt lat="46.18774" lon="3.16949">
        <ele>399.58419799805</ele>
        <time>2015-11-08T08:24:02.000Z</time>
      </trkpt>
      <trkpt lat="46.18774" lon="3.16954">
        <ele>399.50347900391</ele>
        <time>2015-11-08T08:24:04.000Z</time>
      </trkpt>
      <trkpt lat="46.18774" lon="3.16958">
        <ele>399.4270324707</ele>
        <time>2015-11-08T08:24:07.000Z</time>
      </trkpt>
      <trkpt lat="46.18774" lon="3.16963">
        <ele>399.34674072266</ele>
        <time>2015-11-08T08:24:09.000Z</time>
      </trkpt>
      <trkpt lat="46.18774" lon="3.16966">
        <ele>399.28604125977</ele>
        <time>2015-11-08T08:24:11.000Z</time>
      </trkpt>
      <trkpt lat="46.18774" lon="3.1697">
        <ele>399.2282409668</ele>
        <time>2015-11-08T08:24:14.000Z</time>
      </trkpt>
      <trkpt lat="46.18774" lon="3.16974">
        <ele>399.17630004883</ele>
        <time>2015-11-08T08:24:15.000Z</time>
      </trkpt>
      <trkpt lat="46.18773" lon="3.16978">
        <ele>399.12457275391</ele>
        <time>2015-11-08T08:24:21.000Z</time>
      </trkpt>
      <trkpt lat="46.18773" lon="3.16983">
        <ele>399.07748413086</ele>
        <time>2015-11-08T08:24:21.000Z</time>
      </trkpt>
      <trkpt lat="46.18773" lon="3.16985">
        <ele>399.0290222168</ele>
        <time>2015-11-08T08:24:26.000Z</time>
      </trkpt>
      <trkpt lat="46.18772" lon="3.16991">
        <ele>398.978515625</ele>
        <time>2015-11-08T08:24:27.000Z</time>
      </trkpt>
      <trkpt lat="46.18771" lon="3.16995">
        <ele>398.92959594727</ele>
        <time>2015-11-08T08:24:27.000Z</time>
      </trkpt>
      <trkpt lat="46.18769" lon="3.16999">
        <ele>398.88140869141</ele>
        <time>2015-11-08T08:24:29.000Z</time>
      </trkpt>
      <trkpt lat="46.18769" lon="3.17004">
        <ele>398.84356689453</ele>
        <time>2015-11-08T08:24:31.000Z</time>
      </trkpt>
      <trkpt lat="46.18767" lon="3.17009">
        <ele>398.81842041016</ele>
        <time>2015-11-08T08:24:34.000Z</time>
      </trkpt>
      <trkpt lat="46.18766" lon="3.17013">
        <ele>398.81146240234</ele>
        <time>2015-11-08T08:24:36.000Z</time>
      </trkpt>
      <trkpt lat="46.18765" lon="3.17016">
        <ele>398.81597900391</ele>
        <time>2015-11-08T08:24:38.000Z</time>
      </trkpt>
      <trkpt lat="46.18763" lon="3.17022">
        <ele>398.83609008789</ele>
        <time>2015-11-08T08:24:41.000Z</time>
      </trkpt>
      <trkpt lat="46.18761" lon="3.17025">
        <ele>398.86001586914</ele>
        <time>2015-11-08T08:24:44.000Z</time>
      </trkpt>
      <trkpt lat="46.18761" lon="3.17028">
        <ele>398.87957763672</ele>
        <time>2015-11-08T08:24:46.000Z</time>
      </trkpt>
      <trkpt lat="46.1876" lon="3.17031">
        <ele>398.89709472656</ele>
        <time>2015-11-08T08:24:49.000Z</time>
      </trkpt>
      <trkpt lat="46.18758" lon="3.17037">
        <ele>398.91488647461</ele>
        <time>2015-11-08T08:24:51.000Z</time>
      </trkpt>
      <trkpt lat="46.18758" lon="3.1704">
        <ele>398.92831420898</ele>
        <time>2015-11-08T08:24:53.000Z</time>
      </trkpt>
      <trkpt lat="46.18756" lon="3.17044">
        <ele>398.93997192383</ele>
        <time>2015-11-08T08:24:56.000Z</time>
      </trkpt>
      <trkpt lat="46.18756" lon="3.17046">
        <ele>398.95037841797</ele>
        <time>2015-11-08T08:24:58.000Z</time>
      </trkpt>
      <trkpt lat="46.18756" lon="3.1705">
        <ele>398.95965576172</ele>
        <time>2015-11-08T08:25:00.000Z</time>
      </trkpt>
      <trkpt lat="46.18755" lon="3.17054">
        <ele>398.96694946289</ele>
        <time>2015-11-08T08:25:03.000Z</time>
      </trkpt>
      <trkpt lat="46.18754" lon="3.17058">
        <ele>398.97360229492</ele>
        <time>2015-11-08T08:25:06.000Z</time>
      </trkpt>
      <trkpt lat="46.18753" lon="3.17065">
        <ele>398.97946166992</ele>
        <time>2015-11-08T08:25:08.000Z</time>
      </trkpt>
      <trkpt lat="46.18752" lon="3.17071">
        <ele>398.98541259766</ele>
        <time>2015-11-08T08:25:12.000Z</time>
      </trkpt>
      <trkpt lat="46.18751" lon="3.17075">
        <ele>398.99069213867</ele>
        <time>2015-11-08T08:25:14.000Z</time>
      </trkpt>
      <trkpt lat="46.1875" lon="3.17079">
        <ele>398.99472045898</ele>
        <time>2015-11-08T08:25:16.000Z</time>
      </trkpt>
      <trkpt lat="46.18749" lon="3.17084">
        <ele>398.99963378906</ele>
        <time>2015-11-08T08:25:19.000Z</time>
      </trkpt>
      <trkpt lat="46.18748" lon="3.17087">
        <ele>399.00506591797</ele>
        <time>2015-11-08T08:25:21.000Z</time>
      </trkpt>
      <trkpt lat="46.18748" lon="3.17089">
        <ele>399.01049804688</ele>
        <time>2015-11-08T08:25:23.000Z</time>
      </trkpt>
      <trkpt lat="46.18748" lon="3.17092">
        <ele>399.01654052734</ele>
        <time>2015-11-08T08:25:25.000Z</time>
      </trkpt>
      <trkpt lat="46.18747" lon="3.17096">
        <ele>399.0244140625</ele>
        <time>2015-11-08T08:25:28.000Z</time>
      </trkpt>
      <trkpt lat="46.18745" lon="3.17103">
        <ele>399.03515625</ele>
        <time>2015-11-08T08:25:30.000Z</time>
      </trkpt>
      <trkpt lat="46.18743" lon="3.17108">
        <ele>399.048828125</ele>
        <time>2015-11-08T08:25:34.000Z</time>
      </trkpt>
      <trkpt lat="46.18741" lon="3.17112">
        <ele>399.0654296875</ele>
        <time>2015-11-08T08:25:36.000Z</time>
      </trkpt>
      <trkpt lat="46.1874" lon="3.17115">
        <ele>399.08203125</ele>
        <time>2015-11-08T08:25:39.000Z</time>
      </trkpt>
      <trkpt lat="46.18739" lon="3.17119">
        <ele>399.1005859375</ele>
        <time>2015-11-08T08:25:41.000Z</time>
      </trkpt>
      <trkpt lat="46.18738" lon="3.17123">
        <ele>399.1162109375</ele>
        <time>2015-11-08T08:25:43.000Z</time>
      </trkpt>
      <trkpt lat="46.18736" lon="3.17128">
        <ele>399.1318359375</ele>
        <time>2015-11-08T08:25:46.000Z</time>
      </trkpt>
      <trkpt lat="46.18735" lon="3.17131">
        <ele>399.146484375</ele>
        <time>2015-11-08T08:25:48.000Z</time>
      </trkpt>
      <trkpt lat="46.18734" lon="3.17135">
        <ele>399.162109375</ele>
        <time>2015-11-08T08:25:51.000Z</time>
      </trkpt>
      <trkpt lat="46.18732" lon="3.1714">
        <ele>399.177734375</ele>
        <time>2015-11-08T08:25:53.000Z</time>
      </trkpt>
      <trkpt lat="46.18731" lon="3.17146">
        <ele>399.1943359375</ele>
        <time>2015-11-08T08:25:56.000Z</time>
      </trkpt>
      <trkpt lat="46.18731" lon="3.17149">
        <ele>399.20703125</ele>
        <time>2015-11-08T08:25:59.000Z</time>
      </trkpt>
      <trkpt lat="46.1873" lon="3.17154">
        <ele>399.21875</ele>
        <time>2015-11-08T08:26:01.000Z</time>
      </trkpt>
      <trkpt lat="46.18728" lon="3.17159">
        <ele>399.232421875</ele>
        <time>2015-11-08T08:26:04.000Z</time>
      </trkpt>
      <trkpt lat="46.18727" lon="3.17162">
        <ele>399.244140625</ele>
        <time>2015-11-08T08:26:07.000Z</time>
      </trkpt>
      <trkpt lat="46.18727" lon="3.17166">
        <ele>399.2548828125</ele>
        <time>2015-11-08T08:26:09.000Z</time>
      </trkpt>
      <trkpt lat="46.18726" lon="3.17171">
        <ele>399.25546264648</ele>
        <time>2015-11-08T08:26:12.000Z</time>
      </trkpt>
      <trkpt lat="46.18726" lon="3.17175">
        <ele>399.24478149414</ele>
        <time>2015-11-08T08:26:15.000Z</time>
      </trkpt>
      <trkpt lat="46.18726" lon="3.17178">
        <ele>399.22418212891</ele>
        <time>2015-11-08T08:26:17.000Z</time>
      </trkpt>
      <trkpt lat="46.18724" lon="3.17184">
        <ele>399.19213867188</ele>
        <time>2015-11-08T08:26:21.000Z</time>
      </trkpt>
      <trkpt lat="46.18723" lon="3.17189">
        <ele>399.14712524414</ele>
        <time>2015-11-08T08:26:23.000Z</time>
      </trkpt>
      <trkpt lat="46.18723" lon="3.17192">
        <ele>399.10406494141</ele>
        <time>2015-11-08T08:26:26.000Z</time>
      </trkpt>
      <trkpt lat="46.18722" lon="3.17197">
        <ele>399.0615234375</ele>
        <time>2015-11-08T08:26:29.000Z</time>
      </trkpt>
      <trkpt lat="46.18721" lon="3.172">
        <ele>399.01873779297</ele>
        <time>2015-11-08T08:26:31.000Z</time>
      </trkpt>
      <trkpt lat="46.18721" lon="3.17205">
        <ele>398.97589111328</ele>
        <time>2015-11-08T08:26:34.000Z</time>
      </trkpt>
      <trkpt lat="46.18721" lon="3.17207">
        <ele>398.93914794922</ele>
        <time>2015-11-08T08:26:37.000Z</time>
      </trkpt>
      <trkpt lat="46.18721" lon="3.1721">
        <ele>398.9013671875</ele>
        <time>2015-11-08T08:26:39.000Z</time>
      </trkpt>
      <trkpt lat="46.18721" lon="3.17212">
        <ele>398.86679077148</ele>
        <time>2015-11-08T08:26:41.000Z</time>
      </trkpt>
      <trkpt lat="46.18721" lon="3.17214">
        <ele>398.83355712891</ele>
        <time>2015-11-08T08:26:44.000Z</time>
      </trkpt>
      <trkpt lat="46.18722" lon="3.17216">
        <ele>398.80389404297</ele>
        <time>2015-11-08T08:26:46.000Z</time>
      </trkpt>
      <trkpt lat="46.18722" lon="3.17216">
        <ele>398.80389404297</ele>
        <time>2015-11-08T08:27:06.000Z</time>
      </trkpt>
      <trkpt lat="46.18722" lon="3.1722">
        <ele>398.76800537109</ele>
        <time>2015-11-08T08:27:12.000Z</time>
      </trkpt>
      <trkpt lat="46.18723" lon="3.17223">
        <ele>398.73397827148</ele>
        <time>2015-11-08T08:27:14.000Z</time>
      </trkpt>
      <trkpt lat="46.18722" lon="3.17228">
        <ele>398.69409179688</ele>
        <time>2015-11-08T08:27:17.000Z</time>
      </trkpt>
      <trkpt lat="46.18721" lon="3.17233">
        <ele>398.64978027344</ele>
        <time>2015-11-08T08:27:19.000Z</time>
      </trkpt>
      <trkpt lat="46.18721" lon="3.17235">
        <ele>398.60620117188</ele>
        <time>2015-11-08T08:27:22.000Z</time>
      </trkpt>
      <trkpt lat="46.1872" lon="3.17239">
        <ele>398.56674194336</ele>
        <time>2015-11-08T08:27:25.000Z</time>
      </trkpt>
      <trkpt lat="46.1872" lon="3.17242">
        <ele>398.52661132812</ele>
        <time>2015-11-08T08:27:27.000Z</time>
      </trkpt>
      <trkpt lat="46.1872" lon="3.17244">
        <ele>398.49273681641</ele>
        <time>2015-11-08T08:27:29.000Z</time>
      </trkpt>
      <trkpt lat="46.18719" lon="3.17248">
        <ele>398.45989990234</ele>
        <time>2015-11-08T08:27:32.000Z</time>
      </trkpt>
      <trkpt lat="46.18718" lon="3.17252">
        <ele>398.42166137695</ele>
        <time>2015-11-08T08:27:34.000Z</time>
      </trkpt>
      <trkpt lat="46.18718" lon="3.17256">
        <ele>398.37274169922</ele>
        <time>2015-11-08T08:27:37.000Z</time>
      </trkpt>
      <trkpt lat="46.18718" lon="3.17259">
        <ele>398.32098388672</ele>
        <time>2015-11-08T08:27:39.000Z</time>
      </trkpt>
      <trkpt lat="46.18716" lon="3.17262">
        <ele>398.26223754883</ele>
        <time>2015-11-08T08:27:42.000Z</time>
      </trkpt>
      <trkpt lat="46.18715" lon="3.17264">
        <ele>398.20623779297</ele>
        <time>2015-11-08T08:27:44.000Z</time>
      </trkpt>
      <trkpt lat="46.18715" lon="3.17265">
        <ele>398.15447998047</ele>
        <time>2015-11-08T08:27:57.000Z</time>
      </trkpt>
      <trkpt lat="46.18713" lon="3.17268">
        <ele>398.11123657227</ele>
        <time>2015-11-08T08:27:59.000Z</time>
      </trkpt>
      <trkpt lat="46.18712" lon="3.1727">
        <ele>398.07070922852</ele>
        <time>2015-11-08T08:28:02.000Z</time>
      </trkpt>
      <trkpt lat="46.1871" lon="3.17274">
        <ele>398.02679443359</ele>
        <time>2015-11-08T08:28:06.000Z</time>
      </trkpt>
      <trkpt lat="46.18708" lon="3.17278">
        <ele>397.97180175781</ele>
        <time>2015-11-08T08:28:08.000Z</time>
      </trkpt>
      <trkpt lat="46.18707" lon="3.17281">
        <ele>397.90716552734</ele>
        <time>2015-11-08T08:28:11.000Z</time>
      </trkpt>
      <trkpt lat="46.18706" lon="3.17283">
        <ele>397.84140014648</ele>
        <time>2015-11-08T08:28:14.000Z</time>
      </trkpt>
      <trkpt lat="46.18705" lon="3.17287">
        <ele>397.76361083984</ele>
        <time>2015-11-08T08:28:17.000Z</time>
      </trkpt>
      <trkpt lat="46.18703" lon="3.17293">
        <ele>397.67526245117</ele>
        <time>2015-11-08T08:28:20.000Z</time>
      </trkpt>
      <trkpt lat="46.18702" lon="3.17298">
        <ele>397.57690429688</ele>
        <time>2015-11-08T08:28:23.000Z</time>
      </trkpt>
      <trkpt lat="46.187" lon="3.17303">
        <ele>397.46832275391</ele>
        <time>2015-11-08T08:28:26.000Z</time>
      </trkpt>
      <trkpt lat="46.18699" lon="3.17306">
        <ele>397.35079956055</ele>
        <time>2015-11-08T08:28:28.000Z</time>
      </trkpt>
      <trkpt lat="46.18698" lon="3.1731">
        <ele>397.2287902832</ele>
        <time>2015-11-08T08:28:31.000Z</time>
      </trkpt>
      <trkpt lat="46.18696" lon="3.17315">
        <ele>397.10461425781</ele>
        <time>2015-11-08T08:28:34.000Z</time>
      </trkpt>
      <trkpt lat="46.18695" lon="3.1732">
        <ele>396.97674560547</ele>
        <time>2015-11-08T08:28:37.000Z</time>
      </trkpt>
      <trkpt lat="46.18693" lon="3.17324">
        <ele>396.85174560547</ele>
        <time>2015-11-08T08:28:40.000Z</time>
      </trkpt>
      <trkpt lat="46.18693" lon="3.17328">
        <ele>396.72320556641</ele>
        <time>2015-11-08T08:28:42.000Z</time>
      </trkpt>
      <trkpt lat="46.18692" lon="3.17333">
        <ele>396.58465576172</ele>
        <time>2015-11-08T08:28:45.000Z</time>
      </trkpt>
      <trkpt lat="46.1869" lon="3.17336">
        <ele>396.4592590332</ele>
        <time>2015-11-08T08:28:47.000Z</time>
      </trkpt>
      <trkpt lat="46.18689" lon="3.17341">
        <ele>396.33206176758</ele>
        <time>2015-11-08T08:28:50.000Z</time>
      </trkpt>
      <trkpt lat="46.18687" lon="3.17345">
        <ele>396.20928955078</ele>
        <time>2015-11-08T08:28:52.000Z</time>
      </trkpt>
      <trkpt lat="46.18686" lon="3.1735">
        <ele>396.08209228516</ele>
        <time>2015-11-08T08:28:54.000Z</time>
      </trkpt>
      <trkpt lat="46.18685" lon="3.17352">
        <ele>395.97546386719</ele>
        <time>2015-11-08T08:28:57.000Z</time>
      </trkpt>
      <trkpt lat="46.18685" lon="3.17355">
        <ele>395.86840820312</ele>
        <time>2015-11-08T08:28:59.000Z</time>
      </trkpt>
      <trkpt lat="46.18684" lon="3.1736">
        <ele>395.76892089844</ele>
        <time>2015-11-08T08:29:02.000Z</time>
      </trkpt>
      <trkpt lat="46.18683" lon="3.17364">
        <ele>395.66821289062</ele>
        <time>2015-11-08T08:29:04.000Z</time>
      </trkpt>
      <trkpt lat="46.18682" lon="3.17368">
        <ele>395.57055664062</ele>
        <time>2015-11-08T08:29:07.000Z</time>
      </trkpt>
      <trkpt lat="46.18681" lon="3.17373">
        <ele>395.46032714844</ele>
        <time>2015-11-08T08:29:09.000Z</time>
      </trkpt>
      <trkpt lat="46.18681" lon="3.17376">
        <ele>395.35168457031</ele>
        <time>2015-11-08T08:29:12.000Z</time>
      </trkpt>
      <trkpt lat="46.1868" lon="3.1738">
        <ele>395.24645996094</ele>
        <time>2015-11-08T08:29:14.000Z</time>
      </trkpt>
      <trkpt lat="46.18679" lon="3.17385">
        <ele>395.13366699219</ele>
        <time>2015-11-08T08:29:17.000Z</time>
      </trkpt>
      <trkpt lat="46.18678" lon="3.17391">
        <ele>395.015625</ele>
        <time>2015-11-08T08:29:20.000Z</time>
      </trkpt>
      <trkpt lat="46.18678" lon="3.17393">
        <ele>394.91003417969</ele>
        <time>2015-11-08T08:29:22.000Z</time>
      </trkpt>
      <trkpt lat="46.18676" lon="3.17396">
        <ele>394.80114746094</ele>
        <time>2015-11-08T08:29:24.000Z</time>
      </trkpt>
      <trkpt lat="46.18676" lon="3.174">
        <ele>394.69665527344</ele>
        <time>2015-11-08T08:29:26.000Z</time>
      </trkpt>
      <trkpt lat="46.18675" lon="3.17405">
        <ele>394.59155273438</ele>
        <time>2015-11-08T08:29:29.000Z</time>
      </trkpt>
      <trkpt lat="46.18674" lon="3.17408">
        <ele>394.50134277344</ele>
        <time>2015-11-08T08:29:31.000Z</time>
      </trkpt>
      <trkpt lat="46.18673" lon="3.17412">
        <ele>394.40368652344</ele>
        <time>2015-11-08T08:29:33.000Z</time>
      </trkpt>
      <trkpt lat="46.18673" lon="3.17414">
        <ele>394.30883789062</ele>
        <time>2015-11-08T08:29:36.000Z</time>
      </trkpt>
      <trkpt lat="46.18671" lon="3.17419">
        <ele>394.18450927734</ele>
        <time>2015-11-08T08:29:38.000Z</time>
      </trkpt>
      <trkpt lat="46.18671" lon="3.17422">
        <ele>394.06146240234</ele>
        <time>2015-11-08T08:29:40.000Z</time>
      </trkpt>
      <trkpt lat="46.18671" lon="3.17424">
        <ele>393.92367553711</ele>
        <time>2015-11-08T08:29:43.000Z</time>
      </trkpt>
      <trkpt lat="46.18669" lon="3.17429">
        <ele>393.74380493164</ele>
        <time>2015-11-08T08:29:45.000Z</time>
      </trkpt>
      <trkpt lat="46.18668" lon="3.17432">
        <ele>393.53909301758</ele>
        <time>2015-11-08T08:29:48.000Z</time>
      </trkpt>
      <trkpt lat="46.18667" lon="3.17435">
        <ele>393.34149169922</ele>
        <time>2015-11-08T08:29:50.000Z</time>
      </trkpt>
      <trkpt lat="46.18666" lon="3.17438">
        <ele>393.13055419922</ele>
        <time>2015-11-08T08:29:52.000Z</time>
      </trkpt>
      <trkpt lat="46.18665" lon="3.17443">
        <ele>392.84967041016</ele>
        <time>2015-11-08T08:29:56.000Z</time>
      </trkpt>
      <trkpt lat="46.18665" lon="3.17446">
        <ele>392.5856628418</ele>
        <time>2015-11-08T08:29:57.000Z</time>
      </trkpt>
      <trkpt lat="46.18663" lon="3.17451">
        <ele>392.27212524414</ele>
        <time>2015-11-08T08:30:00.000Z</time>
      </trkpt>
      <trkpt lat="46.18662" lon="3.17454">
        <ele>391.92013549805</ele>
        <time>2015-11-08T08:30:02.000Z</time>
      </trkpt>
      <trkpt lat="46.1866" lon="3.17459">
        <ele>391.4951171875</ele>
        <time>2015-11-08T08:30:05.000Z</time>
      </trkpt>
      <trkpt lat="46.18659" lon="3.17461">
        <ele>391.11953735352</ele>
        <time>2015-11-08T08:30:07.000Z</time>
      </trkpt>
      <trkpt lat="46.18657" lon="3.17465">
        <ele>390.6994934082</ele>
        <time>2015-11-08T08:30:10.000Z</time>
      </trkpt>
      <trkpt lat="46.18657" lon="3.17468">
        <ele>390.31527709961</ele>
        <time>2015-11-08T08:30:12.000Z</time>
      </trkpt>
      <trkpt lat="46.18655" lon="3.17472">
        <ele>389.92880249023</ele>
        <time>2015-11-08T08:30:15.000Z</time>
      </trkpt>
      <trkpt lat="46.18654" lon="3.17475">
        <ele>389.5915222168</ele>
        <time>2015-11-08T08:30:17.000Z</time>
      </trkpt>
      <trkpt lat="46.18652" lon="3.17479">
        <ele>389.1916809082</ele>
        <time>2015-11-08T08:30:20.000Z</time>
      </trkpt>
      <trkpt lat="46.1865" lon="3.17482">
        <ele>388.79168701172</ele>
        <time>2015-11-08T08:30:23.000Z</time>
      </trkpt>
      <trkpt lat="46.18649" lon="3.17485">
        <ele>388.39739990234</ele>
        <time>2015-11-08T08:30:25.000Z</time>
      </trkpt>
      <trkpt lat="46.18647" lon="3.17487">
        <ele>388.00897216797</ele>
        <time>2015-11-08T08:30:28.000Z</time>
      </trkpt>
      <trkpt lat="46.18646" lon="3.17489">
        <ele>387.61737060547</ele>
        <time>2015-11-08T08:30:31.000Z</time>
      </trkpt>
      <trkpt lat="46.18644" lon="3.17491">
        <ele>387.26992797852</ele>
        <time>2015-11-08T08:30:33.000Z</time>
      </trkpt>
      <trkpt lat="46.18644" lon="3.17493">
        <ele>386.97277832031</ele>
        <time>2015-11-08T08:30:36.000Z</time>
      </trkpt>
      <trkpt lat="46.18641" lon="3.17496">
        <ele>386.62515258789</ele>
        <time>2015-11-08T08:30:38.000Z</time>
      </trkpt>
      <trkpt lat="46.1864" lon="3.175">
        <ele>386.25854492188</ele>
        <time>2015-11-08T08:30:42.000Z</time>
      </trkpt>
      <trkpt lat="46.18639" lon="3.17503">
        <ele>385.88229370117</ele>
        <time>2015-11-08T08:30:44.000Z</time>
      </trkpt>
      <trkpt lat="46.18637" lon="3.17506">
        <ele>385.47286987305</ele>
        <time>2015-11-08T08:30:47.000Z</time>
      </trkpt>
      <trkpt lat="46.18636" lon="3.17509">
        <ele>385.02886962891</ele>
        <time>2015-11-08T08:30:49.000Z</time>
      </trkpt>
      <trkpt lat="46.18635" lon="3.17512">
        <ele>384.61441040039</ele>
        <time>2015-11-08T08:30:52.000Z</time>
      </trkpt>
      <trkpt lat="46.18633" lon="3.17515">
        <ele>384.19073486328</ele>
        <time>2015-11-08T08:30:54.000Z</time>
      </trkpt>
      <trkpt lat="46.18632" lon="3.17518">
        <ele>383.779296875</ele>
        <time>2015-11-08T08:30:57.000Z</time>
      </trkpt>
      <trkpt lat="46.18631" lon="3.17519">
        <ele>383.42230224609</ele>
        <time>2015-11-08T08:30:59.000Z</time>
      </trkpt>
      <trkpt lat="46.18629" lon="3.17523">
        <ele>383.03558349609</ele>
        <time>2015-11-08T08:31:02.000Z</time>
      </trkpt>
      <trkpt lat="46.18628" lon="3.17527">
        <ele>382.61065673828</ele>
        <time>2015-11-08T08:31:04.000Z</time>
      </trkpt>
      <trkpt lat="46.18626" lon="3.17529">
        <ele>382.23028564453</ele>
        <time>2015-11-08T08:31:06.000Z</time>
      </trkpt>
      <trkpt lat="46.18625" lon="3.17532">
        <ele>381.82952880859</ele>
        <time>2015-11-08T08:31:09.000Z</time>
      </trkpt>
      <trkpt lat="46.18623" lon="3.17536">
        <ele>381.37670898438</ele>
        <time>2015-11-08T08:31:13.000Z</time>
      </trkpt>
      <trkpt lat="46.18622" lon="3.17538">
        <ele>380.96322631836</ele>
        <time>2015-11-08T08:31:15.000Z</time>
      </trkpt>
      <trkpt lat="46.1862" lon="3.17541">
        <ele>380.57717895508</ele>
        <time>2015-11-08T08:31:19.000Z</time>
      </trkpt>
      <trkpt lat="46.18619" lon="3.17542">
        <ele>380.19369506836</ele>
        <time>2015-11-08T08:31:21.000Z</time>
      </trkpt>
      <trkpt lat="46.18616" lon="3.17546">
        <ele>379.78237915039</ele>
        <time>2015-11-08T08:31:24.000Z</time>
      </trkpt>
      <trkpt lat="46.18615" lon="3.1755">
        <ele>379.36474609375</ele>
        <time>2015-11-08T08:31:27.000Z</time>
      </trkpt>
      <trkpt lat="46.18613" lon="3.17553">
        <ele>378.93969726562</ele>
        <time>2015-11-08T08:31:29.000Z</time>
      </trkpt>
      <trkpt lat="46.18612" lon="3.17556">
        <ele>378.537109375</ele>
        <time>2015-11-08T08:31:31.000Z</time>
      </trkpt>
      <trkpt lat="46.18611" lon="3.17559">
        <ele>378.12606811523</ele>
        <time>2015-11-08T08:31:34.000Z</time>
      </trkpt>
      <trkpt lat="46.1861" lon="3.17561">
        <ele>377.77355957031</ele>
        <time>2015-11-08T08:31:36.000Z</time>
      </trkpt>
      <trkpt lat="46.18608" lon="3.17564">
        <ele>377.43072509766</ele>
        <time>2015-11-08T08:31:39.000Z</time>
      </trkpt>
      <trkpt lat="46.18607" lon="3.17565">
        <ele>377.12554931641</ele>
        <time>2015-11-08T08:31:41.000Z</time>
      </trkpt>
      <trkpt lat="46.18605" lon="3.17568">
        <ele>376.8017578125</ele>
        <time>2015-11-08T08:31:44.000Z</time>
      </trkpt>
      <trkpt lat="46.18604" lon="3.17569">
        <ele>376.49945068359</ele>
        <time>2015-11-08T08:31:46.000Z</time>
      </trkpt>
      <trkpt lat="46.18602" lon="3.17573">
        <ele>376.16403198242</ele>
        <time>2015-11-08T08:31:49.000Z</time>
      </trkpt>
      <trkpt lat="46.186" lon="3.17576">
        <ele>375.84503173828</ele>
        <time>2015-11-08T08:31:51.000Z</time>
      </trkpt>
      <trkpt lat="46.18599" lon="3.1758">
        <ele>375.48333740234</ele>
        <time>2015-11-08T08:31:54.000Z</time>
      </trkpt>
      <trkpt lat="46.18597" lon="3.17583">
        <ele>375.12442016602</ele>
        <time>2015-11-08T08:31:56.000Z</time>
      </trkpt>
      <trkpt lat="46.18596" lon="3.17586">
        <ele>374.74935913086</ele>
        <time>2015-11-08T08:31:58.000Z</time>
      </trkpt>
      <trkpt lat="46.18594" lon="3.17589">
        <ele>374.38690185547</ele>
        <time>2015-11-08T08:32:01.000Z</time>
      </trkpt>
      <trkpt lat="46.18592" lon="3.17592">
        <ele>374.04135131836</ele>
        <time>2015-11-08T08:32:03.000Z</time>
      </trkpt>
      <trkpt lat="46.1859" lon="3.17594">
        <ele>373.71966552734</ele>
        <time>2015-11-08T08:32:05.000Z</time>
      </trkpt>
      <trkpt lat="46.18589" lon="3.17597">
        <ele>373.40960693359</ele>
        <time>2015-11-08T08:32:08.000Z</time>
      </trkpt>
      <trkpt lat="46.18586" lon="3.17601">
        <ele>373.08361816406</ele>
        <time>2015-11-08T08:32:11.000Z</time>
      </trkpt>
      <trkpt lat="46.18584" lon="3.17603">
        <ele>372.77239990234</ele>
        <time>2015-11-08T08:32:14.000Z</time>
      </trkpt>
      <trkpt lat="46.18583" lon="3.17604">
        <ele>372.49368286133</ele>
        <time>2015-11-08T08:32:16.000Z</time>
      </trkpt>
      <trkpt lat="46.18581" lon="3.17606">
        <ele>372.22283935547</ele>
        <time>2015-11-08T08:32:18.000Z</time>
      </trkpt>
      <trkpt lat="46.18579" lon="3.1761">
        <ele>371.94833374023</ele>
        <time>2015-11-08T08:32:21.000Z</time>
      </trkpt>
      <trkpt lat="46.18577" lon="3.17612">
        <ele>371.70083618164</ele>
        <time>2015-11-08T08:32:24.000Z</time>
      </trkpt>
      <trkpt lat="46.18575" lon="3.17614">
        <ele>371.47128295898</ele>
        <time>2015-11-08T08:32:26.000Z</time>
      </trkpt>
      <trkpt lat="46.18575" lon="3.17615">
        <ele>371.25689697266</ele>
        <time>2015-11-08T08:32:28.000Z</time>
      </trkpt>
      <trkpt lat="46.18574" lon="3.1762">
        <ele>371.02709960938</ele>
        <time>2015-11-08T08:32:31.000Z</time>
      </trkpt>
      <trkpt lat="46.18572" lon="3.17624">
        <ele>370.7922668457</ele>
        <time>2015-11-08T08:32:33.000Z</time>
      </trkpt>
      <trkpt lat="46.18571" lon="3.17627">
        <ele>370.56521606445</ele>
        <time>2015-11-08T08:32:36.000Z</time>
      </trkpt>
      <trkpt lat="46.18568" lon="3.17631">
        <ele>370.32046508789</ele>
        <time>2015-11-08T08:32:39.000Z</time>
      </trkpt>
      <trkpt lat="46.18566" lon="3.17636">
        <ele>370.01971435547</ele>
        <time>2015-11-08T08:32:42.000Z</time>
      </trkpt>
      <trkpt lat="46.18563" lon="3.1764">
        <ele>369.72344970703</ele>
        <time>2015-11-08T08:32:44.000Z</time>
      </trkpt>
      <trkpt lat="46.18562" lon="3.17642">
        <ele>369.45834350586</ele>
        <time>2015-11-08T08:32:46.000Z</time>
      </trkpt>
      <trkpt lat="46.1856" lon="3.17645">
        <ele>369.18560791016</ele>
        <time>2015-11-08T08:32:50.000Z</time>
      </trkpt>
      <trkpt lat="46.18558" lon="3.17648">
        <ele>368.92791748047</ele>
        <time>2015-11-08T08:32:52.000Z</time>
      </trkpt>
      <trkpt lat="46.18556" lon="3.17652">
        <ele>368.69058227539</ele>
        <time>2015-11-08T08:32:54.000Z</time>
      </trkpt>
      <trkpt lat="46.18554" lon="3.17655">
        <ele>368.46395874023</ele>
        <time>2015-11-08T08:32:57.000Z</time>
      </trkpt>
      <trkpt lat="46.18553" lon="3.17658">
        <ele>368.24005126953</ele>
        <time>2015-11-08T08:32:59.000Z</time>
      </trkpt>
      <trkpt lat="46.1855" lon="3.17662">
        <ele>368.01766967773</ele>
        <time>2015-11-08T08:33:02.000Z</time>
      </trkpt>
      <trkpt lat="46.18549" lon="3.17664">
        <ele>367.81243896484</ele>
        <time>2015-11-08T08:33:04.000Z</time>
      </trkpt>
      <trkpt lat="46.18548" lon="3.17666">
        <ele>367.62808227539</ele>
        <time>2015-11-08T08:33:06.000Z</time>
      </trkpt>
      <trkpt lat="46.18546" lon="3.1767">
        <ele>367.45770263672</ele>
        <time>2015-11-08T08:33:08.000Z</time>
      </trkpt>
      <trkpt lat="46.18545" lon="3.17672">
        <ele>367.30819702148</ele>
        <time>2015-11-08T08:33:11.000Z</time>
      </trkpt>
      <trkpt lat="46.18543" lon="3.17673">
        <ele>367.18496704102</ele>
        <time>2015-11-08T08:33:14.000Z</time>
      </trkpt>
      <trkpt lat="46.18541" lon="3.17674">
        <ele>367.06356811523</ele>
        <time>2015-11-08T08:33:17.000Z</time>
      </trkpt>
      <trkpt lat="46.18539" lon="3.17678">
        <ele>366.93551635742</ele>
        <time>2015-11-08T08:33:19.000Z</time>
      </trkpt>
      <trkpt lat="46.18537" lon="3.17681">
        <ele>366.81567382812</ele>
        <time>2015-11-08T08:33:21.000Z</time>
      </trkpt>
      <trkpt lat="46.18536" lon="3.17684">
        <ele>366.68411254883</ele>
        <time>2015-11-08T08:33:24.000Z</time>
      </trkpt>
      <trkpt lat="46.18534" lon="3.17686">
        <ele>366.55477905273</ele>
        <time>2015-11-08T08:33:26.000Z</time>
      </trkpt>
      <trkpt lat="46.18533" lon="3.17688">
        <ele>366.43609619141</ele>
        <time>2015-11-08T08:33:29.000Z</time>
      </trkpt>
      <trkpt lat="46.18531" lon="3.17692">
        <ele>366.31463623047</ele>
        <time>2015-11-08T08:33:31.000Z</time>
      </trkpt>
      <trkpt lat="46.18528" lon="3.17696">
        <ele>366.18231201172</ele>
        <time>2015-11-08T08:33:34.000Z</time>
      </trkpt>
      <trkpt lat="46.18527" lon="3.17699">
        <ele>366.05755615234</ele>
        <time>2015-11-08T08:33:37.000Z</time>
      </trkpt>
      <trkpt lat="46.18524" lon="3.17703">
        <ele>365.91375732422</ele>
        <time>2015-11-08T08:33:39.000Z</time>
      </trkpt>
      <trkpt lat="46.18522" lon="3.17706">
        <ele>365.75769042969</ele>
        <time>2015-11-08T08:33:42.000Z</time>
      </trkpt>
      <trkpt lat="46.1852" lon="3.1771">
        <ele>365.60894775391</ele>
        <time>2015-11-08T08:33:44.000Z</time>
      </trkpt>
      <trkpt lat="46.18518" lon="3.17711">
        <ele>365.47943115234</ele>
        <time>2015-11-08T08:33:47.000Z</time>
      </trkpt>
      <trkpt lat="46.18515" lon="3.17714">
        <ele>365.33358764648</ele>
        <time>2015-11-08T08:33:49.000Z</time>
      </trkpt>
      <trkpt lat="46.18514" lon="3.17716">
        <ele>365.21017456055</ele>
        <time>2015-11-08T08:33:51.000Z</time>
      </trkpt>
      <trkpt lat="46.18512" lon="3.17718">
        <ele>365.08724975586</ele>
        <time>2015-11-08T08:33:54.000Z</time>
      </trkpt>
      <trkpt lat="46.18509" lon="3.17719">
        <ele>364.97348022461</ele>
        <time>2015-11-08T08:33:56.000Z</time>
      </trkpt>
      <trkpt lat="46.18507" lon="3.17721">
        <ele>364.85452270508</ele>
        <time>2015-11-08T08:33:59.000Z</time>
      </trkpt>
      <trkpt lat="46.18505" lon="3.17723">
        <ele>364.74569702148</ele>
        <time>2015-11-08T08:34:01.000Z</time>
      </trkpt>
      <trkpt lat="46.18501" lon="3.17726">
        <ele>364.61141967773</ele>
        <time>2015-11-08T08:34:04.000Z</time>
      </trkpt>
      <trkpt lat="46.18497" lon="3.17729">
        <ele>364.48031616211</ele>
        <time>2015-11-08T08:34:07.000Z</time>
      </trkpt>
      <trkpt lat="46.18494" lon="3.17731">
        <ele>364.35614013672</ele>
        <time>2015-11-08T08:34:09.000Z</time>
      </trkpt>
      <trkpt lat="46.18492" lon="3.17734">
        <ele>364.24114990234</ele>
        <time>2015-11-08T08:34:12.000Z</time>
      </trkpt>
      <trkpt lat="46.1849" lon="3.17737">
        <ele>364.13909912109</ele>
        <time>2015-11-08T08:34:14.000Z</time>
      </trkpt>
      <trkpt lat="46.18488" lon="3.17739">
        <ele>364.06527709961</ele>
        <time>2015-11-08T08:34:17.000Z</time>
      </trkpt>
      <trkpt lat="46.18486" lon="3.17742">
        <ele>364.00329589844</ele>
        <time>2015-11-08T08:34:19.000Z</time>
      </trkpt>
      <trkpt lat="46.18483" lon="3.17744">
        <ele>363.9485168457</ele>
        <time>2015-11-08T08:34:21.000Z</time>
      </trkpt>
      <trkpt lat="46.18481" lon="3.17746">
        <ele>363.89724731445</ele>
        <time>2015-11-08T08:34:24.000Z</time>
      </trkpt>
      <trkpt lat="46.18478" lon="3.17748">
        <ele>363.84634399414</ele>
        <time>2015-11-08T08:34:26.000Z</time>
      </trkpt>
      <trkpt lat="46.18476" lon="3.17751">
        <ele>363.79891967773</ele>
        <time>2015-11-08T08:34:28.000Z</time>
      </trkpt>
      <trkpt lat="46.18473" lon="3.17754">
        <ele>363.75030517578</ele>
        <time>2015-11-08T08:34:31.000Z</time>
      </trkpt>
      <trkpt lat="46.1847" lon="3.17757">
        <ele>363.70013427734</ele>
        <time>2015-11-08T08:34:34.000Z</time>
      </trkpt>
      <trkpt lat="46.18469" lon="3.17759">
        <ele>363.65081787109</ele>
        <time>2015-11-08T08:34:36.000Z</time>
      </trkpt>
      <trkpt lat="46.18466" lon="3.17762">
        <ele>363.60256958008</ele>
        <time>2015-11-08T08:34:39.000Z</time>
      </trkpt>
      <trkpt lat="46.18463" lon="3.17765">
        <ele>363.55200195312</ele>
        <time>2015-11-08T08:34:41.000Z</time>
      </trkpt>
      <trkpt lat="46.18461" lon="3.17768">
        <ele>363.50610351562</ele>
        <time>2015-11-08T08:34:43.000Z</time>
      </trkpt>
      <trkpt lat="46.18459" lon="3.17771">
        <ele>363.46301269531</ele>
        <time>2015-11-08T08:34:45.000Z</time>
      </trkpt>
      <trkpt lat="46.18457" lon="3.17773">
        <ele>363.42025756836</ele>
        <time>2015-11-08T08:34:48.000Z</time>
      </trkpt>
      <trkpt lat="46.18454" lon="3.17777">
        <ele>363.3796081543</ele>
        <time>2015-11-08T08:34:51.000Z</time>
      </trkpt>
      <trkpt lat="46.18452" lon="3.17779">
        <ele>363.34411621094</ele>
        <time>2015-11-08T08:34:53.000Z</time>
      </trkpt>
      <trkpt lat="46.1845" lon="3.17782">
        <ele>363.31036376953</ele>
        <time>2015-11-08T08:34:56.000Z</time>
      </trkpt>
      <trkpt lat="46.18447" lon="3.17787">
        <ele>363.27484130859</ele>
        <time>2015-11-08T08:34:59.000Z</time>
      </trkpt>
      <trkpt lat="46.18443" lon="3.17793">
        <ele>363.23672485352</ele>
        <time>2015-11-08T08:35:02.000Z</time>
      </trkpt>
      <trkpt lat="46.18441" lon="3.17797">
        <ele>363.20205688477</ele>
        <time>2015-11-08T08:35:03.000Z</time>
      </trkpt>
      <trkpt lat="46.18439" lon="3.178">
        <ele>363.16787719727</ele>
        <time>2015-11-08T08:35:06.000Z</time>
      </trkpt>
      <trkpt lat="46.18438" lon="3.17803">
        <ele>363.13711547852</ele>
        <time>2015-11-08T08:35:09.000Z</time>
      </trkpt>
      <trkpt lat="46.18435" lon="3.17806">
        <ele>363.11154174805</ele>
        <time>2015-11-08T08:35:12.000Z</time>
      </trkpt>
      <trkpt lat="46.18433" lon="3.17808">
        <ele>363.09262084961</ele>
        <time>2015-11-08T08:35:14.000Z</time>
      </trkpt>
      <trkpt lat="46.18432" lon="3.1781">
        <ele>363.07708740234</ele>
        <time>2015-11-08T08:35:16.000Z</time>
      </trkpt>
      <trkpt lat="46.1843" lon="3.17814">
        <ele>363.06280517578</ele>
        <time>2015-11-08T08:35:19.000Z</time>
      </trkpt>
      <trkpt lat="46.18428" lon="3.17816">
        <ele>363.05001831055</ele>
        <time>2015-11-08T08:35:22.000Z</time>
      </trkpt>
      <trkpt lat="46.18425" lon="3.17821">
        <ele>363.03848266602</ele>
        <time>2015-11-08T08:35:25.000Z</time>
      </trkpt>
      <trkpt lat="46.18423" lon="3.17824">
        <ele>363.02822875977</ele>
        <time>2015-11-08T08:35:27.000Z</time>
      </trkpt>
      <trkpt lat="46.18423" lon="3.17826">
        <ele>363.01919555664</ele>
        <time>2015-11-08T08:35:29.000Z</time>
      </trkpt>
      <trkpt lat="46.18421" lon="3.17831">
        <ele>363.01214599609</ele>
        <time>2015-11-08T08:35:31.000Z</time>
      </trkpt>
      <trkpt lat="46.18419" lon="3.17834">
        <ele>363.00521850586</ele>
        <time>2015-11-08T08:35:34.000Z</time>
      </trkpt>
      <trkpt lat="46.18417" lon="3.17838">
        <ele>362.99029541016</ele>
        <time>2015-11-08T08:35:37.000Z</time>
      </trkpt>
      <trkpt lat="46.18414" lon="3.17842">
        <ele>362.98040771484</ele>
        <time>2015-11-08T08:35:39.000Z</time>
      </trkpt>
      <trkpt lat="46.18413" lon="3.17844">
        <ele>362.97186279297</ele>
        <time>2015-11-08T08:35:42.000Z</time>
      </trkpt>
      <trkpt lat="46.18411" lon="3.17848">
        <ele>362.96765136719</ele>
        <time>2015-11-08T08:35:44.000Z</time>
      </trkpt>
      <trkpt lat="46.18408" lon="3.17852">
        <ele>362.97344970703</ele>
        <time>2015-11-08T08:35:47.000Z</time>
      </trkpt>
      <trkpt lat="46.18406" lon="3.17857">
        <ele>362.99877929688</ele>
        <time>2015-11-08T08:35:51.000Z</time>
      </trkpt>
      <trkpt lat="46.18404" lon="3.17859">
        <ele>363.02447509766</ele>
        <time>2015-11-08T08:35:53.000Z</time>
      </trkpt>
      <trkpt lat="46.18402" lon="3.17862">
        <ele>363.05422973633</ele>
        <time>2015-11-08T08:35:55.000Z</time>
      </trkpt>
      <trkpt lat="46.18401" lon="3.17865">
        <ele>363.08374023438</ele>
        <time>2015-11-08T08:35:57.000Z</time>
      </trkpt>
      <trkpt lat="46.18399" lon="3.1787">
        <ele>363.11166381836</ele>
        <time>2015-11-08T08:36:01.000Z</time>
      </trkpt>
      <trkpt lat="46.18396" lon="3.17875">
        <ele>363.14422607422</ele>
        <time>2015-11-08T08:36:04.000Z</time>
      </trkpt>
      <trkpt lat="46.18394" lon="3.1788">
        <ele>363.18505859375</ele>
        <time>2015-11-08T08:36:07.000Z</time>
      </trkpt>
      <trkpt lat="46.18392" lon="3.17884">
        <ele>363.23208618164</ele>
        <time>2015-11-08T08:36:09.000Z</time>
      </trkpt>
      <trkpt lat="46.18391" lon="3.17886">
        <ele>363.28295898438</ele>
        <time>2015-11-08T08:36:11.000Z</time>
      </trkpt>
      <trkpt lat="46.18389" lon="3.1789">
        <ele>363.34063720703</ele>
        <time>2015-11-08T08:36:13.000Z</time>
      </trkpt>
      <trkpt lat="46.18388" lon="3.17893">
        <ele>363.3923034668</ele>
        <time>2015-11-08T08:36:15.000Z</time>
      </trkpt>
      <trkpt lat="46.18386" lon="3.17898">
        <ele>363.43829345703</ele>
        <time>2015-11-08T08:36:18.000Z</time>
      </trkpt>
      <trkpt lat="46.18384" lon="3.17902">
        <ele>363.48818969727</ele>
        <time>2015-11-08T08:36:20.000Z</time>
      </trkpt>
      <trkpt lat="46.18383" lon="3.17906">
        <ele>363.54013061523</ele>
        <time>2015-11-08T08:36:23.000Z</time>
      </trkpt>
      <trkpt lat="46.18381" lon="3.1791">
        <ele>363.59539794922</ele>
        <time>2015-11-08T08:36:26.000Z</time>
      </trkpt>
      <trkpt lat="46.18379" lon="3.17914">
        <ele>363.66079711914</ele>
        <time>2015-11-08T08:36:29.000Z</time>
      </trkpt>
      <trkpt lat="46.18377" lon="3.17918">
        <ele>363.73248291016</ele>
        <time>2015-11-08T08:36:32.000Z</time>
      </trkpt>
      <trkpt lat="46.18375" lon="3.17921">
        <ele>363.79083251953</ele>
        <time>2015-11-08T08:36:34.000Z</time>
      </trkpt>
      <trkpt lat="46.18373" lon="3.17923">
        <ele>363.83843994141</ele>
        <time>2015-11-08T08:36:37.000Z</time>
      </trkpt>
      <trkpt lat="46.18372" lon="3.17926">
        <ele>363.86807250977</ele>
        <time>2015-11-08T08:36:39.000Z</time>
      </trkpt>
      <trkpt lat="46.1837" lon="3.17929">
        <ele>363.8818359375</ele>
        <time>2015-11-08T08:36:42.000Z</time>
      </trkpt>
      <trkpt lat="46.18368" lon="3.17931">
        <ele>363.87908935547</ele>
        <time>2015-11-08T08:36:44.000Z</time>
      </trkpt>
      <trkpt lat="46.18367" lon="3.17934">
        <ele>363.87475585938</ele>
        <time>2015-11-08T08:36:46.000Z</time>
      </trkpt>
      <trkpt lat="46.18364" lon="3.17936">
        <ele>363.88446044922</ele>
        <time>2015-11-08T08:36:49.000Z</time>
      </trkpt>
      <trkpt lat="46.18362" lon="3.17938">
        <ele>363.88995361328</ele>
        <time>2015-11-08T08:36:52.000Z</time>
      </trkpt>
      <trkpt lat="46.18361" lon="3.17941">
        <ele>363.89605712891</ele>
        <time>2015-11-08T08:36:54.000Z</time>
      </trkpt>
      <trkpt lat="46.1836" lon="3.17942">
        <ele>363.90786743164</ele>
        <time>2015-11-08T08:36:58.000Z</time>
      </trkpt>
      <trkpt lat="46.18359" lon="3.17942">
        <ele>363.92666625977</ele>
        <time>2015-11-08T08:37:01.000Z</time>
      </trkpt>
      <trkpt lat="46.18359" lon="3.17942">
        <ele>363.92666625977</ele>
        <time>2015-11-08T08:37:21.000Z</time>
      </trkpt>
      <trkpt lat="46.18357" lon="3.17943">
        <ele>363.93969726562</ele>
        <time>2015-11-08T08:37:27.000Z</time>
      </trkpt>
      <trkpt lat="46.18354" lon="3.17944">
        <ele>363.97296142578</ele>
        <time>2015-11-08T08:37:29.000Z</time>
      </trkpt>
      <trkpt lat="46.18352" lon="3.17946">
        <ele>364.02059936523</ele>
        <time>2015-11-08T08:37:32.000Z</time>
      </trkpt>
      <trkpt lat="46.18349" lon="3.17946">
        <ele>364.08282470703</ele>
        <time>2015-11-08T08:37:34.000Z</time>
      </trkpt>
      <trkpt lat="46.18347" lon="3.17948">
        <ele>364.1513671875</ele>
        <time>2015-11-08T08:37:36.000Z</time>
      </trkpt>
      <trkpt lat="46.18344" lon="3.17948">
        <ele>364.23422241211</ele>
        <time>2015-11-08T08:37:38.000Z</time>
      </trkpt>
      <trkpt lat="46.18341" lon="3.17949">
        <ele>364.32186889648</ele>
        <time>2015-11-08T08:37:41.000Z</time>
      </trkpt>
      <trkpt lat="46.18337" lon="3.1795">
        <ele>364.41796875</ele>
        <time>2015-11-08T08:37:44.000Z</time>
      </trkpt>
      <trkpt lat="46.18335" lon="3.17951">
        <ele>364.51162719727</ele>
        <time>2015-11-08T08:37:46.000Z</time>
      </trkpt>
      <trkpt lat="46.18332" lon="3.17952">
        <ele>364.60375976562</ele>
        <time>2015-11-08T08:37:49.000Z</time>
      </trkpt>
      <trkpt lat="46.18328" lon="3.17954">
        <ele>364.67218017578</ele>
        <time>2015-11-08T08:37:52.000Z</time>
      </trkpt>
      <trkpt lat="46.18326" lon="3.17955">
        <ele>364.72290039062</ele>
        <time>2015-11-08T08:37:54.000Z</time>
      </trkpt>
      <trkpt lat="46.18322" lon="3.17954">
        <ele>364.76580810547</ele>
        <time>2015-11-08T08:37:57.000Z</time>
      </trkpt>
      <trkpt lat="46.18319" lon="3.17955">
        <ele>364.80072021484</ele>
        <time>2015-11-08T08:37:59.000Z</time>
      </trkpt>
      <trkpt lat="46.18315" lon="3.17956">
        <ele>364.83163452148</ele>
        <time>2015-11-08T08:38:02.000Z</time>
      </trkpt>
      <trkpt lat="46.18313" lon="3.17956">
        <ele>364.86849975586</ele>
        <time>2015-11-08T08:38:04.000Z</time>
      </trkpt>
      <trkpt lat="46.1831" lon="3.17958">
        <ele>364.90567016602</ele>
        <time>2015-11-08T08:38:07.000Z</time>
      </trkpt>
      <trkpt lat="46.18307" lon="3.1796">
        <ele>364.92236328125</ele>
        <time>2015-11-08T08:38:09.000Z</time>
      </trkpt>
      <trkpt lat="46.18305" lon="3.1796">
        <ele>364.93392944336</ele>
        <time>2015-11-08T08:38:12.000Z</time>
      </trkpt>
      <trkpt lat="46.18301" lon="3.17961">
        <ele>364.94622802734</ele>
        <time>2015-11-08T08:38:14.000Z</time>
      </trkpt>
      <trkpt lat="46.18299" lon="3.17963">
        <ele>364.95697021484</ele>
        <time>2015-11-08T08:38:17.000Z</time>
      </trkpt>
      <trkpt lat="46.18296" lon="3.17963">
        <ele>364.97406005859</ele>
        <time>2015-11-08T08:38:19.000Z</time>
      </trkpt>
      <trkpt lat="46.18293" lon="3.17964">
        <ele>364.99584960938</ele>
        <time>2015-11-08T08:38:22.000Z</time>
      </trkpt>
      <trkpt lat="46.18289" lon="3.17966">
        <ele>365.02194213867</ele>
        <time>2015-11-08T08:38:24.000Z</time>
      </trkpt>
      <trkpt lat="46.18285" lon="3.17967">
        <ele>365.04553222656</ele>
        <time>2015-11-08T08:38:28.000Z</time>
      </trkpt>
      <trkpt lat="46.18282" lon="3.17969">
        <ele>365.06997680664</ele>
        <time>2015-11-08T08:38:31.000Z</time>
      </trkpt>
      <trkpt lat="46.1828" lon="3.1797">
        <ele>365.09091186523</ele>
        <time>2015-11-08T08:38:34.000Z</time>
      </trkpt>
      <trkpt lat="46.18276" lon="3.17972">
        <ele>365.11596679688</ele>
        <time>2015-11-08T08:38:36.000Z</time>
      </trkpt>
      <trkpt lat="46.18273" lon="3.17973">
        <ele>365.14099121094</ele>
        <time>2015-11-08T08:38:39.000Z</time>
      </trkpt>
      <trkpt lat="46.1827" lon="3.17973">
        <ele>365.17025756836</ele>
        <time>2015-11-08T08:38:41.000Z</time>
      </trkpt>
      <trkpt lat="46.18267" lon="3.17974">
        <ele>365.20416259766</ele>
        <time>2015-11-08T08:38:44.000Z</time>
      </trkpt>
      <trkpt lat="46.18263" lon="3.17975">
        <ele>365.24420166016</ele>
        <time>2015-11-08T08:38:47.000Z</time>
      </trkpt>
      <trkpt lat="46.18261" lon="3.17975">
        <ele>365.28823852539</ele>
        <time>2015-11-08T08:38:49.000Z</time>
      </trkpt>
      <trkpt lat="46.18258" lon="3.17976">
        <ele>365.33062744141</ele>
        <time>2015-11-08T08:38:52.000Z</time>
      </trkpt>
      <trkpt lat="46.18256" lon="3.17977">
        <ele>365.36846923828</ele>
        <time>2015-11-08T08:38:54.000Z</time>
      </trkpt>
      <trkpt lat="46.18252" lon="3.17978">
        <ele>365.40942382812</ele>
        <time>2015-11-08T08:38:57.000Z</time>
      </trkpt>
      <trkpt lat="46.18248" lon="3.1798">
        <ele>365.46273803711</ele>
        <time>2015-11-08T08:39:00.000Z</time>
      </trkpt>
      <trkpt lat="46.18247" lon="3.1798">
        <ele>365.52801513672</ele>
        <time>2015-11-08T08:39:02.000Z</time>
      </trkpt>
      <trkpt lat="46.18243" lon="3.17981">
        <ele>365.63919067383</ele>
        <time>2015-11-08T08:39:05.000Z</time>
      </trkpt>
      <trkpt lat="46.1824" lon="3.17982">
        <ele>365.77679443359</ele>
        <time>2015-11-08T08:39:08.000Z</time>
      </trkpt>
      <trkpt lat="46.18237" lon="3.1798">
        <ele>365.94915771484</ele>
        <time>2015-11-08T08:39:11.000Z</time>
      </trkpt>
      <trkpt lat="46.18233" lon="3.1798">
        <ele>366.15209960938</ele>
        <time>2015-11-08T08:39:14.000Z</time>
      </trkpt>
      <trkpt lat="46.18232" lon="3.1798">
        <ele>366.3564453125</ele>
        <time>2015-11-08T08:39:16.000Z</time>
      </trkpt>
      <trkpt lat="46.18228" lon="3.1798">
        <ele>366.56362915039</ele>
        <time>2015-11-08T08:39:19.000Z</time>
      </trkpt>
      <trkpt lat="46.18224" lon="3.1798">
        <ele>366.78903198242</ele>
        <time>2015-11-08T08:39:22.000Z</time>
      </trkpt>
      <trkpt lat="46.18221" lon="3.17982">
        <ele>367.00347900391</ele>
        <time>2015-11-08T08:39:25.000Z</time>
      </trkpt>
      <trkpt lat="46.18219" lon="3.17983">
        <ele>367.19091796875</ele>
        <time>2015-11-08T08:39:26.000Z</time>
      </trkpt>
      <trkpt lat="46.18216" lon="3.17985">
        <ele>367.39093017578</ele>
        <time>2015-11-08T08:39:29.000Z</time>
      </trkpt>
      <trkpt lat="46.18214" lon="3.17986">
        <ele>367.56838989258</ele>
        <time>2015-11-08T08:39:31.000Z</time>
      </trkpt>
      <trkpt lat="46.18211" lon="3.17987">
        <ele>367.73501586914</ele>
        <time>2015-11-08T08:39:33.000Z</time>
      </trkpt>
      <trkpt lat="46.18207" lon="3.17989">
        <ele>367.90777587891</ele>
        <time>2015-11-08T08:39:36.000Z</time>
      </trkpt>
      <trkpt lat="46.18203" lon="3.1799">
        <ele>368.10665893555</ele>
        <time>2015-11-08T08:39:39.000Z</time>
      </trkpt>
      <trkpt lat="46.182" lon="3.17991">
        <ele>368.31240844727</ele>
        <time>2015-11-08T08:39:41.000Z</time>
      </trkpt>
      <trkpt lat="46.18198" lon="3.17991">
        <ele>368.51669311523</ele>
        <time>2015-11-08T08:39:43.000Z</time>
      </trkpt>
      <trkpt lat="46.18196" lon="3.17991">
        <ele>368.7082824707</ele>
        <time>2015-11-08T08:39:46.000Z</time>
      </trkpt>
      <trkpt lat="46.18192" lon="3.17992">
        <ele>368.91555786133</ele>
        <time>2015-11-08T08:39:48.000Z</time>
      </trkpt>
      <trkpt lat="46.18189" lon="3.17992">
        <ele>369.10458374023</ele>
        <time>2015-11-08T08:39:51.000Z</time>
      </trkpt>
      <trkpt lat="46.18187" lon="3.17992">
        <ele>369.28396606445</ele>
        <time>2015-11-08T08:39:53.000Z</time>
      </trkpt>
      <trkpt lat="46.18184" lon="3.17993">
        <ele>369.47909545898</ele>
        <time>2015-11-08T08:39:56.000Z</time>
      </trkpt>
      <trkpt lat="46.1818" lon="3.17995">
        <ele>369.68896484375</ele>
        <time>2015-11-08T08:39:58.000Z</time>
      </trkpt>
      <trkpt lat="46.18177" lon="3.17997">
        <ele>369.88433837891</ele>
        <time>2015-11-08T08:40:01.000Z</time>
      </trkpt>
      <trkpt lat="46.18173" lon="3.17998">
        <ele>370.10015869141</ele>
        <time>2015-11-08T08:40:04.000Z</time>
      </trkpt>
      <trkpt lat="46.1817" lon="3.17999">
        <ele>370.32119750977</ele>
        <time>2015-11-08T08:40:06.000Z</time>
      </trkpt>
      <trkpt lat="46.18167" lon="3.18">
        <ele>370.53573608398</ele>
        <time>2015-11-08T08:40:09.000Z</time>
      </trkpt>
      <trkpt lat="46.18164" lon="3.18">
        <ele>370.77554321289</ele>
        <time>2015-11-08T08:40:12.000Z</time>
      </trkpt>
      <trkpt lat="46.18161" lon="3.18">
        <ele>371.029296875</ele>
        <time>2015-11-08T08:40:14.000Z</time>
      </trkpt>
      <trkpt lat="46.18158" lon="3.18001">
        <ele>371.27581787109</ele>
        <time>2015-11-08T08:40:17.000Z</time>
      </trkpt>
      <trkpt lat="46.18155" lon="3.18002">
        <ele>371.54718017578</ele>
        <time>2015-11-08T08:40:19.000Z</time>
      </trkpt>
      <trkpt lat="46.18153" lon="3.18002">
        <ele>371.81948852539</ele>
        <time>2015-11-08T08:40:22.000Z</time>
      </trkpt>
      <trkpt lat="46.18149" lon="3.18003">
        <ele>372.11117553711</ele>
        <time>2015-11-08T08:40:24.000Z</time>
      </trkpt>
      <trkpt lat="46.18147" lon="3.18003">
        <ele>372.37866210938</ele>
        <time>2015-11-08T08:40:27.000Z</time>
      </trkpt>
      <trkpt lat="46.18144" lon="3.18006">
        <ele>372.66015625</ele>
        <time>2015-11-08T08:40:29.000Z</time>
      </trkpt>
      <trkpt lat="46.18141" lon="3.18006">
        <ele>372.92474365234</ele>
        <time>2015-11-08T08:40:31.000Z</time>
      </trkpt>
      <trkpt lat="46.18139" lon="3.18007">
        <ele>373.19604492188</ele>
        <time>2015-11-08T08:40:35.000Z</time>
      </trkpt>
      <trkpt lat="46.18135" lon="3.18009">
        <ele>373.44085693359</ele>
        <time>2015-11-08T08:40:37.000Z</time>
      </trkpt>
      <trkpt lat="46.18133" lon="3.18009">
        <ele>373.69961547852</ele>
        <time>2015-11-08T08:40:39.000Z</time>
      </trkpt>
      <trkpt lat="46.1813" lon="3.1801">
        <ele>373.94793701172</ele>
        <time>2015-11-08T08:40:41.000Z</time>
      </trkpt>
      <trkpt lat="46.18127" lon="3.1801">
        <ele>374.20233154297</ele>
        <time>2015-11-08T08:40:43.000Z</time>
      </trkpt>
      <trkpt lat="46.18125" lon="3.1801">
        <ele>374.462890625</ele>
        <time>2015-11-08T08:40:46.000Z</time>
      </trkpt>
      <trkpt lat="46.18123" lon="3.18011">
        <ele>374.69302368164</ele>
        <time>2015-11-08T08:40:48.000Z</time>
      </trkpt>
      <trkpt lat="46.18119" lon="3.1801">
        <ele>374.94598388672</ele>
        <time>2015-11-08T08:40:50.000Z</time>
      </trkpt>
      <trkpt lat="46.18117" lon="3.18011">
        <ele>375.18304443359</ele>
        <time>2015-11-08T08:40:52.000Z</time>
      </trkpt>
      <trkpt lat="46.18114" lon="3.18011">
        <ele>375.43447875977</ele>
        <time>2015-11-08T08:40:55.000Z</time>
      </trkpt>
      <trkpt lat="46.18112" lon="3.18012">
        <ele>375.66180419922</ele>
        <time>2015-11-08T08:40:58.000Z</time>
      </trkpt>
      <trkpt lat="46.18109" lon="3.18014">
        <ele>375.91326904297</ele>
        <time>2015-11-08T08:41:00.000Z</time>
      </trkpt>
      <trkpt lat="46.18105" lon="3.18016">
        <ele>376.15130615234</ele>
        <time>2015-11-08T08:41:04.000Z</time>
      </trkpt>
      <trkpt lat="46.18102" lon="3.18017">
        <ele>376.41519165039</ele>
        <time>2015-11-08T08:41:07.000Z</time>
      </trkpt>
      <trkpt lat="46.18098" lon="3.18018">
        <ele>376.67904663086</ele>
        <time>2015-11-08T08:41:09.000Z</time>
      </trkpt>
      <trkpt lat="46.18095" lon="3.1802">
        <ele>376.95355224609</ele>
        <time>2015-11-08T08:41:12.000Z</time>
      </trkpt>
      <trkpt lat="46.18092" lon="3.18022">
        <ele>377.22235107422</ele>
        <time>2015-11-08T08:41:14.000Z</time>
      </trkpt>
      <trkpt lat="46.1809" lon="3.18023">
        <ele>377.45895385742</ele>
        <time>2015-11-08T08:41:17.000Z</time>
      </trkpt>
      <trkpt lat="46.18087" lon="3.18025">
        <ele>377.68936157227</ele>
        <time>2015-11-08T08:41:19.000Z</time>
      </trkpt>
      <trkpt lat="46.18084" lon="3.18026">
        <ele>377.8896484375</ele>
        <time>2015-11-08T08:41:21.000Z</time>
      </trkpt>
      <trkpt lat="46.18082" lon="3.18027">
        <ele>378.09060668945</ele>
        <time>2015-11-08T08:41:24.000Z</time>
      </trkpt>
      <trkpt lat="46.1808" lon="3.18028">
        <ele>378.27612304688</ele>
        <time>2015-11-08T08:41:27.000Z</time>
      </trkpt>
      <trkpt lat="46.18077" lon="3.18029">
        <ele>378.48101806641</ele>
        <time>2015-11-08T08:41:29.000Z</time>
      </trkpt>
      <trkpt lat="46.18075" lon="3.18029">
        <ele>378.66436767578</ele>
        <time>2015-11-08T08:41:31.000Z</time>
      </trkpt>
      <trkpt lat="46.18072" lon="3.18031">
        <ele>378.87213134766</ele>
        <time>2015-11-08T08:41:34.000Z</time>
      </trkpt>
      <trkpt lat="46.18069" lon="3.18031">
        <ele>379.08868408203</ele>
        <time>2015-11-08T08:41:37.000Z</time>
      </trkpt>
      <trkpt lat="46.18066" lon="3.18032">
        <ele>379.31338500977</ele>
        <time>2015-11-08T08:41:39.000Z</time>
      </trkpt>
      <trkpt lat="46.18063" lon="3.18033">
        <ele>379.55743408203</ele>
        <time>2015-11-08T08:41:42.000Z</time>
      </trkpt>
      <trkpt lat="46.18059" lon="3.18034">
        <ele>379.83038330078</ele>
        <time>2015-11-08T08:41:44.000Z</time>
      </trkpt>
      <trkpt lat="46.18058" lon="3.18034">
        <ele>380.07208251953</ele>
        <time>2015-11-08T08:41:46.000Z</time>
      </trkpt>
      <trkpt lat="46.18056" lon="3.18036">
        <ele>380.27932739258</ele>
        <time>2015-11-08T08:41:49.000Z</time>
      </trkpt>
      <trkpt lat="46.18053" lon="3.18038">
        <ele>380.49063110352</ele>
        <time>2015-11-08T08:41:52.000Z</time>
      </trkpt>
      <trkpt lat="46.18051" lon="3.18039">
        <ele>380.671875</ele>
        <time>2015-11-08T08:41:54.000Z</time>
      </trkpt>
      <trkpt lat="46.18047" lon="3.18041">
        <ele>380.85940551758</ele>
        <time>2015-11-08T08:41:57.000Z</time>
      </trkpt>
      <trkpt lat="46.18043" lon="3.18042">
        <ele>381.07818603516</ele>
        <time>2015-11-08T08:41:59.000Z</time>
      </trkpt>
      <trkpt lat="46.1804" lon="3.18042">
        <ele>381.32623291016</ele>
        <time>2015-11-08T08:42:02.000Z</time>
      </trkpt>
      <trkpt lat="46.18037" lon="3.18043">
        <ele>381.58416748047</ele>
        <time>2015-11-08T08:42:04.000Z</time>
      </trkpt>
      <trkpt lat="46.18035" lon="3.18044">
        <ele>381.85034179688</ele>
        <time>2015-11-08T08:42:07.000Z</time>
      </trkpt>
      <trkpt lat="46.1803" lon="3.18046">
        <ele>382.11181640625</ele>
        <time>2015-11-08T08:42:10.000Z</time>
      </trkpt>
      <trkpt lat="46.18028" lon="3.18047">
        <ele>382.34674072266</ele>
        <time>2015-11-08T08:42:12.000Z</time>
      </trkpt>
      <trkpt lat="46.18027" lon="3.18047">
        <ele>382.5666809082</ele>
        <time>2015-11-08T08:42:14.000Z</time>
      </trkpt>
      <trkpt lat="46.18024" lon="3.18048">
        <ele>382.76156616211</ele>
        <time>2015-11-08T08:42:16.000Z</time>
      </trkpt>
      <trkpt lat="46.18021" lon="3.18049">
        <ele>382.97045898438</ele>
        <time>2015-11-08T08:42:19.000Z</time>
      </trkpt>
      <trkpt lat="46.18018" lon="3.18049">
        <ele>383.16061401367</ele>
        <time>2015-11-08T08:42:22.000Z</time>
      </trkpt>
      <trkpt lat="46.18015" lon="3.18051">
        <ele>383.36785888672</ele>
        <time>2015-11-08T08:42:24.000Z</time>
      </trkpt>
      <trkpt lat="46.18013" lon="3.18051">
        <ele>383.58322143555</ele>
        <time>2015-11-08T08:42:27.000Z</time>
      </trkpt>
      <trkpt lat="46.1801" lon="3.18053">
        <ele>383.80474853516</ele>
        <time>2015-11-08T08:42:29.000Z</time>
      </trkpt>
      <trkpt lat="46.18007" lon="3.18054">
        <ele>384.01263427734</ele>
        <time>2015-11-08T08:42:31.000Z</time>
      </trkpt>
      <trkpt lat="46.18003" lon="3.18055">
        <ele>384.2421875</ele>
        <time>2015-11-08T08:42:34.000Z</time>
      </trkpt>
      <trkpt lat="46.18" lon="3.18056">
        <ele>384.45947265625</ele>
        <time>2015-11-08T08:42:37.000Z</time>
      </trkpt>
      <trkpt lat="46.17998" lon="3.18057">
        <ele>384.66543579102</ele>
        <time>2015-11-08T08:42:39.000Z</time>
      </trkpt>
      <trkpt lat="46.17994" lon="3.18058">
        <ele>384.86099243164</ele>
        <time>2015-11-08T08:42:42.000Z</time>
      </trkpt>
      <trkpt lat="46.1799" lon="3.18059">
        <ele>385.05065917969</ele>
        <time>2015-11-08T08:42:45.000Z</time>
      </trkpt>
      <trkpt lat="46.17988" lon="3.1806">
        <ele>385.18792724609</ele>
        <time>2015-11-08T08:42:47.000Z</time>
      </trkpt>
      <trkpt lat="46.17984" lon="3.18062">
        <ele>385.30361938477</ele>
        <time>2015-11-08T08:42:49.000Z</time>
      </trkpt>
      <trkpt lat="46.17981" lon="3.18064">
        <ele>385.41317749023</ele>
        <time>2015-11-08T08:42:52.000Z</time>
      </trkpt>
      <trkpt lat="46.17978" lon="3.18065">
        <ele>385.52264404297</ele>
        <time>2015-11-08T08:42:54.000Z</time>
      </trkpt>
      <trkpt lat="46.17975" lon="3.18067">
        <ele>385.61334228516</ele>
        <time>2015-11-08T08:42:57.000Z</time>
      </trkpt>
      <trkpt lat="46.17972" lon="3.18069">
        <ele>385.70196533203</ele>
        <time>2015-11-08T08:42:59.000Z</time>
      </trkpt>
      <trkpt lat="46.17969" lon="3.18071">
        <ele>385.79107666016</ele>
        <time>2015-11-08T08:43:01.000Z</time>
      </trkpt>
      <trkpt lat="46.17966" lon="3.18072">
        <ele>385.87390136719</ele>
        <time>2015-11-08T08:43:04.000Z</time>
      </trkpt>
      <trkpt lat="46.17963" lon="3.18074">
        <ele>385.94714355469</ele>
        <time>2015-11-08T08:43:07.000Z</time>
      </trkpt>
      <trkpt lat="46.17961" lon="3.18076">
        <ele>386.01519775391</ele>
        <time>2015-11-08T08:43:09.000Z</time>
      </trkpt>
      <trkpt lat="46.17957" lon="3.18077">
        <ele>386.09710693359</ele>
        <time>2015-11-08T08:43:12.000Z</time>
      </trkpt>
      <trkpt lat="46.17953" lon="3.18078">
        <ele>386.19226074219</ele>
        <time>2015-11-08T08:43:15.000Z</time>
      </trkpt>
      <trkpt lat="46.1795" lon="3.18079">
        <ele>386.29736328125</ele>
        <time>2015-11-08T08:43:17.000Z</time>
      </trkpt>
      <trkpt lat="46.17947" lon="3.18079">
        <ele>386.41949462891</ele>
        <time>2015-11-08T08:43:20.000Z</time>
      </trkpt>
      <trkpt lat="46.17945" lon="3.18078">
        <ele>386.55548095703</ele>
        <time>2015-11-08T08:43:22.000Z</time>
      </trkpt>
      <trkpt lat="46.17941" lon="3.18079">
        <ele>386.69940185547</ele>
        <time>2015-11-08T08:43:24.000Z</time>
      </trkpt>
      <trkpt lat="46.17939" lon="3.18079">
        <ele>386.82232666016</ele>
        <time>2015-11-08T08:43:27.000Z</time>
      </trkpt>
      <trkpt lat="46.17936" lon="3.18081">
        <ele>386.94586181641</ele>
        <time>2015-11-08T08:43:29.000Z</time>
      </trkpt>
      <trkpt lat="46.17933" lon="3.18082">
        <ele>387.0546875</ele>
        <time>2015-11-08T08:43:32.000Z</time>
      </trkpt>
      <trkpt lat="46.17931" lon="3.18083">
        <ele>387.16253662109</ele>
        <time>2015-11-08T08:43:34.000Z</time>
      </trkpt>
      <trkpt lat="46.17929" lon="3.18082">
        <ele>387.25280761719</ele>
        <time>2015-11-08T08:43:37.000Z</time>
      </trkpt>
      <trkpt lat="46.17926" lon="3.18083">
        <ele>387.35479736328</ele>
        <time>2015-11-08T08:43:39.000Z</time>
      </trkpt>
      <trkpt lat="46.17923" lon="3.18084">
        <ele>387.45660400391</ele>
        <time>2015-11-08T08:43:41.000Z</time>
      </trkpt>
      <trkpt lat="46.1792" lon="3.18085">
        <ele>387.56936645508</ele>
        <time>2015-11-08T08:43:44.000Z</time>
      </trkpt>
      <trkpt lat="46.17915" lon="3.18088">
        <ele>387.70526123047</ele>
        <time>2015-11-08T08:43:47.000Z</time>
      </trkpt>
      <trkpt lat="46.17911" lon="3.18089">
        <ele>387.8717956543</ele>
        <time>2015-11-08T08:43:49.000Z</time>
      </trkpt>
      <trkpt lat="46.17908" lon="3.1809">
        <ele>388.04779052734</ele>
        <time>2015-11-08T08:43:51.000Z</time>
      </trkpt>
      <trkpt lat="46.17906" lon="3.1809">
        <ele>388.23907470703</ele>
        <time>2015-11-08T08:43:54.000Z</time>
      </trkpt>
      <trkpt lat="46.17903" lon="3.1809">
        <ele>388.44213867188</ele>
        <time>2015-11-08T08:43:57.000Z</time>
      </trkpt>
      <trkpt lat="46.179" lon="3.18092">
        <ele>388.64074707031</ele>
        <time>2015-11-08T08:44:00.000Z</time>
      </trkpt>
      <trkpt lat="46.17897" lon="3.18093">
        <ele>388.81457519531</ele>
        <time>2015-11-08T08:44:02.000Z</time>
      </trkpt>
      <trkpt lat="46.17894" lon="3.18095">
        <ele>389.00146484375</ele>
        <time>2015-11-08T08:44:05.000Z</time>
      </trkpt>
      <trkpt lat="46.17891" lon="3.18096">
        <ele>389.17919921875</ele>
        <time>2015-11-08T08:44:07.000Z</time>
      </trkpt>
      <trkpt lat="46.17887" lon="3.18098">
        <ele>389.3671875</ele>
        <time>2015-11-08T08:44:09.000Z</time>
      </trkpt>
      <trkpt lat="46.17886" lon="3.18098">
        <ele>389.53039550781</ele>
        <time>2015-11-08T08:44:12.000Z</time>
      </trkpt>
      <trkpt lat="46.17884" lon="3.18099">
        <ele>389.69299316406</ele>
        <time>2015-11-08T08:44:15.000Z</time>
      </trkpt>
      <trkpt lat="46.17883" lon="3.18101">
        <ele>389.81665039062</ele>
        <time>2015-11-08T08:44:18.000Z</time>
      </trkpt>
      <trkpt lat="46.17883" lon="3.18102">
        <ele>389.91516113281</ele>
        <time>2015-11-08T08:44:21.000Z</time>
      </trkpt>
      <trkpt lat="46.17882" lon="3.18103">
        <ele>389.97180175781</ele>
        <time>2015-11-08T08:44:24.000Z</time>
      </trkpt>
      <trkpt lat="46.1788" lon="3.18103">
        <ele>390.033203125</ele>
        <time>2015-11-08T08:44:27.000Z</time>
      </trkpt>
      <trkpt lat="46.1788" lon="3.18103">
        <ele>390.033203125</ele>
        <time>2015-11-08T08:44:47.000Z</time>
      </trkpt>
      <trkpt lat="46.17879" lon="3.18105">
        <ele>390.07470703125</ele>
        <time>2015-11-08T08:45:02.000Z</time>
      </trkpt>
      <trkpt lat="46.17879" lon="3.18105">
        <ele>390.07470703125</ele>
        <time>2015-11-08T08:45:22.000Z</time>
      </trkpt>
      <trkpt lat="46.17879" lon="3.18107">
        <ele>390.10998535156</ele>
        <time>2015-11-08T08:45:28.000Z</time>
      </trkpt>
      <trkpt lat="46.17879" lon="3.18107">
        <ele>390.10998535156</ele>
        <time>2015-11-08T08:45:48.000Z</time>
      </trkpt>
      <trkpt lat="46.1788" lon="3.18107">
        <ele>390.12390136719</ele>
        <time>2015-11-08T08:46:08.000Z</time>
      </trkpt>
      <trkpt lat="46.17881" lon="3.18105">
        <ele>390.13244628906</ele>
        <time>2015-11-08T08:46:11.000Z</time>
      </trkpt>
      <trkpt lat="46.17881" lon="3.18102">
        <ele>390.12243652344</ele>
        <time>2015-11-08T08:46:14.000Z</time>
      </trkpt>
      <trkpt lat="46.17882" lon="3.18099">
        <ele>390.11474609375</ele>
        <time>2015-11-08T08:46:16.000Z</time>
      </trkpt>
      <trkpt lat="46.17881" lon="3.18096">
        <ele>390.13671875</ele>
        <time>2015-11-08T08:46:19.000Z</time>
      </trkpt>
      <trkpt lat="46.1788" lon="3.18094">
        <ele>390.19995117188</ele>
        <time>2015-11-08T08:46:21.000Z</time>
      </trkpt>
      <trkpt lat="46.17879" lon="3.18092">
        <ele>390.27429199219</ele>
        <time>2015-11-08T08:46:36.000Z</time>
      </trkpt>
      <trkpt lat="46.17878" lon="3.18088">
        <ele>390.39282226562</ele>
        <time>2015-11-08T08:46:38.000Z</time>
      </trkpt>
      <trkpt lat="46.17877" lon="3.18085">
        <ele>390.53479003906</ele>
        <time>2015-11-08T08:46:40.000Z</time>
      </trkpt>
      <trkpt lat="46.17876" lon="3.18081">
        <ele>390.67880249023</ele>
        <time>2015-11-08T08:46:43.000Z</time>
      </trkpt>
      <trkpt lat="46.17875" lon="3.18077">
        <ele>390.82266235352</ele>
        <time>2015-11-08T08:46:46.000Z</time>
      </trkpt>
      <trkpt lat="46.17874" lon="3.18074">
        <ele>390.97909545898</ele>
        <time>2015-11-08T08:46:48.000Z</time>
      </trkpt>
      <trkpt lat="46.17872" lon="3.1807">
        <ele>391.12249755859</ele>
        <time>2015-11-08T08:46:51.000Z</time>
      </trkpt>
      <trkpt lat="46.17871" lon="3.18065">
        <ele>391.27456665039</ele>
        <time>2015-11-08T08:46:54.000Z</time>
      </trkpt>
      <trkpt lat="46.17869" lon="3.1806">
        <ele>391.4384765625</ele>
        <time>2015-11-08T08:46:57.000Z</time>
      </trkpt>
      <trkpt lat="46.17867" lon="3.18055">
        <ele>391.61026000977</ele>
        <time>2015-11-08T08:47:00.000Z</time>
      </trkpt>
      <trkpt lat="46.17865" lon="3.1805">
        <ele>391.79046630859</ele>
        <time>2015-11-08T08:47:03.000Z</time>
      </trkpt>
      <trkpt lat="46.17864" lon="3.18047">
        <ele>391.96374511719</ele>
        <time>2015-11-08T08:47:06.000Z</time>
      </trkpt>
      <trkpt lat="46.17863" lon="3.18044">
        <ele>392.12112426758</ele>
        <time>2015-11-08T08:47:08.000Z</time>
      </trkpt>
      <trkpt lat="46.17861" lon="3.18039">
        <ele>392.26312255859</ele>
        <time>2015-11-08T08:47:11.000Z</time>
      </trkpt>
      <trkpt lat="46.1786" lon="3.18035">
        <ele>392.39022827148</ele>
        <time>2015-11-08T08:47:13.000Z</time>
      </trkpt>
      <trkpt lat="46.17859" lon="3.1803">
        <ele>392.50952148438</ele>
        <time>2015-11-08T08:47:16.000Z</time>
      </trkpt>
      <trkpt lat="46.17857" lon="3.18026">
        <ele>392.63092041016</ele>
        <time>2015-11-08T08:47:18.000Z</time>
      </trkpt>
      <trkpt lat="46.17855" lon="3.18023">
        <ele>392.74835205078</ele>
        <time>2015-11-08T08:47:21.000Z</time>
      </trkpt>
      <trkpt lat="46.17853" lon="3.18019">
        <ele>392.86785888672</ele>
        <time>2015-11-08T08:47:24.000Z</time>
      </trkpt>
      <trkpt lat="46.17852" lon="3.18017">
        <ele>392.98590087891</ele>
        <time>2015-11-08T08:47:26.000Z</time>
      </trkpt>
      <trkpt lat="46.17851" lon="3.18014">
        <ele>393.09115600586</ele>
        <time>2015-11-08T08:47:29.000Z</time>
      </trkpt>
      <trkpt lat="46.1785" lon="3.1801">
        <ele>393.17874145508</ele>
        <time>2015-11-08T08:47:33.000Z</time>
      </trkpt>
      <trkpt lat="46.17849" lon="3.18006">
        <ele>393.26449584961</ele>
        <time>2015-11-08T08:47:36.000Z</time>
      </trkpt>
      <trkpt lat="46.17848" lon="3.18004">
        <ele>393.33041381836</ele>
        <time>2015-11-08T08:47:38.000Z</time>
      </trkpt>
      <trkpt lat="46.17846" lon="3.17999">
        <ele>393.40283203125</ele>
        <time>2015-11-08T08:47:41.000Z</time>
      </trkpt>
      <trkpt lat="46.17844" lon="3.17996">
        <ele>393.48037719727</ele>
        <time>2015-11-08T08:47:44.000Z</time>
      </trkpt>
      <trkpt lat="46.17843" lon="3.17991">
        <ele>393.56341552734</ele>
        <time>2015-11-08T08:47:47.000Z</time>
      </trkpt>
      <trkpt lat="46.17842" lon="3.17987">
        <ele>393.64761352539</ele>
        <time>2015-11-08T08:47:49.000Z</time>
      </trkpt>
      <trkpt lat="46.17842" lon="3.17985">
        <ele>393.73284912109</ele>
        <time>2015-11-08T08:47:52.000Z</time>
      </trkpt>
      <trkpt lat="46.1784" lon="3.17981">
        <ele>393.82159423828</ele>
        <time>2015-11-08T08:47:54.000Z</time>
      </trkpt>
      <trkpt lat="46.17838" lon="3.17977">
        <ele>393.91131591797</ele>
        <time>2015-11-08T08:47:57.000Z</time>
      </trkpt>
      <trkpt lat="46.17836" lon="3.17972">
        <ele>394.00769042969</ele>
        <time>2015-11-08T08:48:00.000Z</time>
      </trkpt>
      <trkpt lat="46.17836" lon="3.17969">
        <ele>394.09985351562</ele>
        <time>2015-11-08T08:48:02.000Z</time>
      </trkpt>
      <trkpt lat="46.17834" lon="3.17965">
        <ele>394.20678710938</ele>
        <time>2015-11-08T08:48:05.000Z</time>
      </trkpt>
      <trkpt lat="46.17833" lon="3.17962">
        <ele>394.28857421875</ele>
        <time>2015-11-08T08:48:07.000Z</time>
      </trkpt>
      <trkpt lat="46.17831" lon="3.17957">
        <ele>394.34677124023</ele>
        <time>2015-11-08T08:48:10.000Z</time>
      </trkpt>
      <trkpt lat="46.1783" lon="3.17954">
        <ele>394.37738037109</ele>
        <time>2015-11-08T08:48:12.000Z</time>
      </trkpt>
      <trkpt lat="46.17828" lon="3.17949">
        <ele>394.38687133789</ele>
        <time>2015-11-08T08:48:15.000Z</time>
      </trkpt>
      <trkpt lat="46.17827" lon="3.17946">
        <ele>394.36859130859</ele>
        <time>2015-11-08T08:48:17.000Z</time>
      </trkpt>
      <trkpt lat="46.17826" lon="3.17944">
        <ele>394.34802246094</ele>
        <time>2015-11-08T08:48:19.000Z</time>
      </trkpt>
      <trkpt lat="46.17824" lon="3.17938">
        <ele>394.32360839844</ele>
        <time>2015-11-08T08:48:22.000Z</time>
      </trkpt>
      <trkpt lat="46.17823" lon="3.17934">
        <ele>394.29891967773</ele>
        <time>2015-11-08T08:48:24.000Z</time>
      </trkpt>
      <trkpt lat="46.17822" lon="3.17931">
        <ele>394.27941894531</ele>
        <time>2015-11-08T08:48:27.000Z</time>
      </trkpt>
      <trkpt lat="46.1782" lon="3.17927">
        <ele>394.25927734375</ele>
        <time>2015-11-08T08:48:29.000Z</time>
      </trkpt>
      <trkpt lat="46.17819" lon="3.17923">
        <ele>394.24252319336</ele>
        <time>2015-11-08T08:48:32.000Z</time>
      </trkpt>
      <trkpt lat="46.17817" lon="3.17918">
        <ele>394.22244262695</ele>
        <time>2015-11-08T08:48:35.000Z</time>
      </trkpt>
      <trkpt lat="46.17815" lon="3.17913">
        <ele>394.18597412109</ele>
        <time>2015-11-08T08:48:38.000Z</time>
      </trkpt>
      <trkpt lat="46.17813" lon="3.17908">
        <ele>394.13580322266</ele>
        <time>2015-11-08T08:48:41.000Z</time>
      </trkpt>
      <trkpt lat="46.17812" lon="3.17905">
        <ele>394.07080078125</ele>
        <time>2015-11-08T08:48:43.000Z</time>
      </trkpt>
      <trkpt lat="46.17809" lon="3.17901">
        <ele>393.9787902832</ele>
        <time>2015-11-08T08:48:46.000Z</time>
      </trkpt>
      <trkpt lat="46.17808" lon="3.17898">
        <ele>393.88320922852</ele>
        <time>2015-11-08T08:48:48.000Z</time>
      </trkpt>
      <trkpt lat="46.17806" lon="3.17894">
        <ele>393.79107666016</ele>
        <time>2015-11-08T08:48:51.000Z</time>
      </trkpt>
      <trkpt lat="46.17804" lon="3.1789">
        <ele>393.69256591797</ele>
        <time>2015-11-08T08:48:54.000Z</time>
      </trkpt>
      <trkpt lat="46.17802" lon="3.17887">
        <ele>393.59405517578</ele>
        <time>2015-11-08T08:48:56.000Z</time>
      </trkpt>
      <trkpt lat="46.17799" lon="3.17881">
        <ele>393.50042724609</ele>
        <time>2015-11-08T08:48:59.000Z</time>
      </trkpt>
      <trkpt lat="46.17797" lon="3.17877">
        <ele>393.39715576172</ele>
        <time>2015-11-08T08:49:02.000Z</time>
      </trkpt>
      <trkpt lat="46.17794" lon="3.17871">
        <ele>393.28970336914</ele>
        <time>2015-11-08T08:49:05.000Z</time>
      </trkpt>
      <trkpt lat="46.17792" lon="3.17869">
        <ele>393.19427490234</ele>
        <time>2015-11-08T08:49:07.000Z</time>
      </trkpt>
      <trkpt lat="46.1779" lon="3.17866">
        <ele>393.1032409668</ele>
        <time>2015-11-08T08:49:10.000Z</time>
      </trkpt>
      <trkpt lat="46.17789" lon="3.17863">
        <ele>393.02618408203</ele>
        <time>2015-11-08T08:49:12.000Z</time>
      </trkpt>
      <trkpt lat="46.17788" lon="3.17859">
        <ele>392.96728515625</ele>
        <time>2015-11-08T08:49:14.000Z</time>
      </trkpt>
      <trkpt lat="46.17786" lon="3.17855">
        <ele>392.91864013672</ele>
        <time>2015-11-08T08:49:17.000Z</time>
      </trkpt>
      <trkpt lat="46.17785" lon="3.17851">
        <ele>392.87329101562</ele>
        <time>2015-11-08T08:49:19.000Z</time>
      </trkpt>
      <trkpt lat="46.17782" lon="3.17846">
        <ele>392.83255004883</ele>
        <time>2015-11-08T08:49:22.000Z</time>
      </trkpt>
      <trkpt lat="46.1778" lon="3.17842">
        <ele>392.79071044922</ele>
        <time>2015-11-08T08:49:24.000Z</time>
      </trkpt>
      <trkpt lat="46.17778" lon="3.17837">
        <ele>392.74633789062</ele>
        <time>2015-11-08T08:49:27.000Z</time>
      </trkpt>
      <trkpt lat="46.17777" lon="3.17834">
        <ele>392.70806884766</ele>
        <time>2015-11-08T08:49:30.000Z</time>
      </trkpt>
      <trkpt lat="46.17775" lon="3.17831">
        <ele>392.66879272461</ele>
        <time>2015-11-08T08:49:32.000Z</time>
      </trkpt>
      <trkpt lat="46.17772" lon="3.17827">
        <ele>392.61578369141</ele>
        <time>2015-11-08T08:49:35.000Z</time>
      </trkpt>
      <trkpt lat="46.17771" lon="3.17824">
        <ele>392.56021118164</ele>
        <time>2015-11-08T08:49:38.000Z</time>
      </trkpt>
      <trkpt lat="46.17769" lon="3.17821">
        <ele>392.49649047852</ele>
        <time>2015-11-08T08:49:41.000Z</time>
      </trkpt>
      <trkpt lat="46.17767" lon="3.17815">
        <ele>392.41516113281</ele>
        <time>2015-11-08T08:49:44.000Z</time>
      </trkpt>
      <trkpt lat="46.17765" lon="3.17811">
        <ele>392.32473754883</ele>
        <time>2015-11-08T08:49:46.000Z</time>
      </trkpt>
      <trkpt lat="46.17764" lon="3.17808">
        <ele>392.24594116211</ele>
        <time>2015-11-08T08:49:48.000Z</time>
      </trkpt>
      <trkpt lat="46.17762" lon="3.17802">
        <ele>392.15518188477</ele>
        <time>2015-11-08T08:49:51.000Z</time>
      </trkpt>
      <trkpt lat="46.1776" lon="3.17797">
        <ele>392.056640625</ele>
        <time>2015-11-08T08:49:54.000Z</time>
      </trkpt>
      <trkpt lat="46.17759" lon="3.17794">
        <ele>391.96688842773</ele>
        <time>2015-11-08T08:49:56.000Z</time>
      </trkpt>
      <trkpt lat="46.17757" lon="3.17789">
        <ele>391.87298583984</ele>
        <time>2015-11-08T08:49:59.000Z</time>
      </trkpt>
      <trkpt lat="46.17754" lon="3.17784">
        <ele>391.76467895508</ele>
        <time>2015-11-08T08:50:02.000Z</time>
      </trkpt>
      <trkpt lat="46.17753" lon="3.17781">
        <ele>391.66494750977</ele>
        <time>2015-11-08T08:50:04.000Z</time>
      </trkpt>
      <trkpt lat="46.17751" lon="3.17776">
        <ele>391.56689453125</ele>
        <time>2015-11-08T08:50:07.000Z</time>
      </trkpt>
      <trkpt lat="46.1775" lon="3.17773">
        <ele>391.46575927734</ele>
        <time>2015-11-08T08:50:09.000Z</time>
      </trkpt>
      <trkpt lat="46.17748" lon="3.17768">
        <ele>391.3464050293</ele>
        <time>2015-11-08T08:50:12.000Z</time>
      </trkpt>
      <trkpt lat="46.17746" lon="3.17763">
        <ele>391.20428466797</ele>
        <time>2015-11-08T08:50:15.000Z</time>
      </trkpt>
      <trkpt lat="46.17745" lon="3.1776">
        <ele>391.05816650391</ele>
        <time>2015-11-08T08:50:17.000Z</time>
      </trkpt>
      <trkpt lat="46.17742" lon="3.17755">
        <ele>390.88168334961</ele>
        <time>2015-11-08T08:50:20.000Z</time>
      </trkpt>
      <trkpt lat="46.1774" lon="3.17752">
        <ele>390.68597412109</ele>
        <time>2015-11-08T08:50:22.000Z</time>
      </trkpt>
      <trkpt lat="46.17738" lon="3.17747">
        <ele>390.48449707031</ele>
        <time>2015-11-08T08:50:25.000Z</time>
      </trkpt>
      <trkpt lat="46.17736" lon="3.17742">
        <ele>390.27398681641</ele>
        <time>2015-11-08T08:50:28.000Z</time>
      </trkpt>
      <trkpt lat="46.17734" lon="3.17738">
        <ele>390.03677368164</ele>
        <time>2015-11-08T08:50:31.000Z</time>
      </trkpt>
      <trkpt lat="46.17733" lon="3.17734">
        <ele>389.82836914062</ele>
        <time>2015-11-08T08:50:34.000Z</time>
      </trkpt>
      <trkpt lat="46.17731" lon="3.17728">
        <ele>389.59887695312</ele>
        <time>2015-11-08T08:50:37.000Z</time>
      </trkpt>
      <trkpt lat="46.1773" lon="3.17725">
        <ele>389.37536621094</ele>
        <time>2015-11-08T08:50:39.000Z</time>
      </trkpt>
      <trkpt lat="46.17729" lon="3.17721">
        <ele>389.17517089844</ele>
        <time>2015-11-08T08:50:41.000Z</time>
      </trkpt>
      <trkpt lat="46.17726" lon="3.17716">
        <ele>388.95910644531</ele>
        <time>2015-11-08T08:50:44.000Z</time>
      </trkpt>
      <trkpt lat="46.17724" lon="3.17711">
        <ele>388.71374511719</ele>
        <time>2015-11-08T08:50:47.000Z</time>
      </trkpt>
      <trkpt lat="46.17723" lon="3.17708">
        <ele>388.48486328125</ele>
        <time>2015-11-08T08:50:49.000Z</time>
      </trkpt>
      <trkpt lat="46.1772" lon="3.17703">
        <ele>388.24426269531</ele>
        <time>2015-11-08T08:50:52.000Z</time>
      </trkpt>
      <trkpt lat="46.17719" lon="3.177">
        <ele>387.99841308594</ele>
        <time>2015-11-08T08:50:54.000Z</time>
      </trkpt>
      <trkpt lat="46.17717" lon="3.17696">
        <ele>387.77209472656</ele>
        <time>2015-11-08T08:50:57.000Z</time>
      </trkpt>
      <trkpt lat="46.17716" lon="3.1769">
        <ele>387.548828125</ele>
        <time>2015-11-08T08:51:00.000Z</time>
      </trkpt>
      <trkpt lat="46.17715" lon="3.17688">
        <ele>387.34094238281</ele>
        <time>2015-11-08T08:51:02.000Z</time>
      </trkpt>
      <trkpt lat="46.17713" lon="3.17683">
        <ele>387.13623046875</ele>
        <time>2015-11-08T08:51:05.000Z</time>
      </trkpt>
      <trkpt lat="46.17711" lon="3.1768">
        <ele>386.93041992188</ele>
        <time>2015-11-08T08:51:13.000Z</time>
      </trkpt>
      <trkpt lat="46.1771" lon="3.17675">
        <ele>386.720703125</ele>
        <time>2015-11-08T08:51:13.000Z</time>
      </trkpt>
      <trkpt lat="46.17709" lon="3.1767">
        <ele>386.52380371094</ele>
        <time>2015-11-08T08:51:13.000Z</time>
      </trkpt>
      <trkpt lat="46.17707" lon="3.17667">
        <ele>386.32080078125</ele>
        <time>2015-11-08T08:51:15.000Z</time>
      </trkpt>
      <trkpt lat="46.17706" lon="3.17664">
        <ele>386.13555908203</ele>
        <time>2015-11-08T08:51:18.000Z</time>
      </trkpt>
      <trkpt lat="46.17704" lon="3.1766">
        <ele>385.95071411133</ele>
        <time>2015-11-08T08:51:20.000Z</time>
      </trkpt>
      <trkpt lat="46.17703" lon="3.17657">
        <ele>385.79217529297</ele>
        <time>2015-11-08T08:51:22.000Z</time>
      </trkpt>
      <trkpt lat="46.17702" lon="3.17654">
        <ele>385.6467590332</ele>
        <time>2015-11-08T08:51:24.000Z</time>
      </trkpt>
      <trkpt lat="46.17699" lon="3.17649">
        <ele>385.48455810547</ele>
        <time>2015-11-08T08:51:27.000Z</time>
      </trkpt>
      <trkpt lat="46.17698" lon="3.17646">
        <ele>385.31646728516</ele>
        <time>2015-11-08T08:51:29.000Z</time>
      </trkpt>
      <trkpt lat="46.17696" lon="3.17643">
        <ele>385.16387939453</ele>
        <time>2015-11-08T08:51:31.000Z</time>
      </trkpt>
      <trkpt lat="46.17694" lon="3.17637">
        <ele>384.99401855469</ele>
        <time>2015-11-08T08:51:34.000Z</time>
      </trkpt>
      <trkpt lat="46.17693" lon="3.17633">
        <ele>384.81860351562</ele>
        <time>2015-11-08T08:51:37.000Z</time>
      </trkpt>
      <trkpt lat="46.17693" lon="3.17629">
        <ele>384.6708984375</ele>
        <time>2015-11-08T08:51:39.000Z</time>
      </trkpt>
      <trkpt lat="46.17691" lon="3.17623">
        <ele>384.52270507812</ele>
        <time>2015-11-08T08:51:42.000Z</time>
      </trkpt>
      <trkpt lat="46.1769" lon="3.1762">
        <ele>384.37966918945</ele>
        <time>2015-11-08T08:51:44.000Z</time>
      </trkpt>
      <trkpt lat="46.17688" lon="3.17613">
        <ele>384.22259521484</ele>
        <time>2015-11-08T08:51:47.000Z</time>
      </trkpt>
      <trkpt lat="46.17686" lon="3.17611">
        <ele>384.06988525391</ele>
        <time>2015-11-08T08:51:49.000Z</time>
      </trkpt>
      <trkpt lat="46.17685" lon="3.17605">
        <ele>383.90155029297</ele>
        <time>2015-11-08T08:51:52.000Z</time>
      </trkpt>
      <trkpt lat="46.17683" lon="3.176">
        <ele>383.72845458984</ele>
        <time>2015-11-08T08:51:55.000Z</time>
      </trkpt>
      <trkpt lat="46.17681" lon="3.17594">
        <ele>383.53182983398</ele>
        <time>2015-11-08T08:51:58.000Z</time>
      </trkpt>
      <trkpt lat="46.17679" lon="3.1759">
        <ele>383.353515625</ele>
        <time>2015-11-08T08:52:00.000Z</time>
      </trkpt>
      <trkpt lat="46.17677" lon="3.17587">
        <ele>383.16790771484</ele>
        <time>2015-11-08T08:52:02.000Z</time>
      </trkpt>
      <trkpt lat="46.17676" lon="3.17583">
        <ele>382.98770141602</ele>
        <time>2015-11-08T08:52:04.000Z</time>
      </trkpt>
      <trkpt lat="46.17673" lon="3.17578">
        <ele>382.83355712891</ele>
        <time>2015-11-08T08:52:07.000Z</time>
      </trkpt>
      <trkpt lat="46.17671" lon="3.17574">
        <ele>382.71694946289</ele>
        <time>2015-11-08T08:52:09.000Z</time>
      </trkpt>
      <trkpt lat="46.17669" lon="3.17569">
        <ele>382.62518310547</ele>
        <time>2015-11-08T08:52:12.000Z</time>
      </trkpt>
      <trkpt lat="46.17668" lon="3.17564">
        <ele>382.56936645508</ele>
        <time>2015-11-08T08:52:15.000Z</time>
      </trkpt>
      <trkpt lat="46.17667" lon="3.17561">
        <ele>382.54827880859</ele>
        <time>2015-11-08T08:52:17.000Z</time>
      </trkpt>
      <trkpt lat="46.17665" lon="3.17555">
        <ele>382.56506347656</ele>
        <time>2015-11-08T08:52:20.000Z</time>
      </trkpt>
      <trkpt lat="46.17664" lon="3.17552">
        <ele>382.60409545898</ele>
        <time>2015-11-08T08:52:22.000Z</time>
      </trkpt>
      <trkpt lat="46.17663" lon="3.17548">
        <ele>382.66610717773</ele>
        <time>2015-11-08T08:52:24.000Z</time>
      </trkpt>
      <trkpt lat="46.17661" lon="3.17545">
        <ele>382.73864746094</ele>
        <time>2015-11-08T08:52:26.000Z</time>
      </trkpt>
      <trkpt lat="46.1766" lon="3.1754">
        <ele>382.82534790039</ele>
        <time>2015-11-08T08:52:29.000Z</time>
      </trkpt>
      <trkpt lat="46.17658" lon="3.17537">
        <ele>382.90249633789</ele>
        <time>2015-11-08T08:52:31.000Z</time>
      </trkpt>
      <trkpt lat="46.17657" lon="3.17535">
        <ele>382.97119140625</ele>
        <time>2015-11-08T08:52:33.000Z</time>
      </trkpt>
      <trkpt lat="46.17654" lon="3.1753">
        <ele>383.04400634766</ele>
        <time>2015-11-08T08:52:36.000Z</time>
      </trkpt>
      <trkpt lat="46.17653" lon="3.17526">
        <ele>383.11572265625</ele>
        <time>2015-11-08T08:52:39.000Z</time>
      </trkpt>
      <trkpt lat="46.17651" lon="3.17523">
        <ele>383.18017578125</ele>
        <time>2015-11-08T08:52:41.000Z</time>
      </trkpt>
      <trkpt lat="46.1765" lon="3.1752">
        <ele>383.24362182617</ele>
        <time>2015-11-08T08:52:43.000Z</time>
      </trkpt>
      <trkpt lat="46.17648" lon="3.17515">
        <ele>383.31860351562</ele>
        <time>2015-11-08T08:52:46.000Z</time>
      </trkpt>
      <trkpt lat="46.17646" lon="3.17511">
        <ele>383.38677978516</ele>
        <time>2015-11-08T08:52:48.000Z</time>
      </trkpt>
      <trkpt lat="46.17645" lon="3.17505">
        <ele>383.45904541016</ele>
        <time>2015-11-08T08:52:51.000Z</time>
      </trkpt>
      <trkpt lat="46.17643" lon="3.17501">
        <ele>383.53359985352</ele>
        <time>2015-11-08T08:52:53.000Z</time>
      </trkpt>
      <trkpt lat="46.17641" lon="3.17497">
        <ele>383.609375</ele>
        <time>2015-11-08T08:52:56.000Z</time>
      </trkpt>
      <trkpt lat="46.17639" lon="3.17492">
        <ele>383.67568969727</ele>
        <time>2015-11-08T08:52:59.000Z</time>
      </trkpt>
      <trkpt lat="46.17636" lon="3.17487">
        <ele>383.73626708984</ele>
        <time>2015-11-08T08:53:02.000Z</time>
      </trkpt>
      <trkpt lat="46.17636" lon="3.17485">
        <ele>383.78472900391</ele>
        <time>2015-11-08T08:53:04.000Z</time>
      </trkpt>
      <trkpt lat="46.17635" lon="3.17482">
        <ele>383.82446289062</ele>
        <time>2015-11-08T08:53:07.000Z</time>
      </trkpt>
      <trkpt lat="46.17633" lon="3.17478">
        <ele>383.85708618164</ele>
        <time>2015-11-08T08:53:09.000Z</time>
      </trkpt>
      <trkpt lat="46.17631" lon="3.17473">
        <ele>383.88433837891</ele>
        <time>2015-11-08T08:53:12.000Z</time>
      </trkpt>
      <trkpt lat="46.17629" lon="3.17469">
        <ele>383.90933227539</ele>
        <time>2015-11-08T08:53:14.000Z</time>
      </trkpt>
      <trkpt lat="46.17626" lon="3.17463">
        <ele>383.92977905273</ele>
        <time>2015-11-08T08:53:17.000Z</time>
      </trkpt>
      <trkpt lat="46.17624" lon="3.17457">
        <ele>383.95013427734</ele>
        <time>2015-11-08T08:53:20.000Z</time>
      </trkpt>
      <trkpt lat="46.17622" lon="3.17453">
        <ele>383.96334838867</ele>
        <time>2015-11-08T08:53:22.000Z</time>
      </trkpt>
      <trkpt lat="46.17619" lon="3.17448">
        <ele>383.97021484375</ele>
        <time>2015-11-08T08:53:25.000Z</time>
      </trkpt>
      <trkpt lat="46.17618" lon="3.17444">
        <ele>383.97280883789</ele>
        <time>2015-11-08T08:53:27.000Z</time>
      </trkpt>
      <trkpt lat="46.17616" lon="3.17439">
        <ele>383.97491455078</ele>
        <time>2015-11-08T08:53:30.000Z</time>
      </trkpt>
      <trkpt lat="46.17614" lon="3.17434">
        <ele>383.96731567383</ele>
        <time>2015-11-08T08:53:33.000Z</time>
      </trkpt>
      <trkpt lat="46.17612" lon="3.17431">
        <ele>383.95745849609</ele>
        <time>2015-11-08T08:53:36.000Z</time>
      </trkpt>
      <trkpt lat="46.17612" lon="3.17429">
        <ele>383.94683837891</ele>
        <time>2015-11-08T08:53:38.000Z</time>
      </trkpt>
      <trkpt lat="46.17609" lon="3.17425">
        <ele>383.92791748047</ele>
        <time>2015-11-08T08:53:41.000Z</time>
      </trkpt>
      <trkpt lat="46.17607" lon="3.17421">
        <ele>383.89465332031</ele>
        <time>2015-11-08T08:53:44.000Z</time>
      </trkpt>
      <trkpt lat="46.17604" lon="3.17418">
        <ele>383.85702514648</ele>
        <time>2015-11-08T08:53:47.000Z</time>
      </trkpt>
      <trkpt lat="46.17602" lon="3.17415">
        <ele>383.80935668945</ele>
        <time>2015-11-08T08:53:50.000Z</time>
      </trkpt>
      <trkpt lat="46.17601" lon="3.1741">
        <ele>383.75625610352</ele>
        <time>2015-11-08T08:53:52.000Z</time>
      </trkpt>
      <trkpt lat="46.17599" lon="3.17405">
        <ele>383.70294189453</ele>
        <time>2015-11-08T08:53:54.000Z</time>
      </trkpt>
      <trkpt lat="46.17596" lon="3.174">
        <ele>383.64804077148</ele>
        <time>2015-11-08T08:53:57.000Z</time>
      </trkpt>
      <trkpt lat="46.17595" lon="3.17397">
        <ele>383.58843994141</ele>
        <time>2015-11-08T08:53:59.000Z</time>
      </trkpt>
      <trkpt lat="46.17594" lon="3.17395">
        <ele>383.53744506836</ele>
        <time>2015-11-08T08:54:01.000Z</time>
      </trkpt>
      <trkpt lat="46.17592" lon="3.17391">
        <ele>383.48251342773</ele>
        <time>2015-11-08T08:54:04.000Z</time>
      </trkpt>
      <trkpt lat="46.1759" lon="3.17387">
        <ele>383.42291259766</ele>
        <time>2015-11-08T08:54:07.000Z</time>
      </trkpt>
      <trkpt lat="46.17588" lon="3.17382">
        <ele>383.35424804688</ele>
        <time>2015-11-08T08:54:10.000Z</time>
      </trkpt>
      <trkpt lat="46.17586" lon="3.17379">
        <ele>383.28955078125</ele>
        <time>2015-11-08T08:54:12.000Z</time>
      </trkpt>
      <trkpt lat="46.17584" lon="3.17375">
        <ele>383.21160888672</ele>
        <time>2015-11-08T08:54:15.000Z</time>
      </trkpt>
      <trkpt lat="46.17583" lon="3.17372">
        <ele>383.14086914062</ele>
        <time>2015-11-08T08:54:17.000Z</time>
      </trkpt>
      <trkpt lat="46.17581" lon="3.17369">
        <ele>383.08984375</ele>
        <time>2015-11-08T08:54:19.000Z</time>
      </trkpt>
      <trkpt lat="46.17579" lon="3.17365">
        <ele>383.07446289062</ele>
        <time>2015-11-08T08:54:22.000Z</time>
      </trkpt>
      <trkpt lat="46.17578" lon="3.17362">
        <ele>383.07867431641</ele>
        <time>2015-11-08T08:54:24.000Z</time>
      </trkpt>
      <trkpt lat="46.17577" lon="3.17359">
        <ele>383.10794067383</ele>
        <time>2015-11-08T08:54:26.000Z</time>
      </trkpt>
      <trkpt lat="46.17575" lon="3.17356">
        <ele>383.14761352539</ele>
        <time>2015-11-08T08:54:28.000Z</time>
      </trkpt>
      <trkpt lat="46.17573" lon="3.17353">
        <ele>383.19024658203</ele>
        <time>2015-11-08T08:54:31.000Z</time>
      </trkpt>
      <trkpt lat="46.17572" lon="3.17349">
        <ele>383.22674560547</ele>
        <time>2015-11-08T08:54:34.000Z</time>
      </trkpt>
      <trkpt lat="46.17571" lon="3.17347">
        <ele>383.26007080078</ele>
        <time>2015-11-08T08:54:36.000Z</time>
      </trkpt>
      <trkpt lat="46.17569" lon="3.17343">
        <ele>383.29412841797</ele>
        <time>2015-11-08T08:54:38.000Z</time>
      </trkpt>
      <trkpt lat="46.17566" lon="3.17338">
        <ele>383.33383178711</ele>
        <time>2015-11-08T08:54:41.000Z</time>
      </trkpt>
      <trkpt lat="46.17564" lon="3.17332">
        <ele>383.36782836914</ele>
        <time>2015-11-08T08:54:44.000Z</time>
      </trkpt>
      <trkpt lat="46.17563" lon="3.1733">
        <ele>383.39721679688</ele>
        <time>2015-11-08T08:54:46.000Z</time>
      </trkpt>
      <trkpt lat="46.17561" lon="3.17327">
        <ele>383.42251586914</ele>
        <time>2015-11-08T08:54:49.000Z</time>
      </trkpt>
      <trkpt lat="46.17559" lon="3.17325">
        <ele>383.44277954102</ele>
        <time>2015-11-08T08:54:51.000Z</time>
      </trkpt>
      <trkpt lat="46.17555" lon="3.17323">
        <ele>383.46051025391</ele>
        <time>2015-11-08T08:54:54.000Z</time>
      </trkpt>
      <trkpt lat="46.17553" lon="3.17324">
        <ele>383.48931884766</ele>
        <time>2015-11-08T08:54:56.000Z</time>
      </trkpt>
      <trkpt lat="46.1755" lon="3.17327">
        <ele>383.54061889648</ele>
        <time>2015-11-08T08:54:59.000Z</time>
      </trkpt>
      <trkpt lat="46.17548" lon="3.17326">
        <ele>383.59378051758</ele>
        <time>2015-11-08T08:55:08.000Z</time>
      </trkpt>
      <trkpt lat="46.17548" lon="3.17326">
        <ele>383.59378051758</ele>
        <time>2015-11-08T08:55:28.000Z</time>
      </trkpt>
      <trkpt lat="46.1755" lon="3.17326">
        <ele>383.63800048828</ele>
        <time>2015-11-08T08:55:44.000Z</time>
      </trkpt>
      <trkpt lat="46.1755" lon="3.17326">
        <ele>383.63800048828</ele>
        <time>2015-11-08T08:56:04.000Z</time>
      </trkpt>
      <trkpt lat="46.17549" lon="3.17325">
        <ele>383.67318725586</ele>
        <time>2015-11-08T08:56:14.000Z</time>
      </trkpt>
      <trkpt lat="46.17548" lon="3.17323">
        <ele>383.69366455078</ele>
        <time>2015-11-08T08:56:17.000Z</time>
      </trkpt>
      <trkpt lat="46.17546" lon="3.17324">
        <ele>383.69808959961</ele>
        <time>2015-11-08T08:56:27.000Z</time>
      </trkpt>
      <trkpt lat="46.17546" lon="3.17324">
        <ele>383.69808959961</ele>
        <time>2015-11-08T08:56:47.000Z</time>
      </trkpt>
      <trkpt lat="46.17547" lon="3.17326">
        <ele>383.70352172852</ele>
        <time>2015-11-08T08:57:03.000Z</time>
      </trkpt>
      <trkpt lat="46.17546" lon="3.17328">
        <ele>383.73037719727</ele>
        <time>2015-11-08T08:57:06.000Z</time>
      </trkpt>
      <trkpt lat="46.17545" lon="3.17331">
        <ele>383.76962280273</ele>
        <time>2015-11-08T08:57:09.000Z</time>
      </trkpt>
      <trkpt lat="46.17542" lon="3.17333">
        <ele>383.82873535156</ele>
        <time>2015-11-08T08:57:12.000Z</time>
      </trkpt>
      <trkpt lat="46.1754" lon="3.17334">
        <ele>383.89129638672</ele>
        <time>2015-11-08T08:57:14.000Z</time>
      </trkpt>
      <trkpt lat="46.17537" lon="3.17336">
        <ele>383.96835327148</ele>
        <time>2015-11-08T08:57:17.000Z</time>
      </trkpt>
      <trkpt lat="46.17534" lon="3.1734">
        <ele>384.05242919922</ele>
        <time>2015-11-08T08:57:20.000Z</time>
      </trkpt>
      <trkpt lat="46.17531" lon="3.17343">
        <ele>384.14260864258</ele>
        <time>2015-11-08T08:57:23.000Z</time>
      </trkpt>
      <trkpt lat="46.17528" lon="3.17346">
        <ele>384.23431396484</ele>
        <time>2015-11-08T08:57:26.000Z</time>
      </trkpt>
      <trkpt lat="46.17526" lon="3.17348">
        <ele>384.32595825195</ele>
        <time>2015-11-08T08:57:28.000Z</time>
      </trkpt>
      <trkpt lat="46.17524" lon="3.1735">
        <ele>384.41543579102</ele>
        <time>2015-11-08T08:57:31.000Z</time>
      </trkpt>
      <trkpt lat="46.17521" lon="3.17352">
        <ele>384.50155639648</ele>
        <time>2015-11-08T08:57:34.000Z</time>
      </trkpt>
      <trkpt lat="46.17519" lon="3.17353">
        <ele>384.58236694336</ele>
        <time>2015-11-08T08:57:36.000Z</time>
      </trkpt>
      <trkpt lat="46.17517" lon="3.17354">
        <ele>384.65158081055</ele>
        <time>2015-11-08T08:57:38.000Z</time>
      </trkpt>
      <trkpt lat="46.17514" lon="3.17356">
        <ele>384.7326965332</ele>
        <time>2015-11-08T08:57:41.000Z</time>
      </trkpt>
      <trkpt lat="46.17512" lon="3.17358">
        <ele>384.81192016602</ele>
        <time>2015-11-08T08:57:43.000Z</time>
      </trkpt>
      <trkpt lat="46.17509" lon="3.1736">
        <ele>384.89105224609</ele>
        <time>2015-11-08T08:57:45.000Z</time>
      </trkpt>
      <trkpt lat="46.17507" lon="3.17363">
        <ele>384.97695922852</ele>
        <time>2015-11-08T08:57:48.000Z</time>
      </trkpt>
      <trkpt lat="46.17504" lon="3.17367">
        <ele>385.07879638672</ele>
        <time>2015-11-08T08:57:51.000Z</time>
      </trkpt>
      <trkpt lat="46.17502" lon="3.1737">
        <ele>385.17733764648</ele>
        <time>2015-11-08T08:57:53.000Z</time>
      </trkpt>
      <trkpt lat="46.17499" lon="3.17374">
        <ele>385.30111694336</ele>
        <time>2015-11-08T08:57:56.000Z</time>
      </trkpt>
      <trkpt lat="46.17496" lon="3.17375">
        <ele>385.45538330078</ele>
        <time>2015-11-08T08:57:58.000Z</time>
      </trkpt>
      <trkpt lat="46.17495" lon="3.17377">
        <ele>385.61572265625</ele>
        <time>2015-11-08T08:58:00.000Z</time>
      </trkpt>
      <trkpt lat="46.17492" lon="3.1738">
        <ele>385.81085205078</ele>
        <time>2015-11-08T08:58:03.000Z</time>
      </trkpt>
      <trkpt lat="46.17489" lon="3.17383">
        <ele>386.0481262207</ele>
        <time>2015-11-08T08:58:05.000Z</time>
      </trkpt>
      <trkpt lat="46.17488" lon="3.17385">
        <ele>386.27474975586</ele>
        <time>2015-11-08T08:58:08.000Z</time>
      </trkpt>
      <trkpt lat="46.17485" lon="3.17387">
        <ele>386.53305053711</ele>
        <time>2015-11-08T08:58:11.000Z</time>
      </trkpt>
      <trkpt lat="46.17482" lon="3.17389">
        <ele>386.81005859375</ele>
        <time>2015-11-08T08:58:13.000Z</time>
      </trkpt>
      <trkpt lat="46.17479" lon="3.17391">
        <ele>387.09777832031</ele>
        <time>2015-11-08T08:58:15.000Z</time>
      </trkpt>
      <trkpt lat="46.17477" lon="3.17393">
        <ele>387.37191772461</ele>
        <time>2015-11-08T08:58:18.000Z</time>
      </trkpt>
      <trkpt lat="46.17475" lon="3.17395">
        <ele>387.67279052734</ele>
        <time>2015-11-08T08:58:20.000Z</time>
      </trkpt>
      <trkpt lat="46.17472" lon="3.17398">
        <ele>387.97290039062</ele>
        <time>2015-11-08T08:58:23.000Z</time>
      </trkpt>
      <trkpt lat="46.17469" lon="3.174">
        <ele>388.27862548828</ele>
        <time>2015-11-08T08:58:26.000Z</time>
      </trkpt>
      <trkpt lat="46.17468" lon="3.17402">
        <ele>388.55532836914</ele>
        <time>2015-11-08T08:58:28.000Z</time>
      </trkpt>
      <trkpt lat="46.17465" lon="3.17405">
        <ele>388.8576965332</ele>
        <time>2015-11-08T08:58:31.000Z</time>
      </trkpt>
      <trkpt lat="46.17462" lon="3.17407">
        <ele>389.18206787109</ele>
        <time>2015-11-08T08:58:34.000Z</time>
      </trkpt>
      <trkpt lat="46.17458" lon="3.17409">
        <ele>389.50610351562</ele>
        <time>2015-11-08T08:58:36.000Z</time>
      </trkpt>
      <trkpt lat="46.17456" lon="3.1741">
        <ele>389.82925415039</ele>
        <time>2015-11-08T08:58:39.000Z</time>
      </trkpt>
      <trkpt lat="46.17455" lon="3.17412">
        <ele>390.15469360352</ele>
        <time>2015-11-08T08:58:41.000Z</time>
      </trkpt>
      <trkpt lat="46.17452" lon="3.17415">
        <ele>390.49081420898</ele>
        <time>2015-11-08T08:58:44.000Z</time>
      </trkpt>
      <trkpt lat="46.1745" lon="3.17418">
        <ele>390.80740356445</ele>
        <time>2015-11-08T08:58:46.000Z</time>
      </trkpt>
      <trkpt lat="46.17447" lon="3.17421">
        <ele>391.12884521484</ele>
        <time>2015-11-08T08:58:49.000Z</time>
      </trkpt>
      <trkpt lat="46.17445" lon="3.17424">
        <ele>391.46011352539</ele>
        <time>2015-11-08T08:58:51.000Z</time>
      </trkpt>
      <trkpt lat="46.17442" lon="3.17427">
        <ele>391.83749389648</ele>
        <time>2015-11-08T08:58:54.000Z</time>
      </trkpt>
      <trkpt lat="46.17439" lon="3.17429">
        <ele>392.21673583984</ele>
        <time>2015-11-08T08:58:57.000Z</time>
      </trkpt>
      <trkpt lat="46.17437" lon="3.1743">
        <ele>392.58734130859</ele>
        <time>2015-11-08T08:58:59.000Z</time>
      </trkpt>
      <trkpt lat="46.17434" lon="3.17432">
        <ele>392.94317626953</ele>
        <time>2015-11-08T08:59:02.000Z</time>
      </trkpt>
      <trkpt lat="46.17431" lon="3.17435">
        <ele>393.33151245117</ele>
        <time>2015-11-08T08:59:05.000Z</time>
      </trkpt>
      <trkpt lat="46.1743" lon="3.17437">
        <ele>393.66870117188</ele>
        <time>2015-11-08T08:59:07.000Z</time>
      </trkpt>
      <trkpt lat="46.17427" lon="3.17441">
        <ele>393.99163818359</ele>
        <time>2015-11-08T08:59:09.000Z</time>
      </trkpt>
      <trkpt lat="46.17426" lon="3.17443">
        <ele>394.30743408203</ele>
        <time>2015-11-08T08:59:12.000Z</time>
      </trkpt>
      <trkpt lat="46.17423" lon="3.17446">
        <ele>394.64984130859</ele>
        <time>2015-11-08T08:59:15.000Z</time>
      </trkpt>
      <trkpt lat="46.17421" lon="3.17448">
        <ele>394.95660400391</ele>
        <time>2015-11-08T08:59:17.000Z</time>
      </trkpt>
      <trkpt lat="46.17417" lon="3.17448">
        <ele>395.31518554688</ele>
        <time>2015-11-08T08:59:20.000Z</time>
      </trkpt>
      <trkpt lat="46.17414" lon="3.1745">
        <ele>395.66198730469</ele>
        <time>2015-11-08T08:59:23.000Z</time>
      </trkpt>
      <trkpt lat="46.17411" lon="3.17453">
        <ele>396.03887939453</ele>
        <time>2015-11-08T08:59:26.000Z</time>
      </trkpt>
      <trkpt lat="46.17409" lon="3.17455">
        <ele>396.36968994141</ele>
        <time>2015-11-08T08:59:29.000Z</time>
      </trkpt>
      <trkpt lat="46.17407" lon="3.17457">
        <ele>396.70010375977</ele>
        <time>2015-11-08T08:59:31.000Z</time>
      </trkpt>
      <trkpt lat="46.17403" lon="3.1746">
        <ele>397.02172851562</ele>
        <time>2015-11-08T08:59:34.000Z</time>
      </trkpt>
      <trkpt lat="46.174" lon="3.17462">
        <ele>397.35443115234</ele>
        <time>2015-11-08T08:59:37.000Z</time>
      </trkpt>
      <trkpt lat="46.17398" lon="3.17464">
        <ele>397.65280151367</ele>
        <time>2015-11-08T08:59:39.000Z</time>
      </trkpt>
      <trkpt lat="46.17395" lon="3.17466">
        <ele>397.96234130859</ele>
        <time>2015-11-08T08:59:42.000Z</time>
      </trkpt>
      <trkpt lat="46.17393" lon="3.17468">
        <ele>398.28326416016</ele>
        <time>2015-11-08T08:59:45.000Z</time>
      </trkpt>
      <trkpt lat="46.17391" lon="3.1747">
        <ele>398.56210327148</ele>
        <time>2015-11-08T08:59:47.000Z</time>
      </trkpt>
      <trkpt lat="46.17389" lon="3.17471">
        <ele>398.82000732422</ele>
        <time>2015-11-08T08:59:49.000Z</time>
      </trkpt>
      <trkpt lat="46.17386" lon="3.17475">
        <ele>399.10528564453</ele>
        <time>2015-11-08T08:59:52.000Z</time>
      </trkpt>
      <trkpt lat="46.17383" lon="3.17478">
        <ele>399.40655517578</ele>
        <time>2015-11-08T08:59:55.000Z</time>
      </trkpt>
      <trkpt lat="46.1738" lon="3.17481">
        <ele>399.71887207031</ele>
        <time>2015-11-08T08:59:58.000Z</time>
      </trkpt>
      <trkpt lat="46.17377" lon="3.17485">
        <ele>400.04754638672</ele>
        <time>2015-11-08T09:00:01.000Z</time>
      </trkpt>
      <trkpt lat="46.17376" lon="3.17487">
        <ele>400.37042236328</ele>
        <time>2015-11-08T09:00:03.000Z</time>
      </trkpt>
      <trkpt lat="46.17373" lon="3.1749">
        <ele>400.70294189453</ele>
        <time>2015-11-08T09:00:05.000Z</time>
      </trkpt>
      <trkpt lat="46.17371" lon="3.17491">
        <ele>401.00415039062</ele>
        <time>2015-11-08T09:00:08.000Z</time>
      </trkpt>
      <trkpt lat="46.17368" lon="3.17495">
        <ele>401.30682373047</ele>
        <time>2015-11-08T09:00:11.000Z</time>
      </trkpt>
      <trkpt lat="46.17363" lon="3.17498">
        <ele>401.64605712891</ele>
        <time>2015-11-08T09:00:14.000Z</time>
      </trkpt>
      <trkpt lat="46.17361" lon="3.175">
        <ele>401.97665405273</ele>
        <time>2015-11-08T09:00:16.000Z</time>
      </trkpt>
      <trkpt lat="46.17358" lon="3.17502">
        <ele>402.30169677734</ele>
        <time>2015-11-08T09:00:19.000Z</time>
      </trkpt>
      <trkpt lat="46.17356" lon="3.17505">
        <ele>402.63385009766</ele>
        <time>2015-11-08T09:00:21.000Z</time>
      </trkpt>
      <trkpt lat="46.17353" lon="3.17507">
        <ele>402.95037841797</ele>
        <time>2015-11-08T09:00:24.000Z</time>
      </trkpt>
      <trkpt lat="46.1735" lon="3.1751">
        <ele>403.25405883789</ele>
        <time>2015-11-08T09:00:27.000Z</time>
      </trkpt>
      <trkpt lat="46.17348" lon="3.17512">
        <ele>403.56127929688</ele>
        <time>2015-11-08T09:00:29.000Z</time>
      </trkpt>
      <trkpt lat="46.17344" lon="3.17515">
        <ele>403.89141845703</ele>
        <time>2015-11-08T09:00:31.000Z</time>
      </trkpt>
      <trkpt lat="46.17341" lon="3.17519">
        <ele>404.2431640625</ele>
        <time>2015-11-08T09:00:35.000Z</time>
      </trkpt>
      <trkpt lat="46.17338" lon="3.1752">
        <ele>404.59646606445</ele>
        <time>2015-11-08T09:00:38.000Z</time>
      </trkpt>
      <trkpt lat="46.17335" lon="3.17521">
        <ele>404.92510986328</ele>
        <time>2015-11-08T09:00:41.000Z</time>
      </trkpt>
      <trkpt lat="46.17332" lon="3.17524">
        <ele>405.27896118164</ele>
        <time>2015-11-08T09:00:44.000Z</time>
      </trkpt>
      <trkpt lat="46.17331" lon="3.17525">
        <ele>405.56967163086</ele>
        <time>2015-11-08T09:00:46.000Z</time>
      </trkpt>
      <trkpt lat="46.17327" lon="3.17528">
        <ele>405.84945678711</ele>
        <time>2015-11-08T09:00:48.000Z</time>
      </trkpt>
      <trkpt lat="46.17325" lon="3.1753">
        <ele>406.1015625</ele>
        <time>2015-11-08T09:00:51.000Z</time>
      </trkpt>
      <trkpt lat="46.17322" lon="3.17532">
        <ele>406.34564208984</ele>
        <time>2015-11-08T09:00:53.000Z</time>
      </trkpt>
      <trkpt lat="46.1732" lon="3.17535">
        <ele>406.57232666016</ele>
        <time>2015-11-08T09:00:55.000Z</time>
      </trkpt>
      <trkpt lat="46.17317" lon="3.17539">
        <ele>406.83108520508</ele>
        <time>2015-11-08T09:00:58.000Z</time>
      </trkpt>
      <trkpt lat="46.17315" lon="3.17541">
        <ele>407.07073974609</ele>
        <time>2015-11-08T09:01:01.000Z</time>
      </trkpt>
      <trkpt lat="46.17311" lon="3.17544">
        <ele>407.3427734375</ele>
        <time>2015-11-08T09:01:03.000Z</time>
      </trkpt>
      <trkpt lat="46.17309" lon="3.17546">
        <ele>407.60955810547</ele>
        <time>2015-11-08T09:01:06.000Z</time>
      </trkpt>
      <trkpt lat="46.17305" lon="3.1755">
        <ele>407.89483642578</ele>
        <time>2015-11-08T09:01:09.000Z</time>
      </trkpt>
      <trkpt lat="46.17304" lon="3.17552">
        <ele>408.15029907227</ele>
        <time>2015-11-08T09:01:11.000Z</time>
      </trkpt>
      <trkpt lat="46.173" lon="3.17555">
        <ele>408.42373657227</ele>
        <time>2015-11-08T09:01:14.000Z</time>
      </trkpt>
      <trkpt lat="46.17299" lon="3.17557">
        <ele>408.66262817383</ele>
        <time>2015-11-08T09:01:16.000Z</time>
      </trkpt>
      <trkpt lat="46.17297" lon="3.17558">
        <ele>408.89239501953</ele>
        <time>2015-11-08T09:01:18.000Z</time>
      </trkpt>
      <trkpt lat="46.17294" lon="3.17562">
        <ele>409.11334228516</ele>
        <time>2015-11-08T09:01:20.000Z</time>
      </trkpt>
      <trkpt lat="46.17291" lon="3.17565">
        <ele>409.35879516602</ele>
        <time>2015-11-08T09:01:24.000Z</time>
      </trkpt>
      <trkpt lat="46.17289" lon="3.17567">
        <ele>409.59484863281</ele>
        <time>2015-11-08T09:01:26.000Z</time>
      </trkpt>
      <trkpt lat="46.17286" lon="3.17569">
        <ele>409.83291625977</ele>
        <time>2015-11-08T09:01:29.000Z</time>
      </trkpt>
      <trkpt lat="46.17283" lon="3.17573">
        <ele>410.10675048828</ele>
        <time>2015-11-08T09:01:32.000Z</time>
      </trkpt>
      <trkpt lat="46.17279" lon="3.17577">
        <ele>410.39639282227</ele>
        <time>2015-11-08T09:01:34.000Z</time>
      </trkpt>
      <trkpt lat="46.17277" lon="3.17579">
        <ele>410.67398071289</ele>
        <time>2015-11-08T09:01:37.000Z</time>
      </trkpt>
      <trkpt lat="46.17274" lon="3.17581">
        <ele>410.94537353516</ele>
        <time>2015-11-08T09:01:39.000Z</time>
      </trkpt>
      <trkpt lat="46.17272" lon="3.17584">
        <ele>411.21942138672</ele>
        <time>2015-11-08T09:01:41.000Z</time>
      </trkpt>
      <trkpt lat="46.17269" lon="3.17588">
        <ele>411.47134399414</ele>
        <time>2015-11-08T09:01:45.000Z</time>
      </trkpt>
      <trkpt lat="46.17266" lon="3.17591">
        <ele>411.69219970703</ele>
        <time>2015-11-08T09:01:46.000Z</time>
      </trkpt>
      <trkpt lat="46.17263" lon="3.17595">
        <ele>411.91650390625</ele>
        <time>2015-11-08T09:01:48.000Z</time>
      </trkpt>
      <trkpt lat="46.17261" lon="3.17597">
        <ele>412.12539672852</ele>
        <time>2015-11-08T09:01:50.000Z</time>
      </trkpt>
      <trkpt lat="46.17258" lon="3.176">
        <ele>412.32885742188</ele>
        <time>2015-11-08T09:01:53.000Z</time>
      </trkpt>
      <trkpt lat="46.17255" lon="3.17603">
        <ele>412.53134155273</ele>
        <time>2015-11-08T09:01:55.000Z</time>
      </trkpt>
      <trkpt lat="46.17253" lon="3.17605">
        <ele>412.72698974609</ele>
        <time>2015-11-08T09:01:58.000Z</time>
      </trkpt>
      <trkpt lat="46.17249" lon="3.17609">
        <ele>412.91772460938</ele>
        <time>2015-11-08T09:02:01.000Z</time>
      </trkpt>
      <trkpt lat="46.17245" lon="3.1761">
        <ele>413.09283447266</ele>
        <time>2015-11-08T09:02:04.000Z</time>
      </trkpt>
      <trkpt lat="46.17242" lon="3.17613">
        <ele>413.25015258789</ele>
        <time>2015-11-08T09:02:07.000Z</time>
      </trkpt>
      <trkpt lat="46.17239" lon="3.17615">
        <ele>413.37670898438</ele>
        <time>2015-11-08T09:02:10.000Z</time>
      </trkpt>
      <trkpt lat="46.17237" lon="3.17617">
        <ele>413.48080444336</ele>
        <time>2015-11-08T09:02:12.000Z</time>
      </trkpt>
      <trkpt lat="46.17233" lon="3.17621">
        <ele>413.56533813477</ele>
        <time>2015-11-08T09:02:14.000Z</time>
      </trkpt>
      <trkpt lat="46.17231" lon="3.17623">
        <ele>413.64907836914</ele>
        <time>2015-11-08T09:02:16.000Z</time>
      </trkpt>
      <trkpt lat="46.17229" lon="3.17626">
        <ele>413.72982788086</ele>
        <time>2015-11-08T09:02:19.000Z</time>
      </trkpt>
      <trkpt lat="46.17226" lon="3.17628">
        <ele>413.81387329102</ele>
        <time>2015-11-08T09:02:21.000Z</time>
      </trkpt>
      <trkpt lat="46.17223" lon="3.1763">
        <ele>413.90097045898</ele>
        <time>2015-11-08T09:02:24.000Z</time>
      </trkpt>
      <trkpt lat="46.1722" lon="3.17634">
        <ele>413.98608398438</ele>
        <time>2015-11-08T09:02:27.000Z</time>
      </trkpt>
      <trkpt lat="46.17218" lon="3.17635">
        <ele>414.06893920898</ele>
        <time>2015-11-08T09:02:29.000Z</time>
      </trkpt>
      <trkpt lat="46.17216" lon="3.17638">
        <ele>414.15789794922</ele>
        <time>2015-11-08T09:02:32.000Z</time>
      </trkpt>
      <trkpt lat="46.17213" lon="3.17641">
        <ele>414.24502563477</ele>
        <time>2015-11-08T09:02:34.000Z</time>
      </trkpt>
      <trkpt lat="46.1721" lon="3.17644">
        <ele>414.34414672852</ele>
        <time>2015-11-08T09:02:36.000Z</time>
      </trkpt>
      <trkpt lat="46.17208" lon="3.17646">
        <ele>414.43832397461</ele>
        <time>2015-11-08T09:02:39.000Z</time>
      </trkpt>
      <trkpt lat="46.17205" lon="3.17647">
        <ele>414.53521728516</ele>
        <time>2015-11-08T09:02:41.000Z</time>
      </trkpt>
      <trkpt lat="46.17203" lon="3.17649">
        <ele>414.62734985352</ele>
        <time>2015-11-08T09:02:44.000Z</time>
      </trkpt>
      <trkpt lat="46.17201" lon="3.17651">
        <ele>414.71786499023</ele>
        <time>2015-11-08T09:02:46.000Z</time>
      </trkpt>
      <trkpt lat="46.17199" lon="3.17652">
        <ele>414.79656982422</ele>
        <time>2015-11-08T09:02:49.000Z</time>
      </trkpt>
      <trkpt lat="46.17198" lon="3.17654">
        <ele>414.86685180664</ele>
        <time>2015-11-08T09:02:51.000Z</time>
      </trkpt>
      <trkpt lat="46.17197" lon="3.17654">
        <ele>414.93051147461</ele>
        <time>2015-11-08T09:02:54.000Z</time>
      </trkpt>
      <trkpt lat="46.17195" lon="3.17654">
        <ele>414.98568725586</ele>
        <time>2015-11-08T09:02:56.000Z</time>
      </trkpt>
      <trkpt lat="46.17195" lon="3.17654">
        <ele>414.98568725586</ele>
        <time>2015-11-08T09:03:17.000Z</time>
      </trkpt>
      <trkpt lat="46.17194" lon="3.17654">
        <ele>415.03173828125</ele>
        <time>2015-11-08T09:03:32.000Z</time>
      </trkpt>
      <trkpt lat="46.17194" lon="3.17654">
        <ele>415.03173828125</ele>
        <time>2015-11-08T09:03:52.000Z</time>
      </trkpt>
      <trkpt lat="46.17194" lon="3.17656">
        <ele>415.06845092773</ele>
        <time>2015-11-08T09:03:55.000Z</time>
      </trkpt>
      <trkpt lat="46.17194" lon="3.17658">
        <ele>415.10440063477</ele>
        <time>2015-11-08T09:03:58.000Z</time>
      </trkpt>
      <trkpt lat="46.17193" lon="3.1766">
        <ele>415.14364624023</ele>
        <time>2015-11-08T09:04:00.000Z</time>
      </trkpt>
      <trkpt lat="46.17191" lon="3.17661">
        <ele>415.18670654297</ele>
        <time>2015-11-08T09:04:04.000Z</time>
      </trkpt>
      <trkpt lat="46.1719" lon="3.17662">
        <ele>415.23236083984</ele>
        <time>2015-11-08T09:04:07.000Z</time>
      </trkpt>
      <trkpt lat="46.17188" lon="3.17663">
        <ele>415.29077148438</ele>
        <time>2015-11-08T09:04:10.000Z</time>
      </trkpt>
      <trkpt lat="46.17185" lon="3.17666">
        <ele>415.36499023438</ele>
        <time>2015-11-08T09:04:13.000Z</time>
      </trkpt>
      <trkpt lat="46.17183" lon="3.17669">
        <ele>415.44097900391</ele>
        <time>2015-11-08T09:04:16.000Z</time>
      </trkpt>
      <trkpt lat="46.1718" lon="3.17673">
        <ele>415.51821899414</ele>
        <time>2015-11-08T09:04:19.000Z</time>
      </trkpt>
      <trkpt lat="46.17177" lon="3.17675">
        <ele>415.59936523438</ele>
        <time>2015-11-08T09:04:22.000Z</time>
      </trkpt>
      <trkpt lat="46.17174" lon="3.17679">
        <ele>415.67797851562</ele>
        <time>2015-11-08T09:04:25.000Z</time>
      </trkpt>
      <trkpt lat="46.17172" lon="3.1768">
        <ele>415.74130249023</ele>
        <time>2015-11-08T09:04:27.000Z</time>
      </trkpt>
      <trkpt lat="46.17169" lon="3.17683">
        <ele>415.80590820312</ele>
        <time>2015-11-08T09:04:30.000Z</time>
      </trkpt>
      <trkpt lat="46.17167" lon="3.17685">
        <ele>415.87060546875</ele>
        <time>2015-11-08T09:04:32.000Z</time>
      </trkpt>
      <trkpt lat="46.17164" lon="3.17688">
        <ele>415.93646240234</ele>
        <time>2015-11-08T09:04:35.000Z</time>
      </trkpt>
      <trkpt lat="46.17162" lon="3.17689">
        <ele>415.99835205078</ele>
        <time>2015-11-08T09:04:37.000Z</time>
      </trkpt>
      <trkpt lat="46.1716" lon="3.17692">
        <ele>416.06561279297</ele>
        <time>2015-11-08T09:04:40.000Z</time>
      </trkpt>
      <trkpt lat="46.17158" lon="3.17693">
        <ele>416.12924194336</ele>
        <time>2015-11-08T09:04:42.000Z</time>
      </trkpt>
      <trkpt lat="46.17156" lon="3.17694">
        <ele>416.19073486328</ele>
        <time>2015-11-08T09:04:44.000Z</time>
      </trkpt>
      <trkpt lat="46.17153" lon="3.17696">
        <ele>416.25015258789</ele>
        <time>2015-11-08T09:04:47.000Z</time>
      </trkpt>
      <trkpt lat="46.1715" lon="3.17698">
        <ele>416.31362915039</ele>
        <time>2015-11-08T09:04:50.000Z</time>
      </trkpt>
      <trkpt lat="46.17149" lon="3.177">
        <ele>416.37051391602</ele>
        <time>2015-11-08T09:04:52.000Z</time>
      </trkpt>
      <trkpt lat="46.17146" lon="3.17702">
        <ele>416.42895507812</ele>
        <time>2015-11-08T09:04:55.000Z</time>
      </trkpt>
      <trkpt lat="46.17143" lon="3.17703">
        <ele>416.48739624023</ele>
        <time>2015-11-08T09:04:57.000Z</time>
      </trkpt>
      <trkpt lat="46.17141" lon="3.17705">
        <ele>416.54083251953</ele>
        <time>2015-11-08T09:05:01.000Z</time>
      </trkpt>
      <trkpt lat="46.1714" lon="3.17707">
        <ele>416.58245849609</ele>
        <time>2015-11-08T09:05:02.000Z</time>
      </trkpt>
      <trkpt lat="46.17138" lon="3.17709">
        <ele>416.62216186523</ele>
        <time>2015-11-08T09:05:04.000Z</time>
      </trkpt>
      <trkpt lat="46.17134" lon="3.17711">
        <ele>416.66152954102</ele>
        <time>2015-11-08T09:05:07.000Z</time>
      </trkpt>
      <trkpt lat="46.17133" lon="3.17714">
        <ele>416.69540405273</ele>
        <time>2015-11-08T09:05:10.000Z</time>
      </trkpt>
      <trkpt lat="46.1713" lon="3.17716">
        <ele>416.72909545898</ele>
        <time>2015-11-08T09:05:13.000Z</time>
      </trkpt>
      <trkpt lat="46.17126" lon="3.17718">
        <ele>416.76898193359</ele>
        <time>2015-11-08T09:05:16.000Z</time>
      </trkpt>
      <trkpt lat="46.17125" lon="3.17719">
        <ele>416.80737304688</ele>
        <time>2015-11-08T09:05:18.000Z</time>
      </trkpt>
      <trkpt lat="46.17125" lon="3.1772">
        <ele>416.83389282227</ele>
        <time>2015-11-08T09:05:20.000Z</time>
      </trkpt>
      <trkpt lat="46.17123" lon="3.1772">
        <ele>416.85992431641</ele>
        <time>2015-11-08T09:05:30.000Z</time>
      </trkpt>
      <trkpt lat="46.1712" lon="3.17721">
        <ele>416.88873291016</ele>
        <time>2015-11-08T09:05:33.000Z</time>
      </trkpt>
      <trkpt lat="46.17119" lon="3.17721">
        <ele>416.91348266602</ele>
        <time>2015-11-08T09:05:35.000Z</time>
      </trkpt>
      <trkpt lat="46.17117" lon="3.17721">
        <ele>416.94229125977</ele>
        <time>2015-11-08T09:05:38.000Z</time>
      </trkpt>
      <trkpt lat="46.17115" lon="3.17721">
        <ele>416.97720336914</ele>
        <time>2015-11-08T09:05:41.000Z</time>
      </trkpt>
      <trkpt lat="46.17114" lon="3.17722">
        <ele>417.01058959961</ele>
        <time>2015-11-08T09:05:43.000Z</time>
      </trkpt>
      <trkpt lat="46.17113" lon="3.17722">
        <ele>417.03530883789</ele>
        <time>2015-11-08T09:05:52.000Z</time>
      </trkpt>
      <trkpt lat="46.17112" lon="3.17723">
        <ele>417.0556640625</ele>
        <time>2015-11-08T09:05:55.000Z</time>
      </trkpt>
      <trkpt lat="46.17111" lon="3.17724">
        <ele>417.06805419922</ele>
        <time>2015-11-08T09:05:57.000Z</time>
      </trkpt>
      <trkpt lat="46.1711" lon="3.17726">
        <ele>417.07495117188</ele>
        <time>2015-11-08T09:06:01.000Z</time>
      </trkpt>
      <trkpt lat="46.17108" lon="3.17726">
        <ele>417.08392333984</ele>
        <time>2015-11-08T09:06:03.000Z</time>
      </trkpt>
      <trkpt lat="46.17107" lon="3.17727">
        <ele>417.09091186523</ele>
        <time>2015-11-08T09:06:06.000Z</time>
      </trkpt>
      <trkpt lat="46.17105" lon="3.17729">
        <ele>417.09832763672</ele>
        <time>2015-11-08T09:06:13.000Z</time>
      </trkpt>
      <trkpt lat="46.17105" lon="3.17729">
        <ele>417.09832763672</ele>
        <time>2015-11-08T09:06:33.000Z</time>
      </trkpt>
      <trkpt lat="46.17102" lon="3.17731">
        <ele>417.10815429688</ele>
        <time>2015-11-08T09:07:25.000Z</time>
      </trkpt>
      <trkpt lat="46.17102" lon="3.17731">
        <ele>417.10815429688</ele>
        <time>2015-11-08T09:07:45.000Z</time>
      </trkpt>
      <trkpt lat="46.17101" lon="3.17733">
        <ele>417.11532592773</ele>
        <time>2015-11-08T09:07:54.000Z</time>
      </trkpt>
      <trkpt lat="46.171" lon="3.17733">
        <ele>417.11895751953</ele>
        <time>2015-11-08T09:07:57.000Z</time>
      </trkpt>
      <trkpt lat="46.171" lon="3.17733">
        <ele>417.11895751953</ele>
        <time>2015-11-08T09:08:17.000Z</time>
      </trkpt>
      <trkpt lat="46.17101" lon="3.17735">
        <ele>417.11489868164</ele>
        <time>2015-11-08T09:08:46.000Z</time>
      </trkpt>
      <trkpt lat="46.17098" lon="3.17738">
        <ele>417.10272216797</ele>
        <time>2015-11-08T09:08:48.000Z</time>
      </trkpt>
      <trkpt lat="46.17096" lon="3.1774">
        <ele>417.08657836914</ele>
        <time>2015-11-08T09:08:51.000Z</time>
      </trkpt>
      <trkpt lat="46.17095" lon="3.17741">
        <ele>417.07479858398</ele>
        <time>2015-11-08T09:08:53.000Z</time>
      </trkpt>
      <trkpt lat="46.17094" lon="3.17741">
        <ele>417.06134033203</ele>
        <time>2015-11-08T09:08:56.000Z</time>
      </trkpt>
      <trkpt lat="46.17093" lon="3.17742">
        <ele>417.05386352539</ele>
        <time>2015-11-08T09:08:59.000Z</time>
      </trkpt>
      <trkpt lat="46.17091" lon="3.17742">
        <ele>417.05596923828</ele>
        <time>2015-11-08T09:09:02.000Z</time>
      </trkpt>
      <trkpt lat="46.17089" lon="3.17744">
        <ele>417.05987548828</ele>
        <time>2015-11-08T09:09:04.000Z</time>
      </trkpt>
      <trkpt lat="46.17088" lon="3.17744">
        <ele>417.06402587891</ele>
        <time>2015-11-08T09:09:08.000Z</time>
      </trkpt>
      <trkpt lat="46.17087" lon="3.17744">
        <ele>417.06866455078</ele>
        <time>2015-11-08T09:09:11.000Z</time>
      </trkpt>
      <trkpt lat="46.17086" lon="3.17744">
        <ele>417.07974243164</ele>
        <time>2015-11-08T09:09:14.000Z</time>
      </trkpt>
      <trkpt lat="46.17085" lon="3.17745">
        <ele>417.08862304688</ele>
        <time>2015-11-08T09:09:16.000Z</time>
      </trkpt>
      <trkpt lat="46.17081" lon="3.17745">
        <ele>417.0908203125</ele>
        <time>2015-11-08T09:09:18.000Z</time>
      </trkpt>
      <trkpt lat="46.17079" lon="3.17745">
        <ele>417.08251953125</ele>
        <time>2015-11-08T09:09:21.000Z</time>
      </trkpt>
      <trkpt lat="46.17077" lon="3.17744">
        <ele>417.06869506836</ele>
        <time>2015-11-08T09:09:23.000Z</time>
      </trkpt>
      <trkpt lat="46.17074" lon="3.17749">
        <ele>417.00942993164</ele>
        <time>2015-11-08T09:09:43.000Z</time>
      </trkpt>
      <trkpt lat="46.17071" lon="3.1775">
        <ele>416.92959594727</ele>
        <time>2015-11-08T09:09:52.000Z</time>
      </trkpt>
      <trkpt lat="46.1707" lon="3.17753">
        <ele>416.85791015625</ele>
        <time>2015-11-08T09:10:04.000Z</time>
      </trkpt>
      <trkpt lat="46.17071" lon="3.17752">
        <ele>416.79745483398</ele>
        <time>2015-11-08T09:10:11.000Z</time>
      </trkpt>
      <trkpt lat="46.17071" lon="3.17752">
        <ele>416.79745483398</ele>
        <time>2015-11-08T09:10:31.000Z</time>
      </trkpt>
      <trkpt lat="46.1707" lon="3.1775">
        <ele>416.73248291016</ele>
        <time>2015-11-08T09:10:59.000Z</time>
      </trkpt>
      <trkpt lat="46.17067" lon="3.17746">
        <ele>416.72012329102</ele>
        <time>2015-11-08T09:11:16.000Z</time>
      </trkpt>
      <trkpt lat="46.17067" lon="3.17743">
        <ele>416.74087524414</ele>
        <time>2015-11-08T09:11:32.000Z</time>
      </trkpt>
      <trkpt lat="46.17067" lon="3.17742">
        <ele>416.76602172852</ele>
        <time>2015-11-08T09:11:38.000Z</time>
      </trkpt>
      <trkpt lat="46.17067" lon="3.1774">
        <ele>416.79925537109</ele>
        <time>2015-11-08T09:11:45.000Z</time>
      </trkpt>
      <trkpt lat="46.17067" lon="3.1774">
        <ele>416.79925537109</ele>
        <time>2015-11-08T09:12:05.000Z</time>
      </trkpt>
      <trkpt lat="46.1707" lon="3.17742">
        <ele>416.84124755859</ele>
        <time>2015-11-08T09:12:07.000Z</time>
      </trkpt>
      <trkpt lat="46.17071" lon="3.17743">
        <ele>416.8720703125</ele>
        <time>2015-11-08T09:12:10.000Z</time>
      </trkpt>
      <trkpt lat="46.17069" lon="3.17741">
        <ele>416.89242553711</ele>
        <time>2015-11-08T09:12:21.000Z</time>
      </trkpt>
      <trkpt lat="46.17068" lon="3.1774">
        <ele>416.90850830078</ele>
        <time>2015-11-08T09:12:23.000Z</time>
      </trkpt>
      <trkpt lat="46.17066" lon="3.17739">
        <ele>416.90664672852</ele>
        <time>2015-11-08T09:12:26.000Z</time>
      </trkpt>
      <trkpt lat="46.17063" lon="3.17737">
        <ele>416.90472412109</ele>
        <time>2015-11-08T09:12:29.000Z</time>
      </trkpt>
      <trkpt lat="46.1706" lon="3.17737">
        <ele>416.89779663086</ele>
        <time>2015-11-08T09:12:31.000Z</time>
      </trkpt>
      <trkpt lat="46.17059" lon="3.17735">
        <ele>416.88671875</ele>
        <time>2015-11-08T09:12:33.000Z</time>
      </trkpt>
      <trkpt lat="46.17056" lon="3.17734">
        <ele>416.87759399414</ele>
        <time>2015-11-08T09:12:36.000Z</time>
      </trkpt>
      <trkpt lat="46.17054" lon="3.17732">
        <ele>416.87460327148</ele>
        <time>2015-11-08T09:12:38.000Z</time>
      </trkpt>
      <trkpt lat="46.17052" lon="3.17731">
        <ele>416.87091064453</ele>
        <time>2015-11-08T09:12:40.000Z</time>
      </trkpt>
      <trkpt lat="46.1705" lon="3.1773">
        <ele>416.86920166016</ele>
        <time>2015-11-08T09:12:42.000Z</time>
      </trkpt>
      <trkpt lat="46.17046" lon="3.17729">
        <ele>416.86148071289</ele>
        <time>2015-11-08T09:12:45.000Z</time>
      </trkpt>
      <trkpt lat="46.17045" lon="3.17729">
        <ele>416.85147094727</ele>
        <time>2015-11-08T09:12:48.000Z</time>
      </trkpt>
      <trkpt lat="46.17043" lon="3.17727">
        <ele>416.84683227539</ele>
        <time>2015-11-08T09:12:51.000Z</time>
      </trkpt>
      <trkpt lat="46.17041" lon="3.17726">
        <ele>416.84490966797</ele>
        <time>2015-11-08T09:12:53.000Z</time>
      </trkpt>
      <trkpt lat="46.17038" lon="3.17725">
        <ele>416.84106445312</ele>
        <time>2015-11-08T09:12:56.000Z</time>
      </trkpt>
      <trkpt lat="46.17036" lon="3.17725">
        <ele>416.84234619141</ele>
        <time>2015-11-08T09:12:58.000Z</time>
      </trkpt>
      <trkpt lat="46.17034" lon="3.17724">
        <ele>416.83926391602</ele>
        <time>2015-11-08T09:13:01.000Z</time>
      </trkpt>
      <trkpt lat="46.17031" lon="3.17722">
        <ele>416.83853149414</ele>
        <time>2015-11-08T09:13:03.000Z</time>
      </trkpt>
      <trkpt lat="46.17028" lon="3.17722">
        <ele>416.82803344727</ele>
        <time>2015-11-08T09:13:05.000Z</time>
      </trkpt>
      <trkpt lat="46.17026" lon="3.17721">
        <ele>416.82220458984</ele>
        <time>2015-11-08T09:13:07.000Z</time>
      </trkpt>
      <trkpt lat="46.17023" lon="3.1772">
        <ele>416.81591796875</ele>
        <time>2015-11-08T09:13:09.000Z</time>
      </trkpt>
      <trkpt lat="46.1702" lon="3.17719">
        <ele>416.81387329102</ele>
        <time>2015-11-08T09:13:11.000Z</time>
      </trkpt>
      <trkpt lat="46.17018" lon="3.17718">
        <ele>416.80865478516</ele>
        <time>2015-11-08T09:13:13.000Z</time>
      </trkpt>
      <trkpt lat="46.17014" lon="3.17715">
        <ele>416.82073974609</ele>
        <time>2015-11-08T09:13:16.000Z</time>
      </trkpt>
      <trkpt lat="46.17011" lon="3.17714">
        <ele>416.83660888672</ele>
        <time>2015-11-08T09:13:19.000Z</time>
      </trkpt>
      <trkpt lat="46.17006" lon="3.17712">
        <ele>416.85635375977</ele>
        <time>2015-11-08T09:13:22.000Z</time>
      </trkpt>
      <trkpt lat="46.17003" lon="3.17711">
        <ele>416.88067626953</ele>
        <time>2015-11-08T09:13:25.000Z</time>
      </trkpt>
      <trkpt lat="46.17" lon="3.1771">
        <ele>416.90081787109</ele>
        <time>2015-11-08T09:13:28.000Z</time>
      </trkpt>
      <trkpt lat="46.16998" lon="3.17708">
        <ele>416.94491577148</ele>
        <time>2015-11-08T09:13:31.000Z</time>
      </trkpt>
      <trkpt lat="46.16994" lon="3.17705">
        <ele>417.02865600586</ele>
        <time>2015-11-08T09:13:34.000Z</time>
      </trkpt>
      <trkpt lat="46.16993" lon="3.17704">
        <ele>417.13394165039</ele>
        <time>2015-11-08T09:13:36.000Z</time>
      </trkpt>
      <trkpt lat="46.16989" lon="3.17701">
        <ele>417.28533935547</ele>
        <time>2015-11-08T09:13:39.000Z</time>
      </trkpt>
      <trkpt lat="46.16985" lon="3.17698">
        <ele>417.49258422852</ele>
        <time>2015-11-08T09:13:42.000Z</time>
      </trkpt>
      <trkpt lat="46.16983" lon="3.17697">
        <ele>417.67877197266</ele>
        <time>2015-11-08T09:13:44.000Z</time>
      </trkpt>
      <trkpt lat="46.1698" lon="3.17696">
        <ele>417.84405517578</ele>
        <time>2015-11-08T09:13:47.000Z</time>
      </trkpt>
      <trkpt lat="46.16978" lon="3.17696">
        <ele>418.00375366211</ele>
        <time>2015-11-08T09:13:49.000Z</time>
      </trkpt>
      <trkpt lat="46.16977" lon="3.17695">
        <ele>418.1220703125</ele>
        <time>2015-11-08T09:13:51.000Z</time>
      </trkpt>
      <trkpt lat="46.16975" lon="3.17695">
        <ele>418.19940185547</ele>
        <time>2015-11-08T09:13:54.000Z</time>
      </trkpt>
      <trkpt lat="46.16972" lon="3.17695">
        <ele>418.28280639648</ele>
        <time>2015-11-08T09:13:57.000Z</time>
      </trkpt>
      <trkpt lat="46.1697" lon="3.17694">
        <ele>418.35736083984</ele>
        <time>2015-11-08T09:13:59.000Z</time>
      </trkpt>
      <trkpt lat="46.16968" lon="3.17693">
        <ele>418.43365478516</ele>
        <time>2015-11-08T09:14:01.000Z</time>
      </trkpt>
      <trkpt lat="46.16964" lon="3.17692">
        <ele>418.52899169922</ele>
        <time>2015-11-08T09:14:04.000Z</time>
      </trkpt>
      <trkpt lat="46.16962" lon="3.17692">
        <ele>418.62377929688</ele>
        <time>2015-11-08T09:14:07.000Z</time>
      </trkpt>
      <trkpt lat="46.1696" lon="3.17692">
        <ele>418.71343994141</ele>
        <time>2015-11-08T09:14:09.000Z</time>
      </trkpt>
      <trkpt lat="46.16958" lon="3.17692">
        <ele>418.80166625977</ele>
        <time>2015-11-08T09:14:12.000Z</time>
      </trkpt>
      <trkpt lat="46.16955" lon="3.17692">
        <ele>418.88891601562</ele>
        <time>2015-11-08T09:14:14.000Z</time>
      </trkpt>
      <trkpt lat="46.16951" lon="3.17692">
        <ele>418.96792602539</ele>
        <time>2015-11-08T09:14:17.000Z</time>
      </trkpt>
      <trkpt lat="46.16949" lon="3.17692">
        <ele>419.0458984375</ele>
        <time>2015-11-08T09:14:19.000Z</time>
      </trkpt>
      <trkpt lat="46.16945" lon="3.17692">
        <ele>419.12774658203</ele>
        <time>2015-11-08T09:14:22.000Z</time>
      </trkpt>
      <trkpt lat="46.16941" lon="3.17692">
        <ele>419.21655273438</ele>
        <time>2015-11-08T09:14:25.000Z</time>
      </trkpt>
      <trkpt lat="46.16938" lon="3.17692">
        <ele>419.30868530273</ele>
        <time>2015-11-08T09:14:27.000Z</time>
      </trkpt>
      <trkpt lat="46.16934" lon="3.17691">
        <ele>419.41088867188</ele>
        <time>2015-11-08T09:14:30.000Z</time>
      </trkpt>
      <trkpt lat="46.16931" lon="3.17689">
        <ele>419.52593994141</ele>
        <time>2015-11-08T09:14:33.000Z</time>
      </trkpt>
      <trkpt lat="46.16928" lon="3.17688">
        <ele>419.65277099609</ele>
        <time>2015-11-08T09:14:35.000Z</time>
      </trkpt>
      <trkpt lat="46.16927" lon="3.17687">
        <ele>419.77523803711</ele>
        <time>2015-11-08T09:14:37.000Z</time>
      </trkpt>
      <trkpt lat="46.16925" lon="3.17686">
        <ele>419.89263916016</ele>
        <time>2015-11-08T09:14:39.000Z</time>
      </trkpt>
      <trkpt lat="46.1692" lon="3.17684">
        <ele>420.017578125</ele>
        <time>2015-11-08T09:14:42.000Z</time>
      </trkpt>
      <trkpt lat="46.16917" lon="3.17683">
        <ele>420.14144897461</ele>
        <time>2015-11-08T09:14:45.000Z</time>
      </trkpt>
      <trkpt lat="46.16914" lon="3.17682">
        <ele>420.23358154297</ele>
        <time>2015-11-08T09:14:47.000Z</time>
      </trkpt>
      <trkpt lat="46.16911" lon="3.17681">
        <ele>420.31103515625</ele>
        <time>2015-11-08T09:14:49.000Z</time>
      </trkpt>
      <trkpt lat="46.16908" lon="3.17681">
        <ele>420.36444091797</ele>
        <time>2015-11-08T09:14:52.000Z</time>
      </trkpt>
      <trkpt lat="46.16905" lon="3.17679">
        <ele>420.38168334961</ele>
        <time>2015-11-08T09:14:55.000Z</time>
      </trkpt>
      <trkpt lat="46.16903" lon="3.17678">
        <ele>420.37353515625</ele>
        <time>2015-11-08T09:14:57.000Z</time>
      </trkpt>
      <trkpt lat="46.16899" lon="3.17678">
        <ele>420.35931396484</ele>
        <time>2015-11-08T09:15:00.000Z</time>
      </trkpt>
      <trkpt lat="46.16897" lon="3.17677">
        <ele>420.34527587891</ele>
        <time>2015-11-08T09:15:02.000Z</time>
      </trkpt>
      <trkpt lat="46.16894" lon="3.17677">
        <ele>420.33245849609</ele>
        <time>2015-11-08T09:15:05.000Z</time>
      </trkpt>
      <trkpt lat="46.16891" lon="3.17677">
        <ele>420.31268310547</ele>
        <time>2015-11-08T09:15:07.000Z</time>
      </trkpt>
      <trkpt lat="46.1689" lon="3.17676">
        <ele>420.29449462891</ele>
        <time>2015-11-08T09:15:09.000Z</time>
      </trkpt>
      <trkpt lat="46.16887" lon="3.17674">
        <ele>420.29278564453</ele>
        <time>2015-11-08T09:15:12.000Z</time>
      </trkpt>
      <trkpt lat="46.16883" lon="3.17673">
        <ele>420.28964233398</ele>
        <time>2015-11-08T09:15:14.000Z</time>
      </trkpt>
      <trkpt lat="46.16879" lon="3.17671">
        <ele>420.29901123047</ele>
        <time>2015-11-08T09:15:17.000Z</time>
      </trkpt>
      <trkpt lat="46.16874" lon="3.17668">
        <ele>420.33023071289</ele>
        <time>2015-11-08T09:15:20.000Z</time>
      </trkpt>
      <trkpt lat="46.1687" lon="3.17666">
        <ele>420.36172485352</ele>
        <time>2015-11-08T09:15:23.000Z</time>
      </trkpt>
      <trkpt lat="46.16867" lon="3.17665">
        <ele>420.37591552734</ele>
        <time>2015-11-08T09:15:26.000Z</time>
      </trkpt>
      <trkpt lat="46.16862" lon="3.17663">
        <ele>420.37664794922</ele>
        <time>2015-11-08T09:15:29.000Z</time>
      </trkpt>
      <trkpt lat="46.1686" lon="3.17662">
        <ele>420.36151123047</ele>
        <time>2015-11-08T09:15:31.000Z</time>
      </trkpt>
      <trkpt lat="46.16855" lon="3.1766">
        <ele>420.31289672852</ele>
        <time>2015-11-08T09:15:34.000Z</time>
      </trkpt>
      <trkpt lat="46.16852" lon="3.17659">
        <ele>420.25164794922</ele>
        <time>2015-11-08T09:15:37.000Z</time>
      </trkpt>
      <trkpt lat="46.16848" lon="3.17658">
        <ele>420.19061279297</ele>
        <time>2015-11-08T09:15:40.000Z</time>
      </trkpt>
      <trkpt lat="46.16846" lon="3.17658">
        <ele>420.13787841797</ele>
        <time>2015-11-08T09:15:42.000Z</time>
      </trkpt>
      <trkpt lat="46.16844" lon="3.17656">
        <ele>420.08599853516</ele>
        <time>2015-11-08T09:15:44.000Z</time>
      </trkpt>
      <trkpt lat="46.16842" lon="3.17654">
        <ele>420.04052734375</ele>
        <time>2015-11-08T09:15:47.000Z</time>
      </trkpt>
      <trkpt lat="46.16839" lon="3.17652">
        <ele>419.99325561523</ele>
        <time>2015-11-08T09:15:50.000Z</time>
      </trkpt>
      <trkpt lat="46.16837" lon="3.17651">
        <ele>419.94906616211</ele>
        <time>2015-11-08T09:15:52.000Z</time>
      </trkpt>
      <trkpt lat="46.16833" lon="3.1765">
        <ele>419.8974609375</ele>
        <time>2015-11-08T09:15:55.000Z</time>
      </trkpt>
      <trkpt lat="46.16831" lon="3.17649">
        <ele>419.82998657227</ele>
        <time>2015-11-08T09:15:57.000Z</time>
      </trkpt>
      <trkpt lat="46.16827" lon="3.17647">
        <ele>419.73706054688</ele>
        <time>2015-11-08T09:16:01.000Z</time>
      </trkpt>
      <trkpt lat="46.16824" lon="3.17645">
        <ele>419.63446044922</ele>
        <time>2015-11-08T09:16:02.000Z</time>
      </trkpt>
      <trkpt lat="46.16822" lon="3.17644">
        <ele>419.52114868164</ele>
        <time>2015-11-08T09:16:04.000Z</time>
      </trkpt>
      <trkpt lat="46.16819" lon="3.17641">
        <ele>419.39288330078</ele>
        <time>2015-11-08T09:16:07.000Z</time>
      </trkpt>
      <trkpt lat="46.16815" lon="3.17638">
        <ele>419.26348876953</ele>
        <time>2015-11-08T09:16:09.000Z</time>
      </trkpt>
      <trkpt lat="46.16813" lon="3.17635">
        <ele>419.15771484375</ele>
        <time>2015-11-08T09:16:12.000Z</time>
      </trkpt>
      <trkpt lat="46.1681" lon="3.17631">
        <ele>419.05914306641</ele>
        <time>2015-11-08T09:16:15.000Z</time>
      </trkpt>
      <trkpt lat="46.16807" lon="3.17627">
        <ele>418.96923828125</ele>
        <time>2015-11-08T09:16:18.000Z</time>
      </trkpt>
      <trkpt lat="46.16803" lon="3.17623">
        <ele>418.90151977539</ele>
        <time>2015-11-08T09:16:21.000Z</time>
      </trkpt>
      <trkpt lat="46.16801" lon="3.1762">
        <ele>418.85897827148</ele>
        <time>2015-11-08T09:16:23.000Z</time>
      </trkpt>
      <trkpt lat="46.16798" lon="3.17616">
        <ele>418.83221435547</ele>
        <time>2015-11-08T09:16:26.000Z</time>
      </trkpt>
      <trkpt lat="46.16796" lon="3.17613">
        <ele>418.82672119141</ele>
        <time>2015-11-08T09:16:28.000Z</time>
      </trkpt>
      <trkpt lat="46.16793" lon="3.17608">
        <ele>418.84286499023</ele>
        <time>2015-11-08T09:16:31.000Z</time>
      </trkpt>
      <trkpt lat="46.16791" lon="3.17606">
        <ele>418.87362670898</ele>
        <time>2015-11-08T09:16:33.000Z</time>
      </trkpt>
      <trkpt lat="46.16788" lon="3.17602">
        <ele>418.92245483398</ele>
        <time>2015-11-08T09:16:36.000Z</time>
      </trkpt>
      <trkpt lat="46.16785" lon="3.17598">
        <ele>418.98590087891</ele>
        <time>2015-11-08T09:16:39.000Z</time>
      </trkpt>
      <trkpt lat="46.16783" lon="3.17594">
        <ele>419.07061767578</ele>
        <time>2015-11-08T09:16:42.000Z</time>
      </trkpt>
      <trkpt lat="46.16781" lon="3.17591">
        <ele>419.16421508789</ele>
        <time>2015-11-08T09:16:44.000Z</time>
      </trkpt>
      <trkpt lat="46.16779" lon="3.17587">
        <ele>419.27490234375</ele>
        <time>2015-11-08T09:16:46.000Z</time>
      </trkpt>
      <trkpt lat="46.16776" lon="3.17583">
        <ele>419.40478515625</ele>
        <time>2015-11-08T09:16:49.000Z</time>
      </trkpt>
      <trkpt lat="46.16773" lon="3.1758">
        <ele>419.53387451172</ele>
        <time>2015-11-08T09:16:51.000Z</time>
      </trkpt>
      <trkpt lat="46.1677" lon="3.17575">
        <ele>419.6591796875</ele>
        <time>2015-11-08T09:16:54.000Z</time>
      </trkpt>
      <trkpt lat="46.16767" lon="3.17572">
        <ele>419.78009033203</ele>
        <time>2015-11-08T09:16:57.000Z</time>
      </trkpt>
      <trkpt lat="46.16765" lon="3.1757">
        <ele>419.88507080078</ele>
        <time>2015-11-08T09:16:59.000Z</time>
      </trkpt>
      <trkpt lat="46.16763" lon="3.17568">
        <ele>419.96371459961</ele>
        <time>2015-11-08T09:17:02.000Z</time>
      </trkpt>
      <trkpt lat="46.16761" lon="3.17565">
        <ele>420.03509521484</ele>
        <time>2015-11-08T09:17:04.000Z</time>
      </trkpt>
      <trkpt lat="46.16759" lon="3.17563">
        <ele>420.0927734375</ele>
        <time>2015-11-08T09:17:06.000Z</time>
      </trkpt>
      <trkpt lat="46.16757" lon="3.17559">
        <ele>420.14422607422</ele>
        <time>2015-11-08T09:17:09.000Z</time>
      </trkpt>
      <trkpt lat="46.16755" lon="3.17555">
        <ele>420.19989013672</ele>
        <time>2015-11-08T09:17:12.000Z</time>
      </trkpt>
      <trkpt lat="46.16751" lon="3.17551">
        <ele>420.25708007812</ele>
        <time>2015-11-08T09:17:15.000Z</time>
      </trkpt>
      <trkpt lat="46.16749" lon="3.17548">
        <ele>420.30352783203</ele>
        <time>2015-11-08T09:17:17.000Z</time>
      </trkpt>
      <trkpt lat="46.16747" lon="3.17545">
        <ele>420.32308959961</ele>
        <time>2015-11-08T09:17:19.000Z</time>
      </trkpt>
      <trkpt lat="46.16746" lon="3.17541">
        <ele>420.32284545898</ele>
        <time>2015-11-08T09:17:22.000Z</time>
      </trkpt>
      <trkpt lat="46.16745" lon="3.17538">
        <ele>420.30548095703</ele>
        <time>2015-11-08T09:17:24.000Z</time>
      </trkpt>
      <trkpt lat="46.16743" lon="3.17533">
        <ele>420.26483154297</ele>
        <time>2015-11-08T09:17:27.000Z</time>
      </trkpt>
      <trkpt lat="46.16741" lon="3.1753">
        <ele>420.21185302734</ele>
        <time>2015-11-08T09:17:29.000Z</time>
      </trkpt>
      <trkpt lat="46.1674" lon="3.17525">
        <ele>420.16729736328</ele>
        <time>2015-11-08T09:17:32.000Z</time>
      </trkpt>
      <trkpt lat="46.16738" lon="3.1752">
        <ele>420.12445068359</ele>
        <time>2015-11-08T09:17:35.000Z</time>
      </trkpt>
      <trkpt lat="46.16737" lon="3.17517">
        <ele>420.08221435547</ele>
        <time>2015-11-08T09:17:37.000Z</time>
      </trkpt>
      <trkpt lat="46.16735" lon="3.17512">
        <ele>420.03338623047</ele>
        <time>2015-11-08T09:17:40.000Z</time>
      </trkpt>
      <trkpt lat="46.16733" lon="3.17507">
        <ele>419.98504638672</ele>
        <time>2015-11-08T09:17:44.000Z</time>
      </trkpt>
      <trkpt lat="46.16731" lon="3.17504">
        <ele>419.9375</ele>
        <time>2015-11-08T09:17:45.000Z</time>
      </trkpt>
      <trkpt lat="46.1673" lon="3.17501">
        <ele>419.89468383789</ele>
        <time>2015-11-08T09:17:47.000Z</time>
      </trkpt>
      <trkpt lat="46.16729" lon="3.17498">
        <ele>419.84033203125</ele>
        <time>2015-11-08T09:17:49.000Z</time>
      </trkpt>
      <trkpt lat="46.16727" lon="3.17492">
        <ele>419.77020263672</ele>
        <time>2015-11-08T09:17:52.000Z</time>
      </trkpt>
      <trkpt lat="46.16725" lon="3.17489">
        <ele>419.67791748047</ele>
        <time>2015-11-08T09:17:55.000Z</time>
      </trkpt>
      <trkpt lat="46.16724" lon="3.17485">
        <ele>419.56866455078</ele>
        <time>2015-11-08T09:17:57.000Z</time>
      </trkpt>
      <trkpt lat="46.16724" lon="3.17481">
        <ele>419.44720458984</ele>
        <time>2015-11-08T09:18:00.000Z</time>
      </trkpt>
      <trkpt lat="46.16722" lon="3.17478">
        <ele>419.30941772461</ele>
        <time>2015-11-08T09:18:03.000Z</time>
      </trkpt>
      <trkpt lat="46.16721" lon="3.17477">
        <ele>419.17489624023</ele>
        <time>2015-11-08T09:18:06.000Z</time>
      </trkpt>
      <trkpt lat="46.16719" lon="3.17476">
        <ele>419.05834960938</ele>
        <time>2015-11-08T09:18:13.000Z</time>
      </trkpt>
      <trkpt lat="46.16718" lon="3.17475">
        <ele>418.93032836914</ele>
        <time>2015-11-08T09:18:16.000Z</time>
      </trkpt>
      <trkpt lat="46.16716" lon="3.17475">
        <ele>418.79946899414</ele>
        <time>2015-11-08T09:18:25.000Z</time>
      </trkpt>
      <trkpt lat="46.16716" lon="3.17476">
        <ele>418.69662475586</ele>
        <time>2015-11-08T09:18:27.000Z</time>
      </trkpt>
      <trkpt lat="46.16712" lon="3.17481">
        <ele>418.58331298828</ele>
        <time>2015-11-08T09:18:39.000Z</time>
      </trkpt>
      <trkpt lat="46.16711" lon="3.17481">
        <ele>418.46160888672</ele>
        <time>2015-11-08T09:18:41.000Z</time>
      </trkpt>
      <trkpt lat="46.1671" lon="3.17481">
        <ele>418.36239624023</ele>
        <time>2015-11-08T09:18:47.000Z</time>
      </trkpt>
      <trkpt lat="46.16709" lon="3.1748">
        <ele>418.25830078125</ele>
        <time>2015-11-08T09:18:55.000Z</time>
      </trkpt>
      <trkpt lat="46.16707" lon="3.17481">
        <ele>418.14422607422</ele>
        <time>2015-11-08T09:18:58.000Z</time>
      </trkpt>
      <trkpt lat="46.16706" lon="3.17481">
        <ele>418.05218505859</ele>
        <time>2015-11-08T09:19:00.000Z</time>
      </trkpt>
      <trkpt lat="46.16705" lon="3.17482">
        <ele>417.96331787109</ele>
        <time>2015-11-08T09:19:03.000Z</time>
      </trkpt>
      <trkpt lat="46.16704" lon="3.17481">
        <ele>417.87265014648</ele>
        <time>2015-11-08T09:19:05.000Z</time>
      </trkpt>
      <trkpt lat="46.16702" lon="3.17481">
        <ele>417.78677368164</ele>
        <time>2015-11-08T09:19:08.000Z</time>
      </trkpt>
      <trkpt lat="46.16701" lon="3.17482">
        <ele>417.70175170898</ele>
        <time>2015-11-08T09:19:11.000Z</time>
      </trkpt>
      <trkpt lat="46.167" lon="3.17483">
        <ele>417.61508178711</ele>
        <time>2015-11-08T09:19:14.000Z</time>
      </trkpt>
      <trkpt lat="46.16698" lon="3.17484">
        <ele>417.53106689453</ele>
        <time>2015-11-08T09:19:16.000Z</time>
      </trkpt>
      <trkpt lat="46.16696" lon="3.17485">
        <ele>417.43765258789</ele>
        <time>2015-11-08T09:19:19.000Z</time>
      </trkpt>
      <trkpt lat="46.16693" lon="3.17486">
        <ele>417.32382202148</ele>
        <time>2015-11-08T09:19:26.000Z</time>
      </trkpt>
      <trkpt lat="46.16686" lon="3.1749">
        <ele>417.15631103516</ele>
        <time>2015-11-08T09:19:34.000Z</time>
      </trkpt>
      <trkpt lat="46.16682" lon="3.17496">
        <ele>417.01571655273</ele>
        <time>2015-11-08T09:19:37.000Z</time>
      </trkpt>
      <trkpt lat="46.16675" lon="3.1751">
        <ele>416.81884765625</ele>
        <time>2015-11-08T09:19:40.000Z</time>
      </trkpt>
      <trkpt lat="46.16672" lon="3.17514">
        <ele>416.60308837891</ele>
        <time>2015-11-08T09:19:42.000Z</time>
      </trkpt>
      <trkpt lat="46.1667" lon="3.17517">
        <ele>416.39910888672</ele>
        <time>2015-11-08T09:19:45.000Z</time>
      </trkpt>
      <trkpt lat="46.16668" lon="3.17519">
        <ele>416.22686767578</ele>
        <time>2015-11-08T09:19:48.000Z</time>
      </trkpt>
      <trkpt lat="46.16666" lon="3.17519">
        <ele>415.98724365234</ele>
        <time>2015-11-08T09:19:51.000Z</time>
      </trkpt>
      <trkpt lat="46.16665" lon="3.17521">
        <ele>415.77206420898</ele>
        <time>2015-11-08T09:19:53.000Z</time>
      </trkpt>
      <trkpt lat="46.16663" lon="3.17523">
        <ele>415.5068359375</ele>
        <time>2015-11-08T09:19:56.000Z</time>
      </trkpt>
      <trkpt lat="46.16661" lon="3.17525">
        <ele>415.12915039062</ele>
        <time>2015-11-08T09:19:58.000Z</time>
      </trkpt>
      <trkpt lat="46.1666" lon="3.17526">
        <ele>414.71575927734</ele>
        <time>2015-11-08T09:20:00.000Z</time>
      </trkpt>
      <trkpt lat="46.16656" lon="3.17529">
        <ele>414.15240478516</ele>
        <time>2015-11-08T09:20:03.000Z</time>
      </trkpt>
      <trkpt lat="46.16654" lon="3.17531">
        <ele>413.52386474609</ele>
        <time>2015-11-08T09:20:05.000Z</time>
      </trkpt>
      <trkpt lat="46.16652" lon="3.17533">
        <ele>412.87213134766</ele>
        <time>2015-11-08T09:20:07.000Z</time>
      </trkpt>
      <trkpt lat="46.1665" lon="3.17534">
        <ele>412.22183227539</ele>
        <time>2015-11-08T09:20:10.000Z</time>
      </trkpt>
      <trkpt lat="46.16647" lon="3.17535">
        <ele>411.50381469727</ele>
        <time>2015-11-08T09:20:14.000Z</time>
      </trkpt>
      <trkpt lat="46.16645" lon="3.17537">
        <ele>410.87915039062</ele>
        <time>2015-11-08T09:20:16.000Z</time>
      </trkpt>
      <trkpt lat="46.16642" lon="3.1754">
        <ele>410.16033935547</ele>
        <time>2015-11-08T09:20:19.000Z</time>
      </trkpt>
      <trkpt lat="46.16638" lon="3.17545">
        <ele>409.34341430664</ele>
        <time>2015-11-08T09:20:22.000Z</time>
      </trkpt>
      <trkpt lat="46.16636" lon="3.17547">
        <ele>408.57119750977</ele>
        <time>2015-11-08T09:20:24.000Z</time>
      </trkpt>
      <trkpt lat="46.16633" lon="3.17546">
        <ele>407.7802734375</ele>
        <time>2015-11-08T09:20:27.000Z</time>
      </trkpt>
      <trkpt lat="46.16631" lon="3.17545">
        <ele>406.99633789062</ele>
        <time>2015-11-08T09:20:29.000Z</time>
      </trkpt>
      <trkpt lat="46.16629" lon="3.17545">
        <ele>406.28890991211</ele>
        <time>2015-11-08T09:20:32.000Z</time>
      </trkpt>
      <trkpt lat="46.16627" lon="3.17544">
        <ele>405.70913696289</ele>
        <time>2015-11-08T09:20:34.000Z</time>
      </trkpt>
      <trkpt lat="46.16626" lon="3.17545">
        <ele>405.12890625</ele>
        <time>2015-11-08T09:20:37.000Z</time>
      </trkpt>
      <trkpt lat="46.16622" lon="3.17546">
        <ele>404.52239990234</ele>
        <time>2015-11-08T09:20:45.000Z</time>
      </trkpt>
      <trkpt lat="46.16621" lon="3.17546">
        <ele>403.95831298828</ele>
        <time>2015-11-08T09:20:45.000Z</time>
      </trkpt>
      <trkpt lat="46.16619" lon="3.17545">
        <ele>403.44067382812</ele>
        <time>2015-11-08T09:20:47.000Z</time>
      </trkpt>
      <trkpt lat="46.16617" lon="3.17544">
        <ele>402.87835693359</ele>
        <time>2015-11-08T09:20:49.000Z</time>
      </trkpt>
      <trkpt lat="46.16615" lon="3.17542">
        <ele>402.30029296875</ele>
        <time>2015-11-08T09:20:52.000Z</time>
      </trkpt>
      <trkpt lat="46.16614" lon="3.17541">
        <ele>401.86328125</ele>
        <time>2015-11-08T09:20:54.000Z</time>
      </trkpt>
      <trkpt lat="46.16613" lon="3.1754">
        <ele>401.40728759766</ele>
        <time>2015-11-08T09:20:56.000Z</time>
      </trkpt>
      <trkpt lat="46.16612" lon="3.17539">
        <ele>400.9951171875</ele>
        <time>2015-11-08T09:20:59.000Z</time>
      </trkpt>
      <trkpt lat="46.16609" lon="3.17538">
        <ele>400.56072998047</ele>
        <time>2015-11-08T09:21:02.000Z</time>
      </trkpt>
      <trkpt lat="46.16607" lon="3.17537">
        <ele>400.10247802734</ele>
        <time>2015-11-08T09:21:05.000Z</time>
      </trkpt>
      <trkpt lat="46.16605" lon="3.17536">
        <ele>399.59838867188</ele>
        <time>2015-11-08T09:21:07.000Z</time>
      </trkpt>
      <trkpt lat="46.16603" lon="3.17536">
        <ele>399.06909179688</ele>
        <time>2015-11-08T09:21:09.000Z</time>
      </trkpt>
      <trkpt lat="46.16601" lon="3.17535">
        <ele>398.49429321289</ele>
        <time>2015-11-08T09:21:11.000Z</time>
      </trkpt>
      <trkpt lat="46.166" lon="3.17535">
        <ele>397.98394775391</ele>
        <time>2015-11-08T09:21:13.000Z</time>
      </trkpt>
      <trkpt lat="46.16598" lon="3.17535">
        <ele>397.53900146484</ele>
        <time>2015-11-08T09:21:16.000Z</time>
      </trkpt>
      <trkpt lat="46.16597" lon="3.17537">
        <ele>397.11001586914</ele>
        <time>2015-11-08T09:21:18.000Z</time>
      </trkpt>
      <trkpt lat="46.16595" lon="3.17542">
        <ele>396.64672851562</ele>
        <time>2015-11-08T09:21:21.000Z</time>
      </trkpt>
      <trkpt lat="46.16595" lon="3.17545">
        <ele>396.26260375977</ele>
        <time>2015-11-08T09:21:24.000Z</time>
      </trkpt>
      <trkpt lat="46.16595" lon="3.17548">
        <ele>396.00662231445</ele>
        <time>2015-11-08T09:21:27.000Z</time>
      </trkpt>
      <trkpt lat="46.16597" lon="3.1755">
        <ele>395.87994384766</ele>
        <time>2015-11-08T09:21:29.000Z</time>
      </trkpt>
      <trkpt lat="46.16597" lon="3.17555">
        <ele>395.83657836914</ele>
        <time>2015-11-08T09:21:32.000Z</time>
      </trkpt>
      <trkpt lat="46.16599" lon="3.17561">
        <ele>395.99194335938</ele>
        <time>2015-11-08T09:21:35.000Z</time>
      </trkpt>
      <trkpt lat="46.166" lon="3.17563">
        <ele>396.24078369141</ele>
        <time>2015-11-08T09:21:37.000Z</time>
      </trkpt>
      <trkpt lat="46.16601" lon="3.17568">
        <ele>396.50714111328</ele>
        <time>2015-11-08T09:21:40.000Z</time>
      </trkpt>
      <trkpt lat="46.16603" lon="3.17571">
        <ele>396.79473876953</ele>
        <time>2015-11-08T09:21:42.000Z</time>
      </trkpt>
      <trkpt lat="46.16604" lon="3.17576">
        <ele>397.12713623047</ele>
        <time>2015-11-08T09:21:45.000Z</time>
      </trkpt>
      <trkpt lat="46.16605" lon="3.17577">
        <ele>397.44778442383</ele>
        <time>2015-11-08T09:21:47.000Z</time>
      </trkpt>
      <trkpt lat="46.16606" lon="3.1758">
        <ele>397.72271728516</ele>
        <time>2015-11-08T09:21:51.000Z</time>
      </trkpt>
      <trkpt lat="46.16607" lon="3.17583">
        <ele>398.00268554688</ele>
        <time>2015-11-08T09:21:53.000Z</time>
      </trkpt>
      <trkpt lat="46.16607" lon="3.17585">
        <ele>398.17553710938</ele>
        <time>2015-11-08T09:21:56.000Z</time>
      </trkpt>
      <trkpt lat="46.16608" lon="3.17587">
        <ele>398.27395629883</ele>
        <time>2015-11-08T09:21:58.000Z</time>
      </trkpt>
      <trkpt lat="46.16609" lon="3.17592">
        <ele>398.23443603516</ele>
        <time>2015-11-08T09:22:01.000Z</time>
      </trkpt>
      <trkpt lat="46.1661" lon="3.17594">
        <ele>398.09228515625</ele>
        <time>2015-11-08T09:22:03.000Z</time>
      </trkpt>
      <trkpt lat="46.1661" lon="3.17596">
        <ele>397.87158203125</ele>
        <time>2015-11-08T09:22:05.000Z</time>
      </trkpt>
      <trkpt lat="46.16613" lon="3.17598">
        <ele>397.72515869141</ele>
        <time>2015-11-08T09:22:07.000Z</time>
      </trkpt>
      <trkpt lat="46.16613" lon="3.176">
        <ele>397.57244873047</ele>
        <time>2015-11-08T09:22:11.000Z</time>
      </trkpt>
      <trkpt lat="46.16615" lon="3.17602">
        <ele>397.52136230469</ele>
        <time>2015-11-08T09:22:13.000Z</time>
      </trkpt>
      <trkpt lat="46.16617" lon="3.17605">
        <ele>397.60726928711</ele>
        <time>2015-11-08T09:22:16.000Z</time>
      </trkpt>
      <trkpt lat="46.16619" lon="3.17613">
        <ele>397.54849243164</ele>
        <time>2015-11-08T09:22:18.000Z</time>
      </trkpt>
      <trkpt lat="46.16625" lon="3.17617">
        <ele>397.70639038086</ele>
        <time>2015-11-08T09:22:22.000Z</time>
      </trkpt>
      <trkpt lat="46.16631" lon="3.17622">
        <ele>398.1291809082</ele>
        <time>2015-11-08T09:22:25.000Z</time>
      </trkpt>
      <trkpt lat="46.16632" lon="3.17626">
        <ele>398.52798461914</ele>
        <time>2015-11-08T09:22:27.000Z</time>
      </trkpt>
      <trkpt lat="46.16633" lon="3.1763">
        <ele>398.76913452148</ele>
        <time>2015-11-08T09:22:30.000Z</time>
      </trkpt>
      <trkpt lat="46.16635" lon="3.17633">
        <ele>399.19467163086</ele>
        <time>2015-11-08T09:22:32.000Z</time>
      </trkpt>
      <trkpt lat="46.16636" lon="3.17636">
        <ele>399.35577392578</ele>
        <time>2015-11-08T09:22:35.000Z</time>
      </trkpt>
      <trkpt lat="46.16637" lon="3.17638">
        <ele>399.30682373047</ele>
        <time>2015-11-08T09:22:37.000Z</time>
      </trkpt>
      <trkpt lat="46.16639" lon="3.1764">
        <ele>399.29644775391</ele>
        <time>2015-11-08T09:22:40.000Z</time>
      </trkpt>
      <trkpt lat="46.1664" lon="3.17642">
        <ele>399.40570068359</ele>
        <time>2015-11-08T09:22:42.000Z</time>
      </trkpt>
      <trkpt lat="46.16643" lon="3.17647">
        <ele>399.56155395508</ele>
        <time>2015-11-08T09:22:45.000Z</time>
      </trkpt>
      <trkpt lat="46.16645" lon="3.17651">
        <ele>399.74496459961</ele>
        <time>2015-11-08T09:22:47.000Z</time>
      </trkpt>
      <trkpt lat="46.16648" lon="3.17653">
        <ele>400.02822875977</ele>
        <time>2015-11-08T09:22:49.000Z</time>
      </trkpt>
      <trkpt lat="46.1665" lon="3.17657">
        <ele>400.34228515625</ele>
        <time>2015-11-08T09:22:52.000Z</time>
      </trkpt>
      <trkpt lat="46.16651" lon="3.17659">
        <ele>400.64535522461</ele>
        <time>2015-11-08T09:22:54.000Z</time>
      </trkpt>
      <trkpt lat="46.16651" lon="3.17661">
        <ele>400.8664855957</ele>
        <time>2015-11-08T09:22:57.000Z</time>
      </trkpt>
      <trkpt lat="46.16652" lon="3.17663">
        <ele>401.0915222168</ele>
        <time>2015-11-08T09:22:59.000Z</time>
      </trkpt>
      <trkpt lat="46.16653" lon="3.17664">
        <ele>401.22052001953</ele>
        <time>2015-11-08T09:23:02.000Z</time>
      </trkpt>
      <trkpt lat="46.16653" lon="3.17666">
        <ele>401.27883911133</ele>
        <time>2015-11-08T09:23:05.000Z</time>
      </trkpt>
      <trkpt lat="46.16653" lon="3.17668">
        <ele>401.24487304688</ele>
        <time>2015-11-08T09:23:09.000Z</time>
      </trkpt>
      <trkpt lat="46.16655" lon="3.17672">
        <ele>401.17202758789</ele>
        <time>2015-11-08T09:23:24.000Z</time>
      </trkpt>
      <trkpt lat="46.16655" lon="3.17675">
        <ele>400.98931884766</ele>
        <time>2015-11-08T09:23:33.000Z</time>
      </trkpt>
      <trkpt lat="46.16655" lon="3.17676">
        <ele>400.69345092773</ele>
        <time>2015-11-08T09:23:35.000Z</time>
      </trkpt>
      <trkpt lat="46.16654" lon="3.17679">
        <ele>400.23748779297</ele>
        <time>2015-11-08T09:23:45.000Z</time>
      </trkpt>
      <trkpt lat="46.16653" lon="3.17681">
        <ele>399.75762939453</ele>
        <time>2015-11-08T09:23:52.000Z</time>
      </trkpt>
      <trkpt lat="46.16652" lon="3.17683">
        <ele>399.19216918945</ele>
        <time>2015-11-08T09:23:59.000Z</time>
      </trkpt>
      <trkpt lat="46.16652" lon="3.17685">
        <ele>398.62191772461</ele>
        <time>2015-11-08T09:24:02.000Z</time>
      </trkpt>
      <trkpt lat="46.16651" lon="3.17688">
        <ele>397.91287231445</ele>
        <time>2015-11-08T09:24:08.000Z</time>
      </trkpt>
      <trkpt lat="46.1665" lon="3.1769">
        <ele>397.29840087891</ele>
        <time>2015-11-08T09:24:16.000Z</time>
      </trkpt>
      <trkpt lat="46.16649" lon="3.17692">
        <ele>396.62817382812</ele>
        <time>2015-11-08T09:24:20.000Z</time>
      </trkpt>
      <trkpt lat="46.16648" lon="3.17693">
        <ele>395.98858642578</ele>
        <time>2015-11-08T09:24:23.000Z</time>
      </trkpt>
      <trkpt lat="46.16648" lon="3.17695">
        <ele>395.29730224609</ele>
        <time>2015-11-08T09:24:26.000Z</time>
      </trkpt>
      <trkpt lat="46.16647" lon="3.17696">
        <ele>394.73858642578</ele>
        <time>2015-11-08T09:24:30.000Z</time>
      </trkpt>
      <trkpt lat="46.16646" lon="3.17697">
        <ele>394.14706420898</ele>
        <time>2015-11-08T09:24:33.000Z</time>
      </trkpt>
      <trkpt lat="46.16645" lon="3.17698">
        <ele>393.62725830078</ele>
        <time>2015-11-08T09:24:36.000Z</time>
      </trkpt>
      <trkpt lat="46.16644" lon="3.177">
        <ele>393.06253051758</ele>
        <time>2015-11-08T09:24:46.000Z</time>
      </trkpt>
      <trkpt lat="46.16644" lon="3.17702">
        <ele>392.51190185547</ele>
        <time>2015-11-08T09:24:49.000Z</time>
      </trkpt>
      <trkpt lat="46.16643" lon="3.17703">
        <ele>391.97280883789</ele>
        <time>2015-11-08T09:24:51.000Z</time>
      </trkpt>
      <trkpt lat="46.16643" lon="3.17704">
        <ele>391.47357177734</ele>
        <time>2015-11-08T09:24:53.000Z</time>
      </trkpt>
      <trkpt lat="46.16642" lon="3.17705">
        <ele>390.94342041016</ele>
        <time>2015-11-08T09:24:56.000Z</time>
      </trkpt>
      <trkpt lat="46.16642" lon="3.17707">
        <ele>390.54556274414</ele>
        <time>2015-11-08T09:24:59.000Z</time>
      </trkpt>
      <trkpt lat="46.16642" lon="3.17709">
        <ele>390.16778564453</ele>
        <time>2015-11-08T09:25:02.000Z</time>
      </trkpt>
      <trkpt lat="46.16642" lon="3.17711">
        <ele>389.76971435547</ele>
        <time>2015-11-08T09:25:04.000Z</time>
      </trkpt>
      <trkpt lat="46.16641" lon="3.17716">
        <ele>389.2587890625</ele>
        <time>2015-11-08T09:25:07.000Z</time>
      </trkpt>
      <trkpt lat="46.16642" lon="3.17718">
        <ele>388.74954223633</ele>
        <time>2015-11-08T09:25:09.000Z</time>
      </trkpt>
      <trkpt lat="46.16642" lon="3.17722">
        <ele>388.11810302734</ele>
        <time>2015-11-08T09:25:13.000Z</time>
      </trkpt>
      <trkpt lat="46.16642" lon="3.17725">
        <ele>387.48614501953</ele>
        <time>2015-11-08T09:25:14.000Z</time>
      </trkpt>
      <trkpt lat="46.16642" lon="3.17727">
        <ele>386.92395019531</ele>
        <time>2015-11-08T09:25:16.000Z</time>
      </trkpt>
      <trkpt lat="46.16643" lon="3.17731">
        <ele>386.47396850586</ele>
        <time>2015-11-08T09:25:19.000Z</time>
      </trkpt>
      <trkpt lat="46.16644" lon="3.17736">
        <ele>386.01943969727</ele>
        <time>2015-11-08T09:25:22.000Z</time>
      </trkpt>
      <trkpt lat="46.16645" lon="3.17741">
        <ele>385.60668945312</ele>
        <time>2015-11-08T09:25:25.000Z</time>
      </trkpt>
      <trkpt lat="46.16645" lon="3.17744">
        <ele>385.20489501953</ele>
        <time>2015-11-08T09:25:27.000Z</time>
      </trkpt>
      <trkpt lat="46.16645" lon="3.17749">
        <ele>384.63323974609</ele>
        <time>2015-11-08T09:25:30.000Z</time>
      </trkpt>
      <trkpt lat="46.16645" lon="3.17753">
        <ele>384.06137084961</ele>
        <time>2015-11-08T09:25:32.000Z</time>
      </trkpt>
      <trkpt lat="46.16645" lon="3.17756">
        <ele>383.49011230469</ele>
        <time>2015-11-08T09:25:35.000Z</time>
      </trkpt>
      <trkpt lat="46.16645" lon="3.17758">
        <ele>382.96774291992</ele>
        <time>2015-11-08T09:25:37.000Z</time>
      </trkpt>
      <trkpt lat="46.16645" lon="3.17761">
        <ele>382.47760009766</ele>
        <time>2015-11-08T09:25:40.000Z</time>
      </trkpt>
      <trkpt lat="46.16645" lon="3.17766">
        <ele>382.01666259766</ele>
        <time>2015-11-08T09:25:43.000Z</time>
      </trkpt>
      <trkpt lat="46.16645" lon="3.1777">
        <ele>381.57373046875</ele>
        <time>2015-11-08T09:25:46.000Z</time>
      </trkpt>
      <trkpt lat="46.16645" lon="3.17775">
        <ele>381.11917114258</ele>
        <time>2015-11-08T09:25:49.000Z</time>
      </trkpt>
      <trkpt lat="46.16644" lon="3.17778">
        <ele>380.56484985352</ele>
        <time>2015-11-08T09:25:51.000Z</time>
      </trkpt>
      <trkpt lat="46.16644" lon="3.17781">
        <ele>379.95202636719</ele>
        <time>2015-11-08T09:25:53.000Z</time>
      </trkpt>
      <trkpt lat="46.16644" lon="3.17784">
        <ele>379.47402954102</ele>
        <time>2015-11-08T09:25:56.000Z</time>
      </trkpt>
      <trkpt lat="46.16644" lon="3.17786">
        <ele>378.99957275391</ele>
        <time>2015-11-08T09:25:58.000Z</time>
      </trkpt>
      <trkpt lat="46.16645" lon="3.17791">
        <ele>378.55523681641</ele>
        <time>2015-11-08T09:26:01.000Z</time>
      </trkpt>
      <trkpt lat="46.16645" lon="3.17794">
        <ele>378.19329833984</ele>
        <time>2015-11-08T09:26:03.000Z</time>
      </trkpt>
      <trkpt lat="46.16645" lon="3.17798">
        <ele>377.84603881836</ele>
        <time>2015-11-08T09:26:06.000Z</time>
      </trkpt>
      <trkpt lat="46.16645" lon="3.17799">
        <ele>377.49389648438</ele>
        <time>2015-11-08T09:26:08.000Z</time>
      </trkpt>
      <trkpt lat="46.16645" lon="3.17803">
        <ele>377.09619140625</ele>
        <time>2015-11-08T09:26:11.000Z</time>
      </trkpt>
      <trkpt lat="46.16645" lon="3.17806">
        <ele>376.79638671875</ele>
        <time>2015-11-08T09:26:14.000Z</time>
      </trkpt>
      <trkpt lat="46.16647" lon="3.17808">
        <ele>376.64971923828</ele>
        <time>2015-11-08T09:26:16.000Z</time>
      </trkpt>
      <trkpt lat="46.16648" lon="3.1781">
        <ele>376.58798217773</ele>
        <time>2015-11-08T09:26:19.000Z</time>
      </trkpt>
      <trkpt lat="46.16648" lon="3.17813">
        <ele>376.49081420898</ele>
        <time>2015-11-08T09:26:23.000Z</time>
      </trkpt>
      <trkpt lat="46.16648" lon="3.17814">
        <ele>376.49087524414</ele>
        <time>2015-11-08T09:26:29.000Z</time>
      </trkpt>
      <trkpt lat="46.16649" lon="3.17817">
        <ele>376.48431396484</ele>
        <time>2015-11-08T09:26:30.000Z</time>
      </trkpt>
      <trkpt lat="46.1665" lon="3.1782">
        <ele>376.42279052734</ele>
        <time>2015-11-08T09:26:32.000Z</time>
      </trkpt>
      <trkpt lat="46.16651" lon="3.17825">
        <ele>376.31948852539</ele>
        <time>2015-11-08T09:26:35.000Z</time>
      </trkpt>
      <trkpt lat="46.16651" lon="3.17828">
        <ele>376.21984863281</ele>
        <time>2015-11-08T09:26:37.000Z</time>
      </trkpt>
      <trkpt lat="46.16651" lon="3.17828">
        <ele>376.21984863281</ele>
        <time>2015-11-08T09:26:57.000Z</time>
      </trkpt>
      <trkpt lat="46.1665" lon="3.17829">
        <ele>375.98696899414</ele>
        <time>2015-11-08T09:27:02.000Z</time>
      </trkpt>
      <trkpt lat="46.16648" lon="3.17832">
        <ele>375.57690429688</ele>
        <time>2015-11-08T09:27:18.000Z</time>
      </trkpt>
      <trkpt lat="46.16645" lon="3.17839">
        <ele>374.72866821289</ele>
        <time>2015-11-08T09:27:21.000Z</time>
      </trkpt>
      <trkpt lat="46.16643" lon="3.17848">
        <ele>373.53326416016</ele>
        <time>2015-11-08T09:27:24.000Z</time>
      </trkpt>
      <trkpt lat="46.16644" lon="3.17854">
        <ele>372.36544799805</ele>
        <time>2015-11-08T09:27:27.000Z</time>
      </trkpt>
      <trkpt lat="46.16644" lon="3.17855">
        <ele>371.3450012207</ele>
        <time>2015-11-08T09:27:30.000Z</time>
      </trkpt>
      <trkpt lat="46.16647" lon="3.17858">
        <ele>370.68353271484</ele>
        <time>2015-11-08T09:27:37.000Z</time>
      </trkpt>
      <trkpt lat="46.16647" lon="3.17861">
        <ele>370.37353515625</ele>
        <time>2015-11-08T09:27:37.000Z</time>
      </trkpt>
      <trkpt lat="46.16647" lon="3.17864">
        <ele>370.39572143555</ele>
        <time>2015-11-08T09:27:38.000Z</time>
      </trkpt>
      <trkpt lat="46.16647" lon="3.17869">
        <ele>370.36346435547</ele>
        <time>2015-11-08T09:27:38.000Z</time>
      </trkpt>
      <trkpt lat="46.16647" lon="3.17871">
        <ele>370.27279663086</ele>
        <time>2015-11-08T09:27:41.000Z</time>
      </trkpt>
      <trkpt lat="46.16648" lon="3.17875">
        <ele>369.96466064453</ele>
        <time>2015-11-08T09:27:44.000Z</time>
      </trkpt>
      <trkpt lat="46.16648" lon="3.17878">
        <ele>369.71209716797</ele>
        <time>2015-11-08T09:27:47.000Z</time>
      </trkpt>
      <trkpt lat="46.16649" lon="3.17882">
        <ele>369.53991699219</ele>
        <time>2015-11-08T09:27:49.000Z</time>
      </trkpt>
      <trkpt lat="46.16649" lon="3.17885">
        <ele>369.36102294922</ele>
        <time>2015-11-08T09:27:51.000Z</time>
      </trkpt>
      <trkpt lat="46.16649" lon="3.17887">
        <ele>369.21380615234</ele>
        <time>2015-11-08T09:27:53.000Z</time>
      </trkpt>
      <trkpt lat="46.16649" lon="3.17892">
        <ele>368.96221923828</ele>
        <time>2015-11-08T09:27:56.000Z</time>
      </trkpt>
      <trkpt lat="46.16648" lon="3.17897">
        <ele>368.57006835938</ele>
        <time>2015-11-08T09:27:59.000Z</time>
      </trkpt>
      <trkpt lat="46.16649" lon="3.17901">
        <ele>368.17343139648</ele>
        <time>2015-11-08T09:28:01.000Z</time>
      </trkpt>
      <trkpt lat="46.16651" lon="3.17905">
        <ele>367.97528076172</ele>
        <time>2015-11-08T09:28:04.000Z</time>
      </trkpt>
      <trkpt lat="46.16652" lon="3.17908">
        <ele>367.77584838867</ele>
        <time>2015-11-08T09:28:06.000Z</time>
      </trkpt>
      <trkpt lat="46.16654" lon="3.17916">
        <ele>367.74752807617</ele>
        <time>2015-11-08T09:28:13.000Z</time>
      </trkpt>
      <trkpt lat="46.16655" lon="3.17918">
        <ele>367.96490478516</ele>
        <time>2015-11-08T09:28:16.000Z</time>
      </trkpt>
      <trkpt lat="46.16656" lon="3.1792">
        <ele>368.21667480469</ele>
        <time>2015-11-08T09:28:20.000Z</time>
      </trkpt>
      <trkpt lat="46.16657" lon="3.17923">
        <ele>368.42932128906</ele>
        <time>2015-11-08T09:28:22.000Z</time>
      </trkpt>
      <trkpt lat="46.1666" lon="3.17928">
        <ele>368.77746582031</ele>
        <time>2015-11-08T09:28:24.000Z</time>
      </trkpt>
      <trkpt lat="46.16661" lon="3.17932">
        <ele>369.16879272461</ele>
        <time>2015-11-08T09:28:27.000Z</time>
      </trkpt>
      <trkpt lat="46.16664" lon="3.17936">
        <ele>369.57727050781</ele>
        <time>2015-11-08T09:28:30.000Z</time>
      </trkpt>
      <trkpt lat="46.16664" lon="3.17939">
        <ele>369.91967773438</ele>
        <time>2015-11-08T09:28:32.000Z</time>
      </trkpt>
      <trkpt lat="46.16665" lon="3.17943">
        <ele>370.203125</ele>
        <time>2015-11-08T09:28:35.000Z</time>
      </trkpt>
      <trkpt lat="46.16665" lon="3.17945">
        <ele>370.32830810547</ele>
        <time>2015-11-08T09:28:37.000Z</time>
      </trkpt>
      <trkpt lat="46.16666" lon="3.17948">
        <ele>370.38092041016</ele>
        <time>2015-11-08T09:28:40.000Z</time>
      </trkpt>
      <trkpt lat="46.16666" lon="3.1795">
        <ele>370.30059814453</ele>
        <time>2015-11-08T09:28:42.000Z</time>
      </trkpt>
      <trkpt lat="46.16667" lon="3.17953">
        <ele>370.23669433594</ele>
        <time>2015-11-08T09:28:44.000Z</time>
      </trkpt>
      <trkpt lat="46.16669" lon="3.17957">
        <ele>370.1130065918</ele>
        <time>2015-11-08T09:28:47.000Z</time>
      </trkpt>
      <trkpt lat="46.16669" lon="3.1796">
        <ele>369.99371337891</ele>
        <time>2015-11-08T09:28:49.000Z</time>
      </trkpt>
      <trkpt lat="46.16669" lon="3.17965">
        <ele>369.75128173828</ele>
        <time>2015-11-08T09:28:52.000Z</time>
      </trkpt>
      <trkpt lat="46.16671" lon="3.17968">
        <ele>369.49575805664</ele>
        <time>2015-11-08T09:28:55.000Z</time>
      </trkpt>
      <trkpt lat="46.16672" lon="3.17971">
        <ele>369.20678710938</ele>
        <time>2015-11-08T09:28:58.000Z</time>
      </trkpt>
      <trkpt lat="46.16672" lon="3.17972">
        <ele>368.94760131836</ele>
        <time>2015-11-08T09:29:01.000Z</time>
      </trkpt>
      <trkpt lat="46.16671" lon="3.17974">
        <ele>368.67959594727</ele>
        <time>2015-11-08T09:29:04.000Z</time>
      </trkpt>
      <trkpt lat="46.16671" lon="3.17976">
        <ele>368.49789428711</ele>
        <time>2015-11-08T09:29:12.000Z</time>
      </trkpt>
      <trkpt lat="46.16671" lon="3.17977">
        <ele>368.30804443359</ele>
        <time>2015-11-08T09:29:14.000Z</time>
      </trkpt>
      <trkpt lat="46.16669" lon="3.17986">
        <ele>367.93695068359</ele>
        <time>2015-11-08T09:29:17.000Z</time>
      </trkpt>
      <trkpt lat="46.16669" lon="3.17988">
        <ele>367.54696655273</ele>
        <time>2015-11-08T09:29:21.000Z</time>
      </trkpt>
      <trkpt lat="46.16668" lon="3.1799">
        <ele>367.13613891602</ele>
        <time>2015-11-08T09:29:23.000Z</time>
      </trkpt>
      <trkpt lat="46.16668" lon="3.17995">
        <ele>366.63903808594</ele>
        <time>2015-11-08T09:29:26.000Z</time>
      </trkpt>
      <trkpt lat="46.16666" lon="3.17999">
        <ele>365.99606323242</ele>
        <time>2015-11-08T09:29:29.000Z</time>
      </trkpt>
      <trkpt lat="46.16664" lon="3.18003">
        <ele>365.31921386719</ele>
        <time>2015-11-08T09:29:32.000Z</time>
      </trkpt>
      <trkpt lat="46.16663" lon="3.18006">
        <ele>364.52618408203</ele>
        <time>2015-11-08T09:29:34.000Z</time>
      </trkpt>
      <trkpt lat="46.16663" lon="3.1801">
        <ele>363.65679931641</ele>
        <time>2015-11-08T09:29:36.000Z</time>
      </trkpt>
      <trkpt lat="46.16664" lon="3.18014">
        <ele>362.83032226562</ele>
        <time>2015-11-08T09:29:39.000Z</time>
      </trkpt>
      <trkpt lat="46.16664" lon="3.18017">
        <ele>362.08108520508</ele>
        <time>2015-11-08T09:29:41.000Z</time>
      </trkpt>
      <trkpt lat="46.16664" lon="3.18021">
        <ele>361.45574951172</ele>
        <time>2015-11-08T09:29:44.000Z</time>
      </trkpt>
      <trkpt lat="46.16664" lon="3.18025">
        <ele>360.91061401367</ele>
        <time>2015-11-08T09:29:47.000Z</time>
      </trkpt>
      <trkpt lat="46.16665" lon="3.18028">
        <ele>360.44253540039</ele>
        <time>2015-11-08T09:29:50.000Z</time>
      </trkpt>
      <trkpt lat="46.16665" lon="3.18031">
        <ele>359.94165039062</ele>
        <time>2015-11-08T09:29:52.000Z</time>
      </trkpt>
      <trkpt lat="46.16665" lon="3.18034">
        <ele>359.47885131836</ele>
        <time>2015-11-08T09:29:54.000Z</time>
      </trkpt>
      <trkpt lat="46.16665" lon="3.18039">
        <ele>358.94931030273</ele>
        <time>2015-11-08T09:29:57.000Z</time>
      </trkpt>
      <trkpt lat="46.16665" lon="3.18041">
        <ele>358.45513916016</ele>
        <time>2015-11-08T09:29:59.000Z</time>
      </trkpt>
      <trkpt lat="46.16666" lon="3.18045">
        <ele>357.97567749023</ele>
        <time>2015-11-08T09:30:02.000Z</time>
      </trkpt>
      <trkpt lat="46.16666" lon="3.18047">
        <ele>357.57702636719</ele>
        <time>2015-11-08T09:30:04.000Z</time>
      </trkpt>
      <trkpt lat="46.16666" lon="3.18049">
        <ele>357.1513671875</ele>
        <time>2015-11-08T09:30:07.000Z</time>
      </trkpt>
      <trkpt lat="46.16667" lon="3.18052">
        <ele>356.88558959961</ele>
        <time>2015-11-08T09:30:09.000Z</time>
      </trkpt>
      <trkpt lat="46.16668" lon="3.18055">
        <ele>356.57342529297</ele>
        <time>2015-11-08T09:30:12.000Z</time>
      </trkpt>
      <trkpt lat="46.16668" lon="3.18059">
        <ele>356.17340087891</ele>
        <time>2015-11-08T09:30:15.000Z</time>
      </trkpt>
      <trkpt lat="46.16668" lon="3.18062">
        <ele>355.71127319336</ele>
        <time>2015-11-08T09:30:18.000Z</time>
      </trkpt>
      <trkpt lat="46.16669" lon="3.18065">
        <ele>355.29718017578</ele>
        <time>2015-11-08T09:30:21.000Z</time>
      </trkpt>
      <trkpt lat="46.1667" lon="3.18066">
        <ele>354.92373657227</ele>
        <time>2015-11-08T09:30:25.000Z</time>
      </trkpt>
      <trkpt lat="46.1667" lon="3.18068">
        <ele>354.57797241211</ele>
        <time>2015-11-08T09:30:28.000Z</time>
      </trkpt>
      <trkpt lat="46.1667" lon="3.1807">
        <ele>354.29620361328</ele>
        <time>2015-11-08T09:30:31.000Z</time>
      </trkpt>
      <trkpt lat="46.16671" lon="3.18073">
        <ele>354.03945922852</ele>
        <time>2015-11-08T09:30:33.000Z</time>
      </trkpt>
      <trkpt lat="46.16673" lon="3.18077">
        <ele>353.75662231445</ele>
        <time>2015-11-08T09:30:36.000Z</time>
      </trkpt>
      <trkpt lat="46.16674" lon="3.18078">
        <ele>353.48126220703</ele>
        <time>2015-11-08T09:30:38.000Z</time>
      </trkpt>
      <trkpt lat="46.16677" lon="3.18079">
        <ele>353.36303710938</ele>
        <time>2015-11-08T09:30:41.000Z</time>
      </trkpt>
      <trkpt lat="46.16679" lon="3.18079">
        <ele>353.36279296875</ele>
        <time>2015-11-08T09:30:44.000Z</time>
      </trkpt>
      <trkpt lat="46.16681" lon="3.18081">
        <ele>353.43203735352</ele>
        <time>2015-11-08T09:30:47.000Z</time>
      </trkpt>
      <trkpt lat="46.16683" lon="3.18085">
        <ele>353.51358032227</ele>
        <time>2015-11-08T09:30:50.000Z</time>
      </trkpt>
      <trkpt lat="46.16684" lon="3.18088">
        <ele>353.52197265625</ele>
        <time>2015-11-08T09:30:52.000Z</time>
      </trkpt>
      <trkpt lat="46.16685" lon="3.1809">
        <ele>353.36505126953</ele>
        <time>2015-11-08T09:30:54.000Z</time>
      </trkpt>
      <trkpt lat="46.16687" lon="3.18093">
        <ele>353.13394165039</ele>
        <time>2015-11-08T09:30:57.000Z</time>
      </trkpt>
      <trkpt lat="46.16687" lon="3.18099">
        <ele>352.73922729492</ele>
        <time>2015-11-08T09:31:00.000Z</time>
      </trkpt>
      <trkpt lat="46.16688" lon="3.18101">
        <ele>352.36428833008</ele>
        <time>2015-11-08T09:31:05.000Z</time>
      </trkpt>
      <trkpt lat="46.16689" lon="3.18102">
        <ele>352.01220703125</ele>
        <time>2015-11-08T09:31:08.000Z</time>
      </trkpt>
      <trkpt lat="46.16689" lon="3.18105">
        <ele>351.66885375977</ele>
        <time>2015-11-08T09:31:11.000Z</time>
      </trkpt>
      <trkpt lat="46.16692" lon="3.18112">
        <ele>351.17474365234</ele>
        <time>2015-11-08T09:31:16.000Z</time>
      </trkpt>
      <trkpt lat="46.16695" lon="3.18127">
        <ele>350.50567626953</ele>
        <time>2015-11-08T09:31:19.000Z</time>
      </trkpt>
      <trkpt lat="46.16698" lon="3.18131">
        <ele>349.81683349609</ele>
        <time>2015-11-08T09:31:22.000Z</time>
      </trkpt>
      <trkpt lat="46.167" lon="3.18133">
        <ele>349.20962524414</ele>
        <time>2015-11-08T09:31:23.000Z</time>
      </trkpt>
      <trkpt lat="46.16701" lon="3.18133">
        <ele>348.70513916016</ele>
        <time>2015-11-08T09:31:26.000Z</time>
      </trkpt>
      <trkpt lat="46.16704" lon="3.18138">
        <ele>348.32550048828</ele>
        <time>2015-11-08T09:31:29.000Z</time>
      </trkpt>
      <trkpt lat="46.16705" lon="3.1814">
        <ele>348.27429199219</ele>
        <time>2015-11-08T09:31:32.000Z</time>
      </trkpt>
      <trkpt lat="46.16705" lon="3.18141">
        <ele>348.21624755859</ele>
        <time>2015-11-08T09:31:34.000Z</time>
      </trkpt>
      <trkpt lat="46.16705" lon="3.18144">
        <ele>348.02716064453</ele>
        <time>2015-11-08T09:31:37.000Z</time>
      </trkpt>
      <trkpt lat="46.16706" lon="3.18146">
        <ele>347.79113769531</ele>
        <time>2015-11-08T09:31:40.000Z</time>
      </trkpt>
      <trkpt lat="46.16706" lon="3.18148">
        <ele>347.58602905273</ele>
        <time>2015-11-08T09:31:43.000Z</time>
      </trkpt>
      <trkpt lat="46.16707" lon="3.1815">
        <ele>347.33178710938</ele>
        <time>2015-11-08T09:31:45.000Z</time>
      </trkpt>
      <trkpt lat="46.16707" lon="3.18152">
        <ele>347.08343505859</ele>
        <time>2015-11-08T09:31:48.000Z</time>
      </trkpt>
      <trkpt lat="46.16706" lon="3.18152">
        <ele>346.85504150391</ele>
        <time>2015-11-08T09:31:53.000Z</time>
      </trkpt>
      <trkpt lat="46.16704" lon="3.18153">
        <ele>346.53375244141</ele>
        <time>2015-11-08T09:32:04.000Z</time>
      </trkpt>
      <trkpt lat="46.16702" lon="3.18154">
        <ele>346.13012695312</ele>
        <time>2015-11-08T09:32:06.000Z</time>
      </trkpt>
      <trkpt lat="46.167" lon="3.18155">
        <ele>345.68682861328</ele>
        <time>2015-11-08T09:32:12.000Z</time>
      </trkpt>
      <trkpt lat="46.16698" lon="3.18157">
        <ele>345.11856079102</ele>
        <time>2015-11-08T09:32:15.000Z</time>
      </trkpt>
      <trkpt lat="46.16697" lon="3.1816">
        <ele>344.50433349609</ele>
        <time>2015-11-08T09:32:17.000Z</time>
      </trkpt>
      <trkpt lat="46.16697" lon="3.18162">
        <ele>343.91165161133</ele>
        <time>2015-11-08T09:32:19.000Z</time>
      </trkpt>
      <trkpt lat="46.16697" lon="3.18164">
        <ele>343.33959960938</ele>
        <time>2015-11-08T09:32:22.000Z</time>
      </trkpt>
      <trkpt lat="46.16696" lon="3.18169">
        <ele>342.67340087891</ele>
        <time>2015-11-08T09:32:24.000Z</time>
      </trkpt>
      <trkpt lat="46.16696" lon="3.18173">
        <ele>342.10797119141</ele>
        <time>2015-11-08T09:32:27.000Z</time>
      </trkpt>
      <trkpt lat="46.16697" lon="3.18175">
        <ele>341.61367797852</ele>
        <time>2015-11-08T09:32:30.000Z</time>
      </trkpt>
      <trkpt lat="46.16697" lon="3.18177">
        <ele>341.17407226562</ele>
        <time>2015-11-08T09:32:32.000Z</time>
      </trkpt>
      <trkpt lat="46.16698" lon="3.18179">
        <ele>340.8203125</ele>
        <time>2015-11-08T09:32:35.000Z</time>
      </trkpt>
      <trkpt lat="46.16698" lon="3.1818">
        <ele>340.66644287109</ele>
        <time>2015-11-08T09:32:39.000Z</time>
      </trkpt>
      <trkpt lat="46.16699" lon="3.18181">
        <ele>340.58190917969</ele>
        <time>2015-11-08T09:32:41.000Z</time>
      </trkpt>
      <trkpt lat="46.167" lon="3.18184">
        <ele>340.52447509766</ele>
        <time>2015-11-08T09:32:43.000Z</time>
      </trkpt>
      <trkpt lat="46.16699" lon="3.18186">
        <ele>340.42211914062</ele>
        <time>2015-11-08T09:32:46.000Z</time>
      </trkpt>
      <trkpt lat="46.16699" lon="3.18188">
        <ele>340.26638793945</ele>
        <time>2015-11-08T09:32:50.000Z</time>
      </trkpt>
      <trkpt lat="46.16698" lon="3.18189">
        <ele>340.03704833984</ele>
        <time>2015-11-08T09:32:52.000Z</time>
      </trkpt>
      <trkpt lat="46.16697" lon="3.18194">
        <ele>339.63830566406</ele>
        <time>2015-11-08T09:32:55.000Z</time>
      </trkpt>
      <trkpt lat="46.16696" lon="3.18198">
        <ele>339.11889648438</ele>
        <time>2015-11-08T09:32:57.000Z</time>
      </trkpt>
      <trkpt lat="46.16696" lon="3.18201">
        <ele>338.59350585938</ele>
        <time>2015-11-08T09:33:01.000Z</time>
      </trkpt>
      <trkpt lat="46.16695" lon="3.18206">
        <ele>337.98699951172</ele>
        <time>2015-11-08T09:33:02.000Z</time>
      </trkpt>
      <trkpt lat="46.16695" lon="3.1821">
        <ele>337.31097412109</ele>
        <time>2015-11-08T09:33:05.000Z</time>
      </trkpt>
      <trkpt lat="46.16694" lon="3.18216">
        <ele>336.65521240234</ele>
        <time>2015-11-08T09:33:08.000Z</time>
      </trkpt>
      <trkpt lat="46.16694" lon="3.18221">
        <ele>336.00210571289</ele>
        <time>2015-11-08T09:33:11.000Z</time>
      </trkpt>
      <trkpt lat="46.16694" lon="3.18224">
        <ele>335.34265136719</ele>
        <time>2015-11-08T09:33:13.000Z</time>
      </trkpt>
      <trkpt lat="46.16696" lon="3.18227">
        <ele>334.83862304688</ele>
        <time>2015-11-08T09:33:16.000Z</time>
      </trkpt>
      <trkpt lat="46.16697" lon="3.18233">
        <ele>334.37188720703</ele>
        <time>2015-11-08T09:33:19.000Z</time>
      </trkpt>
      <trkpt lat="46.16697" lon="3.18236">
        <ele>333.96807861328</ele>
        <time>2015-11-08T09:33:21.000Z</time>
      </trkpt>
      <trkpt lat="46.16696" lon="3.1824">
        <ele>333.58047485352</ele>
        <time>2015-11-08T09:33:24.000Z</time>
      </trkpt>
      <trkpt lat="46.16695" lon="3.18243">
        <ele>333.15655517578</ele>
        <time>2015-11-08T09:33:26.000Z</time>
      </trkpt>
      <trkpt lat="46.16693" lon="3.18251">
        <ele>332.40985107422</ele>
        <time>2015-11-08T09:33:29.000Z</time>
      </trkpt>
      <trkpt lat="46.16692" lon="3.18254">
        <ele>331.60461425781</ele>
        <time>2015-11-08T09:33:38.000Z</time>
      </trkpt>
      <trkpt lat="46.16692" lon="3.18255">
        <ele>330.85858154297</ele>
        <time>2015-11-08T09:33:42.000Z</time>
      </trkpt>
      <trkpt lat="46.16692" lon="3.18257">
        <ele>330.20056152344</ele>
        <time>2015-11-08T09:33:47.000Z</time>
      </trkpt>
      <trkpt lat="46.16692" lon="3.18257">
        <ele>330.20056152344</ele>
        <time>2015-11-08T09:34:12.000Z</time>
      </trkpt>
      <trkpt lat="46.16692" lon="3.18262">
        <ele>329.5110168457</ele>
        <time>2015-11-08T09:34:13.000Z</time>
      </trkpt>
      <trkpt lat="46.16692" lon="3.18262">
        <ele>329.5110168457</ele>
        <time>2015-11-08T09:34:34.000Z</time>
      </trkpt>
      <trkpt lat="46.1669" lon="3.18262">
        <ele>329.08016967773</ele>
        <time>2015-11-08T09:35:27.000Z</time>
      </trkpt>
      <trkpt lat="46.1669" lon="3.18262">
        <ele>329.08016967773</ele>
        <time>2015-11-08T09:35:58.000Z</time>
      </trkpt>
      <trkpt lat="46.1669" lon="3.18263">
        <ele>328.7629699707</ele>
        <time>2015-11-08T09:36:10.000Z</time>
      </trkpt>
      <trkpt lat="46.16689" lon="3.18267">
        <ele>328.35333251953</ele>
        <time>2015-11-08T09:36:17.000Z</time>
      </trkpt>
      <trkpt lat="46.16688" lon="3.18271">
        <ele>327.78115844727</ele>
        <time>2015-11-08T09:36:24.000Z</time>
      </trkpt>
      <trkpt lat="46.16687" lon="3.18274">
        <ele>327.26895141602</ele>
        <time>2015-11-08T09:36:30.000Z</time>
      </trkpt>
      <trkpt lat="46.16687" lon="3.18278">
        <ele>326.65805053711</ele>
        <time>2015-11-08T09:36:32.000Z</time>
      </trkpt>
      <trkpt lat="46.16685" lon="3.1828">
        <ele>325.97467041016</ele>
        <time>2015-11-08T09:36:37.000Z</time>
      </trkpt>
      <trkpt lat="46.16685" lon="3.18282">
        <ele>325.35552978516</ele>
        <time>2015-11-08T09:36:44.000Z</time>
      </trkpt>
      <trkpt lat="46.16684" lon="3.18284">
        <ele>324.83883666992</ele>
        <time>2015-11-08T09:36:50.000Z</time>
      </trkpt>
      <trkpt lat="46.16684" lon="3.18287">
        <ele>324.31628417969</ele>
        <time>2015-11-08T09:36:55.000Z</time>
      </trkpt>
      <trkpt lat="46.16684" lon="3.18289">
        <ele>323.88275146484</ele>
        <time>2015-11-08T09:37:01.000Z</time>
      </trkpt>
      <trkpt lat="46.16684" lon="3.18293">
        <ele>323.45986938477</ele>
        <time>2015-11-08T09:37:01.000Z</time>
      </trkpt>
      <trkpt lat="46.16683" lon="3.18297">
        <ele>322.9912109375</ele>
        <time>2015-11-08T09:37:10.000Z</time>
      </trkpt>
      <trkpt lat="46.16682" lon="3.18301">
        <ele>322.48266601562</ele>
        <time>2015-11-08T09:37:10.000Z</time>
      </trkpt>
      <trkpt lat="46.16682" lon="3.18305">
        <ele>321.95907592773</ele>
        <time>2015-11-08T09:37:19.000Z</time>
      </trkpt>
      <trkpt lat="46.16682" lon="3.18311">
        <ele>321.31600952148</ele>
        <time>2015-11-08T09:37:19.000Z</time>
      </trkpt>
      <trkpt lat="46.16684" lon="3.18316">
        <ele>320.72967529297</ele>
        <time>2015-11-08T09:37:26.000Z</time>
      </trkpt>
      <trkpt lat="46.16685" lon="3.1832">
        <ele>320.19244384766</ele>
        <time>2015-11-08T09:37:43.000Z</time>
      </trkpt>
      <trkpt lat="46.16686" lon="3.18323">
        <ele>319.72784423828</ele>
        <time>2015-11-08T09:37:46.000Z</time>
      </trkpt>
      <trkpt lat="46.16686" lon="3.18327">
        <ele>319.29971313477</ele>
        <time>2015-11-08T09:37:51.000Z</time>
      </trkpt>
      <trkpt lat="46.16687" lon="3.1833">
        <ele>319.00085449219</ele>
        <time>2015-11-08T09:37:51.000Z</time>
      </trkpt>
      <trkpt lat="46.16689" lon="3.18332">
        <ele>318.74243164062</ele>
        <time>2015-11-08T09:37:57.000Z</time>
      </trkpt>
      <trkpt lat="46.16691" lon="3.18335">
        <ele>318.57064819336</ele>
        <time>2015-11-08T09:37:57.000Z</time>
      </trkpt>
      <trkpt lat="46.16693" lon="3.18336">
        <ele>318.51733398438</ele>
        <time>2015-11-08T09:38:04.000Z</time>
      </trkpt>
      <trkpt lat="46.16694" lon="3.18336">
        <ele>318.58660888672</ele>
        <time>2015-11-08T09:38:04.000Z</time>
      </trkpt>
      <trkpt lat="46.16697" lon="3.18336">
        <ele>318.82666015625</ele>
        <time>2015-11-08T09:38:09.000Z</time>
      </trkpt>
      <trkpt lat="46.167" lon="3.18335">
        <ele>319.19793701172</ele>
        <time>2015-11-08T09:38:09.000Z</time>
      </trkpt>
      <trkpt lat="46.16703" lon="3.18333">
        <ele>319.69314575195</ele>
        <time>2015-11-08T09:38:11.000Z</time>
      </trkpt>
      <trkpt lat="46.16705" lon="3.18332">
        <ele>320.26229858398</ele>
        <time>2015-11-08T09:38:11.000Z</time>
      </trkpt>
      <trkpt lat="46.16706" lon="3.18331">
        <ele>320.87844848633</ele>
        <time>2015-11-08T09:38:18.000Z</time>
      </trkpt>
      <trkpt lat="46.16708" lon="3.18329">
        <ele>321.47860717773</ele>
        <time>2015-11-08T09:38:18.000Z</time>
      </trkpt>
      <trkpt lat="46.1671" lon="3.18328">
        <ele>322.06503295898</ele>
        <time>2015-11-08T09:38:23.000Z</time>
      </trkpt>
      <trkpt lat="46.16712" lon="3.18324">
        <ele>322.70733642578</ele>
        <time>2015-11-08T09:38:25.000Z</time>
      </trkpt>
      <trkpt lat="46.16713" lon="3.18324">
        <ele>323.24664306641</ele>
        <time>2015-11-08T09:38:30.000Z</time>
      </trkpt>
      <trkpt lat="46.16716" lon="3.18324">
        <ele>323.81829833984</ele>
        <time>2015-11-08T09:38:35.000Z</time>
      </trkpt>
      <trkpt lat="46.16719" lon="3.18323">
        <ele>324.46685791016</ele>
        <time>2015-11-08T09:38:35.000Z</time>
      </trkpt>
      <trkpt lat="46.16722" lon="3.18322">
        <ele>325.10256958008</ele>
        <time>2015-11-08T09:38:36.000Z</time>
      </trkpt>
      <trkpt lat="46.16727" lon="3.18322">
        <ele>325.77301025391</ele>
        <time>2015-11-08T09:38:41.000Z</time>
      </trkpt>
      <trkpt lat="46.16728" lon="3.18322">
        <ele>326.45004272461</ele>
        <time>2015-11-08T09:38:49.000Z</time>
      </trkpt>
      <trkpt lat="46.1673" lon="3.18322">
        <ele>327.08865356445</ele>
        <time>2015-11-08T09:38:49.000Z</time>
      </trkpt>
      <trkpt lat="46.16732" lon="3.18322">
        <ele>327.5964050293</ele>
        <time>2015-11-08T09:38:52.000Z</time>
      </trkpt>
      <trkpt lat="46.16739" lon="3.18319">
        <ele>328.40231323242</ele>
        <time>2015-11-08T09:38:52.000Z</time>
      </trkpt>
      <trkpt lat="46.16745" lon="3.18317">
        <ele>329.27319335938</ele>
        <time>2015-11-08T09:39:01.000Z</time>
      </trkpt>
      <trkpt lat="46.16749" lon="3.18317">
        <ele>330.26742553711</ele>
        <time>2015-11-08T09:39:02.000Z</time>
      </trkpt>
      <trkpt lat="46.16751" lon="3.18318">
        <ele>331.22100830078</ele>
        <time>2015-11-08T09:39:03.000Z</time>
      </trkpt>
      <trkpt lat="46.16752" lon="3.18318">
        <ele>332.14834594727</ele>
        <time>2015-11-08T09:39:08.000Z</time>
      </trkpt>
      <trkpt lat="46.16755" lon="3.18318">
        <ele>332.705078125</ele>
        <time>2015-11-08T09:39:15.000Z</time>
      </trkpt>
      <trkpt lat="46.16758" lon="3.1832">
        <ele>332.94522094727</ele>
        <time>2015-11-08T09:39:16.000Z</time>
      </trkpt>
      <trkpt lat="46.16763" lon="3.18322">
        <ele>333.05053710938</ele>
        <time>2015-11-08T09:39:23.000Z</time>
      </trkpt>
      <trkpt lat="46.16766" lon="3.18326">
        <ele>333.03335571289</ele>
        <time>2015-11-08T09:39:24.000Z</time>
      </trkpt>
      <trkpt lat="46.16766" lon="3.18328">
        <ele>332.93341064453</ele>
        <time>2015-11-08T09:39:29.000Z</time>
      </trkpt>
      <trkpt lat="46.1677" lon="3.18331">
        <ele>332.77288818359</ele>
        <time>2015-11-08T09:39:38.000Z</time>
      </trkpt>
      <trkpt lat="46.16779" lon="3.18333">
        <ele>332.74212646484</ele>
        <time>2015-11-08T09:39:42.000Z</time>
      </trkpt>
      <trkpt lat="46.16785" lon="3.18331">
        <ele>332.85711669922</ele>
        <time>2015-11-08T09:39:42.000Z</time>
      </trkpt>
      <trkpt lat="46.16789" lon="3.18327">
        <ele>333.23580932617</ele>
        <time>2015-11-08T09:39:48.000Z</time>
      </trkpt>
      <trkpt lat="46.1679" lon="3.18326">
        <ele>333.72827148438</ele>
        <time>2015-11-08T09:39:54.000Z</time>
      </trkpt>
      <trkpt lat="46.16796" lon="3.18321">
        <ele>334.50234985352</ele>
        <time>2015-11-08T09:39:54.000Z</time>
      </trkpt>
      <trkpt lat="46.16798" lon="3.18318">
        <ele>335.29766845703</ele>
        <time>2015-11-08T09:39:59.000Z</time>
      </trkpt>
      <trkpt lat="46.16799" lon="3.18314">
        <ele>336.04232788086</ele>
        <time>2015-11-08T09:40:04.000Z</time>
      </trkpt>
      <trkpt lat="46.168" lon="3.18312">
        <ele>336.66888427734</ele>
        <time>2015-11-08T09:40:06.000Z</time>
      </trkpt>
      <trkpt lat="46.16801" lon="3.1831">
        <ele>337.31338500977</ele>
        <time>2015-11-08T09:40:06.000Z</time>
      </trkpt>
      <trkpt lat="46.16801" lon="3.18308">
        <ele>337.76702880859</ele>
        <time>2015-11-08T09:40:11.000Z</time>
      </trkpt>
      <trkpt lat="46.16803" lon="3.18307">
        <ele>338.15020751953</ele>
        <time>2015-11-08T09:40:11.000Z</time>
      </trkpt>
      <trkpt lat="46.16803" lon="3.18306">
        <ele>338.45077514648</ele>
        <time>2015-11-08T09:40:16.000Z</time>
      </trkpt>
      <trkpt lat="46.16805" lon="3.18304">
        <ele>338.75799560547</ele>
        <time>2015-11-08T09:40:16.000Z</time>
      </trkpt>
      <trkpt lat="46.16806" lon="3.18304">
        <ele>339.02722167969</ele>
        <time>2015-11-08T09:40:24.000Z</time>
      </trkpt>
      <trkpt lat="46.16808" lon="3.18304">
        <ele>339.26715087891</ele>
        <time>2015-11-08T09:40:28.000Z</time>
      </trkpt>
      <trkpt lat="46.16809" lon="3.18303">
        <ele>339.46856689453</ele>
        <time>2015-11-08T09:40:29.000Z</time>
      </trkpt>
      <trkpt lat="46.16809" lon="3.18297">
        <ele>339.80630493164</ele>
        <time>2015-11-08T09:40:36.000Z</time>
      </trkpt>
      <trkpt lat="46.16811" lon="3.18293">
        <ele>340.21231079102</ele>
        <time>2015-11-08T09:40:41.000Z</time>
      </trkpt>
      <trkpt lat="46.16816" lon="3.18291">
        <ele>340.70050048828</ele>
        <time>2015-11-08T09:40:42.000Z</time>
      </trkpt>
      <trkpt lat="46.16821" lon="3.18289">
        <ele>341.25894165039</ele>
        <time>2015-11-08T09:40:47.000Z</time>
      </trkpt>
      <trkpt lat="46.16823" lon="3.1829">
        <ele>341.80090332031</ele>
        <time>2015-11-08T09:40:47.000Z</time>
      </trkpt>
      <trkpt lat="46.1683" lon="3.18301">
        <ele>342.00424194336</ele>
        <time>2015-11-08T09:40:51.000Z</time>
      </trkpt>
      <trkpt lat="46.16832" lon="3.18307">
        <ele>341.93267822266</ele>
        <time>2015-11-08T09:40:51.000Z</time>
      </trkpt>
      <trkpt lat="46.16832" lon="3.1831">
        <ele>341.67962646484</ele>
        <time>2015-11-08T09:40:53.000Z</time>
      </trkpt>
      <trkpt lat="46.16832" lon="3.18314">
        <ele>341.21530151367</ele>
        <time>2015-11-08T09:40:59.000Z</time>
      </trkpt>
      <trkpt lat="46.1683" lon="3.18322">
        <ele>340.5256652832</ele>
        <time>2015-11-08T09:41:05.000Z</time>
      </trkpt>
      <trkpt lat="46.1683" lon="3.18326">
        <ele>339.90185546875</ele>
        <time>2015-11-08T09:41:11.000Z</time>
      </trkpt>
      <trkpt lat="46.16829" lon="3.1833">
        <ele>339.30294799805</ele>
        <time>2015-11-08T09:41:11.000Z</time>
      </trkpt>
      <trkpt lat="46.16827" lon="3.1834">
        <ele>338.55355834961</ele>
        <time>2015-11-08T09:41:11.000Z</time>
      </trkpt>
      <trkpt lat="46.16827" lon="3.18344">
        <ele>337.87832641602</ele>
        <time>2015-11-08T09:41:15.000Z</time>
      </trkpt>
      <trkpt lat="46.16828" lon="3.1835">
        <ele>337.35073852539</ele>
        <time>2015-11-08T09:41:22.000Z</time>
      </trkpt>
      <trkpt lat="46.16829" lon="3.18355">
        <ele>336.88177490234</ele>
        <time>2015-11-08T09:41:22.000Z</time>
      </trkpt>
      <trkpt lat="46.16829" lon="3.18361">
        <ele>336.44427490234</ele>
        <time>2015-11-08T09:41:24.000Z</time>
      </trkpt>
      <trkpt lat="46.16829" lon="3.18366">
        <ele>336.17636108398</ele>
        <time>2015-11-08T09:41:24.000Z</time>
      </trkpt>
      <trkpt lat="46.16829" lon="3.18369">
        <ele>335.91122436523</ele>
        <time>2015-11-08T09:41:31.000Z</time>
      </trkpt>
      <trkpt lat="46.1683" lon="3.18372">
        <ele>335.68719482422</ele>
        <time>2015-11-08T09:41:34.000Z</time>
      </trkpt>
      <trkpt lat="46.1683" lon="3.18376">
        <ele>335.47418212891</ele>
        <time>2015-11-08T09:41:36.000Z</time>
      </trkpt>
      <trkpt lat="46.16831" lon="3.18381">
        <ele>335.28826904297</ele>
        <time>2015-11-08T09:41:36.000Z</time>
      </trkpt>
      <trkpt lat="46.16831" lon="3.18384">
        <ele>335.11108398438</ele>
        <time>2015-11-08T09:41:37.000Z</time>
      </trkpt>
      <trkpt lat="46.16833" lon="3.18388">
        <ele>334.96459960938</ele>
        <time>2015-11-08T09:41:44.000Z</time>
      </trkpt>
      <trkpt lat="46.16834" lon="3.18391">
        <ele>334.82827758789</ele>
        <time>2015-11-08T09:41:45.000Z</time>
      </trkpt>
      <trkpt lat="46.16834" lon="3.18396">
        <ele>334.66076660156</ele>
        <time>2015-11-08T09:41:47.000Z</time>
      </trkpt>
      <trkpt lat="46.16833" lon="3.18402">
        <ele>334.45611572266</ele>
        <time>2015-11-08T09:41:47.000Z</time>
      </trkpt>
      <trkpt lat="46.16832" lon="3.18406">
        <ele>334.21578979492</ele>
        <time>2015-11-08T09:41:54.000Z</time>
      </trkpt>
      <trkpt lat="46.16832" lon="3.18409">
        <ele>333.92785644531</ele>
        <time>2015-11-08T09:41:56.000Z</time>
      </trkpt>
      <trkpt lat="46.1683" lon="3.18413">
        <ele>333.57690429688</ele>
        <time>2015-11-08T09:41:58.000Z</time>
      </trkpt>
      <trkpt lat="46.1683" lon="3.18416">
        <ele>333.25311279297</ele>
        <time>2015-11-08T09:42:03.000Z</time>
      </trkpt>
      <trkpt lat="46.16831" lon="3.18422">
        <ele>332.95513916016</ele>
        <time>2015-11-08T09:42:04.000Z</time>
      </trkpt>
      <trkpt lat="46.16831" lon="3.18427">
        <ele>332.68280029297</ele>
        <time>2015-11-08T09:42:09.000Z</time>
      </trkpt>
      <trkpt lat="46.16832" lon="3.18432">
        <ele>332.42700195312</ele>
        <time>2015-11-08T09:42:13.000Z</time>
      </trkpt>
      <trkpt lat="46.16832" lon="3.18436">
        <ele>332.20553588867</ele>
        <time>2015-11-08T09:42:14.000Z</time>
      </trkpt>
      <trkpt lat="46.16833" lon="3.18445">
        <ele>331.91778564453</ele>
        <time>2015-11-08T09:42:20.000Z</time>
      </trkpt>
      <trkpt lat="46.16833" lon="3.18453">
        <ele>331.60473632812</ele>
        <time>2015-11-08T09:42:20.000Z</time>
      </trkpt>
      <trkpt lat="46.16837" lon="3.18461">
        <ele>331.27798461914</ele>
        <time>2015-11-08T09:42:24.000Z</time>
      </trkpt>
      <trkpt lat="46.16837" lon="3.18467">
        <ele>330.92202758789</ele>
        <time>2015-11-08T09:42:26.000Z</time>
      </trkpt>
      <trkpt lat="46.16838" lon="3.1847">
        <ele>330.58163452148</ele>
        <time>2015-11-08T09:42:26.000Z</time>
      </trkpt>
      <trkpt lat="46.16838" lon="3.18473">
        <ele>330.30444335938</ele>
        <time>2015-11-08T09:42:33.000Z</time>
      </trkpt>
      <trkpt lat="46.16837" lon="3.1848">
        <ele>330.01812744141</ele>
        <time>2015-11-08T09:42:33.000Z</time>
      </trkpt>
      <trkpt lat="46.16837" lon="3.18483">
        <ele>329.75302124023</ele>
        <time>2015-11-08T09:42:35.000Z</time>
      </trkpt>
      <trkpt lat="46.16837" lon="3.18486">
        <ele>329.50814819336</ele>
        <time>2015-11-08T09:42:35.000Z</time>
      </trkpt>
      <trkpt lat="46.16837" lon="3.1849">
        <ele>329.2389831543</ele>
        <time>2015-11-08T09:42:37.000Z</time>
      </trkpt>
      <trkpt lat="46.16836" lon="3.18497">
        <ele>328.92584228516</ele>
        <time>2015-11-08T09:42:42.000Z</time>
      </trkpt>
      <trkpt lat="46.16835" lon="3.18501">
        <ele>328.65878295898</ele>
        <time>2015-11-08T09:42:42.000Z</time>
      </trkpt>
      <trkpt lat="46.16834" lon="3.18507">
        <ele>328.3879699707</ele>
        <time>2015-11-08T09:42:46.000Z</time>
      </trkpt>
      <trkpt lat="46.16834" lon="3.18511">
        <ele>328.14175415039</ele>
        <time>2015-11-08T09:42:46.000Z</time>
      </trkpt>
      <trkpt lat="46.16832" lon="3.18517">
        <ele>327.91073608398</ele>
        <time>2015-11-08T09:42:48.000Z</time>
      </trkpt>
      <trkpt lat="46.16832" lon="3.18522">
        <ele>327.73669433594</ele>
        <time>2015-11-08T09:42:55.000Z</time>
      </trkpt>
      <trkpt lat="46.16831" lon="3.18525">
        <ele>327.59121704102</ele>
        <time>2015-11-08T09:43:02.000Z</time>
      </trkpt>
      <trkpt lat="46.1683" lon="3.1853">
        <ele>327.45748901367</ele>
        <time>2015-11-08T09:43:04.000Z</time>
      </trkpt>
      <trkpt lat="46.1683" lon="3.18533">
        <ele>327.32934570312</ele>
        <time>2015-11-08T09:43:06.000Z</time>
      </trkpt>
      <trkpt lat="46.1683" lon="3.18538">
        <ele>327.21728515625</ele>
        <time>2015-11-08T09:43:12.000Z</time>
      </trkpt>
      <trkpt lat="46.1683" lon="3.18544">
        <ele>327.10327148438</ele>
        <time>2015-11-08T09:43:17.000Z</time>
      </trkpt>
      <trkpt lat="46.1683" lon="3.18547">
        <ele>326.99609375</ele>
        <time>2015-11-08T09:43:19.000Z</time>
      </trkpt>
      <trkpt lat="46.1683" lon="3.18552">
        <ele>326.89208984375</ele>
        <time>2015-11-08T09:43:19.000Z</time>
      </trkpt>
      <trkpt lat="46.16831" lon="3.18556">
        <ele>326.78967285156</ele>
        <time>2015-11-08T09:43:19.000Z</time>
      </trkpt>
      <trkpt lat="46.16832" lon="3.1856">
        <ele>326.69372558594</ele>
        <time>2015-11-08T09:43:24.000Z</time>
      </trkpt>
      <trkpt lat="46.16833" lon="3.18563">
        <ele>326.61776733398</ele>
        <time>2015-11-08T09:43:30.000Z</time>
      </trkpt>
      <trkpt lat="46.16835" lon="3.18567">
        <ele>326.54364013672</ele>
        <time>2015-11-08T09:43:35.000Z</time>
      </trkpt>
      <trkpt lat="46.16836" lon="3.18569">
        <ele>326.49127197266</ele>
        <time>2015-11-08T09:43:37.000Z</time>
      </trkpt>
      <trkpt lat="46.16837" lon="3.18571">
        <ele>326.44720458984</ele>
        <time>2015-11-08T09:43:41.000Z</time>
      </trkpt>
      <trkpt lat="46.16839" lon="3.18575">
        <ele>326.41006469727</ele>
        <time>2015-11-08T09:43:43.000Z</time>
      </trkpt>
      <trkpt lat="46.16841" lon="3.18577">
        <ele>326.38006591797</ele>
        <time>2015-11-08T09:43:48.000Z</time>
      </trkpt>
      <trkpt lat="46.16843" lon="3.18578">
        <ele>326.36697387695</ele>
        <time>2015-11-08T09:43:52.000Z</time>
      </trkpt>
      <trkpt lat="46.16844" lon="3.1858">
        <ele>326.35308837891</ele>
        <time>2015-11-08T09:43:54.000Z</time>
      </trkpt>
      <trkpt lat="46.16845" lon="3.18581">
        <ele>326.34503173828</ele>
        <time>2015-11-08T09:44:00.000Z</time>
      </trkpt>
      <trkpt lat="46.16844" lon="3.18583">
        <ele>326.33279418945</ele>
        <time>2015-11-08T09:44:06.000Z</time>
      </trkpt>
      <trkpt lat="46.16845" lon="3.18585">
        <ele>326.30261230469</ele>
        <time>2015-11-08T09:44:11.000Z</time>
      </trkpt>
      <trkpt lat="46.16846" lon="3.18587">
        <ele>326.23602294922</ele>
        <time>2015-11-08T09:44:13.000Z</time>
      </trkpt>
      <trkpt lat="46.16848" lon="3.18589">
        <ele>326.16098022461</ele>
        <time>2015-11-08T09:44:13.000Z</time>
      </trkpt>
      <trkpt lat="46.1685" lon="3.1859">
        <ele>326.07000732422</ele>
        <time>2015-11-08T09:44:20.000Z</time>
      </trkpt>
      <trkpt lat="46.16851" lon="3.18591">
        <ele>325.98934936523</ele>
        <time>2015-11-08T09:44:26.000Z</time>
      </trkpt>
      <trkpt lat="46.16854" lon="3.18594">
        <ele>325.91143798828</ele>
        <time>2015-11-08T09:44:32.000Z</time>
      </trkpt>
      <trkpt lat="46.16856" lon="3.18595">
        <ele>325.8483581543</ele>
        <time>2015-11-08T09:44:41.000Z</time>
      </trkpt>
      <trkpt lat="46.16858" lon="3.18596">
        <ele>325.7939453125</ele>
        <time>2015-11-08T09:44:41.000Z</time>
      </trkpt>
      <trkpt lat="46.1686" lon="3.18598">
        <ele>325.74911499023</ele>
        <time>2015-11-08T09:44:42.000Z</time>
      </trkpt>
      <trkpt lat="46.16864" lon="3.186">
        <ele>325.69909667969</ele>
        <time>2015-11-08T09:44:49.000Z</time>
      </trkpt>
      <trkpt lat="46.16864" lon="3.186">
        <ele>325.69909667969</ele>
        <time>2015-11-08T09:45:21.000Z</time>
      </trkpt>
      <trkpt lat="46.16873" lon="3.18607">
        <ele>325.62310791016</ele>
        <time>2015-11-08T09:45:42.000Z</time>
      </trkpt>
      <trkpt lat="46.16887" lon="3.18614">
        <ele>325.54248046875</ele>
        <time>2015-11-08T09:45:54.000Z</time>
      </trkpt>
      <trkpt lat="46.16887" lon="3.18614">
        <ele>325.54248046875</ele>
        <time>2015-11-08T09:46:16.000Z</time>
      </trkpt>
      <trkpt lat="46.16907" lon="3.18624">
        <ele>325.46173095703</ele>
        <time>2015-11-08T09:46:22.000Z</time>
      </trkpt>
      <trkpt lat="46.16915" lon="3.18627">
        <ele>325.39709472656</ele>
        <time>2015-11-08T09:46:28.000Z</time>
      </trkpt>
      <trkpt lat="46.16921" lon="3.18631">
        <ele>325.34182739258</ele>
        <time>2015-11-08T09:46:33.000Z</time>
      </trkpt>
      <trkpt lat="46.16927" lon="3.18634">
        <ele>325.32440185547</ele>
        <time>2015-11-08T09:46:39.000Z</time>
      </trkpt>
      <trkpt lat="46.16931" lon="3.18638">
        <ele>325.30120849609</ele>
        <time>2015-11-08T09:46:39.000Z</time>
      </trkpt>
      <trkpt lat="46.16934" lon="3.18642">
        <ele>325.24066162109</ele>
        <time>2015-11-08T09:46:44.000Z</time>
      </trkpt>
      <trkpt lat="46.16938" lon="3.18649">
        <ele>325.09072875977</ele>
        <time>2015-11-08T09:46:50.000Z</time>
      </trkpt>
      <trkpt lat="46.16941" lon="3.18655">
        <ele>324.85583496094</ele>
        <time>2015-11-08T09:46:55.000Z</time>
      </trkpt>
      <trkpt lat="46.16944" lon="3.18661">
        <ele>324.55224609375</ele>
        <time>2015-11-08T09:46:56.000Z</time>
      </trkpt>
      <trkpt lat="46.16946" lon="3.1867">
        <ele>324.12152099609</ele>
        <time>2015-11-08T09:47:04.000Z</time>
      </trkpt>
      <trkpt lat="46.16948" lon="3.18675">
        <ele>323.63977050781</ele>
        <time>2015-11-08T09:47:07.000Z</time>
      </trkpt>
      <trkpt lat="46.16951" lon="3.18684">
        <ele>323.08117675781</ele>
        <time>2015-11-08T09:47:12.000Z</time>
      </trkpt>
      <trkpt lat="46.16951" lon="3.18687">
        <ele>322.54913330078</ele>
        <time>2015-11-08T09:47:14.000Z</time>
      </trkpt>
      <trkpt lat="46.16952" lon="3.1869">
        <ele>322.03598022461</ele>
        <time>2015-11-08T09:47:15.000Z</time>
      </trkpt>
      <trkpt lat="46.16952" lon="3.18704">
        <ele>321.41928100586</ele>
        <time>2015-11-08T09:47:24.000Z</time>
      </trkpt>
      <trkpt lat="46.16953" lon="3.18707">
        <ele>320.83734130859</ele>
        <time>2015-11-08T09:47:26.000Z</time>
      </trkpt>
      <trkpt lat="46.16956" lon="3.18725">
        <ele>320.11395263672</ele>
        <time>2015-11-08T09:47:37.000Z</time>
      </trkpt>
      <trkpt lat="46.16956" lon="3.18729">
        <ele>319.38055419922</ele>
        <time>2015-11-08T09:47:37.000Z</time>
      </trkpt>
      <trkpt lat="46.16957" lon="3.18734">
        <ele>318.61508178711</ele>
        <time>2015-11-08T09:47:44.000Z</time>
      </trkpt>
      <trkpt lat="46.16956" lon="3.18742">
        <ele>317.94036865234</ele>
        <time>2015-11-08T09:47:49.000Z</time>
      </trkpt>
      <trkpt lat="46.16956" lon="3.18745">
        <ele>317.26843261719</ele>
        <time>2015-11-08T09:47:51.000Z</time>
      </trkpt>
      <trkpt lat="46.16956" lon="3.18755">
        <ele>316.71640014648</ele>
        <time>2015-11-08T09:47:57.000Z</time>
      </trkpt>
      <trkpt lat="46.16955" lon="3.18761">
        <ele>316.08929443359</ele>
        <time>2015-11-08T09:48:01.000Z</time>
      </trkpt>
      <trkpt lat="46.16954" lon="3.18764">
        <ele>315.47857666016</ele>
        <time>2015-11-08T09:48:02.000Z</time>
      </trkpt>
      <trkpt lat="46.16951" lon="3.18773">
        <ele>314.80838012695</ele>
        <time>2015-11-08T09:48:09.000Z</time>
      </trkpt>
      <trkpt lat="46.16949" lon="3.1878">
        <ele>314.02172851562</ele>
        <time>2015-11-08T09:48:13.000Z</time>
      </trkpt>
      <trkpt lat="46.16947" lon="3.18785">
        <ele>313.28533935547</ele>
        <time>2015-11-08T09:48:15.000Z</time>
      </trkpt>
      <trkpt lat="46.16946" lon="3.18789">
        <ele>312.57751464844</ele>
        <time>2015-11-08T09:48:15.000Z</time>
      </trkpt>
      <trkpt lat="46.16945" lon="3.18793">
        <ele>311.84521484375</ele>
        <time>2015-11-08T09:48:20.000Z</time>
      </trkpt>
      <trkpt lat="46.16943" lon="3.18798">
        <ele>311.20281982422</ele>
        <time>2015-11-08T09:48:20.000Z</time>
      </trkpt>
      <trkpt lat="46.16942" lon="3.18801">
        <ele>310.65274047852</ele>
        <time>2015-11-08T09:48:22.000Z</time>
      </trkpt>
      <trkpt lat="46.16941" lon="3.18806">
        <ele>310.12265014648</ele>
        <time>2015-11-08T09:48:22.000Z</time>
      </trkpt>
      <trkpt lat="46.16941" lon="3.1881">
        <ele>309.60580444336</ele>
        <time>2015-11-08T09:48:29.000Z</time>
      </trkpt>
      <trkpt lat="46.1694" lon="3.18813">
        <ele>309.10925292969</ele>
        <time>2015-11-08T09:48:29.000Z</time>
      </trkpt>
      <trkpt lat="46.16939" lon="3.18817">
        <ele>308.63885498047</ele>
        <time>2015-11-08T09:48:34.000Z</time>
      </trkpt>
      <trkpt lat="46.16938" lon="3.18822">
        <ele>308.13809204102</ele>
        <time>2015-11-08T09:48:40.000Z</time>
      </trkpt>
      <trkpt lat="46.16935" lon="3.18835">
        <ele>307.40493774414</ele>
        <time>2015-11-08T09:48:47.000Z</time>
      </trkpt>
      <trkpt lat="46.16934" lon="3.1884">
        <ele>306.66690063477</ele>
        <time>2015-11-08T09:48:47.000Z</time>
      </trkpt>
      <trkpt lat="46.16934" lon="3.18843">
        <ele>305.93106079102</ele>
        <time>2015-11-08T09:48:49.000Z</time>
      </trkpt>
      <trkpt lat="46.16933" lon="3.18846">
        <ele>305.23193359375</ele>
        <time>2015-11-08T09:48:49.000Z</time>
      </trkpt>
      <trkpt lat="46.1693" lon="3.18861">
        <ele>304.33404541016</ele>
        <time>2015-11-08T09:49:03.000Z</time>
      </trkpt>
      <trkpt lat="46.16929" lon="3.18865">
        <ele>303.68765258789</ele>
        <time>2015-11-08T09:49:03.000Z</time>
      </trkpt>
      <trkpt lat="46.16928" lon="3.18869">
        <ele>303.06176757812</ele>
        <time>2015-11-08T09:49:06.000Z</time>
      </trkpt>
      <trkpt lat="46.16928" lon="3.18876">
        <ele>302.39056396484</ele>
        <time>2015-11-08T09:49:13.000Z</time>
      </trkpt>
      <trkpt lat="46.16926" lon="3.18883">
        <ele>301.64401245117</ele>
        <time>2015-11-08T09:49:17.000Z</time>
      </trkpt>
      <trkpt lat="46.16925" lon="3.18886">
        <ele>301.14410400391</ele>
        <time>2015-11-08T09:49:17.000Z</time>
      </trkpt>
      <trkpt lat="46.16925" lon="3.1889">
        <ele>300.64184570312</ele>
        <time>2015-11-08T09:49:19.000Z</time>
      </trkpt>
      <trkpt lat="46.16924" lon="3.18894">
        <ele>300.16192626953</ele>
        <time>2015-11-08T09:49:23.000Z</time>
      </trkpt>
      <trkpt lat="46.16924" lon="3.18899">
        <ele>299.69638061523</ele>
        <time>2015-11-08T09:49:23.000Z</time>
      </trkpt>
      <trkpt lat="46.16924" lon="3.18905">
        <ele>299.27935791016</ele>
        <time>2015-11-08T09:49:25.000Z</time>
      </trkpt>
      <trkpt lat="46.16922" lon="3.18908">
        <ele>298.84881591797</ele>
        <time>2015-11-08T09:49:25.000Z</time>
      </trkpt>
      <trkpt lat="46.16922" lon="3.18912">
        <ele>298.44766235352</ele>
        <time>2015-11-08T09:49:25.000Z</time>
      </trkpt>
      <trkpt lat="46.16922" lon="3.18916">
        <ele>298.04095458984</ele>
        <time>2015-11-08T09:49:31.000Z</time>
      </trkpt>
      <trkpt lat="46.16922" lon="3.18918">
        <ele>297.70611572266</ele>
        <time>2015-11-08T09:49:36.000Z</time>
      </trkpt>
      <trkpt lat="46.16922" lon="3.18923">
        <ele>297.42620849609</ele>
        <time>2015-11-08T09:49:38.000Z</time>
      </trkpt>
      <trkpt lat="46.16922" lon="3.18926">
        <ele>297.19204711914</ele>
        <time>2015-11-08T09:49:38.000Z</time>
      </trkpt>
      <trkpt lat="46.16923" lon="3.18929">
        <ele>297.00201416016</ele>
        <time>2015-11-08T09:49:42.000Z</time>
      </trkpt>
      <trkpt lat="46.16924" lon="3.18932">
        <ele>296.85122680664</ele>
        <time>2015-11-08T09:49:43.000Z</time>
      </trkpt>
      <trkpt lat="46.16924" lon="3.18937">
        <ele>296.68264770508</ele>
        <time>2015-11-08T09:49:49.000Z</time>
      </trkpt>
      <trkpt lat="46.16922" lon="3.18944">
        <ele>296.46917724609</ele>
        <time>2015-11-08T09:49:55.000Z</time>
      </trkpt>
      <trkpt lat="46.16919" lon="3.18951">
        <ele>296.1982421875</ele>
        <time>2015-11-08T09:50:00.000Z</time>
      </trkpt>
      <trkpt lat="46.16916" lon="3.18958">
        <ele>295.84747314453</ele>
        <time>2015-11-08T09:50:05.000Z</time>
      </trkpt>
      <trkpt lat="46.16909" lon="3.18966">
        <ele>295.37521362305</ele>
        <time>2015-11-08T09:50:11.000Z</time>
      </trkpt>
      <trkpt lat="46.16907" lon="3.18968">
        <ele>294.90032958984</ele>
        <time>2015-11-08T09:50:11.000Z</time>
      </trkpt>
      <trkpt lat="46.16904" lon="3.18971">
        <ele>294.44293212891</ele>
        <time>2015-11-08T09:50:16.000Z</time>
      </trkpt>
      <trkpt lat="46.16901" lon="3.18974">
        <ele>294.0133972168</ele>
        <time>2015-11-08T09:50:18.000Z</time>
      </trkpt>
      <trkpt lat="46.16898" lon="3.18977">
        <ele>293.61077880859</ele>
        <time>2015-11-08T09:50:18.000Z</time>
      </trkpt>
      <trkpt lat="46.16896" lon="3.18979">
        <ele>293.30117797852</ele>
        <time>2015-11-08T09:50:23.000Z</time>
      </trkpt>
      <trkpt lat="46.16893" lon="3.18982">
        <ele>292.96917724609</ele>
        <time>2015-11-08T09:50:23.000Z</time>
      </trkpt>
      <trkpt lat="46.16891" lon="3.18985">
        <ele>292.65313720703</ele>
        <time>2015-11-08T09:50:29.000Z</time>
      </trkpt>
      <trkpt lat="46.16888" lon="3.18989">
        <ele>292.31234741211</ele>
        <time>2015-11-08T09:50:33.000Z</time>
      </trkpt>
      <trkpt lat="46.16887" lon="3.18994">
        <ele>291.95294189453</ele>
        <time>2015-11-08T09:50:33.000Z</time>
      </trkpt>
      <trkpt lat="46.16884" lon="3.19">
        <ele>291.54644775391</ele>
        <time>2015-11-08T09:50:40.000Z</time>
      </trkpt>
      <trkpt lat="46.16882" lon="3.19003">
        <ele>291.15487670898</ele>
        <time>2015-11-08T09:50:40.000Z</time>
      </trkpt>
      <trkpt lat="46.1688" lon="3.19009">
        <ele>290.72729492188</ele>
        <time>2015-11-08T09:50:46.000Z</time>
      </trkpt>
      <trkpt lat="46.16876" lon="3.1902">
        <ele>290.22982788086</ele>
        <time>2015-11-08T09:50:54.000Z</time>
      </trkpt>
      <trkpt lat="46.16875" lon="3.19023">
        <ele>289.77954101562</ele>
        <time>2015-11-08T09:50:55.000Z</time>
      </trkpt>
      <trkpt lat="46.16875" lon="3.19026">
        <ele>289.39324951172</ele>
        <time>2015-11-08T09:50:56.000Z</time>
      </trkpt>
      <trkpt lat="46.16874" lon="3.19028">
        <ele>289.04330444336</ele>
        <time>2015-11-08T09:50:57.000Z</time>
      </trkpt>
      <trkpt lat="46.16873" lon="3.19031">
        <ele>288.74234008789</ele>
        <time>2015-11-08T09:51:04.000Z</time>
      </trkpt>
      <trkpt lat="46.1687" lon="3.19037">
        <ele>288.50689697266</ele>
        <time>2015-11-08T09:51:09.000Z</time>
      </trkpt>
      <trkpt lat="46.16868" lon="3.1904">
        <ele>288.27032470703</ele>
        <time>2015-11-08T09:51:09.000Z</time>
      </trkpt>
      <trkpt lat="46.16865" lon="3.19045">
        <ele>288.00653076172</ele>
        <time>2015-11-08T09:51:14.000Z</time>
      </trkpt>
      <trkpt lat="46.16863" lon="3.1905">
        <ele>287.70812988281</ele>
        <time>2015-11-08T09:51:15.000Z</time>
      </trkpt>
      <trkpt lat="46.16862" lon="3.19055">
        <ele>287.39172363281</ele>
        <time>2015-11-08T09:51:21.000Z</time>
      </trkpt>
      <trkpt lat="46.16858" lon="3.19067">
        <ele>287.04626464844</ele>
        <time>2015-11-08T09:51:28.000Z</time>
      </trkpt>
      <trkpt lat="46.16856" lon="3.19072">
        <ele>286.69415283203</ele>
        <time>2015-11-08T09:51:28.000Z</time>
      </trkpt>
      <trkpt lat="46.16855" lon="3.19077">
        <ele>286.3642578125</ele>
        <time>2015-11-08T09:51:34.000Z</time>
      </trkpt>
      <trkpt lat="46.16851" lon="3.19085">
        <ele>286.02606201172</ele>
        <time>2015-11-08T09:51:38.000Z</time>
      </trkpt>
      <trkpt lat="46.16847" lon="3.19089">
        <ele>285.73345947266</ele>
        <time>2015-11-08T09:51:40.000Z</time>
      </trkpt>
      <trkpt lat="46.16836" lon="3.19092">
        <ele>285.52310180664</ele>
        <time>2015-11-08T09:51:49.000Z</time>
      </trkpt>
      <trkpt lat="46.16832" lon="3.19093">
        <ele>285.34439086914</ele>
        <time>2015-11-08T09:51:51.000Z</time>
      </trkpt>
      <trkpt lat="46.16829" lon="3.19095">
        <ele>285.1994934082</ele>
        <time>2015-11-08T09:51:51.000Z</time>
      </trkpt>
      <trkpt lat="46.16827" lon="3.19094">
        <ele>285.10385131836</ele>
        <time>2015-11-08T09:51:53.000Z</time>
      </trkpt>
      <trkpt lat="46.16824" lon="3.19093">
        <ele>284.99786376953</ele>
        <time>2015-11-08T09:51:59.000Z</time>
      </trkpt>
      <trkpt lat="46.16819" lon="3.19092">
        <ele>284.88958740234</ele>
        <time>2015-11-08T09:52:03.000Z</time>
      </trkpt>
      <trkpt lat="46.16812" lon="3.1909">
        <ele>284.75085449219</ele>
        <time>2015-11-08T09:52:09.000Z</time>
      </trkpt>
      <trkpt lat="46.16802" lon="3.19088">
        <ele>284.54351806641</ele>
        <time>2015-11-08T09:52:18.000Z</time>
      </trkpt>
      <trkpt lat="46.168" lon="3.19087">
        <ele>284.33404541016</ele>
        <time>2015-11-08T09:52:20.000Z</time>
      </trkpt>
      <trkpt lat="46.16796" lon="3.19086">
        <ele>284.11972045898</ele>
        <time>2015-11-08T09:52:21.000Z</time>
      </trkpt>
      <trkpt lat="46.16794" lon="3.19085">
        <ele>283.91909790039</ele>
        <time>2015-11-08T09:52:26.000Z</time>
      </trkpt>
      <trkpt lat="46.16792" lon="3.19084">
        <ele>283.74771118164</ele>
        <time>2015-11-08T09:52:27.000Z</time>
      </trkpt>
      <trkpt lat="46.16784" lon="3.19082">
        <ele>283.59661865234</ele>
        <time>2015-11-08T09:52:33.000Z</time>
      </trkpt>
      <trkpt lat="46.16769" lon="3.19079">
        <ele>283.36990356445</ele>
        <time>2015-11-08T09:52:45.000Z</time>
      </trkpt>
      <trkpt lat="46.16766" lon="3.19079">
        <ele>283.14776611328</ele>
        <time>2015-11-08T09:52:45.000Z</time>
      </trkpt>
      <trkpt lat="46.16761" lon="3.19078">
        <ele>282.91802978516</ele>
        <time>2015-11-08T09:52:50.000Z</time>
      </trkpt>
      <trkpt lat="46.16756" lon="3.19078">
        <ele>282.67315673828</ele>
        <time>2015-11-08T09:52:50.000Z</time>
      </trkpt>
      <trkpt lat="46.16752" lon="3.19077">
        <ele>282.46087646484</ele>
        <time>2015-11-08T09:52:52.000Z</time>
      </trkpt>
      <trkpt lat="46.16749" lon="3.19075">
        <ele>282.33029174805</ele>
        <time>2015-11-08T09:52:58.000Z</time>
      </trkpt>
      <trkpt lat="46.16746" lon="3.19076">
        <ele>282.23153686523</ele>
        <time>2015-11-08T09:52:58.000Z</time>
      </trkpt>
      <trkpt lat="46.1674" lon="3.19075">
        <ele>282.17623901367</ele>
        <time>2015-11-08T09:53:04.000Z</time>
      </trkpt>
      <trkpt lat="46.16732" lon="3.19074">
        <ele>282.17230224609</ele>
        <time>2015-11-08T09:53:10.000Z</time>
      </trkpt>
      <trkpt lat="46.16727" lon="3.19072">
        <ele>282.20809936523</ele>
        <time>2015-11-08T09:53:15.000Z</time>
      </trkpt>
      <trkpt lat="46.16719" lon="3.19072">
        <ele>282.26821899414</ele>
        <time>2015-11-08T09:53:22.000Z</time>
      </trkpt>
      <trkpt lat="46.16716" lon="3.19072">
        <ele>282.32943725586</ele>
        <time>2015-11-08T09:53:24.000Z</time>
      </trkpt>
      <trkpt lat="46.16713" lon="3.19071">
        <ele>282.38302612305</ele>
        <time>2015-11-08T09:53:24.000Z</time>
      </trkpt>
      <trkpt lat="46.16711" lon="3.1907">
        <ele>282.42340087891</ele>
        <time>2015-11-08T09:53:24.000Z</time>
      </trkpt>
      <trkpt lat="46.16708" lon="3.19069">
        <ele>282.45663452148</ele>
        <time>2015-11-08T09:53:26.000Z</time>
      </trkpt>
      <trkpt lat="46.16705" lon="3.19069">
        <ele>282.48092651367</ele>
        <time>2015-11-08T09:53:26.000Z</time>
      </trkpt>
      <trkpt lat="46.16702" lon="3.19069">
        <ele>282.50250244141</ele>
        <time>2015-11-08T09:53:33.000Z</time>
      </trkpt>
      <trkpt lat="46.16699" lon="3.19069">
        <ele>282.52532958984</ele>
        <time>2015-11-08T09:53:33.000Z</time>
      </trkpt>
      <trkpt lat="46.16696" lon="3.19068">
        <ele>282.54858398438</ele>
        <time>2015-11-08T09:53:38.000Z</time>
      </trkpt>
      <trkpt lat="46.16693" lon="3.19067">
        <ele>282.5703125</ele>
        <time>2015-11-08T09:53:38.000Z</time>
      </trkpt>
      <trkpt lat="46.1669" lon="3.19066">
        <ele>282.59115600586</ele>
        <time>2015-11-08T09:53:39.000Z</time>
      </trkpt>
      <trkpt lat="46.16688" lon="3.19066">
        <ele>282.61013793945</ele>
        <time>2015-11-08T09:53:45.000Z</time>
      </trkpt>
      <trkpt lat="46.16685" lon="3.19064">
        <ele>282.62637329102</ele>
        <time>2015-11-08T09:53:50.000Z</time>
      </trkpt>
      <trkpt lat="46.16682" lon="3.19064">
        <ele>282.64019775391</ele>
        <time>2015-11-08T09:53:52.000Z</time>
      </trkpt>
      <trkpt lat="46.16679" lon="3.19064">
        <ele>282.65536499023</ele>
        <time>2015-11-08T09:53:56.000Z</time>
      </trkpt>
      <trkpt lat="46.16676" lon="3.19063">
        <ele>282.67086791992</ele>
        <time>2015-11-08T09:53:57.000Z</time>
      </trkpt>
      <trkpt lat="46.16673" lon="3.19063">
        <ele>282.68667602539</ele>
        <time>2015-11-08T09:54:02.000Z</time>
      </trkpt>
      <trkpt lat="46.1667" lon="3.19062">
        <ele>282.70034790039</ele>
        <time>2015-11-08T09:54:02.000Z</time>
      </trkpt>
      <trkpt lat="46.16668" lon="3.19061">
        <ele>282.71279907227</ele>
        <time>2015-11-08T09:54:03.000Z</time>
      </trkpt>
      <trkpt lat="46.16666" lon="3.1906">
        <ele>282.71783447266</ele>
        <time>2015-11-08T09:54:08.000Z</time>
      </trkpt>
      <trkpt lat="46.16663" lon="3.1906">
        <ele>282.71270751953</ele>
        <time>2015-11-08T09:54:12.000Z</time>
      </trkpt>
      <trkpt lat="46.1666" lon="3.19059">
        <ele>282.69427490234</ele>
        <time>2015-11-08T09:54:13.000Z</time>
      </trkpt>
      <trkpt lat="46.16657" lon="3.19059">
        <ele>282.66784667969</ele>
        <time>2015-11-08T09:54:19.000Z</time>
      </trkpt>
      <trkpt lat="46.16653" lon="3.1906">
        <ele>282.63299560547</ele>
        <time>2015-11-08T09:54:26.000Z</time>
      </trkpt>
      <trkpt lat="46.1665" lon="3.19059">
        <ele>282.59020996094</ele>
        <time>2015-11-08T09:54:26.000Z</time>
      </trkpt>
      <trkpt lat="46.16648" lon="3.19056">
        <ele>282.5419921875</ele>
        <time>2015-11-08T09:54:32.000Z</time>
      </trkpt>
      <trkpt lat="46.16642" lon="3.19052">
        <ele>282.48272705078</ele>
        <time>2015-11-08T09:54:39.000Z</time>
      </trkpt>
      <trkpt lat="46.16638" lon="3.19049">
        <ele>282.41143798828</ele>
        <time>2015-11-08T09:54:44.000Z</time>
      </trkpt>
      <trkpt lat="46.16636" lon="3.19047">
        <ele>282.33959960938</ele>
        <time>2015-11-08T09:54:46.000Z</time>
      </trkpt>
      <trkpt lat="46.16633" lon="3.19047">
        <ele>282.2724609375</ele>
        <time>2015-11-08T09:54:46.000Z</time>
      </trkpt>
      <trkpt lat="46.1663" lon="3.19046">
        <ele>282.20806884766</ele>
        <time>2015-11-08T09:54:51.000Z</time>
      </trkpt>
      <trkpt lat="46.16627" lon="3.19046">
        <ele>282.15740966797</ele>
        <time>2015-11-08T09:54:52.000Z</time>
      </trkpt>
      <trkpt lat="46.16625" lon="3.19046">
        <ele>282.12167358398</ele>
        <time>2015-11-08T09:54:56.000Z</time>
      </trkpt>
      <trkpt lat="46.16623" lon="3.19046">
        <ele>282.08752441406</ele>
        <time>2015-11-08T09:54:58.000Z</time>
      </trkpt>
      <trkpt lat="46.16617" lon="3.19048">
        <ele>282.04956054688</ele>
        <time>2015-11-08T09:55:05.000Z</time>
      </trkpt>
      <trkpt lat="46.16615" lon="3.19048">
        <ele>282.017578125</ele>
        <time>2015-11-08T09:55:05.000Z</time>
      </trkpt>
      <trkpt lat="46.16612" lon="3.19049">
        <ele>281.98748779297</ele>
        <time>2015-11-08T09:55:05.000Z</time>
      </trkpt>
      <trkpt lat="46.16611" lon="3.19048">
        <ele>281.95593261719</ele>
        <time>2015-11-08T09:55:10.000Z</time>
      </trkpt>
      <trkpt lat="46.16606" lon="3.19044">
        <ele>281.91143798828</ele>
        <time>2015-11-08T09:55:18.000Z</time>
      </trkpt>
      <trkpt lat="46.16602" lon="3.19039">
        <ele>281.85565185547</ele>
        <time>2015-11-08T09:55:20.000Z</time>
      </trkpt>
      <trkpt lat="46.16601" lon="3.19038">
        <ele>281.79797363281</ele>
        <time>2015-11-08T09:55:22.000Z</time>
      </trkpt>
      <trkpt lat="46.16599" lon="3.19036">
        <ele>281.73648071289</ele>
        <time>2015-11-08T09:55:22.000Z</time>
      </trkpt>
      <trkpt lat="46.16594" lon="3.19033">
        <ele>281.66125488281</ele>
        <time>2015-11-08T09:55:22.000Z</time>
      </trkpt>
      <trkpt lat="46.16592" lon="3.1903">
        <ele>281.59429931641</ele>
        <time>2015-11-08T09:55:28.000Z</time>
      </trkpt>
      <trkpt lat="46.1659" lon="3.19028">
        <ele>281.53948974609</ele>
        <time>2015-11-08T09:55:28.000Z</time>
      </trkpt>
      <trkpt lat="46.16588" lon="3.19024">
        <ele>281.47412109375</ele>
        <time>2015-11-08T09:55:32.000Z</time>
      </trkpt>
      <trkpt lat="46.16586" lon="3.19022">
        <ele>281.41000366211</ele>
        <time>2015-11-08T09:55:34.000Z</time>
      </trkpt>
      <trkpt lat="46.16584" lon="3.1902">
        <ele>281.35388183594</ele>
        <time>2015-11-08T09:55:34.000Z</time>
      </trkpt>
      <trkpt lat="46.16582" lon="3.19018">
        <ele>281.2958984375</ele>
        <time>2015-11-08T09:55:34.000Z</time>
      </trkpt>
      <trkpt lat="46.16579" lon="3.19013">
        <ele>281.22549438477</ele>
        <time>2015-11-08T09:55:40.000Z</time>
      </trkpt>
      <trkpt lat="46.16578" lon="3.19011">
        <ele>281.16253662109</ele>
        <time>2015-11-08T09:55:45.000Z</time>
      </trkpt>
      <trkpt lat="46.16577" lon="3.19008">
        <ele>281.09170532227</ele>
        <time>2015-11-08T09:55:51.000Z</time>
      </trkpt>
      <trkpt lat="46.16576" lon="3.19005">
        <ele>281.02313232422</ele>
        <time>2015-11-08T09:55:57.000Z</time>
      </trkpt>
      <trkpt lat="46.16576" lon="3.19">
        <ele>280.95300292969</ele>
        <time>2015-11-08T09:56:01.000Z</time>
      </trkpt>
      <trkpt lat="46.16574" lon="3.18995">
        <ele>280.89688110352</ele>
        <time>2015-11-08T09:56:02.000Z</time>
      </trkpt>
      <trkpt lat="46.16573" lon="3.18994">
        <ele>280.84616088867</ele>
        <time>2015-11-08T09:56:06.000Z</time>
      </trkpt>
      <trkpt lat="46.16572" lon="3.18993">
        <ele>280.80435180664</ele>
        <time>2015-11-08T09:56:08.000Z</time>
      </trkpt>
      <trkpt lat="46.16571" lon="3.18991">
        <ele>280.76861572266</ele>
        <time>2015-11-08T09:56:08.000Z</time>
      </trkpt>
      <trkpt lat="46.1657" lon="3.1899">
        <ele>280.74319458008</ele>
        <time>2015-11-08T09:56:16.000Z</time>
      </trkpt>
      <trkpt lat="46.16569" lon="3.18988">
        <ele>280.72161865234</ele>
        <time>2015-11-08T09:56:16.000Z</time>
      </trkpt>
      <trkpt lat="46.16568" lon="3.18987">
        <ele>280.7001953125</ele>
        <time>2015-11-08T09:56:21.000Z</time>
      </trkpt>
      <trkpt lat="46.16566" lon="3.18985">
        <ele>280.67974853516</ele>
        <time>2015-11-08T09:56:22.000Z</time>
      </trkpt>
      <trkpt lat="46.16562" lon="3.18979">
        <ele>280.64639282227</ele>
        <time>2015-11-08T09:56:27.000Z</time>
      </trkpt>
      <trkpt lat="46.16558" lon="3.18975">
        <ele>280.60531616211</ele>
        <time>2015-11-08T09:56:28.000Z</time>
      </trkpt>
      <trkpt lat="46.16557" lon="3.18974">
        <ele>280.56005859375</ele>
        <time>2015-11-08T09:56:33.000Z</time>
      </trkpt>
      <trkpt lat="46.16555" lon="3.18972">
        <ele>280.51483154297</ele>
        <time>2015-11-08T09:56:33.000Z</time>
      </trkpt>
      <trkpt lat="46.16555" lon="3.1897">
        <ele>280.47583007812</ele>
        <time>2015-11-08T09:56:35.000Z</time>
      </trkpt>
      <trkpt lat="46.16553" lon="3.18966">
        <ele>280.45077514648</ele>
        <time>2015-11-08T09:56:42.000Z</time>
      </trkpt>
      <trkpt lat="46.16552" lon="3.18964">
        <ele>280.43594360352</ele>
        <time>2015-11-08T09:56:47.000Z</time>
      </trkpt>
      <trkpt lat="46.16551" lon="3.18961">
        <ele>280.42599487305</ele>
        <time>2015-11-08T09:56:53.000Z</time>
      </trkpt>
      <trkpt lat="46.1655" lon="3.18959">
        <ele>280.41680908203</ele>
        <time>2015-11-08T09:56:58.000Z</time>
      </trkpt>
      <trkpt lat="46.16548" lon="3.18956">
        <ele>280.40509033203</ele>
        <time>2015-11-08T09:57:00.000Z</time>
      </trkpt>
      <trkpt lat="46.16546" lon="3.18953">
        <ele>280.39141845703</ele>
        <time>2015-11-08T09:57:00.000Z</time>
      </trkpt>
      <trkpt lat="46.16545" lon="3.1895">
        <ele>280.37799072266</ele>
        <time>2015-11-08T09:57:06.000Z</time>
      </trkpt>
      <trkpt lat="46.16543" lon="3.18947">
        <ele>280.36587524414</ele>
        <time>2015-11-08T09:57:11.000Z</time>
      </trkpt>
      <trkpt lat="46.16544" lon="3.18949">
        <ele>280.35723876953</ele>
        <time>2015-11-08T09:57:17.000Z</time>
      </trkpt>
      <trkpt lat="46.16545" lon="3.18948">
        <ele>280.35556030273</ele>
        <time>2015-11-08T09:57:22.000Z</time>
      </trkpt>
      <trkpt lat="46.16547" lon="3.18949">
        <ele>280.36068725586</ele>
        <time>2015-11-08T09:57:30.000Z</time>
      </trkpt>
      <trkpt lat="46.16545" lon="3.18948">
        <ele>280.36535644531</ele>
        <time>2015-11-08T09:57:40.000Z</time>
      </trkpt>
      <trkpt lat="46.16543" lon="3.18945">
        <ele>280.36740112305</ele>
        <time>2015-11-08T09:57:41.000Z</time>
      </trkpt>
      <trkpt lat="46.16541" lon="3.18941">
        <ele>280.36553955078</ele>
        <time>2015-11-08T09:57:42.000Z</time>
      </trkpt>
      <trkpt lat="46.1654" lon="3.18939">
        <ele>280.35882568359</ele>
        <time>2015-11-08T09:57:47.000Z</time>
      </trkpt>
      <trkpt lat="46.16537" lon="3.18935">
        <ele>280.34725952148</ele>
        <time>2015-11-08T09:57:48.000Z</time>
      </trkpt>
      <trkpt lat="46.16536" lon="3.18933">
        <ele>280.33749389648</ele>
        <time>2015-11-08T09:57:52.000Z</time>
      </trkpt>
      <trkpt lat="46.16535" lon="3.1893">
        <ele>280.33172607422</ele>
        <time>2015-11-08T09:57:53.000Z</time>
      </trkpt>
      <trkpt lat="46.16534" lon="3.18926">
        <ele>280.33291625977</ele>
        <time>2015-11-08T09:57:54.000Z</time>
      </trkpt>
      <trkpt lat="46.16534" lon="3.18926">
        <ele>280.33291625977</ele>
        <time>2015-11-08T09:58:26.000Z</time>
      </trkpt>
      <trkpt lat="46.16534" lon="3.18925">
        <ele>280.33489990234</ele>
        <time>2015-11-08T09:58:52.000Z</time>
      </trkpt>
      <trkpt lat="46.16533" lon="3.18923">
        <ele>280.33843994141</ele>
        <time>2015-11-08T09:58:57.000Z</time>
      </trkpt>
      <trkpt lat="46.16531" lon="3.18919">
        <ele>280.34417724609</ele>
        <time>2015-11-08T09:59:08.000Z</time>
      </trkpt>
      <trkpt lat="46.16529" lon="3.18917">
        <ele>280.35003662109</ele>
        <time>2015-11-08T09:59:08.000Z</time>
      </trkpt>
      <trkpt lat="46.16528" lon="3.18911">
        <ele>280.35510253906</ele>
        <time>2015-11-08T09:59:10.000Z</time>
      </trkpt>
      <trkpt lat="46.16527" lon="3.18907">
        <ele>280.36541748047</ele>
        <time>2015-11-08T09:59:10.000Z</time>
      </trkpt>
      <trkpt lat="46.16527" lon="3.18905">
        <ele>280.37994384766</ele>
        <time>2015-11-08T09:59:10.000Z</time>
      </trkpt>
      <trkpt lat="46.16527" lon="3.189">
        <ele>280.40032958984</ele>
        <time>2015-11-08T09:59:12.000Z</time>
      </trkpt>
      <trkpt lat="46.16526" lon="3.18896">
        <ele>280.42608642578</ele>
        <time>2015-11-08T09:59:12.000Z</time>
      </trkpt>
      <trkpt lat="46.16525" lon="3.18891">
        <ele>280.45419311523</ele>
        <time>2015-11-08T09:59:17.000Z</time>
      </trkpt>
      <trkpt lat="46.16525" lon="3.18888">
        <ele>280.48184204102</ele>
        <time>2015-11-08T09:59:22.000Z</time>
      </trkpt>
      <trkpt lat="46.16524" lon="3.18886">
        <ele>280.50872802734</ele>
        <time>2015-11-08T09:59:22.000Z</time>
      </trkpt>
      <trkpt lat="46.16523" lon="3.18882">
        <ele>280.53326416016</ele>
        <time>2015-11-08T09:59:22.000Z</time>
      </trkpt>
      <trkpt lat="46.16523" lon="3.1888">
        <ele>280.5549621582</ele>
        <time>2015-11-08T09:59:28.000Z</time>
      </trkpt>
      <trkpt lat="46.16523" lon="3.18876">
        <ele>280.57778930664</ele>
        <time>2015-11-08T09:59:28.000Z</time>
      </trkpt>
      <trkpt lat="46.16521" lon="3.18872">
        <ele>280.60177612305</ele>
        <time>2015-11-08T09:59:33.000Z</time>
      </trkpt>
      <trkpt lat="46.16521" lon="3.18868">
        <ele>280.62774658203</ele>
        <time>2015-11-08T09:59:34.000Z</time>
      </trkpt>
      <trkpt lat="46.16519" lon="3.18864">
        <ele>280.65533447266</ele>
        <time>2015-11-08T09:59:39.000Z</time>
      </trkpt>
      <trkpt lat="46.16516" lon="3.1886">
        <ele>280.68493652344</ele>
        <time>2015-11-08T09:59:39.000Z</time>
      </trkpt>
      <trkpt lat="46.16515" lon="3.18859">
        <ele>280.70858764648</ele>
        <time>2015-11-08T09:59:43.000Z</time>
      </trkpt>
      <trkpt lat="46.1651" lon="3.18856">
        <ele>280.72915649414</ele>
        <time>2015-11-08T09:59:45.000Z</time>
      </trkpt>
      <trkpt lat="46.16508" lon="3.18855">
        <ele>280.74505615234</ele>
        <time>2015-11-08T09:59:51.000Z</time>
      </trkpt>
      <trkpt lat="46.16508" lon="3.18853">
        <ele>280.75936889648</ele>
        <time>2015-11-08T09:59:51.000Z</time>
      </trkpt>
      <trkpt lat="46.16509" lon="3.18851">
        <ele>280.77294921875</ele>
        <time>2015-11-08T09:59:57.000Z</time>
      </trkpt>
      <trkpt lat="46.16508" lon="3.18844">
        <ele>280.80120849609</ele>
        <time>2015-11-08T10:00:02.000Z</time>
      </trkpt>
      <trkpt lat="46.16506" lon="3.18836">
        <ele>280.84341430664</ele>
        <time>2015-11-08T10:00:07.000Z</time>
      </trkpt>
      <trkpt lat="46.16505" lon="3.18833">
        <ele>280.89080810547</ele>
        <time>2015-11-08T10:00:08.000Z</time>
      </trkpt>
      <trkpt lat="46.16504" lon="3.18831">
        <ele>280.93307495117</ele>
        <time>2015-11-08T10:00:09.000Z</time>
      </trkpt>
      <trkpt lat="46.16504" lon="3.18827">
        <ele>280.97076416016</ele>
        <time>2015-11-08T10:00:09.000Z</time>
      </trkpt>
      <trkpt lat="46.16503" lon="3.18822">
        <ele>280.99249267578</ele>
        <time>2015-11-08T10:00:16.000Z</time>
      </trkpt>
      <trkpt lat="46.16502" lon="3.18818">
        <ele>280.99688720703</ele>
        <time>2015-11-08T10:00:18.000Z</time>
      </trkpt>
      <trkpt lat="46.16502" lon="3.18816">
        <ele>280.99612426758</ele>
        <time>2015-11-08T10:00:18.000Z</time>
      </trkpt>
      <trkpt lat="46.16501" lon="3.18812">
        <ele>280.99578857422</ele>
        <time>2015-11-08T10:00:20.000Z</time>
      </trkpt>
      <trkpt lat="46.165" lon="3.18809">
        <ele>280.99600219727</ele>
        <time>2015-11-08T10:00:20.000Z</time>
      </trkpt>
      <trkpt lat="46.165" lon="3.18805">
        <ele>280.99786376953</ele>
        <time>2015-11-08T10:00:27.000Z</time>
      </trkpt>
      <trkpt lat="46.16499" lon="3.18802">
        <ele>281.00469970703</ele>
        <time>2015-11-08T10:00:27.000Z</time>
      </trkpt>
      <trkpt lat="46.16497" lon="3.18799">
        <ele>281.02215576172</ele>
        <time>2015-11-08T10:00:33.000Z</time>
      </trkpt>
      <trkpt lat="46.16496" lon="3.18795">
        <ele>281.05416870117</ele>
        <time>2015-11-08T10:00:33.000Z</time>
      </trkpt>
      <trkpt lat="46.16493" lon="3.1879">
        <ele>281.10369873047</ele>
        <time>2015-11-08T10:00:38.000Z</time>
      </trkpt>
      <trkpt lat="46.16492" lon="3.18786">
        <ele>281.16821289062</ele>
        <time>2015-11-08T10:00:43.000Z</time>
      </trkpt>
      <trkpt lat="46.1649" lon="3.18779">
        <ele>281.24829101562</ele>
        <time>2015-11-08T10:00:45.000Z</time>
      </trkpt>
      <trkpt lat="46.16489" lon="3.18775">
        <ele>281.32928466797</ele>
        <time>2015-11-08T10:00:46.000Z</time>
      </trkpt>
      <trkpt lat="46.16489" lon="3.18772">
        <ele>281.39996337891</ele>
        <time>2015-11-08T10:00:53.000Z</time>
      </trkpt>
      <trkpt lat="46.16489" lon="3.18767">
        <ele>281.4665222168</ele>
        <time>2015-11-08T10:00:59.000Z</time>
      </trkpt>
      <trkpt lat="46.16489" lon="3.18762">
        <ele>281.52420043945</ele>
        <time>2015-11-08T10:01:14.000Z</time>
      </trkpt>
      <trkpt lat="46.16488" lon="3.18754">
        <ele>281.57592773438</ele>
        <time>2015-11-08T10:01:20.000Z</time>
      </trkpt>
      <trkpt lat="46.16487" lon="3.18749">
        <ele>281.63418579102</ele>
        <time>2015-11-08T10:01:25.000Z</time>
      </trkpt>
      <trkpt lat="46.16487" lon="3.18744">
        <ele>281.70266723633</ele>
        <time>2015-11-08T10:01:30.000Z</time>
      </trkpt>
      <trkpt lat="46.16487" lon="3.18739">
        <ele>281.7666015625</ele>
        <time>2015-11-08T10:01:35.000Z</time>
      </trkpt>
      <trkpt lat="46.16487" lon="3.18737">
        <ele>281.82412719727</ele>
        <time>2015-11-08T10:01:37.000Z</time>
      </trkpt>
      <trkpt lat="46.16486" lon="3.18731">
        <ele>281.89239501953</ele>
        <time>2015-11-08T10:01:41.000Z</time>
      </trkpt>
      <trkpt lat="46.16486" lon="3.18729">
        <ele>281.95141601562</ele>
        <time>2015-11-08T10:01:43.000Z</time>
      </trkpt>
      <trkpt lat="46.16485" lon="3.18725">
        <ele>282.01171875</ele>
        <time>2015-11-08T10:01:43.000Z</time>
      </trkpt>
      <trkpt lat="46.16485" lon="3.18723">
        <ele>282.06396484375</ele>
        <time>2015-11-08T10:01:50.000Z</time>
      </trkpt>
      <trkpt lat="46.16486" lon="3.1872">
        <ele>282.11077880859</ele>
        <time>2015-11-08T10:01:50.000Z</time>
      </trkpt>
      <trkpt lat="46.16487" lon="3.18715">
        <ele>282.13354492188</ele>
        <time>2015-11-08T10:01:56.000Z</time>
      </trkpt>
      <trkpt lat="46.16487" lon="3.18708">
        <ele>282.16229248047</ele>
        <time>2015-11-08T10:02:00.000Z</time>
      </trkpt>
      <trkpt lat="46.16486" lon="3.18704">
        <ele>282.18658447266</ele>
        <time>2015-11-08T10:02:05.000Z</time>
      </trkpt>
      <trkpt lat="46.16486" lon="3.18701">
        <ele>282.21636962891</ele>
        <time>2015-11-08T10:02:05.000Z</time>
      </trkpt>
      <trkpt lat="46.16486" lon="3.18694">
        <ele>282.26538085938</ele>
        <time>2015-11-08T10:02:11.000Z</time>
      </trkpt>
      <trkpt lat="46.16486" lon="3.18688">
        <ele>282.32861328125</ele>
        <time>2015-11-08T10:02:11.000Z</time>
      </trkpt>
      <trkpt lat="46.16486" lon="3.18682">
        <ele>282.38412475586</ele>
        <time>2015-11-08T10:02:16.000Z</time>
      </trkpt>
      <trkpt lat="46.16486" lon="3.18677">
        <ele>282.44338989258</ele>
        <time>2015-11-08T10:02:18.000Z</time>
      </trkpt>
      <trkpt lat="46.16486" lon="3.18667">
        <ele>282.5188293457</ele>
        <time>2015-11-08T10:02:24.000Z</time>
      </trkpt>
      <trkpt lat="46.16485" lon="3.18661">
        <ele>282.59448242188</ele>
        <time>2015-11-08T10:02:30.000Z</time>
      </trkpt>
      <trkpt lat="46.16484" lon="3.18651">
        <ele>282.67535400391</ele>
        <time>2015-11-08T10:02:34.000Z</time>
      </trkpt>
      <trkpt lat="46.16484" lon="3.18646">
        <ele>282.75091552734</ele>
        <time>2015-11-08T10:02:36.000Z</time>
      </trkpt>
      <trkpt lat="46.16484" lon="3.18643">
        <ele>282.81106567383</ele>
        <time>2015-11-08T10:02:36.000Z</time>
      </trkpt>
      <trkpt lat="46.16485" lon="3.18639">
        <ele>282.84759521484</ele>
        <time>2015-11-08T10:02:42.000Z</time>
      </trkpt>
      <trkpt lat="46.16485" lon="3.18633">
        <ele>282.87857055664</ele>
        <time>2015-11-08T10:02:47.000Z</time>
      </trkpt>
      <trkpt lat="46.16485" lon="3.1863">
        <ele>282.88873291016</ele>
        <time>2015-11-08T10:02:47.000Z</time>
      </trkpt>
      <trkpt lat="46.16485" lon="3.18627">
        <ele>282.90069580078</ele>
        <time>2015-11-08T10:02:53.000Z</time>
      </trkpt>
      <trkpt lat="46.16486" lon="3.18624">
        <ele>282.91189575195</ele>
        <time>2015-11-08T10:02:58.000Z</time>
      </trkpt>
      <trkpt lat="46.16488" lon="3.18621">
        <ele>282.91796875</ele>
        <time>2015-11-08T10:03:07.000Z</time>
      </trkpt>
      <trkpt lat="46.16488" lon="3.18619">
        <ele>282.91445922852</ele>
        <time>2015-11-08T10:03:14.000Z</time>
      </trkpt>
      <trkpt lat="46.1649" lon="3.18617">
        <ele>282.90487670898</ele>
        <time>2015-11-08T10:03:19.000Z</time>
      </trkpt>
      <trkpt lat="46.16491" lon="3.18616">
        <ele>282.88958740234</ele>
        <time>2015-11-08T10:03:25.000Z</time>
      </trkpt>
      <trkpt lat="46.16492" lon="3.18613">
        <ele>282.87347412109</ele>
        <time>2015-11-08T10:03:33.000Z</time>
      </trkpt>
      <trkpt lat="46.16493" lon="3.18607">
        <ele>282.86657714844</ele>
        <time>2015-11-08T10:03:34.000Z</time>
      </trkpt>
      <trkpt lat="46.16494" lon="3.18603">
        <ele>282.86404418945</ele>
        <time>2015-11-08T10:03:35.000Z</time>
      </trkpt>
      <trkpt lat="46.16495" lon="3.18599">
        <ele>282.87252807617</ele>
        <time>2015-11-08T10:03:41.000Z</time>
      </trkpt>
      <trkpt lat="46.16496" lon="3.18593">
        <ele>282.89129638672</ele>
        <time>2015-11-08T10:03:46.000Z</time>
      </trkpt>
      <trkpt lat="46.16497" lon="3.18583">
        <ele>282.92977905273</ele>
        <time>2015-11-08T10:03:48.000Z</time>
      </trkpt>
      <trkpt lat="46.16497" lon="3.18576">
        <ele>282.96380615234</ele>
        <time>2015-11-08T10:03:48.000Z</time>
      </trkpt>
      <trkpt lat="46.16497" lon="3.18569">
        <ele>282.99234008789</ele>
        <time>2015-11-08T10:03:49.000Z</time>
      </trkpt>
      <trkpt lat="46.16496" lon="3.18566">
        <ele>283.01574707031</ele>
        <time>2015-11-08T10:03:54.000Z</time>
      </trkpt>
      <trkpt lat="46.16496" lon="3.18559">
        <ele>283.02938842773</ele>
        <time>2015-11-08T10:03:54.000Z</time>
      </trkpt>
      <trkpt lat="46.16497" lon="3.18553">
        <ele>283.02328491211</ele>
        <time>2015-11-08T10:03:59.000Z</time>
      </trkpt>
      <trkpt lat="46.16498" lon="3.18548">
        <ele>283.01712036133</ele>
        <time>2015-11-08T10:03:59.000Z</time>
      </trkpt>
      <trkpt lat="46.16499" lon="3.18545">
        <ele>283.01190185547</ele>
        <time>2015-11-08T10:04:05.000Z</time>
      </trkpt>
      <trkpt lat="46.16498" lon="3.18541">
        <ele>283.00653076172</ele>
        <time>2015-11-08T10:04:11.000Z</time>
      </trkpt>
      <trkpt lat="46.16499" lon="3.18538">
        <ele>283.00259399414</ele>
        <time>2015-11-08T10:04:15.000Z</time>
      </trkpt>
      <trkpt lat="46.16499" lon="3.18534">
        <ele>283.00018310547</ele>
        <time>2015-11-08T10:04:17.000Z</time>
      </trkpt>
      <trkpt lat="46.16501" lon="3.1853">
        <ele>283.00375366211</ele>
        <time>2015-11-08T10:04:22.000Z</time>
      </trkpt>
      <trkpt lat="46.16502" lon="3.18527">
        <ele>283.01544189453</ele>
        <time>2015-11-08T10:04:28.000Z</time>
      </trkpt>
      <trkpt lat="46.16502" lon="3.18524">
        <ele>283.02947998047</ele>
        <time>2015-11-08T10:04:33.000Z</time>
      </trkpt>
      <trkpt lat="46.16504" lon="3.1852">
        <ele>283.05316162109</ele>
        <time>2015-11-08T10:04:39.000Z</time>
      </trkpt>
      <trkpt lat="46.16504" lon="3.18519">
        <ele>283.07659912109</ele>
        <time>2015-11-08T10:04:40.000Z</time>
      </trkpt>
      <trkpt lat="46.16504" lon="3.18517">
        <ele>283.09497070312</ele>
        <time>2015-11-08T10:04:46.000Z</time>
      </trkpt>
      <trkpt lat="46.16505" lon="3.18514">
        <ele>283.11407470703</ele>
        <time>2015-11-08T10:04:51.000Z</time>
      </trkpt>
      <trkpt lat="46.16505" lon="3.18514">
        <ele>283.11407470703</ele>
        <time>2015-11-08T10:05:25.000Z</time>
      </trkpt>
      <trkpt lat="46.16525" lon="3.18403">
        <ele>283.60192871094</ele>
        <time>2015-11-08T10:05:59.000Z</time>
      </trkpt>
      <trkpt lat="46.16524" lon="3.18381">
        <ele>284.14859008789</ele>
        <time>2015-11-08T10:06:08.000Z</time>
      </trkpt>
      <trkpt lat="46.16524" lon="3.18368">
        <ele>284.73345947266</ele>
        <time>2015-11-08T10:06:13.000Z</time>
      </trkpt>
      <trkpt lat="46.16525" lon="3.18361">
        <ele>285.34228515625</ele>
        <time>2015-11-08T10:06:15.000Z</time>
      </trkpt>
      <trkpt lat="46.16524" lon="3.18353">
        <ele>285.96783447266</ele>
        <time>2015-11-08T10:06:21.000Z</time>
      </trkpt>
      <trkpt lat="46.16524" lon="3.18346">
        <ele>286.14288330078</ele>
        <time>2015-11-08T10:06:26.000Z</time>
      </trkpt>
      <trkpt lat="46.16524" lon="3.18344">
        <ele>286.25531005859</ele>
        <time>2015-11-08T10:06:26.000Z</time>
      </trkpt>
      <trkpt lat="46.16524" lon="3.18342">
        <ele>286.33773803711</ele>
        <time>2015-11-08T10:06:26.000Z</time>
      </trkpt>
      <trkpt lat="46.16524" lon="3.1834">
        <ele>286.40151977539</ele>
        <time>2015-11-08T10:06:32.000Z</time>
      </trkpt>
      <trkpt lat="46.16524" lon="3.18338">
        <ele>286.44683837891</ele>
        <time>2015-11-08T10:06:37.000Z</time>
      </trkpt>
      <trkpt lat="46.16526" lon="3.18334">
        <ele>286.49267578125</ele>
        <time>2015-11-08T10:06:40.000Z</time>
      </trkpt>
      <trkpt lat="46.16527" lon="3.18331">
        <ele>286.55364990234</ele>
        <time>2015-11-08T10:06:44.000Z</time>
      </trkpt>
      <trkpt lat="46.16529" lon="3.18328">
        <ele>286.64221191406</ele>
        <time>2015-11-08T10:06:46.000Z</time>
      </trkpt>
      <trkpt lat="46.1653" lon="3.18319">
        <ele>286.8046875</ele>
        <time>2015-11-08T10:06:52.000Z</time>
      </trkpt>
      <trkpt lat="46.16528" lon="3.18302">
        <ele>287.06631469727</ele>
        <time>2015-11-08T10:06:59.000Z</time>
      </trkpt>
      <trkpt lat="46.16526" lon="3.18295">
        <ele>287.33486938477</ele>
        <time>2015-11-08T10:07:01.000Z</time>
      </trkpt>
      <trkpt lat="46.16525" lon="3.1829">
        <ele>287.60382080078</ele>
        <time>2015-11-08T10:07:01.000Z</time>
      </trkpt>
      <trkpt lat="46.16524" lon="3.18286">
        <ele>287.85610961914</ele>
        <time>2015-11-08T10:07:03.000Z</time>
      </trkpt>
      <trkpt lat="46.16523" lon="3.18282">
        <ele>288.03912353516</ele>
        <time>2015-11-08T10:07:03.000Z</time>
      </trkpt>
      <trkpt lat="46.16523" lon="3.18277">
        <ele>288.14279174805</ele>
        <time>2015-11-08T10:07:08.000Z</time>
      </trkpt>
      <trkpt lat="46.16523" lon="3.18273">
        <ele>288.23983764648</ele>
        <time>2015-11-08T10:07:08.000Z</time>
      </trkpt>
      <trkpt lat="46.16523" lon="3.18269">
        <ele>288.35369873047</ele>
        <time>2015-11-08T10:07:10.000Z</time>
      </trkpt>
      <trkpt lat="46.16523" lon="3.18263">
        <ele>288.47940063477</ele>
        <time>2015-11-08T10:07:10.000Z</time>
      </trkpt>
      <trkpt lat="46.16523" lon="3.1826">
        <ele>288.61795043945</ele>
        <time>2015-11-08T10:07:16.000Z</time>
      </trkpt>
      <trkpt lat="46.16523" lon="3.18255">
        <ele>288.76568603516</ele>
        <time>2015-11-08T10:07:22.000Z</time>
      </trkpt>
      <trkpt lat="46.16523" lon="3.18249">
        <ele>288.93304443359</ele>
        <time>2015-11-08T10:07:22.000Z</time>
      </trkpt>
      <trkpt lat="46.16524" lon="3.18245">
        <ele>289.11312866211</ele>
        <time>2015-11-08T10:07:28.000Z</time>
      </trkpt>
      <trkpt lat="46.16524" lon="3.18241">
        <ele>289.31597900391</ele>
        <time>2015-11-08T10:07:28.000Z</time>
      </trkpt>
      <trkpt lat="46.16525" lon="3.18237">
        <ele>289.54132080078</ele>
        <time>2015-11-08T10:07:34.000Z</time>
      </trkpt>
      <trkpt lat="46.16525" lon="3.18232">
        <ele>289.78649902344</ele>
        <time>2015-11-08T10:07:35.000Z</time>
      </trkpt>
      <trkpt lat="46.16524" lon="3.18228">
        <ele>290.02044677734</ele>
        <time>2015-11-08T10:07:40.000Z</time>
      </trkpt>
      <trkpt lat="46.16525" lon="3.18224">
        <ele>290.26483154297</ele>
        <time>2015-11-08T10:07:40.000Z</time>
      </trkpt>
      <trkpt lat="46.16525" lon="3.1822">
        <ele>290.50833129883</ele>
        <time>2015-11-08T10:07:46.000Z</time>
      </trkpt>
      <trkpt lat="46.16526" lon="3.18214">
        <ele>290.77182006836</ele>
        <time>2015-11-08T10:07:46.000Z</time>
      </trkpt>
      <trkpt lat="46.16525" lon="3.1821">
        <ele>291.02069091797</ele>
        <time>2015-11-08T10:07:51.000Z</time>
      </trkpt>
      <trkpt lat="46.16526" lon="3.18206">
        <ele>291.28598022461</ele>
        <time>2015-11-08T10:07:53.000Z</time>
      </trkpt>
      <trkpt lat="46.16526" lon="3.18202">
        <ele>291.56015014648</ele>
        <time>2015-11-08T10:07:53.000Z</time>
      </trkpt>
      <trkpt lat="46.16526" lon="3.18198">
        <ele>291.80361938477</ele>
        <time>2015-11-08T10:07:58.000Z</time>
      </trkpt>
      <trkpt lat="46.16523" lon="3.18189">
        <ele>292.00653076172</ele>
        <time>2015-11-08T10:07:59.000Z</time>
      </trkpt>
      <trkpt lat="46.16523" lon="3.18182">
        <ele>292.21649169922</ele>
        <time>2015-11-08T10:08:00.000Z</time>
      </trkpt>
      <trkpt lat="46.16523" lon="3.18179">
        <ele>292.40585327148</ele>
        <time>2015-11-08T10:08:07.000Z</time>
      </trkpt>
      <trkpt lat="46.16523" lon="3.18175">
        <ele>292.5696105957</ele>
        <time>2015-11-08T10:08:12.000Z</time>
      </trkpt>
      <trkpt lat="46.16522" lon="3.18172">
        <ele>292.72769165039</ele>
        <time>2015-11-08T10:08:14.000Z</time>
      </trkpt>
      <trkpt lat="46.16521" lon="3.18164">
        <ele>292.88784790039</ele>
        <time>2015-11-08T10:08:14.000Z</time>
      </trkpt>
      <trkpt lat="46.16521" lon="3.18158">
        <ele>293.04272460938</ele>
        <time>2015-11-08T10:08:20.000Z</time>
      </trkpt>
      <trkpt lat="46.16521" lon="3.18154">
        <ele>293.23016357422</ele>
        <time>2015-11-08T10:08:20.000Z</time>
      </trkpt>
      <trkpt lat="46.16523" lon="3.18148">
        <ele>293.50314331055</ele>
        <time>2015-11-08T10:08:26.000Z</time>
      </trkpt>
      <trkpt lat="46.16523" lon="3.18143">
        <ele>293.859375</ele>
        <time>2015-11-08T10:08:26.000Z</time>
      </trkpt>
      <trkpt lat="46.16523" lon="3.18138">
        <ele>294.22033691406</ele>
        <time>2015-11-08T10:08:32.000Z</time>
      </trkpt>
      <trkpt lat="46.16522" lon="3.1812">
        <ele>294.67291259766</ele>
        <time>2015-11-08T10:08:42.000Z</time>
      </trkpt>
      <trkpt lat="46.16522" lon="3.18116">
        <ele>295.11163330078</ele>
        <time>2015-11-08T10:08:42.000Z</time>
      </trkpt>
      <trkpt lat="46.16521" lon="3.18109">
        <ele>295.41098022461</ele>
        <time>2015-11-08T10:08:44.000Z</time>
      </trkpt>
      <trkpt lat="46.16521" lon="3.18104">
        <ele>295.66403198242</ele>
        <time>2015-11-08T10:08:44.000Z</time>
      </trkpt>
      <trkpt lat="46.16522" lon="3.18101">
        <ele>295.97247314453</ele>
        <time>2015-11-08T10:08:45.000Z</time>
      </trkpt>
      <trkpt lat="46.16522" lon="3.18097">
        <ele>296.21746826172</ele>
        <time>2015-11-08T10:08:45.000Z</time>
      </trkpt>
      <trkpt lat="46.16522" lon="3.18094">
        <ele>296.44525146484</ele>
        <time>2015-11-08T10:08:45.000Z</time>
      </trkpt>
      <trkpt lat="46.16522" lon="3.18089">
        <ele>296.70684814453</ele>
        <time>2015-11-08T10:08:51.000Z</time>
      </trkpt>
      <trkpt lat="46.1652" lon="3.18083">
        <ele>296.78393554688</ele>
        <time>2015-11-08T10:08:51.000Z</time>
      </trkpt>
      <trkpt lat="46.16517" lon="3.18078">
        <ele>296.66186523438</ele>
        <time>2015-11-08T10:08:51.000Z</time>
      </trkpt>
      <trkpt lat="46.16516" lon="3.18075">
        <ele>296.43084716797</ele>
        <time>2015-11-08T10:08:56.000Z</time>
      </trkpt>
      <trkpt lat="46.16517" lon="3.18071">
        <ele>296.23883056641</ele>
        <time>2015-11-08T10:08:58.000Z</time>
      </trkpt>
      <trkpt lat="46.16517" lon="3.18066">
        <ele>296.06378173828</ele>
        <time>2015-11-08T10:08:58.000Z</time>
      </trkpt>
      <trkpt lat="46.16517" lon="3.18062">
        <ele>296.05703735352</ele>
        <time>2015-11-08T10:09:06.000Z</time>
      </trkpt>
      <trkpt lat="46.16516" lon="3.18059">
        <ele>296.1575012207</ele>
        <time>2015-11-08T10:09:06.000Z</time>
      </trkpt>
      <trkpt lat="46.16516" lon="3.18053">
        <ele>296.28164672852</ele>
        <time>2015-11-08T10:09:06.000Z</time>
      </trkpt>
      <trkpt lat="46.16516" lon="3.18047">
        <ele>296.38934326172</ele>
        <time>2015-11-08T10:09:13.000Z</time>
      </trkpt>
      <trkpt lat="46.16515" lon="3.18043">
        <ele>296.45147705078</ele>
        <time>2015-11-08T10:09:18.000Z</time>
      </trkpt>
      <trkpt lat="46.16515" lon="3.18039">
        <ele>296.47830200195</ele>
        <time>2015-11-08T10:09:24.000Z</time>
      </trkpt>
      <trkpt lat="46.16516" lon="3.18034">
        <ele>296.62078857422</ele>
        <time>2015-11-08T10:09:29.000Z</time>
      </trkpt>
      <trkpt lat="46.16515" lon="3.1803">
        <ele>296.73553466797</ele>
        <time>2015-11-08T10:09:29.000Z</time>
      </trkpt>
      <trkpt lat="46.16515" lon="3.18029">
        <ele>296.81478881836</ele>
        <time>2015-11-08T10:09:35.000Z</time>
      </trkpt>
      <trkpt lat="46.16515" lon="3.18025">
        <ele>296.96551513672</ele>
        <time>2015-11-08T10:09:41.000Z</time>
      </trkpt>
      <trkpt lat="46.16514" lon="3.18015">
        <ele>297.08651733398</ele>
        <time>2015-11-08T10:09:46.000Z</time>
      </trkpt>
      <trkpt lat="46.16515" lon="3.1801">
        <ele>297.21032714844</ele>
        <time>2015-11-08T10:09:48.000Z</time>
      </trkpt>
      <trkpt lat="46.16515" lon="3.18">
        <ele>297.46160888672</ele>
        <time>2015-11-08T10:09:53.000Z</time>
      </trkpt>
      <trkpt lat="46.16515" lon="3.17996">
        <ele>297.69329833984</ele>
        <time>2015-11-08T10:09:53.000Z</time>
      </trkpt>
      <trkpt lat="46.16513" lon="3.17989">
        <ele>297.81665039062</ele>
        <time>2015-11-08T10:09:58.000Z</time>
      </trkpt>
      <trkpt lat="46.16512" lon="3.17981">
        <ele>297.91931152344</ele>
        <time>2015-11-08T10:09:59.000Z</time>
      </trkpt>
      <trkpt lat="46.1651" lon="3.17966">
        <ele>297.85693359375</ele>
        <time>2015-11-08T10:10:06.000Z</time>
      </trkpt>
      <trkpt lat="46.16509" lon="3.17956">
        <ele>297.69677734375</ele>
        <time>2015-11-08T10:10:11.000Z</time>
      </trkpt>
      <trkpt lat="46.16507" lon="3.17945">
        <ele>297.48608398438</ele>
        <time>2015-11-08T10:10:18.000Z</time>
      </trkpt>
      <trkpt lat="46.16503" lon="3.17912">
        <ele>297.27426147461</ele>
        <time>2015-11-08T10:10:36.000Z</time>
      </trkpt>
      <trkpt lat="46.16498" lon="3.179">
        <ele>296.94744873047</ele>
        <time>2015-11-08T10:10:43.000Z</time>
      </trkpt>
      <trkpt lat="46.16494" lon="3.17885">
        <ele>296.78735351562</ele>
        <time>2015-11-08T10:10:51.000Z</time>
      </trkpt>
      <trkpt lat="46.16494" lon="3.1788">
        <ele>296.71459960938</ele>
        <time>2015-11-08T10:10:51.000Z</time>
      </trkpt>
      <trkpt lat="46.16493" lon="3.17877">
        <ele>296.72369384766</ele>
        <time>2015-11-08T10:10:54.000Z</time>
      </trkpt>
      <trkpt lat="46.16493" lon="3.17877">
        <ele>296.72369384766</ele>
        <time>2015-11-08T10:11:23.000Z</time>
      </trkpt>
      <trkpt lat="46.16457" lon="3.1779">
        <ele>296.65924072266</ele>
        <time>2015-11-08T10:11:51.000Z</time>
      </trkpt>
      <trkpt lat="46.16449" lon="3.17774">
        <ele>296.56268310547</ele>
        <time>2015-11-08T10:12:00.000Z</time>
      </trkpt>
      <trkpt lat="46.16446" lon="3.17762">
        <ele>296.31719970703</ele>
        <time>2015-11-08T10:12:08.000Z</time>
      </trkpt>
      <trkpt lat="46.16446" lon="3.17759">
        <ele>296.01373291016</ele>
        <time>2015-11-08T10:12:10.000Z</time>
      </trkpt>
      <trkpt lat="46.16444" lon="3.17753">
        <ele>295.68182373047</ele>
        <time>2015-11-08T10:12:10.000Z</time>
      </trkpt>
      <trkpt lat="46.16443" lon="3.17747">
        <ele>295.50546264648</ele>
        <time>2015-11-08T10:12:12.000Z</time>
      </trkpt>
      <trkpt lat="46.16443" lon="3.17743">
        <ele>295.64956665039</ele>
        <time>2015-11-08T10:12:18.000Z</time>
      </trkpt>
      <trkpt lat="46.16441" lon="3.17736">
        <ele>295.89190673828</ele>
        <time>2015-11-08T10:12:23.000Z</time>
      </trkpt>
      <trkpt lat="46.16441" lon="3.17732">
        <ele>296.18399047852</ele>
        <time>2015-11-08T10:12:23.000Z</time>
      </trkpt>
      <trkpt lat="46.1644" lon="3.17726">
        <ele>296.57940673828</ele>
        <time>2015-11-08T10:12:28.000Z</time>
      </trkpt>
      <trkpt lat="46.16438" lon="3.1772">
        <ele>296.9426574707</ele>
        <time>2015-11-08T10:12:28.000Z</time>
      </trkpt>
      <trkpt lat="46.16436" lon="3.17717">
        <ele>297.14865112305</ele>
        <time>2015-11-08T10:12:30.000Z</time>
      </trkpt>
      <trkpt lat="46.16435" lon="3.17712">
        <ele>297.33599853516</ele>
        <time>2015-11-08T10:12:34.000Z</time>
      </trkpt>
      <trkpt lat="46.16434" lon="3.17707">
        <ele>297.51214599609</ele>
        <time>2015-11-08T10:12:36.000Z</time>
      </trkpt>
      <trkpt lat="46.16432" lon="3.17703">
        <ele>297.53234863281</ele>
        <time>2015-11-08T10:12:42.000Z</time>
      </trkpt>
      <trkpt lat="46.1643" lon="3.17699">
        <ele>297.48004150391</ele>
        <time>2015-11-08T10:12:42.000Z</time>
      </trkpt>
      <trkpt lat="46.16428" lon="3.17693">
        <ele>297.42504882812</ele>
        <time>2015-11-08T10:12:42.000Z</time>
      </trkpt>
      <trkpt lat="46.16426" lon="3.1769">
        <ele>297.2522277832</ele>
        <time>2015-11-08T10:12:48.000Z</time>
      </trkpt>
      <trkpt lat="46.16424" lon="3.17686">
        <ele>296.93658447266</ele>
        <time>2015-11-08T10:12:54.000Z</time>
      </trkpt>
      <trkpt lat="46.16422" lon="3.17683">
        <ele>296.57171630859</ele>
        <time>2015-11-08T10:12:54.000Z</time>
      </trkpt>
      <trkpt lat="46.1642" lon="3.17679">
        <ele>296.18646240234</ele>
        <time>2015-11-08T10:12:59.000Z</time>
      </trkpt>
      <trkpt lat="46.16416" lon="3.17669">
        <ele>295.70404052734</ele>
        <time>2015-11-08T10:13:06.000Z</time>
      </trkpt>
      <trkpt lat="46.16413" lon="3.17656">
        <ele>295.60675048828</ele>
        <time>2015-11-08T10:13:13.000Z</time>
      </trkpt>
      <trkpt lat="46.16412" lon="3.17652">
        <ele>295.67687988281</ele>
        <time>2015-11-08T10:13:14.000Z</time>
      </trkpt>
      <trkpt lat="46.1641" lon="3.17649">
        <ele>295.89498901367</ele>
        <time>2015-11-08T10:13:15.000Z</time>
      </trkpt>
      <trkpt lat="46.16409" lon="3.17646">
        <ele>296.27084350586</ele>
        <time>2015-11-08T10:13:16.000Z</time>
      </trkpt>
      <trkpt lat="46.16407" lon="3.17642">
        <ele>296.84707641602</ele>
        <time>2015-11-08T10:13:18.000Z</time>
      </trkpt>
      <trkpt lat="46.16405" lon="3.17638">
        <ele>297.14520263672</ele>
        <time>2015-11-08T10:13:18.000Z</time>
      </trkpt>
      <trkpt lat="46.16402" lon="3.17633">
        <ele>297.39300537109</ele>
        <time>2015-11-08T10:13:23.000Z</time>
      </trkpt>
      <trkpt lat="46.164" lon="3.17629">
        <ele>297.63598632812</ele>
        <time>2015-11-08T10:13:24.000Z</time>
      </trkpt>
      <trkpt lat="46.16398" lon="3.17625">
        <ele>297.82366943359</ele>
        <time>2015-11-08T10:13:29.000Z</time>
      </trkpt>
      <trkpt lat="46.16397" lon="3.17622">
        <ele>298.00912475586</ele>
        <time>2015-11-08T10:13:30.000Z</time>
      </trkpt>
      <trkpt lat="46.16396" lon="3.17617">
        <ele>298.22064208984</ele>
        <time>2015-11-08T10:13:36.000Z</time>
      </trkpt>
      <trkpt lat="46.16391" lon="3.17605">
        <ele>298.50262451172</ele>
        <time>2015-11-08T10:13:44.000Z</time>
      </trkpt>
      <trkpt lat="46.1639" lon="3.17602">
        <ele>298.77124023438</ele>
        <time>2015-11-08T10:13:44.000Z</time>
      </trkpt>
      <trkpt lat="46.16389" lon="3.17599">
        <ele>299.03656005859</ele>
        <time>2015-11-08T10:13:45.000Z</time>
      </trkpt>
      <trkpt lat="46.16386" lon="3.17593">
        <ele>299.20135498047</ele>
        <time>2015-11-08T10:13:47.000Z</time>
      </trkpt>
      <trkpt lat="46.16386" lon="3.17593">
        <ele>299.20135498047</ele>
        <time>2015-11-08T10:14:11.000Z</time>
      </trkpt>
      <trkpt lat="46.16364" lon="3.17556">
        <ele>298.96673583984</ele>
        <time>2015-11-08T10:14:15.000Z</time>
      </trkpt>
      <trkpt lat="46.16362" lon="3.17552">
        <ele>298.64907836914</ele>
        <time>2015-11-08T10:14:15.000Z</time>
      </trkpt>
      <trkpt lat="46.16357" lon="3.17533">
        <ele>298.36578369141</ele>
        <time>2015-11-08T10:14:27.000Z</time>
      </trkpt>
      <trkpt lat="46.16351" lon="3.17516">
        <ele>298.0283203125</ele>
        <time>2015-11-08T10:14:37.000Z</time>
      </trkpt>
      <trkpt lat="46.16351" lon="3.17514">
        <ele>297.70635986328</ele>
        <time>2015-11-08T10:14:38.000Z</time>
      </trkpt>
      <trkpt lat="46.16348" lon="3.17508">
        <ele>297.63494873047</ele>
        <time>2015-11-08T10:14:39.000Z</time>
      </trkpt>
      <trkpt lat="46.16346" lon="3.17505">
        <ele>297.44271850586</ele>
        <time>2015-11-08T10:14:39.000Z</time>
      </trkpt>
      <trkpt lat="46.16345" lon="3.17502">
        <ele>297.18515014648</ele>
        <time>2015-11-08T10:14:40.000Z</time>
      </trkpt>
      <trkpt lat="46.16343" lon="3.17497">
        <ele>296.86273193359</ele>
        <time>2015-11-08T10:14:45.000Z</time>
      </trkpt>
      <trkpt lat="46.16341" lon="3.17495">
        <ele>296.54022216797</ele>
        <time>2015-11-08T10:14:51.000Z</time>
      </trkpt>
      <trkpt lat="46.16338" lon="3.1749">
        <ele>296.12628173828</ele>
        <time>2015-11-08T10:14:52.000Z</time>
      </trkpt>
      <trkpt lat="46.16335" lon="3.17485">
        <ele>295.75610351562</ele>
        <time>2015-11-08T10:14:57.000Z</time>
      </trkpt>
      <trkpt lat="46.16333" lon="3.17483">
        <ele>295.333984375</ele>
        <time>2015-11-08T10:14:57.000Z</time>
      </trkpt>
      <trkpt lat="46.16331" lon="3.17477">
        <ele>295.11831665039</ele>
        <time>2015-11-08T10:15:02.000Z</time>
      </trkpt>
      <trkpt lat="46.1633" lon="3.17473">
        <ele>294.99957275391</ele>
        <time>2015-11-08T10:15:02.000Z</time>
      </trkpt>
      <trkpt lat="46.16327" lon="3.17469">
        <ele>295.10562133789</ele>
        <time>2015-11-08T10:15:08.000Z</time>
      </trkpt>
      <trkpt lat="46.16325" lon="3.17464">
        <ele>295.32537841797</ele>
        <time>2015-11-08T10:15:12.000Z</time>
      </trkpt>
      <trkpt lat="46.16322" lon="3.17459">
        <ele>295.66516113281</ele>
        <time>2015-11-08T10:15:12.000Z</time>
      </trkpt>
      <trkpt lat="46.16322" lon="3.17459">
        <ele>295.66516113281</ele>
        <time>2015-11-08T10:15:33.000Z</time>
      </trkpt>
      <trkpt lat="46.16301" lon="3.17422">
        <ele>295.96148681641</ele>
        <time>2015-11-08T10:15:39.000Z</time>
      </trkpt>
      <trkpt lat="46.163" lon="3.17419">
        <ele>296.18515014648</ele>
        <time>2015-11-08T10:15:40.000Z</time>
      </trkpt>
      <trkpt lat="46.16297" lon="3.17415">
        <ele>296.30297851562</ele>
        <time>2015-11-08T10:15:42.000Z</time>
      </trkpt>
      <trkpt lat="46.16295" lon="3.17412">
        <ele>296.33059692383</ele>
        <time>2015-11-08T10:15:43.000Z</time>
      </trkpt>
      <trkpt lat="46.16291" lon="3.17405">
        <ele>296.25897216797</ele>
        <time>2015-11-08T10:15:52.000Z</time>
      </trkpt>
      <trkpt lat="46.16289" lon="3.17402">
        <ele>296.0573425293</ele>
        <time>2015-11-08T10:15:52.000Z</time>
      </trkpt>
      <trkpt lat="46.16287" lon="3.174">
        <ele>295.83309936523</ele>
        <time>2015-11-08T10:15:54.000Z</time>
      </trkpt>
      <trkpt lat="46.16286" lon="3.17395">
        <ele>295.66955566406</ele>
        <time>2015-11-08T10:15:54.000Z</time>
      </trkpt>
      <trkpt lat="46.16284" lon="3.17389">
        <ele>295.54754638672</ele>
        <time>2015-11-08T10:16:01.000Z</time>
      </trkpt>
      <trkpt lat="46.16283" lon="3.17385">
        <ele>295.44500732422</ele>
        <time>2015-11-08T10:16:01.000Z</time>
      </trkpt>
      <trkpt lat="46.16282" lon="3.17381">
        <ele>295.43594360352</ele>
        <time>2015-11-08T10:16:06.000Z</time>
      </trkpt>
      <trkpt lat="46.16281" lon="3.17378">
        <ele>295.44171142578</ele>
        <time>2015-11-08T10:16:06.000Z</time>
      </trkpt>
      <trkpt lat="46.16279" lon="3.17374">
        <ele>295.41302490234</ele>
        <time>2015-11-08T10:16:07.000Z</time>
      </trkpt>
      <trkpt lat="46.16278" lon="3.17371">
        <ele>295.37683105469</ele>
        <time>2015-11-08T10:16:14.000Z</time>
      </trkpt>
      <trkpt lat="46.16276" lon="3.17366">
        <ele>295.29919433594</ele>
        <time>2015-11-08T10:16:19.000Z</time>
      </trkpt>
      <trkpt lat="46.16274" lon="3.17358">
        <ele>295.21337890625</ele>
        <time>2015-11-08T10:16:25.000Z</time>
      </trkpt>
      <trkpt lat="46.16273" lon="3.17351">
        <ele>295.17172241211</ele>
        <time>2015-11-08T10:16:30.000Z</time>
      </trkpt>
      <trkpt lat="46.16269" lon="3.17336">
        <ele>295.05502319336</ele>
        <time>2015-11-08T10:16:40.000Z</time>
      </trkpt>
      <trkpt lat="46.16268" lon="3.17333">
        <ele>294.95635986328</ele>
        <time>2015-11-08T10:16:42.000Z</time>
      </trkpt>
      <trkpt lat="46.16265" lon="3.17327">
        <ele>294.88317871094</ele>
        <time>2015-11-08T10:16:42.000Z</time>
      </trkpt>
      <trkpt lat="46.16265" lon="3.17322">
        <ele>294.87188720703</ele>
        <time>2015-11-08T10:16:44.000Z</time>
      </trkpt>
      <trkpt lat="46.16264" lon="3.17318">
        <ele>294.86743164062</ele>
        <time>2015-11-08T10:16:44.000Z</time>
      </trkpt>
      <trkpt lat="46.16264" lon="3.17317">
        <ele>295.01226806641</ele>
        <time>2015-11-08T10:16:50.000Z</time>
      </trkpt>
      <trkpt lat="46.16261" lon="3.1731">
        <ele>295.14349365234</ele>
        <time>2015-11-08T10:16:50.000Z</time>
      </trkpt>
      <trkpt lat="46.16257" lon="3.17301">
        <ele>295.2158203125</ele>
        <time>2015-11-08T10:17:01.000Z</time>
      </trkpt>
      <trkpt lat="46.16251" lon="3.17288">
        <ele>295.05068969727</ele>
        <time>2015-11-08T10:17:08.000Z</time>
      </trkpt>
      <trkpt lat="46.1625" lon="3.17282">
        <ele>294.91668701172</ele>
        <time>2015-11-08T10:17:08.000Z</time>
      </trkpt>
      <trkpt lat="46.16248" lon="3.17275">
        <ele>294.85610961914</ele>
        <time>2015-11-08T10:17:15.000Z</time>
      </trkpt>
      <trkpt lat="46.16243" lon="3.17264">
        <ele>294.90908813477</ele>
        <time>2015-11-08T10:17:22.000Z</time>
      </trkpt>
      <trkpt lat="46.16241" lon="3.1726">
        <ele>295.07659912109</ele>
        <time>2015-11-08T10:17:22.000Z</time>
      </trkpt>
      <trkpt lat="46.16238" lon="3.17256">
        <ele>295.43273925781</ele>
        <time>2015-11-08T10:17:27.000Z</time>
      </trkpt>
      <trkpt lat="46.16237" lon="3.17252">
        <ele>295.7326965332</ele>
        <time>2015-11-08T10:17:27.000Z</time>
      </trkpt>
      <trkpt lat="46.16235" lon="3.17248">
        <ele>295.99798583984</ele>
        <time>2015-11-08T10:17:29.000Z</time>
      </trkpt>
      <trkpt lat="46.16232" lon="3.17241">
        <ele>296.28237915039</ele>
        <time>2015-11-08T10:17:29.000Z</time>
      </trkpt>
      <trkpt lat="46.16231" lon="3.17237">
        <ele>296.64193725586</ele>
        <time>2015-11-08T10:17:30.000Z</time>
      </trkpt>
      <trkpt lat="46.16228" lon="3.17233">
        <ele>296.99810791016</ele>
        <time>2015-11-08T10:17:39.000Z</time>
      </trkpt>
      <trkpt lat="46.16225" lon="3.1723">
        <ele>297.34649658203</ele>
        <time>2015-11-08T10:17:46.000Z</time>
      </trkpt>
      <trkpt lat="46.16219" lon="3.17223">
        <ele>297.57281494141</ele>
        <time>2015-11-08T10:17:51.000Z</time>
      </trkpt>
      <trkpt lat="46.16209" lon="3.17211">
        <ele>297.57168579102</ele>
        <time>2015-11-08T10:17:58.000Z</time>
      </trkpt>
      <trkpt lat="46.16206" lon="3.17205">
        <ele>297.48236083984</ele>
        <time>2015-11-08T10:18:03.000Z</time>
      </trkpt>
      <trkpt lat="46.16205" lon="3.172">
        <ele>297.41766357422</ele>
        <time>2015-11-08T10:18:04.000Z</time>
      </trkpt>
      <trkpt lat="46.16204" lon="3.17196">
        <ele>297.37670898438</ele>
        <time>2015-11-08T10:18:09.000Z</time>
      </trkpt>
      <trkpt lat="46.16204" lon="3.1719">
        <ele>297.49716186523</ele>
        <time>2015-11-08T10:18:09.000Z</time>
      </trkpt>
      <trkpt lat="46.16205" lon="3.17188">
        <ele>297.80874633789</ele>
        <time>2015-11-08T10:18:09.000Z</time>
      </trkpt>
      <trkpt lat="46.16204" lon="3.17183">
        <ele>298.15557861328</ele>
        <time>2015-11-08T10:18:10.000Z</time>
      </trkpt>
      <trkpt lat="46.16204" lon="3.17181">
        <ele>298.51254272461</ele>
        <time>2015-11-08T10:18:17.000Z</time>
      </trkpt>
      <trkpt lat="46.16202" lon="3.17177">
        <ele>298.78515625</ele>
        <time>2015-11-08T10:18:17.000Z</time>
      </trkpt>
      <trkpt lat="46.16199" lon="3.17174">
        <ele>298.85342407227</ele>
        <time>2015-11-08T10:18:18.000Z</time>
      </trkpt>
      <trkpt lat="46.16198" lon="3.17171">
        <ele>298.81381225586</ele>
        <time>2015-11-08T10:18:24.000Z</time>
      </trkpt>
      <trkpt lat="46.16197" lon="3.17167">
        <ele>298.72244262695</ele>
        <time>2015-11-08T10:18:24.000Z</time>
      </trkpt>
      <trkpt lat="46.16195" lon="3.17164">
        <ele>298.53182983398</ele>
        <time>2015-11-08T10:18:24.000Z</time>
      </trkpt>
      <trkpt lat="46.16193" lon="3.17161">
        <ele>298.3088684082</ele>
        <time>2015-11-08T10:18:25.000Z</time>
      </trkpt>
      <trkpt lat="46.1619" lon="3.17155">
        <ele>298.07873535156</ele>
        <time>2015-11-08T10:18:35.000Z</time>
      </trkpt>
      <trkpt lat="46.16181" lon="3.17138">
        <ele>297.60150146484</ele>
        <time>2015-11-08T10:18:46.000Z</time>
      </trkpt>
      <trkpt lat="46.1618" lon="3.17136">
        <ele>297.08642578125</ele>
        <time>2015-11-08T10:18:47.000Z</time>
      </trkpt>
      <trkpt lat="46.1618" lon="3.17131">
        <ele>296.66665649414</ele>
        <time>2015-11-08T10:18:50.000Z</time>
      </trkpt>
      <trkpt lat="46.1618" lon="3.17131">
        <ele>296.66665649414</ele>
        <time>2015-11-08T10:19:15.000Z</time>
      </trkpt>
      <trkpt lat="46.16173" lon="3.17109">
        <ele>296.20840454102</ele>
        <time>2015-11-08T10:19:19.000Z</time>
      </trkpt>
      <trkpt lat="46.16172" lon="3.17103">
        <ele>295.88824462891</ele>
        <time>2015-11-08T10:19:21.000Z</time>
      </trkpt>
      <trkpt lat="46.16173" lon="3.17089">
        <ele>296.10766601562</ele>
        <time>2015-11-08T10:19:26.000Z</time>
      </trkpt>
      <trkpt lat="46.16174" lon="3.17087">
        <ele>296.43902587891</ele>
        <time>2015-11-08T10:19:27.000Z</time>
      </trkpt>
      <trkpt lat="46.16172" lon="3.17091">
        <ele>296.54837036133</ele>
        <time>2015-11-08T10:19:34.000Z</time>
      </trkpt>
      <trkpt lat="46.16169" lon="3.17095">
        <ele>296.42828369141</ele>
        <time>2015-11-08T10:19:39.000Z</time>
      </trkpt>
      <trkpt lat="46.16167" lon="3.17093">
        <ele>296.16107177734</ele>
        <time>2015-11-08T10:19:40.000Z</time>
      </trkpt>
      <trkpt lat="46.16165" lon="3.17091">
        <ele>295.57849121094</ele>
        <time>2015-11-08T10:19:40.000Z</time>
      </trkpt>
      <trkpt lat="46.1616" lon="3.1709">
        <ele>294.85540771484</ele>
        <time>2015-11-08T10:19:45.000Z</time>
      </trkpt>
      <trkpt lat="46.16159" lon="3.17091">
        <ele>294.26922607422</ele>
        <time>2015-11-08T10:19:46.000Z</time>
      </trkpt>
      <trkpt lat="46.16162" lon="3.17089">
        <ele>294.12167358398</ele>
        <time>2015-11-08T10:19:52.000Z</time>
      </trkpt>
      <trkpt lat="46.16167" lon="3.17091">
        <ele>294.18069458008</ele>
        <time>2015-11-08T10:19:59.000Z</time>
      </trkpt>
      <trkpt lat="46.16169" lon="3.1709">
        <ele>294.38095092773</ele>
        <time>2015-11-08T10:19:59.000Z</time>
      </trkpt>
      <trkpt lat="46.16169" lon="3.17088">
        <ele>294.75634765625</ele>
        <time>2015-11-08T10:20:04.000Z</time>
      </trkpt>
      <trkpt lat="46.1617" lon="3.1709">
        <ele>295.20370483398</ele>
        <time>2015-11-08T10:20:11.000Z</time>
      </trkpt>
      <trkpt lat="46.1617" lon="3.17091">
        <ele>295.53173828125</ele>
        <time>2015-11-08T10:20:11.000Z</time>
      </trkpt>
      <trkpt lat="46.1617" lon="3.17094">
        <ele>295.68890380859</ele>
        <time>2015-11-08T10:20:12.000Z</time>
      </trkpt>
      <trkpt lat="46.16168" lon="3.17099">
        <ele>295.50149536133</ele>
        <time>2015-11-08T10:20:19.000Z</time>
      </trkpt>
      <trkpt lat="46.16168" lon="3.171">
        <ele>295.19100952148</ele>
        <time>2015-11-08T10:20:20.000Z</time>
      </trkpt>
      <trkpt lat="46.1617" lon="3.17094">
        <ele>295.12442016602</ele>
        <time>2015-11-08T10:20:38.000Z</time>
      </trkpt>
      <trkpt lat="46.1617" lon="3.1709">
        <ele>295.14727783203</ele>
        <time>2015-11-08T10:20:44.000Z</time>
      </trkpt>
      <trkpt lat="46.16169" lon="3.17083">
        <ele>295.23291015625</ele>
        <time>2015-11-08T10:20:51.000Z</time>
      </trkpt>
      <trkpt lat="46.16168" lon="3.17079">
        <ele>295.54989624023</ele>
        <time>2015-11-08T10:20:52.000Z</time>
      </trkpt>
      <trkpt lat="46.16164" lon="3.17069">
        <ele>295.9521484375</ele>
        <time>2015-11-08T10:20:54.000Z</time>
      </trkpt>
      <trkpt lat="46.16162" lon="3.17061">
        <ele>296.18933105469</ele>
        <time>2015-11-08T10:20:54.000Z</time>
      </trkpt>
      <trkpt lat="46.16162" lon="3.17055">
        <ele>296.49334716797</ele>
        <time>2015-11-08T10:21:01.000Z</time>
      </trkpt>
      <trkpt lat="46.16163" lon="3.17051">
        <ele>296.90130615234</ele>
        <time>2015-11-08T10:21:02.000Z</time>
      </trkpt>
      <trkpt lat="46.16164" lon="3.17048">
        <ele>297.42486572266</ele>
        <time>2015-11-08T10:21:07.000Z</time>
      </trkpt>
      <trkpt lat="46.16165" lon="3.17046">
        <ele>297.92718505859</ele>
        <time>2015-11-08T10:21:08.000Z</time>
      </trkpt>
      <trkpt lat="46.16167" lon="3.17041">
        <ele>298.52416992188</ele>
        <time>2015-11-08T10:21:13.000Z</time>
      </trkpt>
      <trkpt lat="46.16169" lon="3.17039">
        <ele>299.13500976562</ele>
        <time>2015-11-08T10:21:13.000Z</time>
      </trkpt>
      <trkpt lat="46.1617" lon="3.17038">
        <ele>299.74960327148</ele>
        <time>2015-11-08T10:21:19.000Z</time>
      </trkpt>
      <trkpt lat="46.16172" lon="3.17037">
        <ele>300.42590332031</ele>
        <time>2015-11-08T10:21:20.000Z</time>
      </trkpt>
      <trkpt lat="46.16175" lon="3.17035">
        <ele>301.27752685547</ele>
        <time>2015-11-08T10:21:24.000Z</time>
      </trkpt>
      <trkpt lat="46.16177" lon="3.17034">
        <ele>302.0446472168</ele>
        <time>2015-11-08T10:21:26.000Z</time>
      </trkpt>
      <trkpt lat="46.16178" lon="3.17032">
        <ele>302.76275634766</ele>
        <time>2015-11-08T10:21:26.000Z</time>
      </trkpt>
      <trkpt lat="46.16181" lon="3.17027">
        <ele>303.66278076172</ele>
        <time>2015-11-08T10:21:27.000Z</time>
      </trkpt>
      <trkpt lat="46.16182" lon="3.17025">
        <ele>304.52740478516</ele>
        <time>2015-11-08T10:21:33.000Z</time>
      </trkpt>
      <trkpt lat="46.16184" lon="3.17024">
        <ele>305.27374267578</ele>
        <time>2015-11-08T10:21:34.000Z</time>
      </trkpt>
      <trkpt lat="46.16186" lon="3.17023">
        <ele>306.03234863281</ele>
        <time>2015-11-08T10:21:57.000Z</time>
      </trkpt>
      <trkpt lat="46.16187" lon="3.17022">
        <ele>306.81289672852</ele>
        <time>2015-11-08T10:22:27.000Z</time>
      </trkpt>
      <trkpt lat="46.16203" lon="3.17011">
        <ele>308.40731811523</ele>
        <time>2015-11-08T10:22:28.000Z</time>
      </trkpt>
      <trkpt lat="46.16205" lon="3.17008">
        <ele>309.99209594727</ele>
        <time>2015-11-08T10:22:28.000Z</time>
      </trkpt>
      <trkpt lat="46.16207" lon="3.17004">
        <ele>311.62530517578</ele>
        <time>2015-11-08T10:22:29.000Z</time>
      </trkpt>
      <trkpt lat="46.16209" lon="3.17002">
        <ele>313.27056884766</ele>
        <time>2015-11-08T10:22:37.000Z</time>
      </trkpt>
      <trkpt lat="46.16224" lon="3.16968">
        <ele>316.22338867188</ele>
        <time>2015-11-08T10:22:38.000Z</time>
      </trkpt>
      <trkpt lat="46.16225" lon="3.16962">
        <ele>318.26800537109</ele>
        <time>2015-11-08T10:22:39.000Z</time>
      </trkpt>
      <trkpt lat="46.16225" lon="3.16959">
        <ele>320.24359130859</ele>
        <time>2015-11-08T10:22:39.000Z</time>
      </trkpt>
      <trkpt lat="46.16244" lon="3.16915">
        <ele>323.19418334961</ele>
        <time>2015-11-08T10:22:48.000Z</time>
      </trkpt>
      <trkpt lat="46.16246" lon="3.16912">
        <ele>326.05682373047</ele>
        <time>2015-11-08T10:22:54.000Z</time>
      </trkpt>
      <trkpt lat="46.16251" lon="3.16903">
        <ele>327.73104858398</ele>
        <time>2015-11-08T10:22:55.000Z</time>
      </trkpt>
      <trkpt lat="46.16255" lon="3.16898">
        <ele>329.46234130859</ele>
        <time>2015-11-08T10:23:01.000Z</time>
      </trkpt>
      <trkpt lat="46.16257" lon="3.16891">
        <ele>331.31408691406</ele>
        <time>2015-11-08T10:23:06.000Z</time>
      </trkpt>
      <trkpt lat="46.16257" lon="3.16885">
        <ele>332.11505126953</ele>
        <time>2015-11-08T10:23:12.000Z</time>
      </trkpt>
      <trkpt lat="46.16259" lon="3.16881">
        <ele>332.96371459961</ele>
        <time>2015-11-08T10:23:19.000Z</time>
      </trkpt>
      <trkpt lat="46.1626" lon="3.16876">
        <ele>333.65032958984</ele>
        <time>2015-11-08T10:23:21.000Z</time>
      </trkpt>
      <trkpt lat="46.16261" lon="3.16873">
        <ele>334.15313720703</ele>
        <time>2015-11-08T10:23:24.000Z</time>
      </trkpt>
      <trkpt lat="46.16267" lon="3.16866">
        <ele>334.73617553711</ele>
        <time>2015-11-08T10:23:32.000Z</time>
      </trkpt>
      <trkpt lat="46.1627" lon="3.1686">
        <ele>335.3798828125</ele>
        <time>2015-11-08T10:23:37.000Z</time>
      </trkpt>
      <trkpt lat="46.16273" lon="3.16853">
        <ele>336.02099609375</ele>
        <time>2015-11-08T10:23:43.000Z</time>
      </trkpt>
      <trkpt lat="46.16277" lon="3.16846">
        <ele>336.69793701172</ele>
        <time>2015-11-08T10:24:03.000Z</time>
      </trkpt>
      <trkpt lat="46.16289" lon="3.16813">
        <ele>337.76809692383</ele>
        <time>2015-11-08T10:24:12.000Z</time>
      </trkpt>
      <trkpt lat="46.16293" lon="3.16808">
        <ele>338.68154907227</ele>
        <time>2015-11-08T10:24:19.000Z</time>
      </trkpt>
      <trkpt lat="46.16297" lon="3.16803">
        <ele>339.55267333984</ele>
        <time>2015-11-08T10:24:22.000Z</time>
      </trkpt>
      <trkpt lat="46.16302" lon="3.16796">
        <ele>340.43609619141</ele>
        <time>2015-11-08T10:24:30.000Z</time>
      </trkpt>
      <trkpt lat="46.1631" lon="3.16789">
        <ele>341.32629394531</ele>
        <time>2015-11-08T10:24:42.000Z</time>
      </trkpt>
      <trkpt lat="46.16318" lon="3.16768">
        <ele>341.93994140625</ele>
        <time>2015-11-08T10:24:53.000Z</time>
      </trkpt>
      <trkpt lat="46.16325" lon="3.16765">
        <ele>342.5046081543</ele>
        <time>2015-11-08T10:25:01.000Z</time>
      </trkpt>
      <trkpt lat="46.1633" lon="3.16763">
        <ele>343.00942993164</ele>
        <time>2015-11-08T10:25:04.000Z</time>
      </trkpt>
      <trkpt lat="46.16336" lon="3.16757">
        <ele>343.43157958984</ele>
        <time>2015-11-08T10:25:14.000Z</time>
      </trkpt>
      <trkpt lat="46.1634" lon="3.16754">
        <ele>343.75561523438</ele>
        <time>2015-11-08T10:25:18.000Z</time>
      </trkpt>
      <trkpt lat="46.16346" lon="3.16752">
        <ele>343.91836547852</ele>
        <time>2015-11-08T10:25:26.000Z</time>
      </trkpt>
      <trkpt lat="46.16348" lon="3.16753">
        <ele>344.0341796875</ele>
        <time>2015-11-08T10:25:27.000Z</time>
      </trkpt>
      <trkpt lat="46.16351" lon="3.16753">
        <ele>344.12860107422</ele>
        <time>2015-11-08T10:25:29.000Z</time>
      </trkpt>
      <trkpt lat="46.16354" lon="3.16754">
        <ele>344.19647216797</ele>
        <time>2015-11-08T10:25:39.000Z</time>
      </trkpt>
      <trkpt lat="46.16357" lon="3.16755">
        <ele>344.25717163086</ele>
        <time>2015-11-08T10:25:40.000Z</time>
      </trkpt>
      <trkpt lat="46.16359" lon="3.16755">
        <ele>344.30844116211</ele>
        <time>2015-11-08T10:25:48.000Z</time>
      </trkpt>
      <trkpt lat="46.16363" lon="3.16755">
        <ele>344.36767578125</ele>
        <time>2015-11-08T10:25:54.000Z</time>
      </trkpt>
      <trkpt lat="46.16371" lon="3.16756">
        <ele>344.44915771484</ele>
        <time>2015-11-08T10:25:58.000Z</time>
      </trkpt>
      <trkpt lat="46.16375" lon="3.16755">
        <ele>344.52908325195</ele>
        <time>2015-11-08T10:26:00.000Z</time>
      </trkpt>
      <trkpt lat="46.16375" lon="3.16755">
        <ele>344.59942626953</ele>
        <time>2015-11-08T10:26:01.000Z</time>
      </trkpt>
      <trkpt lat="46.1638" lon="3.16753">
        <ele>344.65008544922</ele>
        <time>2015-11-08T10:26:09.000Z</time>
      </trkpt>
      <trkpt lat="46.16388" lon="3.16746">
        <ele>344.76190185547</ele>
        <time>2015-11-08T10:26:16.000Z</time>
      </trkpt>
      <trkpt lat="46.16395" lon="3.16746">
        <ele>344.8610534668</ele>
        <time>2015-11-08T10:26:23.000Z</time>
      </trkpt>
      <trkpt lat="46.16398" lon="3.16746">
        <ele>344.94805908203</ele>
        <time>2015-11-08T10:26:26.000Z</time>
      </trkpt>
      <trkpt lat="46.16407" lon="3.16746">
        <ele>345.05221557617</ele>
        <time>2015-11-08T10:26:34.000Z</time>
      </trkpt>
      <trkpt lat="46.16413" lon="3.16749">
        <ele>345.12658691406</ele>
        <time>2015-11-08T10:26:46.000Z</time>
      </trkpt>
      <trkpt lat="46.16416" lon="3.1675">
        <ele>345.11712646484</ele>
        <time>2015-11-08T10:26:50.000Z</time>
      </trkpt>
      <trkpt lat="46.16428" lon="3.16754">
        <ele>345.31307983398</ele>
        <time>2015-11-08T10:26:58.000Z</time>
      </trkpt>
      <trkpt lat="46.16431" lon="3.16755">
        <ele>345.58587646484</ele>
        <time>2015-11-08T10:27:01.000Z</time>
      </trkpt>
      <trkpt lat="46.16447" lon="3.16746">
        <ele>346.00970458984</ele>
        <time>2015-11-08T10:27:09.000Z</time>
      </trkpt>
      <trkpt lat="46.16452" lon="3.16747">
        <ele>346.5387878418</ele>
        <time>2015-11-08T10:27:15.000Z</time>
      </trkpt>
      <trkpt lat="46.16457" lon="3.1675">
        <ele>347.12698364258</ele>
        <time>2015-11-08T10:27:23.000Z</time>
      </trkpt>
      <trkpt lat="46.16459" lon="3.1675">
        <ele>347.51220703125</ele>
        <time>2015-11-08T10:27:24.000Z</time>
      </trkpt>
      <trkpt lat="46.16464" lon="3.1675">
        <ele>347.8984375</ele>
        <time>2015-11-08T10:27:28.000Z</time>
      </trkpt>
      <trkpt lat="46.16472" lon="3.16754">
        <ele>348.29904174805</ele>
        <time>2015-11-08T10:27:36.000Z</time>
      </trkpt>
      <trkpt lat="46.16477" lon="3.16754">
        <ele>348.71411132812</ele>
        <time>2015-11-08T10:27:41.000Z</time>
      </trkpt>
      <trkpt lat="46.16486" lon="3.16757">
        <ele>349.24853515625</ele>
        <time>2015-11-08T10:27:50.000Z</time>
      </trkpt>
      <trkpt lat="46.1649" lon="3.16757">
        <ele>349.818359375</ele>
        <time>2015-11-08T10:27:53.000Z</time>
      </trkpt>
      <trkpt lat="46.16494" lon="3.16754">
        <ele>350.3271484375</ele>
        <time>2015-11-08T10:28:07.000Z</time>
      </trkpt>
      <trkpt lat="46.16502" lon="3.16748">
        <ele>350.69821166992</ele>
        <time>2015-11-08T10:28:08.000Z</time>
      </trkpt>
      <trkpt lat="46.16513" lon="3.1674">
        <ele>351.1882019043</ele>
        <time>2015-11-08T10:28:13.000Z</time>
      </trkpt>
      <trkpt lat="46.16522" lon="3.16735">
        <ele>351.68170166016</ele>
        <time>2015-11-08T10:28:21.000Z</time>
      </trkpt>
      <trkpt lat="46.16523" lon="3.1673">
        <ele>352.12261962891</ele>
        <time>2015-11-08T10:28:24.000Z</time>
      </trkpt>
      <trkpt lat="46.16528" lon="3.16721">
        <ele>352.63012695312</ele>
        <time>2015-11-08T10:28:31.000Z</time>
      </trkpt>
      <trkpt lat="46.16531" lon="3.16712">
        <ele>353.14312744141</ele>
        <time>2015-11-08T10:28:40.000Z</time>
      </trkpt>
      <trkpt lat="46.16531" lon="3.16708">
        <ele>353.45352172852</ele>
        <time>2015-11-08T10:28:43.000Z</time>
      </trkpt>
      <trkpt lat="46.16533" lon="3.16689">
        <ele>353.60824584961</ele>
        <time>2015-11-08T10:28:51.000Z</time>
      </trkpt>
      <trkpt lat="46.16534" lon="3.16676">
        <ele>353.77465820312</ele>
        <time>2015-11-08T10:28:59.000Z</time>
      </trkpt>
      <trkpt lat="46.16537" lon="3.16674">
        <ele>353.90405273438</ele>
        <time>2015-11-08T10:29:01.000Z</time>
      </trkpt>
      <trkpt lat="46.16539" lon="3.16671">
        <ele>354.01263427734</ele>
        <time>2015-11-08T10:29:04.000Z</time>
      </trkpt>
      <trkpt lat="46.16544" lon="3.16664">
        <ele>354.18276977539</ele>
        <time>2015-11-08T10:29:12.000Z</time>
      </trkpt>
      <trkpt lat="46.16547" lon="3.16657">
        <ele>354.35556030273</ele>
        <time>2015-11-08T10:29:16.000Z</time>
      </trkpt>
      <trkpt lat="46.1655" lon="3.16649">
        <ele>354.51208496094</ele>
        <time>2015-11-08T10:29:25.000Z</time>
      </trkpt>
      <trkpt lat="46.16556" lon="3.16632">
        <ele>354.59515380859</ele>
        <time>2015-11-08T10:29:31.000Z</time>
      </trkpt>
      <trkpt lat="46.16562" lon="3.16619">
        <ele>354.63067626953</ele>
        <time>2015-11-08T10:29:39.000Z</time>
      </trkpt>
      <trkpt lat="46.16564" lon="3.16615">
        <ele>354.60009765625</ele>
        <time>2015-11-08T10:29:43.000Z</time>
      </trkpt>
      <trkpt lat="46.16565" lon="3.16614">
        <ele>354.55218505859</ele>
        <time>2015-11-08T10:29:49.000Z</time>
      </trkpt>
      <trkpt lat="46.16568" lon="3.16608">
        <ele>354.49114990234</ele>
        <time>2015-11-08T10:29:50.000Z</time>
      </trkpt>
      <trkpt lat="46.16571" lon="3.16597">
        <ele>354.40390014648</ele>
        <time>2015-11-08T10:29:57.000Z</time>
      </trkpt>
      <trkpt lat="46.16586" lon="3.16562">
        <ele>354.2060546875</ele>
        <time>2015-11-08T10:30:26.000Z</time>
      </trkpt>
      <trkpt lat="46.16594" lon="3.16547">
        <ele>354.08209228516</ele>
        <time>2015-11-08T10:30:50.000Z</time>
      </trkpt>
      <trkpt lat="46.16608" lon="3.1651">
        <ele>353.94833374023</ele>
        <time>2015-11-08T10:30:57.000Z</time>
      </trkpt>
      <trkpt lat="46.16611" lon="3.16501">
        <ele>353.81182861328</ele>
        <time>2015-11-08T10:31:05.000Z</time>
      </trkpt>
      <trkpt lat="46.16612" lon="3.16497">
        <ele>353.72290039062</ele>
        <time>2015-11-08T10:31:06.000Z</time>
      </trkpt>
      <trkpt lat="46.16613" lon="3.16494">
        <ele>353.75717163086</ele>
        <time>2015-11-08T10:31:09.000Z</time>
      </trkpt>
      <trkpt lat="46.16614" lon="3.16493">
        <ele>353.74169921875</ele>
        <time>2015-11-08T10:31:15.000Z</time>
      </trkpt>
      <trkpt lat="46.16614" lon="3.16491">
        <ele>353.72402954102</ele>
        <time>2015-11-08T10:31:21.000Z</time>
      </trkpt>
      <trkpt lat="46.16616" lon="3.16486">
        <ele>353.73330688477</ele>
        <time>2015-11-08T10:31:28.000Z</time>
      </trkpt>
      <trkpt lat="46.16616" lon="3.16481">
        <ele>353.73837280273</ele>
        <time>2015-11-08T10:31:33.000Z</time>
      </trkpt>
      <trkpt lat="46.16616" lon="3.16478">
        <ele>353.73675537109</ele>
        <time>2015-11-08T10:31:35.000Z</time>
      </trkpt>
      <trkpt lat="46.16619" lon="3.16471">
        <ele>353.72241210938</ele>
        <time>2015-11-08T10:31:43.000Z</time>
      </trkpt>
      <trkpt lat="46.16619" lon="3.16471">
        <ele>353.72241210938</ele>
        <time>2015-11-08T10:32:04.000Z</time>
      </trkpt>
      <trkpt lat="46.16618" lon="3.16474">
        <ele>353.71627807617</ele>
        <time>2015-11-08T10:32:48.000Z</time>
      </trkpt>
      <trkpt lat="46.1662" lon="3.16474">
        <ele>353.72592163086</ele>
        <time>2015-11-08T10:32:59.000Z</time>
      </trkpt>
      <trkpt lat="46.16622" lon="3.16473">
        <ele>353.77557373047</ele>
        <time>2015-11-08T10:33:00.000Z</time>
      </trkpt>
      <trkpt lat="46.16626" lon="3.16469">
        <ele>353.86553955078</ele>
        <time>2015-11-08T10:33:10.000Z</time>
      </trkpt>
      <trkpt lat="46.16629" lon="3.16461">
        <ele>353.9485168457</ele>
        <time>2015-11-08T10:33:15.000Z</time>
      </trkpt>
      <trkpt lat="46.16632" lon="3.16452">
        <ele>354.01055908203</ele>
        <time>2015-11-08T10:33:23.000Z</time>
      </trkpt>
      <trkpt lat="46.16633" lon="3.16449">
        <ele>354.03848266602</ele>
        <time>2015-11-08T10:33:24.000Z</time>
      </trkpt>
      <trkpt lat="46.16636" lon="3.16445">
        <ele>354.02590942383</ele>
        <time>2015-11-08T10:33:33.000Z</time>
      </trkpt>
      <trkpt lat="46.16636" lon="3.16445">
        <ele>354.02590942383</ele>
        <time>2015-11-08T10:33:53.000Z</time>
      </trkpt>
      <trkpt lat="46.16636" lon="3.16445">
        <ele>353.99447631836</ele>
        <time>2015-11-08T10:34:16.000Z</time>
      </trkpt>
      <trkpt lat="46.16637" lon="3.16447">
        <ele>353.99084472656</ele>
        <time>2015-11-08T10:34:36.000Z</time>
      </trkpt>
      <trkpt lat="46.16634" lon="3.16453">
        <ele>354.02319335938</ele>
        <time>2015-11-08T10:34:39.000Z</time>
      </trkpt>
      <trkpt lat="46.16633" lon="3.16458">
        <ele>354.08618164062</ele>
        <time>2015-11-08T10:34:41.000Z</time>
      </trkpt>
      <trkpt lat="46.16633" lon="3.1646">
        <ele>354.17456054688</ele>
        <time>2015-11-08T10:34:50.000Z</time>
      </trkpt>
      <trkpt lat="46.16633" lon="3.1646">
        <ele>354.17456054688</ele>
        <time>2015-11-08T10:35:11.000Z</time>
      </trkpt>
      <trkpt lat="46.16632" lon="3.1646">
        <ele>354.228515625</ele>
        <time>2015-11-08T10:35:51.000Z</time>
      </trkpt>
      <trkpt lat="46.16631" lon="3.16458">
        <ele>354.22692871094</ele>
        <time>2015-11-08T10:35:57.000Z</time>
      </trkpt>
      <trkpt lat="46.16631" lon="3.16455">
        <ele>354.20227050781</ele>
        <time>2015-11-08T10:36:03.000Z</time>
      </trkpt>
      <trkpt lat="46.16631" lon="3.16453">
        <ele>354.14251708984</ele>
        <time>2015-11-08T10:36:15.000Z</time>
      </trkpt>
      <trkpt lat="46.16633" lon="3.16452">
        <ele>354.08728027344</ele>
        <time>2015-11-08T10:36:32.000Z</time>
      </trkpt>
      <trkpt lat="46.16634" lon="3.16451">
        <ele>354.06246948242</ele>
        <time>2015-11-08T10:36:39.000Z</time>
      </trkpt>
      <trkpt lat="46.16637" lon="3.16443">
        <ele>354.02798461914</ele>
        <time>2015-11-08T10:36:50.000Z</time>
      </trkpt>
      <trkpt lat="46.16637" lon="3.16441">
        <ele>353.99468994141</ele>
        <time>2015-11-08T10:36:51.000Z</time>
      </trkpt>
      <trkpt lat="46.16638" lon="3.16439">
        <ele>353.96371459961</ele>
        <time>2015-11-08T10:36:54.000Z</time>
      </trkpt>
      <trkpt lat="46.16642" lon="3.16426">
        <ele>353.84906005859</ele>
        <time>2015-11-08T10:37:02.000Z</time>
      </trkpt>
      <trkpt lat="46.16645" lon="3.16417">
        <ele>353.6770324707</ele>
        <time>2015-11-08T10:37:10.000Z</time>
      </trkpt>
      <trkpt lat="46.16647" lon="3.16412">
        <ele>353.52301025391</ele>
        <time>2015-11-08T10:37:12.000Z</time>
      </trkpt>
      <trkpt lat="46.16648" lon="3.1641">
        <ele>353.36730957031</ele>
        <time>2015-11-08T10:37:20.000Z</time>
      </trkpt>
      <trkpt lat="46.16654" lon="3.16401">
        <ele>353.18041992188</ele>
        <time>2015-11-08T10:37:21.000Z</time>
      </trkpt>
      <trkpt lat="46.16658" lon="3.16389">
        <ele>352.98147583008</ele>
        <time>2015-11-08T10:37:30.000Z</time>
      </trkpt>
      <trkpt lat="46.1666" lon="3.16383">
        <ele>352.78262329102</ele>
        <time>2015-11-08T10:37:34.000Z</time>
      </trkpt>
      <trkpt lat="46.16666" lon="3.16369">
        <ele>352.49877929688</ele>
        <time>2015-11-08T10:37:41.000Z</time>
      </trkpt>
      <trkpt lat="46.16669" lon="3.16364">
        <ele>352.18173217773</ele>
        <time>2015-11-08T10:37:45.000Z</time>
      </trkpt>
      <trkpt lat="46.16671" lon="3.16361">
        <ele>351.88418579102</ele>
        <time>2015-11-08T10:37:54.000Z</time>
      </trkpt>
      <trkpt lat="46.16676" lon="3.16351">
        <ele>351.59140014648</ele>
        <time>2015-11-08T10:38:01.000Z</time>
      </trkpt>
      <trkpt lat="46.16681" lon="3.1634">
        <ele>351.26498413086</ele>
        <time>2015-11-08T10:38:09.000Z</time>
      </trkpt>
      <trkpt lat="46.16685" lon="3.16327">
        <ele>351.00207519531</ele>
        <time>2015-11-08T10:38:10.000Z</time>
      </trkpt>
      <trkpt lat="46.16689" lon="3.16319">
        <ele>350.7880859375</ele>
        <time>2015-11-08T10:38:17.000Z</time>
      </trkpt>
      <trkpt lat="46.1669" lon="3.16316">
        <ele>350.59588623047</ele>
        <time>2015-11-08T10:38:18.000Z</time>
      </trkpt>
      <trkpt lat="46.16692" lon="3.16311">
        <ele>350.47592163086</ele>
        <time>2015-11-08T10:38:27.000Z</time>
      </trkpt>
      <trkpt lat="46.16697" lon="3.16301">
        <ele>350.43789672852</ele>
        <time>2015-11-08T10:38:34.000Z</time>
      </trkpt>
      <trkpt lat="46.16702" lon="3.16292">
        <ele>350.44076538086</ele>
        <time>2015-11-08T10:38:35.000Z</time>
      </trkpt>
      <trkpt lat="46.16706" lon="3.16281">
        <ele>350.42242431641</ele>
        <time>2015-11-08T10:38:43.000Z</time>
      </trkpt>
      <trkpt lat="46.16708" lon="3.16277">
        <ele>350.39624023438</ele>
        <time>2015-11-08T10:38:44.000Z</time>
      </trkpt>
      <trkpt lat="46.1671" lon="3.16272">
        <ele>350.3603515625</ele>
        <time>2015-11-08T10:38:47.000Z</time>
      </trkpt>
      <trkpt lat="46.16716" lon="3.16255">
        <ele>350.28652954102</ele>
        <time>2015-11-08T10:38:56.000Z</time>
      </trkpt>
      <trkpt lat="46.1672" lon="3.16244">
        <ele>350.19287109375</ele>
        <time>2015-11-08T10:39:04.000Z</time>
      </trkpt>
      <trkpt lat="46.16722" lon="3.16237">
        <ele>350.10177612305</ele>
        <time>2015-11-08T10:39:07.000Z</time>
      </trkpt>
      <trkpt lat="46.16727" lon="3.16225">
        <ele>349.99523925781</ele>
        <time>2015-11-08T10:39:16.000Z</time>
      </trkpt>
      <trkpt lat="46.1673" lon="3.1622">
        <ele>349.88638305664</ele>
        <time>2015-11-08T10:39:19.000Z</time>
      </trkpt>
      <trkpt lat="46.16735" lon="3.16209">
        <ele>349.79092407227</ele>
        <time>2015-11-08T10:39:27.000Z</time>
      </trkpt>
      <trkpt lat="46.16736" lon="3.16206">
        <ele>349.71185302734</ele>
        <time>2015-11-08T10:39:29.000Z</time>
      </trkpt>
      <trkpt lat="46.16738" lon="3.16202">
        <ele>349.63510131836</ele>
        <time>2015-11-08T10:39:30.000Z</time>
      </trkpt>
      <trkpt lat="46.16744" lon="3.1619">
        <ele>349.54382324219</ele>
        <time>2015-11-08T10:39:40.000Z</time>
      </trkpt>
      <trkpt lat="46.16748" lon="3.1618">
        <ele>349.4326171875</ele>
        <time>2015-11-08T10:39:48.000Z</time>
      </trkpt>
      <trkpt lat="46.16754" lon="3.1617">
        <ele>349.33087158203</ele>
        <time>2015-11-08T10:39:56.000Z</time>
      </trkpt>
      <trkpt lat="46.16755" lon="3.16168">
        <ele>349.23532104492</ele>
        <time>2015-11-08T10:39:57.000Z</time>
      </trkpt>
      <trkpt lat="46.16764" lon="3.16148">
        <ele>348.91693115234</ele>
        <time>2015-11-08T10:40:15.000Z</time>
      </trkpt>
      <trkpt lat="46.16767" lon="3.16144">
        <ele>348.58544921875</ele>
        <time>2015-11-08T10:40:18.000Z</time>
      </trkpt>
      <trkpt lat="46.16769" lon="3.16137">
        <ele>348.19619750977</ele>
        <time>2015-11-08T10:40:26.000Z</time>
      </trkpt>
      <trkpt lat="46.16771" lon="3.16134">
        <ele>347.77935791016</ele>
        <time>2015-11-08T10:40:39.000Z</time>
      </trkpt>
      <trkpt lat="46.16771" lon="3.16134">
        <ele>347.77935791016</ele>
        <time>2015-11-08T10:41:00.000Z</time>
      </trkpt>
      <trkpt lat="46.16772" lon="3.16133">
        <ele>347.34909057617</ele>
        <time>2015-11-08T10:41:21.000Z</time>
      </trkpt>
      <trkpt lat="46.16774" lon="3.16128">
        <ele>347.08264160156</ele>
        <time>2015-11-08T10:41:26.000Z</time>
      </trkpt>
      <trkpt lat="46.16777" lon="3.16124">
        <ele>346.79794311523</ele>
        <time>2015-11-08T10:41:33.000Z</time>
      </trkpt>
      <trkpt lat="46.16778" lon="3.16122">
        <ele>346.57525634766</ele>
        <time>2015-11-08T10:41:37.000Z</time>
      </trkpt>
      <trkpt lat="46.16781" lon="3.16115">
        <ele>346.29388427734</ele>
        <time>2015-11-08T10:41:44.000Z</time>
      </trkpt>
      <trkpt lat="46.16787" lon="3.16108">
        <ele>345.90655517578</ele>
        <time>2015-11-08T10:41:54.000Z</time>
      </trkpt>
      <trkpt lat="46.1679" lon="3.16103">
        <ele>345.50424194336</ele>
        <time>2015-11-08T10:41:57.000Z</time>
      </trkpt>
      <trkpt lat="46.16794" lon="3.16094">
        <ele>345.01019287109</ele>
        <time>2015-11-08T10:42:06.000Z</time>
      </trkpt>
      <trkpt lat="46.16796" lon="3.1609">
        <ele>344.46588134766</ele>
        <time>2015-11-08T10:42:09.000Z</time>
      </trkpt>
      <trkpt lat="46.16801" lon="3.16081">
        <ele>343.85211181641</ele>
        <time>2015-11-08T10:42:18.000Z</time>
      </trkpt>
      <trkpt lat="46.16803" lon="3.16079">
        <ele>343.29745483398</ele>
        <time>2015-11-08T10:42:22.000Z</time>
      </trkpt>
      <trkpt lat="46.16803" lon="3.16077">
        <ele>342.78204345703</ele>
        <time>2015-11-08T10:42:23.000Z</time>
      </trkpt>
      <trkpt lat="46.16808" lon="3.1607">
        <ele>342.26690673828</ele>
        <time>2015-11-08T10:42:32.000Z</time>
      </trkpt>
      <trkpt lat="46.16809" lon="3.16071">
        <ele>341.83233642578</ele>
        <time>2015-11-08T10:42:50.000Z</time>
      </trkpt>
      <trkpt lat="46.16811" lon="3.1607">
        <ele>341.55307006836</ele>
        <time>2015-11-08T10:42:56.000Z</time>
      </trkpt>
      <trkpt lat="46.16812" lon="3.16068">
        <ele>341.29626464844</ele>
        <time>2015-11-08T10:43:03.000Z</time>
      </trkpt>
      <trkpt lat="46.16812" lon="3.16068">
        <ele>341.29626464844</ele>
        <time>2015-11-08T10:43:24.000Z</time>
      </trkpt>
      <trkpt lat="46.16813" lon="3.1607">
        <ele>341.10623168945</ele>
        <time>2015-11-08T10:43:54.000Z</time>
      </trkpt>
      <trkpt lat="46.16814" lon="3.1607">
        <ele>341.08749389648</ele>
        <time>2015-11-08T10:43:59.000Z</time>
      </trkpt>
      <trkpt lat="46.1682" lon="3.16067">
        <ele>340.97015380859</ele>
        <time>2015-11-08T10:44:08.000Z</time>
      </trkpt>
      <trkpt lat="46.16822" lon="3.16063">
        <ele>340.79022216797</ele>
        <time>2015-11-08T10:44:14.000Z</time>
      </trkpt>
      <trkpt lat="46.16827" lon="3.16058">
        <ele>340.52648925781</ele>
        <time>2015-11-08T10:44:16.000Z</time>
      </trkpt>
      <trkpt lat="46.16867" lon="3.16021">
        <ele>339.47329711914</ele>
        <time>2015-11-08T10:45:08.000Z</time>
      </trkpt>
      <trkpt lat="46.16883" lon="3.16005">
        <ele>338.13525390625</ele>
        <time>2015-11-08T10:45:19.000Z</time>
      </trkpt>
      <trkpt lat="46.16892" lon="3.15997">
        <ele>336.75274658203</ele>
        <time>2015-11-08T10:45:28.000Z</time>
      </trkpt>
      <trkpt lat="46.16896" lon="3.15992">
        <ele>335.36981201172</ele>
        <time>2015-11-08T10:45:31.000Z</time>
      </trkpt>
      <trkpt lat="46.16899" lon="3.15988">
        <ele>334.03753662109</ele>
        <time>2015-11-08T10:45:40.000Z</time>
      </trkpt>
      <trkpt lat="46.16904" lon="3.15986">
        <ele>333.42779541016</ele>
        <time>2015-11-08T10:45:45.000Z</time>
      </trkpt>
      <trkpt lat="46.1691" lon="3.15981">
        <ele>332.99935913086</ele>
        <time>2015-11-08T10:45:46.000Z</time>
      </trkpt>
      <trkpt lat="46.16916" lon="3.15976">
        <ele>332.60516357422</ele>
        <time>2015-11-08T10:45:53.000Z</time>
      </trkpt>
      <trkpt lat="46.16926" lon="3.1597">
        <ele>332.04144287109</ele>
        <time>2015-11-08T10:46:02.000Z</time>
      </trkpt>
      <trkpt lat="46.16928" lon="3.15968">
        <ele>331.49209594727</ele>
        <time>2015-11-08T10:46:06.000Z</time>
      </trkpt>
      <trkpt lat="46.16935" lon="3.15959">
        <ele>330.75643920898</ele>
        <time>2015-11-08T10:46:17.000Z</time>
      </trkpt>
      <trkpt lat="46.16939" lon="3.15953">
        <ele>329.99002075195</ele>
        <time>2015-11-08T10:46:19.000Z</time>
      </trkpt>
      <trkpt lat="46.16952" lon="3.15948">
        <ele>329.13433837891</ele>
        <time>2015-11-08T10:46:29.000Z</time>
      </trkpt>
      <trkpt lat="46.16957" lon="3.15945">
        <ele>328.45477294922</ele>
        <time>2015-11-08T10:46:33.000Z</time>
      </trkpt>
      <trkpt lat="46.16965" lon="3.15938">
        <ele>327.69891357422</ele>
        <time>2015-11-08T10:46:42.000Z</time>
      </trkpt>
      <trkpt lat="46.16967" lon="3.15936">
        <ele>327.14031982422</ele>
        <time>2015-11-08T10:46:44.000Z</time>
      </trkpt>
      <trkpt lat="46.16969" lon="3.15934">
        <ele>326.67919921875</ele>
        <time>2015-11-08T10:46:45.000Z</time>
      </trkpt>
      <trkpt lat="46.16978" lon="3.15922">
        <ele>326.27587890625</ele>
        <time>2015-11-08T10:46:55.000Z</time>
      </trkpt>
      <trkpt lat="46.16981" lon="3.15918">
        <ele>325.91082763672</ele>
        <time>2015-11-08T10:47:06.000Z</time>
      </trkpt>
      <trkpt lat="46.16987" lon="3.15908">
        <ele>325.63848876953</ele>
        <time>2015-11-08T10:47:13.000Z</time>
      </trkpt>
      <trkpt lat="46.16995" lon="3.15903">
        <ele>325.36636352539</ele>
        <time>2015-11-08T10:47:21.000Z</time>
      </trkpt>
      <trkpt lat="46.17005" lon="3.15897">
        <ele>325.08795166016</ele>
        <time>2015-11-08T10:47:28.000Z</time>
      </trkpt>
      <trkpt lat="46.17023" lon="3.15887">
        <ele>324.9072265625</ele>
        <time>2015-11-08T10:47:38.000Z</time>
      </trkpt>
      <trkpt lat="46.17027" lon="3.15885">
        <ele>324.75329589844</ele>
        <time>2015-11-08T10:47:42.000Z</time>
      </trkpt>
      <trkpt lat="46.17029" lon="3.15884">
        <ele>324.63482666016</ele>
        <time>2015-11-08T10:47:49.000Z</time>
      </trkpt>
      <trkpt lat="46.17046" lon="3.15874">
        <ele>324.49627685547</ele>
        <time>2015-11-08T10:47:58.000Z</time>
      </trkpt>
      <trkpt lat="46.17051" lon="3.1587">
        <ele>324.36859130859</ele>
        <time>2015-11-08T10:48:01.000Z</time>
      </trkpt>
      <trkpt lat="46.17061" lon="3.15862">
        <ele>324.23324584961</ele>
        <time>2015-11-08T10:48:11.000Z</time>
      </trkpt>
      <trkpt lat="46.17064" lon="3.15861">
        <ele>324.09637451172</ele>
        <time>2015-11-08T10:48:21.000Z</time>
      </trkpt>
      <trkpt lat="46.17083" lon="3.15847">
        <ele>323.86837768555</ele>
        <time>2015-11-08T10:48:30.000Z</time>
      </trkpt>
      <trkpt lat="46.17085" lon="3.15845">
        <ele>323.68954467773</ele>
        <time>2015-11-08T10:48:31.000Z</time>
      </trkpt>
      <trkpt lat="46.17088" lon="3.15843">
        <ele>323.53707885742</ele>
        <time>2015-11-08T10:48:40.000Z</time>
      </trkpt>
      <trkpt lat="46.17093" lon="3.15841">
        <ele>323.44412231445</ele>
        <time>2015-11-08T10:48:41.000Z</time>
      </trkpt>
      <trkpt lat="46.17102" lon="3.15837">
        <ele>323.38940429688</ele>
        <time>2015-11-08T10:48:48.000Z</time>
      </trkpt>
      <trkpt lat="46.17109" lon="3.15835">
        <ele>323.45043945312</ele>
        <time>2015-11-08T10:48:51.000Z</time>
      </trkpt>
      <trkpt lat="46.17111" lon="3.15833">
        <ele>323.52114868164</ele>
        <time>2015-11-08T10:48:56.000Z</time>
      </trkpt>
      <trkpt lat="46.17116" lon="3.15831">
        <ele>323.61401367188</ele>
        <time>2015-11-08T10:48:57.000Z</time>
      </trkpt>
      <trkpt lat="46.17129" lon="3.15823">
        <ele>323.76315307617</ele>
        <time>2015-11-08T10:49:08.000Z</time>
      </trkpt>
      <trkpt lat="46.17133" lon="3.1582">
        <ele>323.90356445312</ele>
        <time>2015-11-08T10:49:12.000Z</time>
      </trkpt>
      <trkpt lat="46.17138" lon="3.15814">
        <ele>324.05523681641</ele>
        <time>2015-11-08T10:49:20.000Z</time>
      </trkpt>
      <trkpt lat="46.17142" lon="3.15811">
        <ele>324.21868896484</ele>
        <time>2015-11-08T10:49:22.000Z</time>
      </trkpt>
      <trkpt lat="46.17147" lon="3.15807">
        <ele>324.37854003906</ele>
        <time>2015-11-08T10:49:32.000Z</time>
      </trkpt>
      <trkpt lat="46.17157" lon="3.15801">
        <ele>324.51068115234</ele>
        <time>2015-11-08T10:49:33.000Z</time>
      </trkpt>
      <trkpt lat="46.17162" lon="3.15796">
        <ele>324.64205932617</ele>
        <time>2015-11-08T10:49:39.000Z</time>
      </trkpt>
      <trkpt lat="46.17167" lon="3.15789">
        <ele>324.76455688477</ele>
        <time>2015-11-08T10:49:45.000Z</time>
      </trkpt>
      <trkpt lat="46.17176" lon="3.15781">
        <ele>324.91046142578</ele>
        <time>2015-11-08T10:49:54.000Z</time>
      </trkpt>
      <trkpt lat="46.17178" lon="3.15779">
        <ele>325.04205322266</ele>
        <time>2015-11-08T10:49:55.000Z</time>
      </trkpt>
      <trkpt lat="46.1718" lon="3.15777">
        <ele>325.14434814453</ele>
        <time>2015-11-08T10:50:03.000Z</time>
      </trkpt>
      <trkpt lat="46.17187" lon="3.15774">
        <ele>325.259765625</ele>
        <time>2015-11-08T10:50:08.000Z</time>
      </trkpt>
      <trkpt lat="46.17192" lon="3.15771">
        <ele>325.380859375</ele>
        <time>2015-11-08T10:50:09.000Z</time>
      </trkpt>
      <trkpt lat="46.17198" lon="3.15769">
        <ele>325.48828125</ele>
        <time>2015-11-08T10:50:15.000Z</time>
      </trkpt>
      <trkpt lat="46.17206" lon="3.15763">
        <ele>325.625</ele>
        <time>2015-11-08T10:50:23.000Z</time>
      </trkpt>
      <trkpt lat="46.17213" lon="3.15757">
        <ele>325.78125</ele>
        <time>2015-11-08T10:50:29.000Z</time>
      </trkpt>
      <trkpt lat="46.17216" lon="3.15753">
        <ele>325.919921875</ele>
        <time>2015-11-08T10:50:32.000Z</time>
      </trkpt>
      <trkpt lat="46.17218" lon="3.15752">
        <ele>326.041015625</ele>
        <time>2015-11-08T10:50:36.000Z</time>
      </trkpt>
      <trkpt lat="46.17238" lon="3.15735">
        <ele>326.28942871094</ele>
        <time>2015-11-08T10:51:20.000Z</time>
      </trkpt>
      <trkpt lat="46.17271" lon="3.15713">
        <ele>326.94763183594</ele>
        <time>2015-11-08T10:51:29.000Z</time>
      </trkpt>
      <trkpt lat="46.17278" lon="3.15706">
        <ele>327.70443725586</ele>
        <time>2015-11-08T10:51:36.000Z</time>
      </trkpt>
      <trkpt lat="46.17287" lon="3.15699">
        <ele>328.60882568359</ele>
        <time>2015-11-08T10:51:45.000Z</time>
      </trkpt>
      <trkpt lat="46.1729" lon="3.15695">
        <ele>329.56704711914</ele>
        <time>2015-11-08T10:51:48.000Z</time>
      </trkpt>
      <trkpt lat="46.17293" lon="3.15693">
        <ele>330.42770385742</ele>
        <time>2015-11-08T10:51:50.000Z</time>
      </trkpt>
      <trkpt lat="46.17301" lon="3.15685">
        <ele>330.99468994141</ele>
        <time>2015-11-08T10:52:00.000Z</time>
      </trkpt>
      <trkpt lat="46.17305" lon="3.15681">
        <ele>331.51519775391</ele>
        <time>2015-11-08T10:52:03.000Z</time>
      </trkpt>
      <trkpt lat="46.17312" lon="3.15672">
        <ele>332.03765869141</ele>
        <time>2015-11-08T10:52:13.000Z</time>
      </trkpt>
      <trkpt lat="46.17318" lon="3.15671">
        <ele>332.58270263672</ele>
        <time>2015-11-08T10:52:21.000Z</time>
      </trkpt>
      <trkpt lat="46.17319" lon="3.15671">
        <ele>333.08990478516</ele>
        <time>2015-11-08T10:52:29.000Z</time>
      </trkpt>
      <trkpt lat="46.17319" lon="3.1567">
        <ele>333.45108032227</ele>
        <time>2015-11-08T10:52:43.000Z</time>
      </trkpt>
      <trkpt lat="46.17318" lon="3.1566">
        <ele>333.75894165039</ele>
        <time>2015-11-08T10:52:51.000Z</time>
      </trkpt>
      <trkpt lat="46.17314" lon="3.15652">
        <ele>333.87313842773</ele>
        <time>2015-11-08T10:52:58.000Z</time>
      </trkpt>
      <trkpt lat="46.1731" lon="3.15645">
        <ele>333.87030029297</ele>
        <time>2015-11-08T10:53:06.000Z</time>
      </trkpt>
      <trkpt lat="46.17309" lon="3.15644">
        <ele>333.83410644531</ele>
        <time>2015-11-08T10:53:07.000Z</time>
      </trkpt>
      <trkpt lat="46.17307" lon="3.15641">
        <ele>333.75942993164</ele>
        <time>2015-11-08T10:53:09.000Z</time>
      </trkpt>
      <trkpt lat="46.17301" lon="3.15632">
        <ele>333.58184814453</ele>
        <time>2015-11-08T10:53:17.000Z</time>
      </trkpt>
      <trkpt lat="46.17296" lon="3.15625">
        <ele>333.38189697266</ele>
        <time>2015-11-08T10:53:25.000Z</time>
      </trkpt>
      <trkpt lat="46.17292" lon="3.1562">
        <ele>333.16400146484</ele>
        <time>2015-11-08T10:53:29.000Z</time>
      </trkpt>
      <trkpt lat="46.17284" lon="3.15613">
        <ele>332.82659912109</ele>
        <time>2015-11-08T10:53:38.000Z</time>
      </trkpt>
      <trkpt lat="46.17283" lon="3.15612">
        <ele>332.49905395508</ele>
        <time>2015-11-08T10:53:39.000Z</time>
      </trkpt>
      <trkpt lat="46.1728" lon="3.1561">
        <ele>332.20541381836</ele>
        <time>2015-11-08T10:53:48.000Z</time>
      </trkpt>
      <trkpt lat="46.1727" lon="3.15595">
        <ele>331.79473876953</ele>
        <time>2015-11-08T10:53:56.000Z</time>
      </trkpt>
      <trkpt lat="46.17266" lon="3.15588">
        <ele>331.3708190918</ele>
        <time>2015-11-08T10:53:59.000Z</time>
      </trkpt>
      <trkpt lat="46.17257" lon="3.15574">
        <ele>330.90551757812</ele>
        <time>2015-11-08T10:54:08.000Z</time>
      </trkpt>
      <trkpt lat="46.17251" lon="3.15564">
        <ele>330.3503112793</ele>
        <time>2015-11-08T10:54:18.000Z</time>
      </trkpt>
      <trkpt lat="46.17248" lon="3.1556">
        <ele>329.79406738281</ele>
        <time>2015-11-08T10:54:19.000Z</time>
      </trkpt>
      <trkpt lat="46.17246" lon="3.15557">
        <ele>329.38491821289</ele>
        <time>2015-11-08T10:54:22.000Z</time>
      </trkpt>
      <trkpt lat="46.17238" lon="3.15548">
        <ele>328.95391845703</ele>
        <time>2015-11-08T10:54:29.000Z</time>
      </trkpt>
      <trkpt lat="46.1723" lon="3.1554">
        <ele>328.60897827148</ele>
        <time>2015-11-08T10:54:37.000Z</time>
      </trkpt>
      <trkpt lat="46.17224" lon="3.15526">
        <ele>328.32211303711</ele>
        <time>2015-11-08T10:54:46.000Z</time>
      </trkpt>
      <trkpt lat="46.17219" lon="3.15518">
        <ele>328.03231811523</ele>
        <time>2015-11-08T10:54:53.000Z</time>
      </trkpt>
      <trkpt lat="46.17213" lon="3.15512">
        <ele>327.70562744141</ele>
        <time>2015-11-08T10:55:00.000Z</time>
      </trkpt>
      <trkpt lat="46.17205" lon="3.15505">
        <ele>327.39471435547</ele>
        <time>2015-11-08T10:55:07.000Z</time>
      </trkpt>
      <trkpt lat="46.17199" lon="3.15501">
        <ele>327.11996459961</ele>
        <time>2015-11-08T10:55:14.000Z</time>
      </trkpt>
      <trkpt lat="46.17193" lon="3.15493">
        <ele>326.83746337891</ele>
        <time>2015-11-08T10:55:23.000Z</time>
      </trkpt>
      <trkpt lat="46.17194" lon="3.15491">
        <ele>326.60757446289</ele>
        <time>2015-11-08T10:55:26.000Z</time>
      </trkpt>
      <trkpt lat="46.17194" lon="3.15491">
        <ele>326.60757446289</ele>
        <time>2015-11-08T10:55:46.000Z</time>
      </trkpt>
      <trkpt lat="46.17197" lon="3.15489">
        <ele>326.45498657227</ele>
        <time>2015-11-08T10:55:57.000Z</time>
      </trkpt>
      <trkpt lat="46.17199" lon="3.15489">
        <ele>326.39245605469</ele>
        <time>2015-11-08T10:56:02.000Z</time>
      </trkpt>
      <trkpt lat="46.172" lon="3.15488">
        <ele>326.39721679688</ele>
        <time>2015-11-08T10:56:13.000Z</time>
      </trkpt>
      <trkpt lat="46.17208" lon="3.15485">
        <ele>326.5251159668</ele>
        <time>2015-11-08T10:56:23.000Z</time>
      </trkpt>
      <trkpt lat="46.17212" lon="3.15484">
        <ele>326.67611694336</ele>
        <time>2015-11-08T10:56:26.000Z</time>
      </trkpt>
      <trkpt lat="46.17215" lon="3.15484">
        <ele>326.83944702148</ele>
        <time>2015-11-08T10:56:28.000Z</time>
      </trkpt>
      <trkpt lat="46.17223" lon="3.15486">
        <ele>327.06137084961</ele>
        <time>2015-11-08T10:56:36.000Z</time>
      </trkpt>
      <trkpt lat="46.17231" lon="3.15486">
        <ele>327.33966064453</ele>
        <time>2015-11-08T10:56:45.000Z</time>
      </trkpt>
      <trkpt lat="46.17234" lon="3.15486">
        <ele>327.58001708984</ele>
        <time>2015-11-08T10:56:48.000Z</time>
      </trkpt>
      <trkpt lat="46.17236" lon="3.15486">
        <ele>327.80682373047</ele>
        <time>2015-11-08T10:56:49.000Z</time>
      </trkpt>
      <trkpt lat="46.17246" lon="3.15486">
        <ele>328.09283447266</ele>
        <time>2015-11-08T10:56:57.000Z</time>
      </trkpt>
      <trkpt lat="46.17253" lon="3.15485">
        <ele>328.40118408203</ele>
        <time>2015-11-08T10:57:05.000Z</time>
      </trkpt>
      <trkpt lat="46.17258" lon="3.15485">
        <ele>328.72982788086</ele>
        <time>2015-11-08T10:57:10.000Z</time>
      </trkpt>
      <trkpt lat="46.1726" lon="3.15485">
        <ele>329.05572509766</ele>
        <time>2015-11-08T10:57:23.000Z</time>
      </trkpt>
      <trkpt lat="46.17268" lon="3.15485">
        <ele>329.52270507812</ele>
        <time>2015-11-08T10:57:30.000Z</time>
      </trkpt>
      <trkpt lat="46.17272" lon="3.15485">
        <ele>329.97485351562</ele>
        <time>2015-11-08T10:57:34.000Z</time>
      </trkpt>
      <trkpt lat="46.17281" lon="3.15481">
        <ele>330.48626708984</ele>
        <time>2015-11-08T10:57:40.000Z</time>
      </trkpt>
      <trkpt lat="46.17286" lon="3.15478">
        <ele>330.97503662109</ele>
        <time>2015-11-08T10:57:47.000Z</time>
      </trkpt>
      <trkpt lat="46.17297" lon="3.15473">
        <ele>331.62405395508</ele>
        <time>2015-11-08T10:57:58.000Z</time>
      </trkpt>
      <trkpt lat="46.17301" lon="3.15471">
        <ele>332.17944335938</ele>
        <time>2015-11-08T10:58:02.000Z</time>
      </trkpt>
      <trkpt lat="46.17303" lon="3.1547">
        <ele>332.70892333984</ele>
        <time>2015-11-08T10:58:03.000Z</time>
      </trkpt>
      <trkpt lat="46.17311" lon="3.15467">
        <ele>333.21380615234</ele>
        <time>2015-11-08T10:58:11.000Z</time>
      </trkpt>
      <trkpt lat="46.17319" lon="3.15462">
        <ele>333.75341796875</ele>
        <time>2015-11-08T10:58:20.000Z</time>
      </trkpt>
      <trkpt lat="46.1732" lon="3.1546">
        <ele>334.13272094727</ele>
        <time>2015-11-08T10:58:22.000Z</time>
      </trkpt>
      <trkpt lat="46.17324" lon="3.15457">
        <ele>334.50927734375</ele>
        <time>2015-11-08T10:58:31.000Z</time>
      </trkpt>
      <trkpt lat="46.17333" lon="3.15453">
        <ele>334.96347045898</ele>
        <time>2015-11-08T10:58:38.000Z</time>
      </trkpt>
      <trkpt lat="46.1734" lon="3.15451">
        <ele>335.41592407227</ele>
        <time>2015-11-08T10:58:45.000Z</time>
      </trkpt>
      <trkpt lat="46.17356" lon="3.15446">
        <ele>336.02862548828</ele>
        <time>2015-11-08T10:58:54.000Z</time>
      </trkpt>
      <trkpt lat="46.17359" lon="3.15446">
        <ele>336.66793823242</ele>
        <time>2015-11-08T10:58:55.000Z</time>
      </trkpt>
      <trkpt lat="46.17362" lon="3.15446">
        <ele>337.29443359375</ele>
        <time>2015-11-08T10:58:57.000Z</time>
      </trkpt>
      <trkpt lat="46.17371" lon="3.15442">
        <ele>337.9430847168</ele>
        <time>2015-11-08T10:59:06.000Z</time>
      </trkpt>
      <trkpt lat="46.17372" lon="3.15441">
        <ele>338.46221923828</ele>
        <time>2015-11-08T10:59:07.000Z</time>
      </trkpt>
      <trkpt lat="46.17374" lon="3.1544">
        <ele>338.75042724609</ele>
        <time>2015-11-08T10:59:09.000Z</time>
      </trkpt>
      <trkpt lat="46.17383" lon="3.15436">
        <ele>339.12118530273</ele>
        <time>2015-11-08T10:59:19.000Z</time>
      </trkpt>
      <trkpt lat="46.17388" lon="3.15435">
        <ele>339.51889038086</ele>
        <time>2015-11-08T10:59:21.000Z</time>
      </trkpt>
      <trkpt lat="46.17396" lon="3.15432">
        <ele>339.89096069336</ele>
        <time>2015-11-08T10:59:31.000Z</time>
      </trkpt>
      <trkpt lat="46.17401" lon="3.15432">
        <ele>340.34771728516</ele>
        <time>2015-11-08T10:59:35.000Z</time>
      </trkpt>
      <trkpt lat="46.17409" lon="3.15429">
        <ele>340.88702392578</ele>
        <time>2015-11-08T10:59:44.000Z</time>
      </trkpt>
      <trkpt lat="46.17414" lon="3.15428">
        <ele>341.36221313477</ele>
        <time>2015-11-08T10:59:46.000Z</time>
      </trkpt>
      <trkpt lat="46.17416" lon="3.15427">
        <ele>341.78759765625</ele>
        <time>2015-11-08T10:59:52.000Z</time>
      </trkpt>
      <trkpt lat="46.17427" lon="3.15424">
        <ele>342.28750610352</ele>
        <time>2015-11-08T11:00:00.000Z</time>
      </trkpt>
      <trkpt lat="46.17434" lon="3.15422">
        <ele>342.84429931641</ele>
        <time>2015-11-08T11:00:06.000Z</time>
      </trkpt>
      <trkpt lat="46.17442" lon="3.15423">
        <ele>343.45227050781</ele>
        <time>2015-11-08T11:00:13.000Z</time>
      </trkpt>
      <trkpt lat="46.17447" lon="3.15421">
        <ele>344.07431030273</ele>
        <time>2015-11-08T11:00:16.000Z</time>
      </trkpt>
      <trkpt lat="46.17449" lon="3.1542">
        <ele>344.70120239258</ele>
        <time>2015-11-08T11:00:24.000Z</time>
      </trkpt>
      <trkpt lat="46.17454" lon="3.15418">
        <ele>345.22744750977</ele>
        <time>2015-11-08T11:00:30.000Z</time>
      </trkpt>
      <trkpt lat="46.17461" lon="3.15416">
        <ele>345.75961303711</ele>
        <time>2015-11-08T11:00:31.000Z</time>
      </trkpt>
      <trkpt lat="46.17468" lon="3.15414">
        <ele>346.26327514648</ele>
        <time>2015-11-08T11:00:38.000Z</time>
      </trkpt>
      <trkpt lat="46.17471" lon="3.15412">
        <ele>346.76123046875</ele>
        <time>2015-11-08T11:00:40.000Z</time>
      </trkpt>
      <trkpt lat="46.17473" lon="3.15411">
        <ele>347.25961303711</ele>
        <time>2015-11-08T11:00:49.000Z</time>
      </trkpt>
      <trkpt lat="46.17481" lon="3.1541">
        <ele>347.82995605469</ele>
        <time>2015-11-08T11:00:50.000Z</time>
      </trkpt>
      <trkpt lat="46.17489" lon="3.15406">
        <ele>348.43243408203</ele>
        <time>2015-11-08T11:00:59.000Z</time>
      </trkpt>
      <trkpt lat="46.17496" lon="3.15403">
        <ele>349.04095458984</ele>
        <time>2015-11-08T11:01:06.000Z</time>
      </trkpt>
      <trkpt lat="46.17504" lon="3.15402">
        <ele>349.73129272461</ele>
        <time>2015-11-08T11:01:12.000Z</time>
      </trkpt>
      <trkpt lat="46.17512" lon="3.154">
        <ele>350.51815795898</ele>
        <time>2015-11-08T11:01:21.000Z</time>
      </trkpt>
      <trkpt lat="46.17514" lon="3.154">
        <ele>351.17193603516</ele>
        <time>2015-11-08T11:01:22.000Z</time>
      </trkpt>
      <trkpt lat="46.17516" lon="3.15399">
        <ele>351.67660522461</ele>
        <time>2015-11-08T11:01:25.000Z</time>
      </trkpt>
      <trkpt lat="46.17522" lon="3.15397">
        <ele>352.14575195312</ele>
        <time>2015-11-08T11:01:33.000Z</time>
      </trkpt>
      <trkpt lat="46.17524" lon="3.15396">
        <ele>352.50137329102</ele>
        <time>2015-11-08T11:01:33.000Z</time>
      </trkpt>
      <trkpt lat="46.17526" lon="3.15395">
        <ele>352.76181030273</ele>
        <time>2015-11-08T11:01:43.000Z</time>
      </trkpt>
      <trkpt lat="46.17531" lon="3.15393">
        <ele>353.08569335938</ele>
        <time>2015-11-08T11:01:51.000Z</time>
      </trkpt>
      <trkpt lat="46.17536" lon="3.15395">
        <ele>353.45257568359</ele>
        <time>2015-11-08T11:01:52.000Z</time>
      </trkpt>
      <trkpt lat="46.17536" lon="3.15395">
        <ele>353.45257568359</ele>
        <time>2015-11-08T11:02:12.000Z</time>
      </trkpt>
      <trkpt lat="46.17538" lon="3.15397">
        <ele>353.73455810547</ele>
        <time>2015-11-08T11:03:09.000Z</time>
      </trkpt>
      <trkpt lat="46.17538" lon="3.15397">
        <ele>353.73455810547</ele>
        <time>2015-11-08T11:03:29.000Z</time>
      </trkpt>
      <trkpt lat="46.1754" lon="3.15398">
        <ele>353.9905090332</ele>
        <time>2015-11-08T11:03:38.000Z</time>
      </trkpt>
      <trkpt lat="46.17542" lon="3.15403">
        <ele>354.21881103516</ele>
        <time>2015-11-08T11:03:42.000Z</time>
      </trkpt>
      <trkpt lat="46.17548" lon="3.15412">
        <ele>354.38467407227</ele>
        <time>2015-11-08T11:03:49.000Z</time>
      </trkpt>
      <trkpt lat="46.17554" lon="3.15417">
        <ele>354.53265380859</ele>
        <time>2015-11-08T11:03:56.000Z</time>
      </trkpt>
      <trkpt lat="46.1756" lon="3.15423">
        <ele>354.7177734375</ele>
        <time>2015-11-08T11:04:03.000Z</time>
      </trkpt>
      <trkpt lat="46.17566" lon="3.15429">
        <ele>354.94891357422</ele>
        <time>2015-11-08T11:04:09.000Z</time>
      </trkpt>
      <trkpt lat="46.17567" lon="3.1543">
        <ele>355.19097900391</ele>
        <time>2015-11-08T11:04:19.000Z</time>
      </trkpt>
      <trkpt lat="46.17571" lon="3.15433">
        <ele>355.4270324707</ele>
        <time>2015-11-08T11:04:23.000Z</time>
      </trkpt>
      <trkpt lat="46.1758" lon="3.1544">
        <ele>355.68734741211</ele>
        <time>2015-11-08T11:04:30.000Z</time>
      </trkpt>
      <trkpt lat="46.17588" lon="3.15448">
        <ele>355.98651123047</ele>
        <time>2015-11-08T11:04:38.000Z</time>
      </trkpt>
      <trkpt lat="46.17596" lon="3.15457">
        <ele>356.33831787109</ele>
        <time>2015-11-08T11:04:50.000Z</time>
      </trkpt>
      <trkpt lat="46.17609" lon="3.15469">
        <ele>356.81466674805</ele>
        <time>2015-11-08T11:05:02.000Z</time>
      </trkpt>
      <trkpt lat="46.17616" lon="3.15474">
        <ele>357.34008789062</ele>
        <time>2015-11-08T11:05:09.000Z</time>
      </trkpt>
      <trkpt lat="46.17619" lon="3.15477">
        <ele>357.81341552734</ele>
        <time>2015-11-08T11:05:12.000Z</time>
      </trkpt>
      <trkpt lat="46.1762" lon="3.15478">
        <ele>358.20620727539</ele>
        <time>2015-11-08T11:05:14.000Z</time>
      </trkpt>
      <trkpt lat="46.1762" lon="3.15478">
        <ele>358.20620727539</ele>
        <time>2015-11-08T11:05:55.000Z</time>
      </trkpt>
      <trkpt lat="46.17656" lon="3.155">
        <ele>358.78219604492</ele>
        <time>2015-11-08T11:06:30.000Z</time>
      </trkpt>
      <trkpt lat="46.17709" lon="3.15534">
        <ele>360.07257080078</ele>
        <time>2015-11-08T11:06:43.000Z</time>
      </trkpt>
      <trkpt lat="46.17717" lon="3.15539">
        <ele>361.39996337891</ele>
        <time>2015-11-08T11:06:51.000Z</time>
      </trkpt>
      <trkpt lat="46.17724" lon="3.15543">
        <ele>362.80865478516</ele>
        <time>2015-11-08T11:06:57.000Z</time>
      </trkpt>
      <trkpt lat="46.17731" lon="3.15549">
        <ele>364.29263305664</ele>
        <time>2015-11-08T11:07:05.000Z</time>
      </trkpt>
      <trkpt lat="46.17736" lon="3.15552">
        <ele>365.53173828125</ele>
        <time>2015-11-08T11:07:08.000Z</time>
      </trkpt>
      <trkpt lat="46.17741" lon="3.15555">
        <ele>365.97778320312</ele>
        <time>2015-11-08T11:07:18.000Z</time>
      </trkpt>
      <trkpt lat="46.17755" lon="3.15565">
        <ele>366.5319519043</ele>
        <time>2015-11-08T11:07:25.000Z</time>
      </trkpt>
      <trkpt lat="46.17763" lon="3.15571">
        <ele>367.16152954102</ele>
        <time>2015-11-08T11:07:33.000Z</time>
      </trkpt>
      <trkpt lat="46.17771" lon="3.15577">
        <ele>367.85467529297</ele>
        <time>2015-11-08T11:07:40.000Z</time>
      </trkpt>
      <trkpt lat="46.17773" lon="3.15579">
        <ele>368.55810546875</ele>
        <time>2015-11-08T11:07:43.000Z</time>
      </trkpt>
      <trkpt lat="46.17777" lon="3.15581">
        <ele>369.27593994141</ele>
        <time>2015-11-08T11:07:52.000Z</time>
      </trkpt>
      <trkpt lat="46.17789" lon="3.15592">
        <ele>370.09478759766</ele>
        <time>2015-11-08T11:07:59.000Z</time>
      </trkpt>
      <trkpt lat="46.17791" lon="3.15594">
        <ele>370.78839111328</ele>
        <time>2015-11-08T11:08:02.000Z</time>
      </trkpt>
      <trkpt lat="46.17793" lon="3.15595">
        <ele>371.37084960938</ele>
        <time>2015-11-08T11:08:10.000Z</time>
      </trkpt>
      <trkpt lat="46.17803" lon="3.15604">
        <ele>372.15277099609</ele>
        <time>2015-11-08T11:08:17.000Z</time>
      </trkpt>
      <trkpt lat="46.17809" lon="3.15612">
        <ele>373.01019287109</ele>
        <time>2015-11-08T11:08:24.000Z</time>
      </trkpt>
      <trkpt lat="46.17815" lon="3.1562">
        <ele>373.70693969727</ele>
        <time>2015-11-08T11:08:25.000Z</time>
      </trkpt>
      <trkpt lat="46.1782" lon="3.15627">
        <ele>374.45614624023</ele>
        <time>2015-11-08T11:08:32.000Z</time>
      </trkpt>
      <trkpt lat="46.17823" lon="3.1563">
        <ele>375.24328613281</ele>
        <time>2015-11-08T11:08:34.000Z</time>
      </trkpt>
      <trkpt lat="46.17825" lon="3.15632">
        <ele>375.81500244141</ele>
        <time>2015-11-08T11:08:36.000Z</time>
      </trkpt>
      <trkpt lat="46.17834" lon="3.15641">
        <ele>376.42852783203</ele>
        <time>2015-11-08T11:08:44.000Z</time>
      </trkpt>
      <trkpt lat="46.17839" lon="3.15648">
        <ele>376.97418212891</ele>
        <time>2015-11-08T11:08:50.000Z</time>
      </trkpt>
      <trkpt lat="46.17845" lon="3.15654">
        <ele>377.5319519043</ele>
        <time>2015-11-08T11:08:55.000Z</time>
      </trkpt>
      <trkpt lat="46.17852" lon="3.15663">
        <ele>378.14947509766</ele>
        <time>2015-11-08T11:09:04.000Z</time>
      </trkpt>
      <trkpt lat="46.17857" lon="3.15668">
        <ele>378.83047485352</ele>
        <time>2015-11-08T11:09:08.000Z</time>
      </trkpt>
      <trkpt lat="46.17864" lon="3.15674">
        <ele>379.48281860352</ele>
        <time>2015-11-08T11:09:16.000Z</time>
      </trkpt>
      <trkpt lat="46.17871" lon="3.15681">
        <ele>380.18603515625</ele>
        <time>2015-11-08T11:09:24.000Z</time>
      </trkpt>
      <trkpt lat="46.17875" lon="3.15683">
        <ele>380.83325195312</ele>
        <time>2015-11-08T11:09:26.000Z</time>
      </trkpt>
      <trkpt lat="46.17877" lon="3.15686">
        <ele>381.39727783203</ele>
        <time>2015-11-08T11:09:36.000Z</time>
      </trkpt>
      <trkpt lat="46.17885" lon="3.15692">
        <ele>382.01620483398</ele>
        <time>2015-11-08T11:09:42.000Z</time>
      </trkpt>
      <trkpt lat="46.17894" lon="3.15699">
        <ele>382.6408996582</ele>
        <time>2015-11-08T11:09:52.000Z</time>
      </trkpt>
      <trkpt lat="46.17903" lon="3.15704">
        <ele>383.30642700195</ele>
        <time>2015-11-08T11:09:53.000Z</time>
      </trkpt>
      <trkpt lat="46.17912" lon="3.15711">
        <ele>384.07275390625</ele>
        <time>2015-11-08T11:10:02.000Z</time>
      </trkpt>
      <trkpt lat="46.1792" lon="3.15717">
        <ele>384.93008422852</ele>
        <time>2015-11-08T11:10:10.000Z</time>
      </trkpt>
      <trkpt lat="46.17926" lon="3.15722">
        <ele>385.76251220703</ele>
        <time>2015-11-08T11:10:18.000Z</time>
      </trkpt>
      <trkpt lat="46.17931" lon="3.15725">
        <ele>386.54067993164</ele>
        <time>2015-11-08T11:10:21.000Z</time>
      </trkpt>
      <trkpt lat="46.17932" lon="3.15727">
        <ele>387.16604614258</ele>
        <time>2015-11-08T11:10:28.000Z</time>
      </trkpt>
      <trkpt lat="46.1794" lon="3.15733">
        <ele>387.80065917969</ele>
        <time>2015-11-08T11:10:29.000Z</time>
      </trkpt>
      <trkpt lat="46.17953" lon="3.15744">
        <ele>388.58227539062</ele>
        <time>2015-11-08T11:10:41.000Z</time>
      </trkpt>
      <trkpt lat="46.17954" lon="3.15745">
        <ele>389.23477172852</ele>
        <time>2015-11-08T11:10:47.000Z</time>
      </trkpt>
      <trkpt lat="46.17963" lon="3.15755">
        <ele>389.91448974609</ele>
        <time>2015-11-08T11:10:53.000Z</time>
      </trkpt>
      <trkpt lat="46.17973" lon="3.15766">
        <ele>390.66165161133</ele>
        <time>2015-11-08T11:11:03.000Z</time>
      </trkpt>
      <trkpt lat="46.17975" lon="3.15769">
        <ele>391.25512695312</ele>
        <time>2015-11-08T11:11:06.000Z</time>
      </trkpt>
      <trkpt lat="46.17984" lon="3.1578">
        <ele>391.6457824707</ele>
        <time>2015-11-08T11:11:16.000Z</time>
      </trkpt>
      <trkpt lat="46.17986" lon="3.15782">
        <ele>392.03094482422</ele>
        <time>2015-11-08T11:11:17.000Z</time>
      </trkpt>
      <trkpt lat="46.17989" lon="3.15786">
        <ele>392.32769775391</ele>
        <time>2015-11-08T11:11:26.000Z</time>
      </trkpt>
      <trkpt lat="46.17996" lon="3.15795">
        <ele>392.59240722656</ele>
        <time>2015-11-08T11:11:33.000Z</time>
      </trkpt>
      <trkpt lat="46.18003" lon="3.15801">
        <ele>392.92840576172</ele>
        <time>2015-11-08T11:11:34.000Z</time>
      </trkpt>
      <trkpt lat="46.1801" lon="3.15808">
        <ele>393.28509521484</ele>
        <time>2015-11-08T11:11:41.000Z</time>
      </trkpt>
      <trkpt lat="46.18015" lon="3.15813">
        <ele>393.69696044922</ele>
        <time>2015-11-08T11:11:45.000Z</time>
      </trkpt>
      <trkpt lat="46.18037" lon="3.15848">
        <ele>394.27215576172</ele>
        <time>2015-11-08T11:12:17.000Z</time>
      </trkpt>
      <trkpt lat="46.18057" lon="3.15881">
        <ele>394.94616699219</ele>
        <time>2015-11-08T11:12:42.000Z</time>
      </trkpt>
      <trkpt lat="46.18061" lon="3.1589">
        <ele>395.49920654297</ele>
        <time>2015-11-08T11:12:49.000Z</time>
      </trkpt>
      <trkpt lat="46.18069" lon="3.15901">
        <ele>396.01507568359</ele>
        <time>2015-11-08T11:12:55.000Z</time>
      </trkpt>
      <trkpt lat="46.18076" lon="3.15912">
        <ele>396.54187011719</ele>
        <time>2015-11-08T11:13:05.000Z</time>
      </trkpt>
      <trkpt lat="46.18081" lon="3.15922">
        <ele>396.88076782227</ele>
        <time>2015-11-08T11:13:12.000Z</time>
      </trkpt>
      <trkpt lat="46.18086" lon="3.15934">
        <ele>397.07586669922</ele>
        <time>2015-11-08T11:13:21.000Z</time>
      </trkpt>
      <trkpt lat="46.18088" lon="3.15937">
        <ele>397.30355834961</ele>
        <time>2015-11-08T11:13:23.000Z</time>
      </trkpt>
      <trkpt lat="46.18091" lon="3.15941">
        <ele>397.49298095703</ele>
        <time>2015-11-08T11:13:30.000Z</time>
      </trkpt>
      <trkpt lat="46.18097" lon="3.15949">
        <ele>397.68463134766</ele>
        <time>2015-11-08T11:13:36.000Z</time>
      </trkpt>
      <trkpt lat="46.18103" lon="3.15955">
        <ele>397.95672607422</ele>
        <time>2015-11-08T11:13:36.000Z</time>
      </trkpt>
      <trkpt lat="46.1811" lon="3.15965">
        <ele>398.29992675781</ele>
        <time>2015-11-08T11:13:47.000Z</time>
      </trkpt>
      <trkpt lat="46.18111" lon="3.15969">
        <ele>398.63363647461</ele>
        <time>2015-11-08T11:13:49.000Z</time>
      </trkpt>
      <trkpt lat="46.18112" lon="3.15972">
        <ele>398.92828369141</ele>
        <time>2015-11-08T11:13:50.000Z</time>
      </trkpt>
      <trkpt lat="46.18116" lon="3.1598">
        <ele>399.17694091797</ele>
        <time>2015-11-08T11:13:59.000Z</time>
      </trkpt>
      <trkpt lat="46.18116" lon="3.1598">
        <ele>399.17694091797</ele>
        <time>2015-11-08T11:14:19.000Z</time>
      </trkpt>
      <trkpt lat="46.18116" lon="3.15982">
        <ele>399.31280517578</ele>
        <time>2015-11-08T11:14:56.000Z</time>
      </trkpt>
      <trkpt lat="46.18117" lon="3.15983">
        <ele>399.37405395508</ele>
        <time>2015-11-08T11:14:58.000Z</time>
      </trkpt>
      <trkpt lat="46.18117" lon="3.15982">
        <ele>399.42926025391</ele>
        <time>2015-11-08T11:15:18.000Z</time>
      </trkpt>
      <trkpt lat="46.18116" lon="3.15982">
        <ele>399.46264648438</ele>
        <time>2015-11-08T11:15:28.000Z</time>
      </trkpt>
      <trkpt lat="46.18117" lon="3.15982">
        <ele>399.49151611328</ele>
        <time>2015-11-08T11:15:38.000Z</time>
      </trkpt>
      <trkpt lat="46.18118" lon="3.15984">
        <ele>399.52844238281</ele>
        <time>2015-11-08T11:15:46.000Z</time>
      </trkpt>
      <trkpt lat="46.18119" lon="3.15984">
        <ele>399.56585693359</ele>
        <time>2015-11-08T11:16:05.000Z</time>
      </trkpt>
      <trkpt lat="46.18126" lon="3.15984">
        <ele>399.78955078125</ele>
        <time>2015-11-08T11:16:22.000Z</time>
      </trkpt>
      <trkpt lat="46.18127" lon="3.15983">
        <ele>400.08544921875</ele>
        <time>2015-11-08T11:16:24.000Z</time>
      </trkpt>
      <trkpt lat="46.18129" lon="3.15981">
        <ele>400.41180419922</ele>
        <time>2015-11-08T11:16:24.000Z</time>
      </trkpt>
      <trkpt lat="46.18135" lon="3.15972">
        <ele>400.96917724609</ele>
        <time>2015-11-08T11:16:36.000Z</time>
      </trkpt>
      <trkpt lat="46.18137" lon="3.1597">
        <ele>401.54995727539</ele>
        <time>2015-11-08T11:16:38.000Z</time>
      </trkpt>
      <trkpt lat="46.18139" lon="3.15968">
        <ele>402.03912353516</ele>
        <time>2015-11-08T11:16:40.000Z</time>
      </trkpt>
      <trkpt lat="46.18144" lon="3.15961">
        <ele>402.6491394043</ele>
        <time>2015-11-08T11:16:48.000Z</time>
      </trkpt>
      <trkpt lat="46.18149" lon="3.15954">
        <ele>403.35641479492</ele>
        <time>2015-11-08T11:16:55.000Z</time>
      </trkpt>
      <trkpt lat="46.18156" lon="3.15951">
        <ele>404.02392578125</ele>
        <time>2015-11-08T11:17:03.000Z</time>
      </trkpt>
      <trkpt lat="46.18162" lon="3.15942">
        <ele>404.84844970703</ele>
        <time>2015-11-08T11:17:11.000Z</time>
      </trkpt>
      <trkpt lat="46.18167" lon="3.15941">
        <ele>405.71572875977</ele>
        <time>2015-11-08T11:17:18.000Z</time>
      </trkpt>
      <trkpt lat="46.18173" lon="3.15936">
        <ele>406.43612670898</ele>
        <time>2015-11-08T11:17:27.000Z</time>
      </trkpt>
      <trkpt lat="46.18178" lon="3.1593">
        <ele>407.02890014648</ele>
        <time>2015-11-08T11:17:31.000Z</time>
      </trkpt>
      <trkpt lat="46.18186" lon="3.15922">
        <ele>407.46206665039</ele>
        <time>2015-11-08T11:17:38.000Z</time>
      </trkpt>
      <trkpt lat="46.18195" lon="3.1591">
        <ele>407.72930908203</ele>
        <time>2015-11-08T11:17:46.000Z</time>
      </trkpt>
      <trkpt lat="46.182" lon="3.15905">
        <ele>407.873046875</ele>
        <time>2015-11-08T11:17:54.000Z</time>
      </trkpt>
      <trkpt lat="46.18202" lon="3.15902">
        <ele>407.99594116211</ele>
        <time>2015-11-08T11:17:56.000Z</time>
      </trkpt>
      <trkpt lat="46.18203" lon="3.15903">
        <ele>408.09014892578</ele>
        <time>2015-11-08T11:17:58.000Z</time>
      </trkpt>
      <trkpt lat="46.18209" lon="3.159">
        <ele>408.15167236328</ele>
        <time>2015-11-08T11:18:06.000Z</time>
      </trkpt>
      <trkpt lat="46.18216" lon="3.15893">
        <ele>408.19213867188</ele>
        <time>2015-11-08T11:18:14.000Z</time>
      </trkpt>
      <trkpt lat="46.1822" lon="3.15891">
        <ele>408.22647094727</ele>
        <time>2015-11-08T11:18:17.000Z</time>
      </trkpt>
      <trkpt lat="46.18228" lon="3.15877">
        <ele>408.28884887695</ele>
        <time>2015-11-08T11:18:26.000Z</time>
      </trkpt>
      <trkpt lat="46.18228" lon="3.15858">
        <ele>408.39752197266</ele>
        <time>2015-11-08T11:18:36.000Z</time>
      </trkpt>
      <trkpt lat="46.18227" lon="3.15853">
        <ele>408.51019287109</ele>
        <time>2015-11-08T11:18:37.000Z</time>
      </trkpt>
      <trkpt lat="46.18225" lon="3.15849">
        <ele>408.61474609375</ele>
        <time>2015-11-08T11:18:46.000Z</time>
      </trkpt>
      <trkpt lat="46.1822" lon="3.15841">
        <ele>408.73309326172</ele>
        <time>2015-11-08T11:18:47.000Z</time>
      </trkpt>
      <trkpt lat="46.1822" lon="3.15841">
        <ele>408.73309326172</ele>
        <time>2015-11-08T11:19:14.000Z</time>
      </trkpt>
      <trkpt lat="46.18196" lon="3.15822">
        <ele>408.85345458984</ele>
        <time>2015-11-08T11:19:14.000Z</time>
      </trkpt>
      <trkpt lat="46.18195" lon="3.15823">
        <ele>408.92877197266</ele>
        <time>2015-11-08T11:19:24.000Z</time>
      </trkpt>
      <trkpt lat="46.18192" lon="3.15821">
        <ele>408.99743652344</ele>
        <time>2015-11-08T11:19:33.000Z</time>
      </trkpt>
      <trkpt lat="46.18192" lon="3.15819">
        <ele>409.05999755859</ele>
        <time>2015-11-08T11:19:41.000Z</time>
      </trkpt>
      <trkpt lat="46.18191" lon="3.15819">
        <ele>409.10336303711</ele>
        <time>2015-11-08T11:19:43.000Z</time>
      </trkpt>
      <trkpt lat="46.18191" lon="3.15817">
        <ele>409.11358642578</ele>
        <time>2015-11-08T11:19:58.000Z</time>
      </trkpt>
      <trkpt lat="46.18192" lon="3.15817">
        <ele>409.12384033203</ele>
        <time>2015-11-08T11:20:58.000Z</time>
      </trkpt>
      <trkpt lat="46.18193" lon="3.15818">
        <ele>409.12728881836</ele>
        <time>2015-11-08T11:20:59.000Z</time>
      </trkpt>
      <trkpt lat="46.18193" lon="3.1582">
        <ele>409.11004638672</ele>
        <time>2015-11-08T11:22:36.000Z</time>
      </trkpt>
      <trkpt lat="46.18193" lon="3.15819">
        <ele>409.11413574219</ele>
        <time>2015-11-08T11:22:39.000Z</time>
      </trkpt>
      <trkpt lat="46.18194" lon="3.1582">
        <ele>409.11178588867</ele>
        <time>2015-11-08T11:22:52.000Z</time>
      </trkpt>
      <trkpt lat="46.18194" lon="3.15823">
        <ele>409.10510253906</ele>
        <time>2015-11-08T11:22:53.000Z</time>
      </trkpt>
      <trkpt lat="46.18195" lon="3.15824">
        <ele>409.09893798828</ele>
        <time>2015-11-08T11:22:54.000Z</time>
      </trkpt>
      <trkpt lat="46.18195" lon="3.15826">
        <ele>409.08917236328</ele>
        <time>2015-11-08T11:22:54.000Z</time>
      </trkpt>
      <trkpt lat="46.18194" lon="3.15826">
        <ele>409.07809448242</ele>
        <time>2015-11-08T11:23:14.000Z</time>
      </trkpt>
      <trkpt lat="46.18193" lon="3.15826">
        <ele>409.06866455078</ele>
        <time>2015-11-08T11:23:29.000Z</time>
      </trkpt>
      <trkpt lat="46.18192" lon="3.15825">
        <ele>409.06503295898</ele>
        <time>2015-11-08T11:23:32.000Z</time>
      </trkpt>
      <trkpt lat="46.18192" lon="3.15825">
        <ele>409.06503295898</ele>
        <time>2015-11-08T11:23:42.000Z</time>
      </trkpt>
    </trkseg>
  </trk>
</gpx>